<?xml version='1.0' encoding='UTF-8'?><gpx version="1.1" creator="JPX - https://github.com/jenetics/jpx" xmlns="http://www.topografix.com/GPX/1/1"><trk><trkseg><trkpt lat="37.6830132" lon="13.836902"><ele>460.00000000000006</ele><time>2026-04-03T14:22:26.314Z</time></trkpt><trkpt lat="37.6829751" lon="13.8370229"><ele>460.0</ele><time>2026-04-03T14:22:28.315Z</time></trkpt><trkpt lat="37.682954" lon="13.8371004"><ele>460.0</ele><time>2026-04-03T14:22:29.314Z</time></trkpt><trkpt lat="37.6829314" lon="13.8371847"><ele>460.0</ele><time>2026-04-03T14:22:30.315Z</time></trkpt><trkpt lat="37.6829088" lon="13.8372762"><ele>460.00000000000006</ele><time>2026-04-03T14:22:31.315Z</time></trkpt><trkpt lat="37.68289" lon="13.8373715"><ele>460.0</ele><time>2026-04-03T14:22:32.315Z</time></trkpt><trkpt lat="37.6828737" lon="13.8374716"><ele>460.00000000000006</ele><time>2026-04-03T14:22:33.315Z</time></trkpt><trkpt lat="37.6828571" lon="13.8375755"><ele>460.0</ele><time>2026-04-03T14:22:34.314Z</time></trkpt><trkpt lat="37.6828393" lon="13.8376803"><ele>460.0</ele><time>2026-04-03T14:22:35.315Z</time></trkpt><trkpt lat="37.6828207" lon="13.8377874"><ele>460.0</ele><time>2026-04-03T14:22:36.314Z</time></trkpt><trkpt lat="37.6828031" lon="13.8379004"><ele>460.00000000000006</ele><time>2026-04-03T14:22:37.314Z</time></trkpt><trkpt lat="37.6827838" lon="13.8380061"><ele>460.0</ele><time>2026-04-03T14:22:38.314Z</time></trkpt><trkpt lat="37.6827642" lon="13.8381117"><ele>458.0</ele><time>2026-04-03T14:22:39.313Z</time></trkpt><trkpt lat="37.6827493" lon="13.8382249"><ele>456.0</ele><time>2026-04-03T14:22:40.315Z</time></trkpt><trkpt lat="37.6827392" lon="13.8383438"><ele>454.0</ele><time>2026-04-03T14:22:41.315Z</time></trkpt><trkpt lat="37.6827337" lon="13.8384674"><ele>452.0</ele><time>2026-04-03T14:22:42.315Z</time></trkpt><trkpt lat="37.682731" lon="13.8385945"><ele>450.0</ele><time>2026-04-03T14:22:43.315Z</time></trkpt><trkpt lat="37.6827286" lon="13.8387231"><ele>449.8</ele><time>2026-04-03T14:22:44.315Z</time></trkpt><trkpt lat="37.6827268" lon="13.8388536"><ele>449.6</ele><time>2026-04-03T14:22:45.315Z</time></trkpt><trkpt lat="37.6827271" lon="13.8389871"><ele>449.4</ele><time>2026-04-03T14:22:46.314Z</time></trkpt><trkpt lat="37.6827184" lon="13.8391239"><ele>449.2</ele><time>2026-04-03T14:22:47.314Z</time></trkpt><trkpt lat="37.6826905" lon="13.8392601"><ele>449.0</ele><time>2026-04-03T14:22:48.315Z</time></trkpt><trkpt lat="37.6826546" lon="13.8393952"><ele>448.0</ele><time>2026-04-03T14:22:49.314Z</time></trkpt><trkpt lat="37.6826178" lon="13.8395305"><ele>447.0</ele><time>2026-04-03T14:22:50.315Z</time></trkpt><trkpt lat="37.6825948" lon="13.8396686"><ele>446.0</ele><time>2026-04-03T14:22:51.315Z</time></trkpt><trkpt lat="37.6825952" lon="13.8398129"><ele>445.0</ele><time>2026-04-03T14:22:52.315Z</time></trkpt><trkpt lat="37.6826235" lon="13.8399538"><ele>445.0</ele><time>2026-04-03T14:22:53.314Z</time></trkpt><trkpt lat="37.6826721" lon="13.840087"><ele>445.0</ele><time>2026-04-03T14:22:54.315Z</time></trkpt><trkpt lat="37.6827294" lon="13.8402192"><ele>445.0</ele><time>2026-04-03T14:22:55.315Z</time></trkpt><trkpt lat="37.6827852" lon="13.840354"><ele>445.0</ele><time>2026-04-03T14:22:56.315Z</time></trkpt><trkpt lat="37.6828337" lon="13.8404922"><ele>446.2</ele><time>2026-04-03T14:22:57.315Z</time></trkpt><trkpt lat="37.682866" lon="13.8406315"><ele>447.4</ele><time>2026-04-03T14:22:58.315Z</time></trkpt><trkpt lat="37.6828781" lon="13.8407689"><ele>448.6</ele><time>2026-04-03T14:22:59.314Z</time></trkpt><trkpt lat="37.6828618" lon="13.8409041"><ele>449.8</ele><time>2026-04-03T14:23:00.315Z</time></trkpt><trkpt lat="37.6828211" lon="13.8410305"><ele>451.0</ele><time>2026-04-03T14:23:01.315Z</time></trkpt><trkpt lat="37.6827685" lon="13.8411475"><ele>450.0</ele><time>2026-04-03T14:23:02.314Z</time></trkpt><trkpt lat="37.6827194" lon="13.84127"><ele>449.0</ele><time>2026-04-03T14:23:03.314Z</time></trkpt><trkpt lat="37.6826829" lon="13.841402"><ele>448.0</ele><time>2026-04-03T14:23:04.315Z</time></trkpt><trkpt lat="37.682655" lon="13.8415411"><ele>447.0</ele><time>2026-04-03T14:23:05.314Z</time></trkpt><trkpt lat="37.6826294" lon="13.8416865"><ele>447.25</ele><time>2026-04-03T14:23:06.314Z</time></trkpt><trkpt lat="37.6826094" lon="13.8418389"><ele>447.5</ele><time>2026-04-03T14:23:07.314Z</time></trkpt><trkpt lat="37.6825914" lon="13.8419945"><ele>447.75</ele><time>2026-04-03T14:23:08.314Z</time></trkpt><trkpt lat="37.6825705" lon="13.8421538"><ele>448.0</ele><time>2026-04-03T14:23:09.315Z</time></trkpt><trkpt lat="37.6825494" lon="13.842315"><ele>448.0</ele><time>2026-04-03T14:23:10.314Z</time></trkpt><trkpt lat="37.6825289" lon="13.8424784"><ele>448.0</ele><time>2026-04-03T14:23:11.315Z</time></trkpt><trkpt lat="37.6825066" lon="13.8426429"><ele>448.0</ele><time>2026-04-03T14:23:12.315Z</time></trkpt><trkpt lat="37.6824779" lon="13.8428054"><ele>448.0</ele><time>2026-04-03T14:23:13.315Z</time></trkpt><trkpt lat="37.6824417" lon="13.8429647"><ele>447.5</ele><time>2026-04-03T14:23:14.314Z</time></trkpt><trkpt lat="37.6824047" lon="13.8431225"><ele>447.0</ele><time>2026-04-03T14:23:15.314Z</time></trkpt><trkpt lat="37.6823765" lon="13.8432797"><ele>446.5</ele><time>2026-04-03T14:23:16.315Z</time></trkpt><trkpt lat="37.6823628" lon="13.8434348"><ele>446.0</ele><time>2026-04-03T14:23:17.314Z</time></trkpt><trkpt lat="37.6823717" lon="13.8435885"><ele>445.4</ele><time>2026-04-03T14:23:18.313Z</time></trkpt><trkpt lat="37.6824018" lon="13.8437336"><ele>444.8</ele><time>2026-04-03T14:23:19.315Z</time></trkpt><trkpt lat="37.6824353" lon="13.8438663"><ele>444.19999999999993</ele><time>2026-04-03T14:23:20.315Z</time></trkpt><trkpt lat="37.6824488" lon="13.8439894"><ele>443.59999999999997</ele><time>2026-04-03T14:23:21.315Z</time></trkpt><trkpt lat="37.6824399" lon="13.844111"><ele>443.0</ele><time>2026-04-03T14:23:22.315Z</time></trkpt><trkpt lat="37.6824045" lon="13.8442185"><ele>443.66666666666663</ele><time>2026-04-03T14:23:23.315Z</time></trkpt><trkpt lat="37.6823477" lon="13.8443027"><ele>444.3333333333333</ele><time>2026-04-03T14:23:24.314Z</time></trkpt><trkpt lat="37.6822781" lon="13.8443544"><ele>445.0</ele><time>2026-04-03T14:23:25.315Z</time></trkpt><trkpt lat="37.6822019" lon="13.8443781"><ele>445.66666666666663</ele><time>2026-04-03T14:23:26.315Z</time></trkpt><trkpt lat="37.6821159" lon="13.8443945"><ele>446.3333333333333</ele><time>2026-04-03T14:23:27.315Z</time></trkpt><trkpt lat="37.6820243" lon="13.8444159"><ele>447.0</ele><time>2026-04-03T14:23:28.314Z</time></trkpt><trkpt lat="37.6819278" lon="13.8444492"><ele>447.0</ele><time>2026-04-03T14:23:29.315Z</time></trkpt><trkpt lat="37.6818274" lon="13.8444966"><ele>447.0</ele><time>2026-04-03T14:23:30.315Z</time></trkpt><trkpt lat="37.6817284" lon="13.8445553"><ele>447.0</ele><time>2026-04-03T14:23:31.314Z</time></trkpt><trkpt lat="37.6816245" lon="13.8446239"><ele>447.0</ele><time>2026-04-03T14:23:32.315Z</time></trkpt><trkpt lat="37.6815151" lon="13.8446962"><ele>447.0</ele><time>2026-04-03T14:23:33.315Z</time></trkpt><trkpt lat="37.6813992" lon="13.8447712"><ele>447.0</ele><time>2026-04-03T14:23:34.315Z</time></trkpt><trkpt lat="37.6812803" lon="13.8448512"><ele>447.0</ele><time>2026-04-03T14:23:35.315Z</time></trkpt><trkpt lat="37.6811607" lon="13.8449378"><ele>447.0</ele><time>2026-04-03T14:23:36.315Z</time></trkpt><trkpt lat="37.6810394" lon="13.8450224"><ele>447.25</ele><time>2026-04-03T14:23:37.313Z</time></trkpt><trkpt lat="37.6809158" lon="13.845094"><ele>447.5</ele><time>2026-04-03T14:23:38.313Z</time></trkpt><trkpt lat="37.6807867" lon="13.8451451"><ele>447.75</ele><time>2026-04-03T14:23:39.314Z</time></trkpt><trkpt lat="37.6806549" lon="13.8451762"><ele>448.0</ele><time>2026-04-03T14:23:40.315Z</time></trkpt><trkpt lat="37.6805252" lon="13.8451977"><ele>448.0</ele><time>2026-04-03T14:23:41.315Z</time></trkpt><trkpt lat="37.6803957" lon="13.8452088"><ele>448.0</ele><time>2026-04-03T14:23:42.315Z</time></trkpt><trkpt lat="37.6802681" lon="13.8451899"><ele>448.0</ele><time>2026-04-03T14:23:43.315Z</time></trkpt><trkpt lat="37.6801493" lon="13.8451497"><ele>448.0</ele><time>2026-04-03T14:23:44.314Z</time></trkpt><trkpt lat="37.6800335" lon="13.8451193"><ele>448.25</ele><time>2026-04-03T14:23:45.314Z</time></trkpt><trkpt lat="37.6799152" lon="13.8451069"><ele>448.5</ele><time>2026-04-03T14:23:46.315Z</time></trkpt><trkpt lat="37.679793" lon="13.8451115"><ele>448.75</ele><time>2026-04-03T14:23:47.315Z</time></trkpt><trkpt lat="37.6796698" lon="13.8451396"><ele>449.0</ele><time>2026-04-03T14:23:48.315Z</time></trkpt><trkpt lat="37.6795462" lon="13.8451822"><ele>448.75</ele><time>2026-04-03T14:23:49.314Z</time></trkpt><trkpt lat="37.6794216" lon="13.8452293"><ele>448.5</ele><time>2026-04-03T14:23:50.314Z</time></trkpt><trkpt lat="37.6792945" lon="13.8452774"><ele>448.25</ele><time>2026-04-03T14:23:51.314Z</time></trkpt><trkpt lat="37.6791695" lon="13.845326"><ele>448.0</ele><time>2026-04-03T14:23:52.314Z</time></trkpt><trkpt lat="37.6790511" lon="13.8453738"><ele>448.0</ele><time>2026-04-03T14:23:53.315Z</time></trkpt><trkpt lat="37.6789407" lon="13.8454194"><ele>447.99999999999994</ele><time>2026-04-03T14:23:54.314Z</time></trkpt><trkpt lat="37.6788398" lon="13.8454619"><ele>447.99999999999994</ele><time>2026-04-03T14:23:55.315Z</time></trkpt><trkpt lat="37.6787501" lon="13.8455012"><ele>448.0</ele><time>2026-04-03T14:23:56.315Z</time></trkpt><trkpt lat="37.6786661" lon="13.8455402"><ele>448.0</ele><time>2026-04-03T14:23:57.315Z</time></trkpt><trkpt lat="37.6785832" lon="13.8455766"><ele>446.33333333333337</ele><time>2026-04-03T14:23:58.315Z</time></trkpt><trkpt lat="37.6785036" lon="13.8456096"><ele>444.6666666666667</ele><time>2026-04-03T14:23:59.314Z</time></trkpt><trkpt lat="37.6784236" lon="13.8456432"><ele>443.0</ele><time>2026-04-03T14:24:00.315Z</time></trkpt><trkpt lat="37.6783473" lon="13.8456735"><ele>441.33333333333337</ele><time>2026-04-03T14:24:01.314Z</time></trkpt><trkpt lat="37.6782742" lon="13.8457049"><ele>439.6666666666667</ele><time>2026-04-03T14:24:02.314Z</time></trkpt><trkpt lat="37.6782005" lon="13.8457324"><ele>438.0</ele><time>2026-04-03T14:24:03.314Z</time></trkpt><trkpt lat="37.6781235" lon="13.8457578"><ele>438.0</ele><time>2026-04-03T14:24:04.315Z</time></trkpt><trkpt lat="37.6780479" lon="13.845786"><ele>438.0</ele><time>2026-04-03T14:24:05.315Z</time></trkpt><trkpt lat="37.6779752" lon="13.8458149"><ele>438.0</ele><time>2026-04-03T14:24:06.315Z</time></trkpt><trkpt lat="37.6779043" lon="13.8458462"><ele>438.0</ele><time>2026-04-03T14:24:07.315Z</time></trkpt><trkpt lat="37.6778367" lon="13.8458855"><ele>438.0</ele><time>2026-04-03T14:24:08.314Z</time></trkpt><trkpt lat="37.6777754" lon="13.8459452"><ele>438.0</ele><time>2026-04-03T14:24:09.314Z</time></trkpt><trkpt lat="37.6777253" lon="13.8460248"><ele>437.0</ele><time>2026-04-03T14:24:10.313Z</time></trkpt><trkpt lat="37.6776927" lon="13.8461216"><ele>436.0</ele><time>2026-04-03T14:24:11.315Z</time></trkpt><trkpt lat="37.6776744" lon="13.8462291"><ele>435.0</ele><time>2026-04-03T14:24:12.315Z</time></trkpt><trkpt lat="37.6776666" lon="13.8463447"><ele>434.0</ele><time>2026-04-03T14:24:13.315Z</time></trkpt><trkpt lat="37.6776642" lon="13.846464"><ele>433.0</ele><time>2026-04-03T14:24:14.315Z</time></trkpt><trkpt lat="37.6776564" lon="13.846581"><ele>432.0</ele><time>2026-04-03T14:24:15.315Z</time></trkpt><trkpt lat="37.6776404" lon="13.8466917"><ele>432.0</ele><time>2026-04-03T14:24:16.314Z</time></trkpt><trkpt lat="37.6776136" lon="13.8467922"><ele>432.0</ele><time>2026-04-03T14:24:17.314Z</time></trkpt><trkpt lat="37.6775694" lon="13.8468801"><ele>432.0</ele><time>2026-04-03T14:24:18.314Z</time></trkpt><trkpt lat="37.6775067" lon="13.8469436"><ele>432.0</ele><time>2026-04-03T14:24:19.315Z</time></trkpt><trkpt lat="37.6774322" lon="13.8469789"><ele>432.0</ele><time>2026-04-03T14:24:20.315Z</time></trkpt><trkpt lat="37.6773523" lon="13.8469942"><ele>432.0</ele><time>2026-04-03T14:24:21.315Z</time></trkpt><trkpt lat="37.6772693" lon="13.847002"><ele>433.1666666666667</ele><time>2026-04-03T14:24:22.315Z</time></trkpt><trkpt lat="37.6771838" lon="13.8470112"><ele>434.33333333333337</ele><time>2026-04-03T14:24:23.314Z</time></trkpt><trkpt lat="37.6770979" lon="13.8470249"><ele>435.5</ele><time>2026-04-03T14:24:24.314Z</time></trkpt><trkpt lat="37.6770101" lon="13.847041"><ele>436.6666666666667</ele><time>2026-04-03T14:24:25.315Z</time></trkpt><trkpt lat="37.6769207" lon="13.8470695"><ele>437.83333333333337</ele><time>2026-04-03T14:24:26.315Z</time></trkpt><trkpt lat="37.6768299" lon="13.847109"><ele>439.0</ele><time>2026-04-03T14:24:27.315Z</time></trkpt><trkpt lat="37.6767389" lon="13.8471606"><ele>439.0</ele><time>2026-04-03T14:24:28.313Z</time></trkpt><trkpt lat="37.6766496" lon="13.8472269"><ele>439.0</ele><time>2026-04-03T14:24:29.313Z</time></trkpt><trkpt lat="37.6765641" lon="13.8473033"><ele>439.0</ele><time>2026-04-03T14:24:30.314Z</time></trkpt><trkpt lat="37.6764801" lon="13.8473847"><ele>439.0</ele><time>2026-04-03T14:24:31.314Z</time></trkpt><trkpt lat="37.6763938" lon="13.8474716"><ele>439.0</ele><time>2026-04-03T14:24:32.315Z</time></trkpt><trkpt lat="37.6763046" lon="13.8475603"><ele>437.25</ele><time>2026-04-03T14:24:33.315Z</time></trkpt><trkpt lat="37.6762112" lon="13.8476496"><ele>435.5</ele><time>2026-04-03T14:24:34.315Z</time></trkpt><trkpt lat="37.6761203" lon="13.8477472"><ele>433.75</ele><time>2026-04-03T14:24:35.314Z</time></trkpt><trkpt lat="37.6760414" lon="13.8478616"><ele>432.0</ele><time>2026-04-03T14:24:36.314Z</time></trkpt><trkpt lat="37.675981" lon="13.8479977"><ele>432.0</ele><time>2026-04-03T14:24:37.315Z</time></trkpt><trkpt lat="37.6759346" lon="13.848146"><ele>432.0</ele><time>2026-04-03T14:24:38.315Z</time></trkpt><trkpt lat="37.6758887" lon="13.8482952"><ele>432.0</ele><time>2026-04-03T14:24:39.315Z</time></trkpt><trkpt lat="37.6758366" lon="13.8484415"><ele>432.0</ele><time>2026-04-03T14:24:40.314Z</time></trkpt><trkpt lat="37.6757889" lon="13.8485908"><ele>432.5</ele><time>2026-04-03T14:24:41.315Z</time></trkpt><trkpt lat="37.6757597" lon="13.8487478"><ele>433.0</ele><time>2026-04-03T14:24:42.315Z</time></trkpt><trkpt lat="37.6757435" lon="13.8489125"><ele>433.5</ele><time>2026-04-03T14:24:43.315Z</time></trkpt><trkpt lat="37.6757345" lon="13.8490835"><ele>434.0</ele><time>2026-04-03T14:24:44.314Z</time></trkpt><trkpt lat="37.6757291" lon="13.8492577"><ele>433.25</ele><time>2026-04-03T14:24:45.314Z</time></trkpt><trkpt lat="37.6757238" lon="13.8494382"><ele>432.5</ele><time>2026-04-03T14:24:46.315Z</time></trkpt><trkpt lat="37.675721" lon="13.8496168"><ele>431.75</ele><time>2026-04-03T14:24:47.314Z</time></trkpt><trkpt lat="37.6757219" lon="13.8497938"><ele>431.0</ele><time>2026-04-03T14:24:48.315Z</time></trkpt><trkpt lat="37.6757285" lon="13.8499686"><ele>430.0</ele><time>2026-04-03T14:24:49.315Z</time></trkpt><trkpt lat="37.675735" lon="13.8501418"><ele>429.0</ele><time>2026-04-03T14:24:50.314Z</time></trkpt><trkpt lat="37.6757432" lon="13.8503109"><ele>428.0</ele><time>2026-04-03T14:24:51.315Z</time></trkpt><trkpt lat="37.6757646" lon="13.850478"><ele>427.0</ele><time>2026-04-03T14:24:52.315Z</time></trkpt><trkpt lat="37.6758054" lon="13.8506381"><ele>427.0</ele><time>2026-04-03T14:24:53.314Z</time></trkpt><trkpt lat="37.6758536" lon="13.8507916"><ele>427.0</ele><time>2026-04-03T14:24:54.314Z</time></trkpt><trkpt lat="37.6758836" lon="13.8509456"><ele>427.0</ele><time>2026-04-03T14:24:55.315Z</time></trkpt><trkpt lat="37.6758897" lon="13.8510977"><ele>427.0</ele><time>2026-04-03T14:24:56.315Z</time></trkpt><trkpt lat="37.6758676" lon="13.8512444"><ele>426.75</ele><time>2026-04-03T14:24:57.315Z</time></trkpt><trkpt lat="37.6758296" lon="13.8513836"><ele>426.5</ele><time>2026-04-03T14:24:58.315Z</time></trkpt><trkpt lat="37.6757797" lon="13.8515221"><ele>426.25</ele><time>2026-04-03T14:24:59.315Z</time></trkpt><trkpt lat="37.6757429" lon="13.8516707"><ele>426.0</ele><time>2026-04-03T14:25:00.315Z</time></trkpt><trkpt lat="37.6757228" lon="13.8518248"><ele>426.0</ele><time>2026-04-03T14:25:01.315Z</time></trkpt><trkpt lat="37.6757167" lon="13.8519817"><ele>426.0</ele><time>2026-04-03T14:25:02.314Z</time></trkpt><trkpt lat="37.6757238" lon="13.8521419"><ele>426.0</ele><time>2026-04-03T14:25:03.315Z</time></trkpt><trkpt lat="37.6757491" lon="13.8523042"><ele>426.0</ele><time>2026-04-03T14:25:04.315Z</time></trkpt><trkpt lat="37.675779" lon="13.8524681"><ele>426.0</ele><time>2026-04-03T14:25:05.314Z</time></trkpt><trkpt lat="37.6758006" lon="13.8526361"><ele>426.0</ele><time>2026-04-03T14:25:06.315Z</time></trkpt><trkpt lat="37.675805" lon="13.8528071"><ele>426.0</ele><time>2026-04-03T14:25:07.315Z</time></trkpt><trkpt lat="37.6757917" lon="13.8529758"><ele>426.0</ele><time>2026-04-03T14:25:08.315Z</time></trkpt><trkpt lat="37.6757646" lon="13.8531425"><ele>426.0</ele><time>2026-04-03T14:25:09.314Z</time></trkpt><trkpt lat="37.6757347" lon="13.8533082"><ele>426.0</ele><time>2026-04-03T14:25:10.315Z</time></trkpt><trkpt lat="37.6757062" lon="13.8534746"><ele>426.0</ele><time>2026-04-03T14:25:11.315Z</time></trkpt><trkpt lat="37.6756781" lon="13.853642"><ele>426.0</ele><time>2026-04-03T14:25:12.314Z</time></trkpt><trkpt lat="37.675649" lon="13.8538108"><ele>426.0</ele><time>2026-04-03T14:25:13.315Z</time></trkpt><trkpt lat="37.6756213" lon="13.8539804"><ele>426.0</ele><time>2026-04-03T14:25:14.315Z</time></trkpt><trkpt lat="37.6755968" lon="13.8541499"><ele>426.0</ele><time>2026-04-03T14:25:15.315Z</time></trkpt><trkpt lat="37.6755763" lon="13.8543214"><ele>426.0</ele><time>2026-04-03T14:25:16.314Z</time></trkpt><trkpt lat="37.6755599" lon="13.8544912"><ele>424.75</ele><time>2026-04-03T14:25:17.315Z</time></trkpt><trkpt lat="37.6755567" lon="13.8546586"><ele>423.5</ele><time>2026-04-03T14:25:18.315Z</time></trkpt><trkpt lat="37.6755735" lon="13.8548218"><ele>422.25</ele><time>2026-04-03T14:25:19.314Z</time></trkpt><trkpt lat="37.6756146" lon="13.8549781"><ele>421.0</ele><time>2026-04-03T14:25:20.314Z</time></trkpt><trkpt lat="37.6756731" lon="13.8551294"><ele>419.25</ele><time>2026-04-03T14:25:21.315Z</time></trkpt><trkpt lat="37.6757402" lon="13.8552762"><ele>417.5</ele><time>2026-04-03T14:25:22.314Z</time></trkpt><trkpt lat="37.6758031" lon="13.8554218"><ele>415.75</ele><time>2026-04-03T14:25:23.315Z</time></trkpt><trkpt lat="37.6758469" lon="13.8555773"><ele>414.0</ele><time>2026-04-03T14:25:24.314Z</time></trkpt><trkpt lat="37.6758641" lon="13.8557389"><ele>414.0</ele><time>2026-04-03T14:25:25.315Z</time></trkpt><trkpt lat="37.6758565" lon="13.855901"><ele>414.0</ele><time>2026-04-03T14:25:26.314Z</time></trkpt><trkpt lat="37.6758294" lon="13.8560601"><ele>414.0</ele><time>2026-04-03T14:25:27.315Z</time></trkpt><trkpt lat="37.6757817" lon="13.8562131"><ele>414.0</ele><time>2026-04-03T14:25:28.313Z</time></trkpt><trkpt lat="37.6757248" lon="13.8563644"><ele>414.75</ele><time>2026-04-03T14:25:29.315Z</time></trkpt><trkpt lat="37.675667" lon="13.856518"><ele>415.5</ele><time>2026-04-03T14:25:30.313Z</time></trkpt><trkpt lat="37.6756099" lon="13.8566755"><ele>416.25</ele><time>2026-04-03T14:25:31.315Z</time></trkpt><trkpt lat="37.6755497" lon="13.8568338"><ele>417.0</ele><time>2026-04-03T14:25:32.314Z</time></trkpt><trkpt lat="37.6754883" lon="13.8569928"><ele>415.75</ele><time>2026-04-03T14:25:33.315Z</time></trkpt><trkpt lat="37.6754288" lon="13.857152"><ele>414.5</ele><time>2026-04-03T14:25:34.315Z</time></trkpt><trkpt lat="37.6753674" lon="13.8573079"><ele>413.25</ele><time>2026-04-03T14:25:35.315Z</time></trkpt><trkpt lat="37.6753068" lon="13.8574622"><ele>412.0</ele><time>2026-04-03T14:25:36.314Z</time></trkpt><trkpt lat="37.6752476" lon="13.8576149"><ele>412.75</ele><time>2026-04-03T14:25:37.315Z</time></trkpt><trkpt lat="37.6751892" lon="13.8577668"><ele>413.5</ele><time>2026-04-03T14:25:38.315Z</time></trkpt><trkpt lat="37.6751286" lon="13.8579172"><ele>414.25</ele><time>2026-04-03T14:25:39.314Z</time></trkpt><trkpt lat="37.6750663" lon="13.8580668"><ele>415.0</ele><time>2026-04-03T14:25:40.315Z</time></trkpt><trkpt lat="37.6750053" lon="13.8582187"><ele>415.0</ele><time>2026-04-03T14:25:41.314Z</time></trkpt><trkpt lat="37.6749471" lon="13.8583737"><ele>415.0</ele><time>2026-04-03T14:25:42.314Z</time></trkpt><trkpt lat="37.6748939" lon="13.8585325"><ele>415.0</ele><time>2026-04-03T14:25:43.315Z</time></trkpt><trkpt lat="37.6748424" lon="13.8586916"><ele>415.0</ele><time>2026-04-03T14:25:44.314Z</time></trkpt><trkpt lat="37.6747906" lon="13.8588512"><ele>416.0</ele><time>2026-04-03T14:25:45.314Z</time></trkpt><trkpt lat="37.6747385" lon="13.8590108"><ele>417.0</ele><time>2026-04-03T14:25:46.314Z</time></trkpt><trkpt lat="37.6746878" lon="13.8591723"><ele>418.0</ele><time>2026-04-03T14:25:47.315Z</time></trkpt><trkpt lat="37.6746392" lon="13.859336"><ele>419.0</ele><time>2026-04-03T14:25:48.314Z</time></trkpt><trkpt lat="37.6745976" lon="13.8595023"><ele>419.25</ele><time>2026-04-03T14:25:49.315Z</time></trkpt><trkpt lat="37.6745635" lon="13.8596713"><ele>419.5</ele><time>2026-04-03T14:25:50.314Z</time></trkpt><trkpt lat="37.6745316" lon="13.8598401"><ele>419.75</ele><time>2026-04-03T14:25:51.314Z</time></trkpt><trkpt lat="37.6745017" lon="13.8600104"><ele>420.0</ele><time>2026-04-03T14:25:52.315Z</time></trkpt><trkpt lat="37.6744758" lon="13.8601807"><ele>420.25</ele><time>2026-04-03T14:25:53.314Z</time></trkpt><trkpt lat="37.6744493" lon="13.8603509"><ele>420.5</ele><time>2026-04-03T14:25:54.315Z</time></trkpt><trkpt lat="37.6744234" lon="13.8605204"><ele>420.75</ele><time>2026-04-03T14:25:55.315Z</time></trkpt><trkpt lat="37.6744007" lon="13.8606897"><ele>421.0</ele><time>2026-04-03T14:25:56.315Z</time></trkpt><trkpt lat="37.6743819" lon="13.8608594"><ele>417.5</ele><time>2026-04-03T14:25:57.313Z</time></trkpt><trkpt lat="37.6743693" lon="13.8610297"><ele>414.0</ele><time>2026-04-03T14:25:58.315Z</time></trkpt><trkpt lat="37.6743663" lon="13.8612014"><ele>410.5</ele><time>2026-04-03T14:25:59.314Z</time></trkpt><trkpt lat="37.6743743" lon="13.8613743"><ele>407.0</ele><time>2026-04-03T14:26:00.315Z</time></trkpt><trkpt lat="37.674386" lon="13.8615472"><ele>407.0</ele><time>2026-04-03T14:26:01.315Z</time></trkpt><trkpt lat="37.6743972" lon="13.86172"><ele>407.0</ele><time>2026-04-03T14:26:02.314Z</time></trkpt><trkpt lat="37.6744102" lon="13.8618935"><ele>407.0</ele><time>2026-04-03T14:26:03.313Z</time></trkpt><trkpt lat="37.6744251" lon="13.8620675"><ele>407.0</ele><time>2026-04-03T14:26:04.314Z</time></trkpt><trkpt lat="37.674441" lon="13.8622424"><ele>408.5</ele><time>2026-04-03T14:26:05.315Z</time></trkpt><trkpt lat="37.6744594" lon="13.8624155"><ele>410.0</ele><time>2026-04-03T14:26:06.315Z</time></trkpt><trkpt lat="37.6744836" lon="13.862587"><ele>411.5</ele><time>2026-04-03T14:26:07.314Z</time></trkpt><trkpt lat="37.6745102" lon="13.862757"><ele>413.0</ele><time>2026-04-03T14:26:08.315Z</time></trkpt><trkpt lat="37.6745365" lon="13.8629272"><ele>413.0</ele><time>2026-04-03T14:26:09.315Z</time></trkpt><trkpt lat="37.6745592" lon="13.8630973"><ele>413.0</ele><time>2026-04-03T14:26:10.314Z</time></trkpt><trkpt lat="37.6745783" lon="13.8632668"><ele>413.0</ele><time>2026-04-03T14:26:11.313Z</time></trkpt><trkpt lat="37.6745924" lon="13.863437"><ele>413.0</ele><time>2026-04-03T14:26:12.314Z</time></trkpt><trkpt lat="37.6745998" lon="13.8636076"><ele>412.0</ele><time>2026-04-03T14:26:13.315Z</time></trkpt><trkpt lat="37.6746018" lon="13.8637774"><ele>411.0</ele><time>2026-04-03T14:26:14.315Z</time></trkpt><trkpt lat="37.6745994" lon="13.8639472"><ele>410.0</ele><time>2026-04-03T14:26:15.315Z</time></trkpt><trkpt lat="37.6745969" lon="13.8641174"><ele>409.0</ele><time>2026-04-03T14:26:16.315Z</time></trkpt><trkpt lat="37.6745948" lon="13.864289"><ele>408.25</ele><time>2026-04-03T14:26:17.315Z</time></trkpt><trkpt lat="37.6745983" lon="13.864461"><ele>407.5</ele><time>2026-04-03T14:26:18.315Z</time></trkpt><trkpt lat="37.674615" lon="13.8646334"><ele>406.75</ele><time>2026-04-03T14:26:19.314Z</time></trkpt><trkpt lat="37.6746385" lon="13.8648074"><ele>406.0</ele><time>2026-04-03T14:26:20.315Z</time></trkpt><trkpt lat="37.6746632" lon="13.8649812"><ele>406.5</ele><time>2026-04-03T14:26:21.315Z</time></trkpt><trkpt lat="37.6746803" lon="13.8651572"><ele>407.0</ele><time>2026-04-03T14:26:22.315Z</time></trkpt><trkpt lat="37.6746801" lon="13.8653329"><ele>407.5</ele><time>2026-04-03T14:26:23.314Z</time></trkpt><trkpt lat="37.6746621" lon="13.8655048"><ele>408.0</ele><time>2026-04-03T14:26:24.315Z</time></trkpt><trkpt lat="37.6746404" lon="13.8656736"><ele>408.0</ele><time>2026-04-03T14:26:25.315Z</time></trkpt><trkpt lat="37.6746193" lon="13.8658419"><ele>408.0</ele><time>2026-04-03T14:26:26.315Z</time></trkpt><trkpt lat="37.6746061" lon="13.8660125"><ele>408.0</ele><time>2026-04-03T14:26:27.314Z</time></trkpt><trkpt lat="37.6746015" lon="13.8661849"><ele>408.0</ele><time>2026-04-03T14:26:28.315Z</time></trkpt><trkpt lat="37.6746043" lon="13.8663589"><ele>408.0</ele><time>2026-04-03T14:26:29.314Z</time></trkpt><trkpt lat="37.6746114" lon="13.8665335"><ele>408.0</ele><time>2026-04-03T14:26:30.315Z</time></trkpt><trkpt lat="37.6746184" lon="13.8667089"><ele>408.0</ele><time>2026-04-03T14:26:31.315Z</time></trkpt><trkpt lat="37.6746227" lon="13.8668829"><ele>408.0</ele><time>2026-04-03T14:26:32.315Z</time></trkpt><trkpt lat="37.6746267" lon="13.8670554"><ele>408.0</ele><time>2026-04-03T14:26:33.314Z</time></trkpt><trkpt lat="37.6746309" lon="13.8672281"><ele>408.0</ele><time>2026-04-03T14:26:34.315Z</time></trkpt><trkpt lat="37.6746359" lon="13.8674006"><ele>408.0</ele><time>2026-04-03T14:26:35.314Z</time></trkpt><trkpt lat="37.6746404" lon="13.8675733"><ele>408.0</ele><time>2026-04-03T14:26:36.313Z</time></trkpt><trkpt lat="37.6746444" lon="13.8677485"><ele>408.0</ele><time>2026-04-03T14:26:37.315Z</time></trkpt><trkpt lat="37.6746486" lon="13.8679246"><ele>408.0</ele><time>2026-04-03T14:26:38.315Z</time></trkpt><trkpt lat="37.6746503" lon="13.8681004"><ele>408.0</ele><time>2026-04-03T14:26:39.315Z</time></trkpt><trkpt lat="37.674646" lon="13.8682751"><ele>408.0</ele><time>2026-04-03T14:26:40.315Z</time></trkpt><trkpt lat="37.6746294" lon="13.868446"><ele>408.75</ele><time>2026-04-03T14:26:41.314Z</time></trkpt><trkpt lat="37.6745979" lon="13.8686115"><ele>409.5</ele><time>2026-04-03T14:26:42.314Z</time></trkpt><trkpt lat="37.6745562" lon="13.8687721"><ele>410.25</ele><time>2026-04-03T14:26:43.315Z</time></trkpt><trkpt lat="37.6745059" lon="13.8689276"><ele>411.0</ele><time>2026-04-03T14:26:44.315Z</time></trkpt><trkpt lat="37.6744468" lon="13.8690784"><ele>408.75</ele><time>2026-04-03T14:26:45.315Z</time></trkpt><trkpt lat="37.6743822" lon="13.8692258"><ele>406.5</ele><time>2026-04-03T14:26:46.315Z</time></trkpt><trkpt lat="37.6743152" lon="13.869371"><ele>404.25</ele><time>2026-04-03T14:26:47.315Z</time></trkpt><trkpt lat="37.6742445" lon="13.8695126"><ele>402.0</ele><time>2026-04-03T14:26:48.315Z</time></trkpt><trkpt lat="37.6741754" lon="13.8696569"><ele>402.0</ele><time>2026-04-03T14:26:49.315Z</time></trkpt><trkpt lat="37.6741128" lon="13.8698061"><ele>402.0</ele><time>2026-04-03T14:26:50.314Z</time></trkpt><trkpt lat="37.674057" lon="13.8699607"><ele>402.0</ele><time>2026-04-03T14:26:51.315Z</time></trkpt><trkpt lat="37.6740084" lon="13.8701196"><ele>402.0</ele><time>2026-04-03T14:26:52.315Z</time></trkpt><trkpt lat="37.6739686" lon="13.8702823"><ele>401.75</ele><time>2026-04-03T14:26:53.315Z</time></trkpt><trkpt lat="37.6739409" lon="13.8704499"><ele>401.5</ele><time>2026-04-03T14:26:54.314Z</time></trkpt><trkpt lat="37.6739251" lon="13.8706206"><ele>401.25</ele><time>2026-04-03T14:26:55.315Z</time></trkpt><trkpt lat="37.673922" lon="13.8707919"><ele>401.0</ele><time>2026-04-03T14:26:56.314Z</time></trkpt><trkpt lat="37.6739268" lon="13.8709629"><ele>400.25</ele><time>2026-04-03T14:26:57.315Z</time></trkpt><trkpt lat="37.6739362" lon="13.8711321"><ele>399.5</ele><time>2026-04-03T14:26:58.314Z</time></trkpt><trkpt lat="37.6739421" lon="13.8712999"><ele>398.75</ele><time>2026-04-03T14:26:59.314Z</time></trkpt><trkpt lat="37.6739443" lon="13.8714611"><ele>398.0</ele><time>2026-04-03T14:27:00.315Z</time></trkpt><trkpt lat="37.6739412" lon="13.8716136"><ele>398.0</ele><time>2026-04-03T14:27:01.315Z</time></trkpt><trkpt lat="37.673926" lon="13.871758"><ele>398.0</ele><time>2026-04-03T14:27:02.314Z</time></trkpt><trkpt lat="37.6738853" lon="13.8718903"><ele>398.0</ele><time>2026-04-03T14:27:03.314Z</time></trkpt><trkpt lat="37.6738188" lon="13.8720124"><ele>398.0</ele><time>2026-04-03T14:27:04.315Z</time></trkpt><trkpt lat="37.6737454" lon="13.8721278"><ele>397.25</ele><time>2026-04-03T14:27:05.315Z</time></trkpt><trkpt lat="37.6736656" lon="13.8722389"><ele>396.5</ele><time>2026-04-03T14:27:06.315Z</time></trkpt><trkpt lat="37.6735834" lon="13.8723495"><ele>395.75</ele><time>2026-04-03T14:27:07.313Z</time></trkpt><trkpt lat="37.6735069" lon="13.8724712"><ele>395.0</ele><time>2026-04-03T14:27:08.314Z</time></trkpt><trkpt lat="37.6734386" lon="13.8726002"><ele>395.25</ele><time>2026-04-03T14:27:09.314Z</time></trkpt><trkpt lat="37.6733827" lon="13.8727385"><ele>395.5</ele><time>2026-04-03T14:27:10.315Z</time></trkpt><trkpt lat="37.6733353" lon="13.8728812"><ele>395.75</ele><time>2026-04-03T14:27:11.315Z</time></trkpt><trkpt lat="37.6732941" lon="13.8730298"><ele>396.0</ele><time>2026-04-03T14:27:12.314Z</time></trkpt><trkpt lat="37.6732557" lon="13.8731809"><ele>396.0</ele><time>2026-04-03T14:27:13.314Z</time></trkpt><trkpt lat="37.6732181" lon="13.8733332"><ele>396.0</ele><time>2026-04-03T14:27:14.314Z</time></trkpt><trkpt lat="37.6731786" lon="13.8734857"><ele>396.0</ele><time>2026-04-03T14:27:15.315Z</time></trkpt><trkpt lat="37.6731389" lon="13.8736351"><ele>396.0</ele><time>2026-04-03T14:27:16.313Z</time></trkpt><trkpt lat="37.6730994" lon="13.8737846"><ele>395.75</ele><time>2026-04-03T14:27:17.314Z</time></trkpt><trkpt lat="37.6730566" lon="13.8739316"><ele>395.5</ele><time>2026-04-03T14:27:18.314Z</time></trkpt><trkpt lat="37.6730094" lon="13.8740779"><ele>395.25</ele><time>2026-04-03T14:27:19.315Z</time></trkpt><trkpt lat="37.6729609" lon="13.8742255"><ele>395.0</ele><time>2026-04-03T14:27:20.313Z</time></trkpt><trkpt lat="37.6729133" lon="13.8743752"><ele>394.5</ele><time>2026-04-03T14:27:21.315Z</time></trkpt><trkpt lat="37.6728633" lon="13.8745258"><ele>394.0</ele><time>2026-04-03T14:27:22.315Z</time></trkpt><trkpt lat="37.6728119" lon="13.8746774"><ele>393.5</ele><time>2026-04-03T14:27:23.315Z</time></trkpt><trkpt lat="37.6727598" lon="13.8748307"><ele>393.0</ele><time>2026-04-03T14:27:24.313Z</time></trkpt><trkpt lat="37.6727068" lon="13.874988"><ele>393.5</ele><time>2026-04-03T14:27:25.314Z</time></trkpt><trkpt lat="37.6726561" lon="13.875148"><ele>394.0</ele><time>2026-04-03T14:27:26.315Z</time></trkpt><trkpt lat="37.6726064" lon="13.8753104"><ele>394.5</ele><time>2026-04-03T14:27:27.315Z</time></trkpt><trkpt lat="37.6725557" lon="13.8754736"><ele>395.0</ele><time>2026-04-03T14:27:28.314Z</time></trkpt><trkpt lat="37.672503" lon="13.8756362"><ele>395.0</ele><time>2026-04-03T14:27:29.314Z</time></trkpt><trkpt lat="37.6724532" lon="13.8757997"><ele>395.0</ele><time>2026-04-03T14:27:30.314Z</time></trkpt><trkpt lat="37.6724036" lon="13.8759638"><ele>395.0</ele><time>2026-04-03T14:27:31.314Z</time></trkpt><trkpt lat="37.6723546" lon="13.8761274"><ele>395.0</ele><time>2026-04-03T14:27:32.315Z</time></trkpt><trkpt lat="37.6723032" lon="13.8762916"><ele>394.25</ele><time>2026-04-03T14:27:33.315Z</time></trkpt><trkpt lat="37.6722516" lon="13.8764561"><ele>393.5</ele><time>2026-04-03T14:27:34.314Z</time></trkpt><trkpt lat="37.6722001" lon="13.8766211"><ele>392.75</ele><time>2026-04-03T14:27:35.315Z</time></trkpt><trkpt lat="37.672149" lon="13.8767857"><ele>392.0</ele><time>2026-04-03T14:27:36.315Z</time></trkpt><trkpt lat="37.6720997" lon="13.8769502"><ele>392.25</ele><time>2026-04-03T14:27:37.314Z</time></trkpt><trkpt lat="37.6720524" lon="13.8771148"><ele>392.5</ele><time>2026-04-03T14:27:38.314Z</time></trkpt><trkpt lat="37.672009" lon="13.8772804"><ele>392.75</ele><time>2026-04-03T14:27:39.315Z</time></trkpt><trkpt lat="37.6719666" lon="13.8774464"><ele>393.0</ele><time>2026-04-03T14:27:40.314Z</time></trkpt><trkpt lat="37.6719239" lon="13.8776126"><ele>393.0</ele><time>2026-04-03T14:27:41.315Z</time></trkpt><trkpt lat="37.671883" lon="13.8777804"><ele>393.0</ele><time>2026-04-03T14:27:42.315Z</time></trkpt><trkpt lat="37.6718436" lon="13.8779497"><ele>393.0</ele><time>2026-04-03T14:27:43.315Z</time></trkpt><trkpt lat="37.6718033" lon="13.8781185"><ele>393.0</ele><time>2026-04-03T14:27:44.315Z</time></trkpt><trkpt lat="37.6717629" lon="13.8782874"><ele>392.75</ele><time>2026-04-03T14:27:45.314Z</time></trkpt><trkpt lat="37.6717227" lon="13.8784549"><ele>392.5</ele><time>2026-04-03T14:27:46.315Z</time></trkpt><trkpt lat="37.6716831" lon="13.8786216"><ele>392.25</ele><time>2026-04-03T14:27:47.315Z</time></trkpt><trkpt lat="37.6716454" lon="13.8787883"><ele>392.0</ele><time>2026-04-03T14:27:48.315Z</time></trkpt><trkpt lat="37.671607" lon="13.8789541"><ele>392.0</ele><time>2026-04-03T14:27:49.315Z</time></trkpt><trkpt lat="37.6715696" lon="13.8791198"><ele>392.0</ele><time>2026-04-03T14:27:50.314Z</time></trkpt><trkpt lat="37.6715314" lon="13.8792845"><ele>392.0</ele><time>2026-04-03T14:27:51.315Z</time></trkpt><trkpt lat="37.6714936" lon="13.8794492"><ele>392.0</ele><time>2026-04-03T14:27:52.314Z</time></trkpt><trkpt lat="37.6714546" lon="13.8796144"><ele>391.25</ele><time>2026-04-03T14:27:53.314Z</time></trkpt><trkpt lat="37.6714174" lon="13.8797804"><ele>390.5</ele><time>2026-04-03T14:27:54.315Z</time></trkpt><trkpt lat="37.6713844" lon="13.8799483"><ele>389.75</ele><time>2026-04-03T14:27:55.315Z</time></trkpt><trkpt lat="37.6713544" lon="13.8801172"><ele>389.0</ele><time>2026-04-03T14:27:56.314Z</time></trkpt><trkpt lat="37.6713299" lon="13.880287"><ele>388.5</ele><time>2026-04-03T14:27:57.315Z</time></trkpt><trkpt lat="37.6713074" lon="13.8804554"><ele>388.0</ele><time>2026-04-03T14:27:58.315Z</time></trkpt><trkpt lat="37.6712829" lon="13.8806242"><ele>387.5</ele><time>2026-04-03T14:27:59.313Z</time></trkpt><trkpt lat="37.6712597" lon="13.8807925"><ele>387.0</ele><time>2026-04-03T14:28:00.314Z</time></trkpt><trkpt lat="37.671238" lon="13.8809611"><ele>386.5</ele><time>2026-04-03T14:28:01.315Z</time></trkpt><trkpt lat="37.6712164" lon="13.8811312"><ele>386.0</ele><time>2026-04-03T14:28:02.315Z</time></trkpt><trkpt lat="37.6711875" lon="13.8813004"><ele>385.5</ele><time>2026-04-03T14:28:03.315Z</time></trkpt><trkpt lat="37.6711504" lon="13.8814668"><ele>385.0</ele><time>2026-04-03T14:28:04.315Z</time></trkpt><trkpt lat="37.6711032" lon="13.8816274"><ele>385.75</ele><time>2026-04-03T14:28:05.315Z</time></trkpt><trkpt lat="37.6710381" lon="13.88178"><ele>386.5</ele><time>2026-04-03T14:28:06.314Z</time></trkpt><trkpt lat="37.6709563" lon="13.8819195"><ele>387.25</ele><time>2026-04-03T14:28:07.314Z</time></trkpt><trkpt lat="37.6708631" lon="13.8820483"><ele>388.0</ele><time>2026-04-03T14:28:08.315Z</time></trkpt><trkpt lat="37.6707634" lon="13.8821709"><ele>388.0</ele><time>2026-04-03T14:28:09.316Z</time></trkpt><trkpt lat="37.6706618" lon="13.882294"><ele>388.0</ele><time>2026-04-03T14:28:10.316Z</time></trkpt><trkpt lat="37.6705586" lon="13.8824212"><ele>388.0</ele><time>2026-04-03T14:28:11.316Z</time></trkpt><trkpt lat="37.6704559" lon="13.8825525"><ele>388.0</ele><time>2026-04-03T14:28:12.316Z</time></trkpt><trkpt lat="37.6703557" lon="13.8826921"><ele>388.33333333333337</ele><time>2026-04-03T14:28:13.316Z</time></trkpt><trkpt lat="37.6702616" lon="13.8828406"><ele>388.66666666666663</ele><time>2026-04-03T14:28:14.316Z</time></trkpt><trkpt lat="37.6701702" lon="13.8829961"><ele>389.0</ele><time>2026-04-03T14:28:15.316Z</time></trkpt><trkpt lat="37.6700763" lon="13.8831496"><ele>389.0</ele><time>2026-04-03T14:28:16.315Z</time></trkpt><trkpt lat="37.6699777" lon="13.8832944"><ele>389.0</ele><time>2026-04-03T14:28:17.315Z</time></trkpt><trkpt lat="37.6698694" lon="13.8834253"><ele>389.0</ele><time>2026-04-03T14:28:18.315Z</time></trkpt><trkpt lat="37.6697475" lon="13.8835423"><ele>388.3333333333333</ele><time>2026-04-03T14:28:19.316Z</time></trkpt><trkpt lat="37.6696212" lon="13.8836527"><ele>387.66666666666663</ele><time>2026-04-03T14:28:20.315Z</time></trkpt><trkpt lat="37.6694922" lon="13.8837645"><ele>387.0</ele><time>2026-04-03T14:28:21.315Z</time></trkpt><trkpt lat="37.6693638" lon="13.8838791"><ele>387.0</ele><time>2026-04-03T14:28:22.315Z</time></trkpt><trkpt lat="37.6692372" lon="13.8839974"><ele>387.0</ele><time>2026-04-03T14:28:23.316Z</time></trkpt><trkpt lat="37.6691083" lon="13.8841172"><ele>387.0</ele><time>2026-04-03T14:28:24.316Z</time></trkpt><trkpt lat="37.6689791" lon="13.884236"><ele>386.33333333333337</ele><time>2026-04-03T14:28:25.316Z</time></trkpt><trkpt lat="37.6688508" lon="13.8843547"><ele>385.6666666666667</ele><time>2026-04-03T14:28:26.315Z</time></trkpt><trkpt lat="37.6687228" lon="13.8844736"><ele>385.0</ele><time>2026-04-03T14:28:27.315Z</time></trkpt><trkpt lat="37.6685944" lon="13.8845932"><ele>385.0</ele><time>2026-04-03T14:28:28.315Z</time></trkpt><trkpt lat="37.6684659" lon="13.8847094"><ele>385.0</ele><time>2026-04-03T14:28:29.315Z</time></trkpt><trkpt lat="37.6683392" lon="13.8848274"><ele>385.0</ele><time>2026-04-03T14:28:30.315Z</time></trkpt><trkpt lat="37.6682164" lon="13.8849461"><ele>385.0</ele><time>2026-04-03T14:28:31.316Z</time></trkpt><trkpt lat="37.6680942" lon="13.8850637"><ele>385.0</ele><time>2026-04-03T14:28:32.315Z</time></trkpt><trkpt lat="37.6679705" lon="13.8851777"><ele>385.0</ele><time>2026-04-03T14:28:33.316Z</time></trkpt><trkpt lat="37.6678444" lon="13.8852873"><ele>384.6666666666667</ele><time>2026-04-03T14:28:34.316Z</time></trkpt><trkpt lat="37.6677206" lon="13.8853979"><ele>384.33333333333337</ele><time>2026-04-03T14:28:35.316Z</time></trkpt><trkpt lat="37.6675962" lon="13.8855071"><ele>384.0</ele><time>2026-04-03T14:28:36.315Z</time></trkpt><trkpt lat="37.6674717" lon="13.885614"><ele>384.0</ele><time>2026-04-03T14:28:37.315Z</time></trkpt><trkpt lat="37.6673502" lon="13.8857197"><ele>384.0</ele><time>2026-04-03T14:28:38.315Z</time></trkpt><trkpt lat="37.6672331" lon="13.8858225"><ele>384.0</ele><time>2026-04-03T14:28:39.316Z</time></trkpt><trkpt lat="37.6671208" lon="13.8859237"><ele>384.0</ele><time>2026-04-03T14:28:40.316Z</time></trkpt><trkpt lat="37.6670152" lon="13.8860283"><ele>384.0</ele><time>2026-04-03T14:28:41.316Z</time></trkpt><trkpt lat="37.6669268" lon="13.886134"><ele>384.0</ele><time>2026-04-03T14:28:42.316Z</time></trkpt><trkpt lat="37.6668619" lon="13.8862406"><ele>384.0</ele><time>2026-04-03T14:28:43.316Z</time></trkpt><trkpt lat="37.6668257" lon="13.8863527"><ele>384.0</ele><time>2026-04-03T14:28:44.316Z</time></trkpt><trkpt lat="37.6668218" lon="13.8864671"><ele>384.0</ele><time>2026-04-03T14:28:45.315Z</time></trkpt><trkpt lat="37.6668486" lon="13.8865691"><ele>384.0</ele><time>2026-04-03T14:28:46.316Z</time></trkpt><trkpt lat="37.6668921" lon="13.8866555"><ele>384.0</ele><time>2026-04-03T14:28:47.315Z</time></trkpt><trkpt lat="37.6669374" lon="13.8867384"><ele>384.0</ele><time>2026-04-03T14:28:48.315Z</time></trkpt><trkpt lat="37.666985" lon="13.8868168"><ele>384.0</ele><time>2026-04-03T14:28:49.315Z</time></trkpt><trkpt lat="37.6670306" lon="13.8869063"><ele>384.0</ele><time>2026-04-03T14:28:50.315Z</time></trkpt><trkpt lat="37.6670692" lon="13.8870124"><ele>384.0</ele><time>2026-04-03T14:28:51.316Z</time></trkpt><trkpt lat="37.667098" lon="13.887131"><ele>383.0</ele><time>2026-04-03T14:28:52.315Z</time></trkpt><trkpt lat="37.6671068" lon="13.8872607"><ele>382.0</ele><time>2026-04-03T14:28:53.315Z</time></trkpt><trkpt lat="37.6670933" lon="13.887397"><ele>381.0</ele><time>2026-04-03T14:28:54.315Z</time></trkpt><trkpt lat="37.6670592" lon="13.8875333"><ele>380.0</ele><time>2026-04-03T14:28:55.316Z</time></trkpt><trkpt lat="37.6670129" lon="13.8876647"><ele>379.0</ele><time>2026-04-03T14:28:56.315Z</time></trkpt><trkpt lat="37.6669529" lon="13.8878002"><ele>378.25</ele><time>2026-04-03T14:28:57.316Z</time></trkpt><trkpt lat="37.666881" lon="13.8879354"><ele>377.5</ele><time>2026-04-03T14:28:58.316Z</time></trkpt><trkpt lat="37.6668022" lon="13.8880652"><ele>376.75</ele><time>2026-04-03T14:28:59.316Z</time></trkpt><trkpt lat="37.6667302" lon="13.8881971"><ele>376.0</ele><time>2026-04-03T14:29:00.314Z</time></trkpt><trkpt lat="37.6666729" lon="13.8883377"><ele>376.25</ele><time>2026-04-03T14:29:01.315Z</time></trkpt><trkpt lat="37.6666404" lon="13.8884853"><ele>376.5</ele><time>2026-04-03T14:29:02.316Z</time></trkpt><trkpt lat="37.6666366" lon="13.8886318"><ele>376.75</ele><time>2026-04-03T14:29:03.316Z</time></trkpt><trkpt lat="37.6666621" lon="13.8887666"><ele>377.0</ele><time>2026-04-03T14:29:04.315Z</time></trkpt><trkpt lat="37.6667148" lon="13.88889"><ele>377.0</ele><time>2026-04-03T14:29:05.316Z</time></trkpt><trkpt lat="37.6667707" lon="13.8890083"><ele>377.0</ele><time>2026-04-03T14:29:06.316Z</time></trkpt><trkpt lat="37.6668258" lon="13.8891314"><ele>377.0</ele><time>2026-04-03T14:29:07.316Z</time></trkpt><trkpt lat="37.6668667" lon="13.8892567"><ele>377.0</ele><time>2026-04-03T14:29:08.315Z</time></trkpt><trkpt lat="37.6668836" lon="13.8893884"><ele>377.0</ele><time>2026-04-03T14:29:09.314Z</time></trkpt><trkpt lat="37.666876" lon="13.8895276"><ele>377.25</ele><time>2026-04-03T14:29:10.315Z</time></trkpt><trkpt lat="37.6668454" lon="13.8896635"><ele>377.5</ele><time>2026-04-03T14:29:11.316Z</time></trkpt><trkpt lat="37.6667952" lon="13.8897961"><ele>377.75</ele><time>2026-04-03T14:29:12.316Z</time></trkpt><trkpt lat="37.6667362" lon="13.8899276"><ele>378.0</ele><time>2026-04-03T14:29:13.316Z</time></trkpt><trkpt lat="37.6666743" lon="13.8900627"><ele>378.0</ele><time>2026-04-03T14:29:14.316Z</time></trkpt><trkpt lat="37.6666038" lon="13.8901961"><ele>378.0</ele><time>2026-04-03T14:29:15.315Z</time></trkpt><trkpt lat="37.6665274" lon="13.8903269"><ele>378.0</ele><time>2026-04-03T14:29:16.316Z</time></trkpt><trkpt lat="37.6664411" lon="13.8904521"><ele>378.0</ele><time>2026-04-03T14:29:17.316Z</time></trkpt><trkpt lat="37.6663475" lon="13.8905729"><ele>378.0</ele><time>2026-04-03T14:29:18.316Z</time></trkpt><trkpt lat="37.6662439" lon="13.8906855"><ele>378.0</ele><time>2026-04-03T14:29:19.316Z</time></trkpt><trkpt lat="37.666134" lon="13.8907913"><ele>378.0</ele><time>2026-04-03T14:29:20.315Z</time></trkpt><trkpt lat="37.666018" lon="13.8908899"><ele>378.0</ele><time>2026-04-03T14:29:21.315Z</time></trkpt><trkpt lat="37.6658964" lon="13.8909841"><ele>378.0</ele><time>2026-04-03T14:29:22.315Z</time></trkpt><trkpt lat="37.6657691" lon="13.8910739"><ele>378.0</ele><time>2026-04-03T14:29:23.316Z</time></trkpt><trkpt lat="37.6656405" lon="13.8911662"><ele>378.0</ele><time>2026-04-03T14:29:24.316Z</time></trkpt><trkpt lat="37.6655107" lon="13.8912615"><ele>378.0</ele><time>2026-04-03T14:29:25.315Z</time></trkpt><trkpt lat="37.665378" lon="13.8913583"><ele>376.6666666666667</ele><time>2026-04-03T14:29:26.315Z</time></trkpt><trkpt lat="37.6652442" lon="13.8914537"><ele>375.33333333333337</ele><time>2026-04-03T14:29:27.316Z</time></trkpt><trkpt lat="37.6651119" lon="13.8915529"><ele>374.0</ele><time>2026-04-03T14:29:28.316Z</time></trkpt><trkpt lat="37.664979" lon="13.8916519"><ele>374.0</ele><time>2026-04-03T14:29:29.315Z</time></trkpt><trkpt lat="37.6648459" lon="13.8917519"><ele>374.0</ele><time>2026-04-03T14:29:30.316Z</time></trkpt><trkpt lat="37.6647155" lon="13.8918563"><ele>374.0</ele><time>2026-04-03T14:29:31.315Z</time></trkpt><trkpt lat="37.6645862" lon="13.8919624"><ele>374.33333333333337</ele><time>2026-04-03T14:29:32.315Z</time></trkpt><trkpt lat="37.6644569" lon="13.8920695"><ele>374.6666666666667</ele><time>2026-04-03T14:29:33.316Z</time></trkpt><trkpt lat="37.6643248" lon="13.8921774"><ele>375.0</ele><time>2026-04-03T14:29:34.316Z</time></trkpt><trkpt lat="37.6641963" lon="13.8922899"><ele>375.0</ele><time>2026-04-03T14:29:35.316Z</time></trkpt><trkpt lat="37.6640682" lon="13.8924004"><ele>375.0</ele><time>2026-04-03T14:29:36.315Z</time></trkpt><trkpt lat="37.6639372" lon="13.8925068"><ele>375.0</ele><time>2026-04-03T14:29:37.316Z</time></trkpt><trkpt lat="37.6638059" lon="13.8926124"><ele>375.0</ele><time>2026-04-03T14:29:38.316Z</time></trkpt><trkpt lat="37.6636782" lon="13.8927249"><ele>375.0</ele><time>2026-04-03T14:29:39.316Z</time></trkpt><trkpt lat="37.6635503" lon="13.8928383"><ele>375.0</ele><time>2026-04-03T14:29:40.316Z</time></trkpt><trkpt lat="37.6634203" lon="13.8929461"><ele>375.0</ele><time>2026-04-03T14:29:41.316Z</time></trkpt><trkpt lat="37.6632856" lon="13.8930429"><ele>375.0</ele><time>2026-04-03T14:29:42.316Z</time></trkpt><trkpt lat="37.6631481" lon="13.8931244"><ele>375.0</ele><time>2026-04-03T14:29:43.315Z</time></trkpt><trkpt lat="37.6630084" lon="13.893198"><ele>375.0</ele><time>2026-04-03T14:29:44.315Z</time></trkpt><trkpt lat="37.662868" lon="13.8932618"><ele>375.0</ele><time>2026-04-03T14:29:45.315Z</time></trkpt><trkpt lat="37.6627309" lon="13.8933232"><ele>375.0</ele><time>2026-04-03T14:29:46.316Z</time></trkpt><trkpt lat="37.6625985" lon="13.8933759"><ele>375.0</ele><time>2026-04-03T14:29:47.315Z</time></trkpt><trkpt lat="37.6624788" lon="13.8934272"><ele>376.5</ele><time>2026-04-03T14:29:48.315Z</time></trkpt><trkpt lat="37.6623659" lon="13.8934916"><ele>378.0</ele><time>2026-04-03T14:29:49.316Z</time></trkpt><trkpt lat="37.6622649" lon="13.8935775"><ele>379.5</ele><time>2026-04-03T14:29:50.315Z</time></trkpt><trkpt lat="37.6621655" lon="13.8936766"><ele>381.0</ele><time>2026-04-03T14:29:51.315Z</time></trkpt><trkpt lat="37.6620668" lon="13.8937857"><ele>381.0</ele><time>2026-04-03T14:29:52.315Z</time></trkpt><trkpt lat="37.661967" lon="13.8939004"><ele>381.0</ele><time>2026-04-03T14:29:53.315Z</time></trkpt><trkpt lat="37.661864" lon="13.8940155"><ele>381.0</ele><time>2026-04-03T14:29:54.315Z</time></trkpt><trkpt lat="37.6617597" lon="13.8941248"><ele>381.0</ele><time>2026-04-03T14:29:55.315Z</time></trkpt><trkpt lat="37.6616499" lon="13.8942257"><ele>379.0</ele><time>2026-04-03T14:29:56.315Z</time></trkpt><trkpt lat="37.6615306" lon="13.8943077"><ele>377.0</ele><time>2026-04-03T14:29:57.314Z</time></trkpt><trkpt lat="37.6614057" lon="13.8943784"><ele>375.0</ele><time>2026-04-03T14:29:58.315Z</time></trkpt><trkpt lat="37.6612741" lon="13.8944226"><ele>373.0</ele><time>2026-04-03T14:29:59.314Z</time></trkpt><trkpt lat="37.6611397" lon="13.8944456"><ele>372.75</ele><time>2026-04-03T14:30:00.315Z</time></trkpt><trkpt lat="37.6610039" lon="13.8944465"><ele>372.5</ele><time>2026-04-03T14:30:01.316Z</time></trkpt><trkpt lat="37.660868" lon="13.8944259"><ele>372.25</ele><time>2026-04-03T14:30:02.316Z</time></trkpt><trkpt lat="37.6607354" lon="13.8943903"><ele>372.0</ele><time>2026-04-03T14:30:03.316Z</time></trkpt><trkpt lat="37.6606031" lon="13.8943459"><ele>372.0</ele><time>2026-04-03T14:30:04.316Z</time></trkpt><trkpt lat="37.6604718" lon="13.8943001"><ele>372.0</ele><time>2026-04-03T14:30:05.315Z</time></trkpt><trkpt lat="37.6603362" lon="13.8942714"><ele>372.0</ele><time>2026-04-03T14:30:06.315Z</time></trkpt><trkpt lat="37.6601967" lon="13.894271"><ele>372.0</ele><time>2026-04-03T14:30:07.316Z</time></trkpt><trkpt lat="37.6600572" lon="13.8943049"><ele>372.25</ele><time>2026-04-03T14:30:08.315Z</time></trkpt><trkpt lat="37.6599197" lon="13.8943609"><ele>372.5</ele><time>2026-04-03T14:30:09.315Z</time></trkpt><trkpt lat="37.6597831" lon="13.8944286"><ele>372.75</ele><time>2026-04-03T14:30:10.315Z</time></trkpt><trkpt lat="37.6596493" lon="13.8945019"><ele>373.0</ele><time>2026-04-03T14:30:11.316Z</time></trkpt><trkpt lat="37.6595163" lon="13.8945764"><ele>372.5</ele><time>2026-04-03T14:30:12.316Z</time></trkpt><trkpt lat="37.6593825" lon="13.8946458"><ele>372.0</ele><time>2026-04-03T14:30:13.316Z</time></trkpt><trkpt lat="37.6592486" lon="13.8947137"><ele>371.5</ele><time>2026-04-03T14:30:14.315Z</time></trkpt><trkpt lat="37.6591155" lon="13.8947823"><ele>371.0</ele><time>2026-04-03T14:30:15.315Z</time></trkpt><trkpt lat="37.658985" lon="13.8948528"><ele>371.0</ele><time>2026-04-03T14:30:16.315Z</time></trkpt><trkpt lat="37.6588559" lon="13.8949227"><ele>371.0</ele><time>2026-04-03T14:30:17.315Z</time></trkpt><trkpt lat="37.6587307" lon="13.8949886"><ele>371.0</ele><time>2026-04-03T14:30:18.315Z</time></trkpt><trkpt lat="37.6586106" lon="13.8950524"><ele>371.0</ele><time>2026-04-03T14:30:19.316Z</time></trkpt><trkpt lat="37.6584934" lon="13.8951136"><ele>370.5</ele><time>2026-04-03T14:30:20.316Z</time></trkpt><trkpt lat="37.6583774" lon="13.8951715"><ele>370.0</ele><time>2026-04-03T14:30:21.315Z</time></trkpt><trkpt lat="37.6582614" lon="13.8952299"><ele>369.5</ele><time>2026-04-03T14:30:22.314Z</time></trkpt><trkpt lat="37.6581463" lon="13.89529"><ele>369.0</ele><time>2026-04-03T14:30:23.315Z</time></trkpt><trkpt lat="37.658032" lon="13.8953505"><ele>369.0</ele><time>2026-04-03T14:30:24.315Z</time></trkpt><trkpt lat="37.6579166" lon="13.8954065"><ele>369.0</ele><time>2026-04-03T14:30:25.315Z</time></trkpt><trkpt lat="37.6577992" lon="13.8954543"><ele>369.0</ele><time>2026-04-03T14:30:26.315Z</time></trkpt><trkpt lat="37.657679" lon="13.8954866"><ele>369.0</ele><time>2026-04-03T14:30:27.315Z</time></trkpt><trkpt lat="37.6575573" lon="13.8955105"><ele>369.5</ele><time>2026-04-03T14:30:28.316Z</time></trkpt><trkpt lat="37.6574354" lon="13.8955358"><ele>370.0</ele><time>2026-04-03T14:30:29.316Z</time></trkpt><trkpt lat="37.6573141" lon="13.8955638"><ele>370.5</ele><time>2026-04-03T14:30:30.316Z</time></trkpt><trkpt lat="37.6571928" lon="13.8955909"><ele>371.0</ele><time>2026-04-03T14:30:31.316Z</time></trkpt><trkpt lat="37.6570724" lon="13.8956182"><ele>371.0</ele><time>2026-04-03T14:30:32.315Z</time></trkpt><trkpt lat="37.6569532" lon="13.8956474"><ele>371.0</ele><time>2026-04-03T14:30:33.315Z</time></trkpt><trkpt lat="37.6568357" lon="13.8956771"><ele>371.0</ele><time>2026-04-03T14:30:34.315Z</time></trkpt><trkpt lat="37.6567186" lon="13.8957039"><ele>371.0</ele><time>2026-04-03T14:30:35.315Z</time></trkpt><trkpt lat="37.6566023" lon="13.895729"><ele>371.25</ele><time>2026-04-03T14:30:36.316Z</time></trkpt><trkpt lat="37.6564859" lon="13.8957543"><ele>371.5</ele><time>2026-04-03T14:30:37.315Z</time></trkpt><trkpt lat="37.6563696" lon="13.8957778"><ele>371.75</ele><time>2026-04-03T14:30:38.314Z</time></trkpt><trkpt lat="37.6562526" lon="13.8957945"><ele>372.0</ele><time>2026-04-03T14:30:39.315Z</time></trkpt><trkpt lat="37.6561351" lon="13.8958086"><ele>371.75</ele><time>2026-04-03T14:30:40.316Z</time></trkpt><trkpt lat="37.6560164" lon="13.8958154"><ele>371.5</ele><time>2026-04-03T14:30:41.316Z</time></trkpt><trkpt lat="37.655896" lon="13.8958207"><ele>371.25</ele><time>2026-04-03T14:30:42.316Z</time></trkpt><trkpt lat="37.6557749" lon="13.8958239"><ele>371.0</ele><time>2026-04-03T14:30:43.316Z</time></trkpt><trkpt lat="37.6556524" lon="13.8958274"><ele>371.0</ele><time>2026-04-03T14:30:44.315Z</time></trkpt><trkpt lat="37.6555285" lon="13.8958308"><ele>371.0</ele><time>2026-04-03T14:30:45.315Z</time></trkpt><trkpt lat="37.6554042" lon="13.8958359"><ele>371.0</ele><time>2026-04-03T14:30:46.316Z</time></trkpt><trkpt lat="37.6552795" lon="13.8958394"><ele>371.0</ele><time>2026-04-03T14:30:47.316Z</time></trkpt><trkpt lat="37.6551534" lon="13.8958427"><ele>371.25</ele><time>2026-04-03T14:30:48.316Z</time></trkpt><trkpt lat="37.6550268" lon="13.8958475"><ele>371.5</ele><time>2026-04-03T14:30:49.314Z</time></trkpt><trkpt lat="37.6548999" lon="13.8958516"><ele>371.75</ele><time>2026-04-03T14:30:50.315Z</time></trkpt><trkpt lat="37.6547727" lon="13.89586"><ele>372.0</ele><time>2026-04-03T14:30:51.315Z</time></trkpt><trkpt lat="37.6546455" lon="13.8958756"><ele>372.0</ele><time>2026-04-03T14:30:52.315Z</time></trkpt><trkpt lat="37.6545183" lon="13.8958954"><ele>372.0</ele><time>2026-04-03T14:30:53.315Z</time></trkpt><trkpt lat="37.6543909" lon="13.8959189"><ele>372.0</ele><time>2026-04-03T14:30:54.316Z</time></trkpt><trkpt lat="37.6542638" lon="13.8959426"><ele>372.0</ele><time>2026-04-03T14:30:55.316Z</time></trkpt><trkpt lat="37.6541379" lon="13.8959691"><ele>371.25</ele><time>2026-04-03T14:30:56.316Z</time></trkpt><trkpt lat="37.6540124" lon="13.8959937"><ele>370.5</ele><time>2026-04-03T14:30:57.316Z</time></trkpt><trkpt lat="37.6538864" lon="13.8960163"><ele>369.75</ele><time>2026-04-03T14:30:58.315Z</time></trkpt><trkpt lat="37.6537624" lon="13.8960439"><ele>369.0</ele><time>2026-04-03T14:30:59.315Z</time></trkpt><trkpt lat="37.6536384" lon="13.8960667"><ele>368.75</ele><time>2026-04-03T14:31:00.315Z</time></trkpt><trkpt lat="37.6535142" lon="13.8960894"><ele>368.5</ele><time>2026-04-03T14:31:01.316Z</time></trkpt><trkpt lat="37.6533907" lon="13.8961155"><ele>368.25</ele><time>2026-04-03T14:31:02.316Z</time></trkpt><trkpt lat="37.653265" lon="13.8961414"><ele>368.0</ele><time>2026-04-03T14:31:03.316Z</time></trkpt><trkpt lat="37.6531395" lon="13.8961647"><ele>368.0</ele><time>2026-04-03T14:31:04.315Z</time></trkpt><trkpt lat="37.6530131" lon="13.8961893"><ele>368.0</ele><time>2026-04-03T14:31:05.316Z</time></trkpt><trkpt lat="37.6528866" lon="13.8962154"><ele>368.0</ele><time>2026-04-03T14:31:06.316Z</time></trkpt><trkpt lat="37.6527606" lon="13.8962391"><ele>368.0</ele><time>2026-04-03T14:31:07.315Z</time></trkpt><trkpt lat="37.6526356" lon="13.8962594"><ele>367.5</ele><time>2026-04-03T14:31:08.314Z</time></trkpt><trkpt lat="37.6525118" lon="13.8962834"><ele>367.0</ele><time>2026-04-03T14:31:09.315Z</time></trkpt><trkpt lat="37.6523888" lon="13.8963077"><ele>366.5</ele><time>2026-04-03T14:31:10.316Z</time></trkpt><trkpt lat="37.6522646" lon="13.8963325"><ele>366.0</ele><time>2026-04-03T14:31:11.316Z</time></trkpt><trkpt lat="37.6521395" lon="13.8963578"><ele>366.0</ele><time>2026-04-03T14:31:12.316Z</time></trkpt><trkpt lat="37.6520139" lon="13.8963822"><ele>366.0</ele><time>2026-04-03T14:31:13.315Z</time></trkpt><trkpt lat="37.651888" lon="13.8964068"><ele>366.0</ele><time>2026-04-03T14:31:14.315Z</time></trkpt><trkpt lat="37.651762" lon="13.896433"><ele>366.0</ele><time>2026-04-03T14:31:15.315Z</time></trkpt><trkpt lat="37.6516368" lon="13.8964577"><ele>365.5</ele><time>2026-04-03T14:31:16.315Z</time></trkpt><trkpt lat="37.6515129" lon="13.8964817"><ele>365.0</ele><time>2026-04-03T14:31:17.315Z</time></trkpt><trkpt lat="37.6513891" lon="13.8965055"><ele>364.5</ele><time>2026-04-03T14:31:18.315Z</time></trkpt><trkpt lat="37.6512655" lon="13.8965307"><ele>364.0</ele><time>2026-04-03T14:31:19.316Z</time></trkpt><trkpt lat="37.651141" lon="13.8965532"><ele>364.25</ele><time>2026-04-03T14:31:20.316Z</time></trkpt><trkpt lat="37.6510152" lon="13.8965775"><ele>364.5</ele><time>2026-04-03T14:31:21.316Z</time></trkpt><trkpt lat="37.6508891" lon="13.8966039"><ele>364.75</ele><time>2026-04-03T14:31:22.315Z</time></trkpt><trkpt lat="37.6507615" lon="13.8966294"><ele>365.0</ele><time>2026-04-03T14:31:23.315Z</time></trkpt><trkpt lat="37.6506332" lon="13.8966537"><ele>365.0</ele><time>2026-04-03T14:31:24.315Z</time></trkpt><trkpt lat="37.6505039" lon="13.8966797"><ele>365.0</ele><time>2026-04-03T14:31:25.316Z</time></trkpt><trkpt lat="37.6503736" lon="13.8967019"><ele>365.0</ele><time>2026-04-03T14:31:26.316Z</time></trkpt><trkpt lat="37.6502417" lon="13.8967193"><ele>365.0</ele><time>2026-04-03T14:31:27.315Z</time></trkpt><trkpt lat="37.6501109" lon="13.8967347"><ele>365.0</ele><time>2026-04-03T14:31:28.315Z</time></trkpt><trkpt lat="37.6499813" lon="13.8967469"><ele>365.0</ele><time>2026-04-03T14:31:29.315Z</time></trkpt><trkpt lat="37.6498525" lon="13.8967563"><ele>365.0</ele><time>2026-04-03T14:31:30.316Z</time></trkpt><trkpt lat="37.6497225" lon="13.8967641"><ele>365.0</ele><time>2026-04-03T14:31:31.315Z</time></trkpt><trkpt lat="37.6495927" lon="13.8967726"><ele>364.25</ele><time>2026-04-03T14:31:32.315Z</time></trkpt><trkpt lat="37.649463" lon="13.8967849"><ele>363.5</ele><time>2026-04-03T14:31:33.316Z</time></trkpt><trkpt lat="37.6493335" lon="13.8968053"><ele>362.75</ele><time>2026-04-03T14:31:34.316Z</time></trkpt><trkpt lat="37.649206" lon="13.8968313"><ele>362.0</ele><time>2026-04-03T14:31:35.316Z</time></trkpt><trkpt lat="37.6490784" lon="13.8968581"><ele>362.0</ele><time>2026-04-03T14:31:36.315Z</time></trkpt><trkpt lat="37.6489501" lon="13.8968884"><ele>362.0</ele><time>2026-04-03T14:31:37.315Z</time></trkpt><trkpt lat="37.6488214" lon="13.8969208"><ele>362.0</ele><time>2026-04-03T14:31:38.316Z</time></trkpt><trkpt lat="37.6486922" lon="13.8969521"><ele>362.0</ele><time>2026-04-03T14:31:39.316Z</time></trkpt><trkpt lat="37.6485623" lon="13.8969816"><ele>361.25</ele><time>2026-04-03T14:31:40.316Z</time></trkpt><trkpt lat="37.6484319" lon="13.8970122"><ele>360.5</ele><time>2026-04-03T14:31:41.316Z</time></trkpt><trkpt lat="37.6483009" lon="13.8970419"><ele>359.75</ele><time>2026-04-03T14:31:42.315Z</time></trkpt><trkpt lat="37.6481698" lon="13.8970709"><ele>359.0</ele><time>2026-04-03T14:31:43.316Z</time></trkpt><trkpt lat="37.6480381" lon="13.8971009"><ele>359.0</ele><time>2026-04-03T14:31:44.315Z</time></trkpt><trkpt lat="37.6479061" lon="13.8971343"><ele>359.0</ele><time>2026-04-03T14:31:45.315Z</time></trkpt><trkpt lat="37.6477744" lon="13.8971676"><ele>359.0</ele><time>2026-04-03T14:31:46.315Z</time></trkpt><trkpt lat="37.6476416" lon="13.8971985"><ele>359.0</ele><time>2026-04-03T14:31:47.315Z</time></trkpt><trkpt lat="37.6475089" lon="13.8972307"><ele>359.25</ele><time>2026-04-03T14:31:48.316Z</time></trkpt><trkpt lat="37.6473776" lon="13.8972622"><ele>359.5</ele><time>2026-04-03T14:31:49.316Z</time></trkpt><trkpt lat="37.6472461" lon="13.8972914"><ele>359.75</ele><time>2026-04-03T14:31:50.315Z</time></trkpt><trkpt lat="37.6471147" lon="13.8973224"><ele>360.0</ele><time>2026-04-03T14:31:51.315Z</time></trkpt><trkpt lat="37.646984" lon="13.8973537"><ele>360.5</ele><time>2026-04-03T14:31:52.315Z</time></trkpt><trkpt lat="37.6468532" lon="13.8973863"><ele>361.0</ele><time>2026-04-03T14:31:53.315Z</time></trkpt><trkpt lat="37.6467229" lon="13.8974177"><ele>361.5</ele><time>2026-04-03T14:31:54.315Z</time></trkpt><trkpt lat="37.6465926" lon="13.8974489"><ele>362.0</ele><time>2026-04-03T14:31:55.315Z</time></trkpt><trkpt lat="37.6464624" lon="13.8974788"><ele>362.0</ele><time>2026-04-03T14:31:56.316Z</time></trkpt><trkpt lat="37.6463324" lon="13.8975103"><ele>362.0</ele><time>2026-04-03T14:31:57.315Z</time></trkpt><trkpt lat="37.646202" lon="13.897542"><ele>362.0</ele><time>2026-04-03T14:31:58.315Z</time></trkpt><trkpt lat="37.6460719" lon="13.8975715"><ele>362.0</ele><time>2026-04-03T14:31:59.314Z</time></trkpt><trkpt lat="37.6459418" lon="13.8975966"><ele>361.0</ele><time>2026-04-03T14:32:00.316Z</time></trkpt><trkpt lat="37.6458111" lon="13.8976179"><ele>360.0</ele><time>2026-04-03T14:32:01.316Z</time></trkpt><trkpt lat="37.6456804" lon="13.8976388"><ele>359.0</ele><time>2026-04-03T14:32:02.316Z</time></trkpt><trkpt lat="37.6455497" lon="13.8976596"><ele>358.0</ele><time>2026-04-03T14:32:03.315Z</time></trkpt><trkpt lat="37.6454197" lon="13.8976814"><ele>358.0</ele><time>2026-04-03T14:32:04.315Z</time></trkpt><trkpt lat="37.6452891" lon="13.897701"><ele>358.0</ele><time>2026-04-03T14:32:05.315Z</time></trkpt><trkpt lat="37.6451577" lon="13.8977172"><ele>358.0</ele><time>2026-04-03T14:32:06.315Z</time></trkpt><trkpt lat="37.645025" lon="13.8977333"><ele>358.0</ele><time>2026-04-03T14:32:07.315Z</time></trkpt><trkpt lat="37.644892" lon="13.8977501"><ele>358.0</ele><time>2026-04-03T14:32:08.316Z</time></trkpt><trkpt lat="37.6447577" lon="13.8977604"><ele>358.0</ele><time>2026-04-03T14:32:09.316Z</time></trkpt><trkpt lat="37.644623" lon="13.8977643"><ele>358.0</ele><time>2026-04-03T14:32:10.315Z</time></trkpt><trkpt lat="37.6444875" lon="13.8977616"><ele>358.0</ele><time>2026-04-03T14:32:11.316Z</time></trkpt><trkpt lat="37.6443513" lon="13.8977522"><ele>358.0</ele><time>2026-04-03T14:32:12.316Z</time></trkpt><trkpt lat="37.6442154" lon="13.8977387"><ele>358.0</ele><time>2026-04-03T14:32:13.316Z</time></trkpt><trkpt lat="37.6440787" lon="13.8977229"><ele>358.0</ele><time>2026-04-03T14:32:14.315Z</time></trkpt><trkpt lat="37.643942" lon="13.8977067"><ele>358.0</ele><time>2026-04-03T14:32:15.315Z</time></trkpt><trkpt lat="37.6438061" lon="13.8976891"><ele>358.0</ele><time>2026-04-03T14:32:16.315Z</time></trkpt><trkpt lat="37.643671" lon="13.8976733"><ele>358.0</ele><time>2026-04-03T14:32:17.314Z</time></trkpt><trkpt lat="37.6435364" lon="13.8976556"><ele>358.0</ele><time>2026-04-03T14:32:18.315Z</time></trkpt><trkpt lat="37.643404" lon="13.8976391"><ele>358.0</ele><time>2026-04-03T14:32:19.315Z</time></trkpt><trkpt lat="37.6432724" lon="13.8976247"><ele>357.75</ele><time>2026-04-03T14:32:20.316Z</time></trkpt><trkpt lat="37.6431407" lon="13.897611"><ele>357.5</ele><time>2026-04-03T14:32:21.315Z</time></trkpt><trkpt lat="37.6430082" lon="13.8975962"><ele>357.25</ele><time>2026-04-03T14:32:22.316Z</time></trkpt><trkpt lat="37.6428753" lon="13.8975797"><ele>357.0</ele><time>2026-04-03T14:32:23.315Z</time></trkpt><trkpt lat="37.6427431" lon="13.8975639"><ele>358.0</ele><time>2026-04-03T14:32:24.315Z</time></trkpt><trkpt lat="37.6426105" lon="13.8975486"><ele>359.0</ele><time>2026-04-03T14:32:25.316Z</time></trkpt><trkpt lat="37.6424781" lon="13.8975339"><ele>360.0</ele><time>2026-04-03T14:32:26.315Z</time></trkpt><trkpt lat="37.6423462" lon="13.8975166"><ele>361.0</ele><time>2026-04-03T14:32:27.315Z</time></trkpt><trkpt lat="37.6422134" lon="13.8974985"><ele>361.0</ele><time>2026-04-03T14:32:28.316Z</time></trkpt><trkpt lat="37.6420798" lon="13.8974817"><ele>361.0</ele><time>2026-04-03T14:32:29.315Z</time></trkpt><trkpt lat="37.6419458" lon="13.8974664"><ele>361.0</ele><time>2026-04-03T14:32:30.315Z</time></trkpt><trkpt lat="37.6418107" lon="13.8974524"><ele>361.0</ele><time>2026-04-03T14:32:31.315Z</time></trkpt><trkpt lat="37.6416754" lon="13.897437"><ele>360.5</ele><time>2026-04-03T14:32:32.314Z</time></trkpt><trkpt lat="37.641539" lon="13.8974239"><ele>360.0</ele><time>2026-04-03T14:32:33.315Z</time></trkpt><trkpt lat="37.6414029" lon="13.8974178"><ele>359.5</ele><time>2026-04-03T14:32:34.316Z</time></trkpt><trkpt lat="37.6412669" lon="13.8974184"><ele>359.0</ele><time>2026-04-03T14:32:35.316Z</time></trkpt><trkpt lat="37.6411293" lon="13.897422"><ele>358.75</ele><time>2026-04-03T14:32:36.316Z</time></trkpt><trkpt lat="37.6409915" lon="13.8974243"><ele>358.5</ele><time>2026-04-03T14:32:37.316Z</time></trkpt><trkpt lat="37.640854" lon="13.8974242"><ele>358.25</ele><time>2026-04-03T14:32:38.316Z</time></trkpt><trkpt lat="37.6407168" lon="13.8974255"><ele>358.0</ele><time>2026-04-03T14:32:39.316Z</time></trkpt><trkpt lat="37.64058" lon="13.8974275"><ele>358.0</ele><time>2026-04-03T14:32:40.315Z</time></trkpt><trkpt lat="37.640443" lon="13.8974335"><ele>358.0</ele><time>2026-04-03T14:32:41.315Z</time></trkpt><trkpt lat="37.6403064" lon="13.8974377"><ele>358.0</ele><time>2026-04-03T14:32:42.315Z</time></trkpt><trkpt lat="37.6401693" lon="13.8974336"><ele>358.0</ele><time>2026-04-03T14:32:43.316Z</time></trkpt><trkpt lat="37.6400331" lon="13.8974207"><ele>357.75</ele><time>2026-04-03T14:32:44.316Z</time></trkpt><trkpt lat="37.6398972" lon="13.8973981"><ele>357.5</ele><time>2026-04-03T14:32:45.314Z</time></trkpt><trkpt lat="37.6397604" lon="13.8973682"><ele>357.25</ele><time>2026-04-03T14:32:46.316Z</time></trkpt><trkpt lat="37.6396227" lon="13.8973345"><ele>357.0</ele><time>2026-04-03T14:32:47.316Z</time></trkpt><trkpt lat="37.639484" lon="13.8973011"><ele>357.0</ele><time>2026-04-03T14:32:48.316Z</time></trkpt><trkpt lat="37.6393435" lon="13.8972686"><ele>357.0</ele><time>2026-04-03T14:32:49.316Z</time></trkpt><trkpt lat="37.6392028" lon="13.8972356"><ele>357.0</ele><time>2026-04-03T14:32:50.316Z</time></trkpt><trkpt lat="37.6390643" lon="13.8972023"><ele>357.0</ele><time>2026-04-03T14:32:51.316Z</time></trkpt><trkpt lat="37.6389254" lon="13.8971679"><ele>357.0</ele><time>2026-04-03T14:32:52.316Z</time></trkpt><trkpt lat="37.6387859" lon="13.8971336"><ele>357.0</ele><time>2026-04-03T14:32:53.315Z</time></trkpt><trkpt lat="37.6386471" lon="13.8970991"><ele>357.0</ele><time>2026-04-03T14:32:54.315Z</time></trkpt><trkpt lat="37.6385084" lon="13.8970642"><ele>357.0</ele><time>2026-04-03T14:32:55.315Z</time></trkpt><trkpt lat="37.6383694" lon="13.8970313"><ele>356.75</ele><time>2026-04-03T14:32:56.315Z</time></trkpt><trkpt lat="37.6382296" lon="13.896999"><ele>356.5</ele><time>2026-04-03T14:32:57.315Z</time></trkpt><trkpt lat="37.6380892" lon="13.896966"><ele>356.25</ele><time>2026-04-03T14:32:58.315Z</time></trkpt><trkpt lat="37.6379478" lon="13.8969341"><ele>356.0</ele><time>2026-04-03T14:32:59.316Z</time></trkpt><trkpt lat="37.6378057" lon="13.896901"><ele>355.75</ele><time>2026-04-03T14:33:00.316Z</time></trkpt><trkpt lat="37.6376635" lon="13.8968663"><ele>355.5</ele><time>2026-04-03T14:33:01.316Z</time></trkpt><trkpt lat="37.6375207" lon="13.8968313"><ele>355.25</ele><time>2026-04-03T14:33:02.316Z</time></trkpt><trkpt lat="37.6373787" lon="13.8967963"><ele>355.0</ele><time>2026-04-03T14:33:03.316Z</time></trkpt><trkpt lat="37.6372374" lon="13.8967615"><ele>355.25</ele><time>2026-04-03T14:33:04.316Z</time></trkpt><trkpt lat="37.6370947" lon="13.8967278"><ele>355.5</ele><time>2026-04-03T14:33:05.315Z</time></trkpt><trkpt lat="37.6369531" lon="13.8966951"><ele>355.75</ele><time>2026-04-03T14:33:06.315Z</time></trkpt><trkpt lat="37.6368115" lon="13.8966619"><ele>356.0</ele><time>2026-04-03T14:33:07.316Z</time></trkpt><trkpt lat="37.6366701" lon="13.8966297"><ele>356.0</ele><time>2026-04-03T14:33:08.316Z</time></trkpt><trkpt lat="37.6365286" lon="13.8965971"><ele>356.0</ele><time>2026-04-03T14:33:09.316Z</time></trkpt><trkpt lat="37.6363866" lon="13.8965634"><ele>356.0</ele><time>2026-04-03T14:33:10.316Z</time></trkpt><trkpt lat="37.6362446" lon="13.8965296"><ele>356.0</ele><time>2026-04-03T14:33:11.314Z</time></trkpt><trkpt lat="37.6361019" lon="13.8964936"><ele>356.5</ele><time>2026-04-03T14:33:12.315Z</time></trkpt><trkpt lat="37.6359587" lon="13.8964578"><ele>357.0</ele><time>2026-04-03T14:33:13.315Z</time></trkpt><trkpt lat="37.6358155" lon="13.8964235"><ele>357.5</ele><time>2026-04-03T14:33:14.316Z</time></trkpt><trkpt lat="37.6356722" lon="13.8963898"><ele>358.0</ele><time>2026-04-03T14:33:15.315Z</time></trkpt><trkpt lat="37.635528" lon="13.8963565"><ele>358.0</ele><time>2026-04-03T14:33:16.316Z</time></trkpt><trkpt lat="37.6353849" lon="13.8963239"><ele>358.0</ele><time>2026-04-03T14:33:17.316Z</time></trkpt><trkpt lat="37.6352399" lon="13.8962885"><ele>358.0</ele><time>2026-04-03T14:33:18.316Z</time></trkpt><trkpt lat="37.6350956" lon="13.8962542"><ele>358.0</ele><time>2026-04-03T14:33:19.315Z</time></trkpt><trkpt lat="37.6349504" lon="13.8962282"><ele>358.0</ele><time>2026-04-03T14:33:20.315Z</time></trkpt><trkpt lat="37.6348051" lon="13.8962129"><ele>358.0</ele><time>2026-04-03T14:33:21.315Z</time></trkpt><trkpt lat="37.6346591" lon="13.8962067"><ele>358.0</ele><time>2026-04-03T14:33:22.316Z</time></trkpt><trkpt lat="37.6345129" lon="13.8962099"><ele>358.0</ele><time>2026-04-03T14:33:23.316Z</time></trkpt><trkpt lat="37.6343659" lon="13.8962239"><ele>358.25</ele><time>2026-04-03T14:33:24.316Z</time></trkpt><trkpt lat="37.6342202" lon="13.8962477"><ele>358.5</ele><time>2026-04-03T14:33:25.315Z</time></trkpt><trkpt lat="37.6340755" lon="13.8962833"><ele>358.75</ele><time>2026-04-03T14:33:26.315Z</time></trkpt><trkpt lat="37.6339312" lon="13.8963287"><ele>359.0</ele><time>2026-04-03T14:33:27.315Z</time></trkpt><trkpt lat="37.6337881" lon="13.8963816"><ele>359.0</ele><time>2026-04-03T14:33:28.316Z</time></trkpt><trkpt lat="37.6336458" lon="13.8964429"><ele>359.0</ele><time>2026-04-03T14:33:29.316Z</time></trkpt><trkpt lat="37.6335051" lon="13.8965111"><ele>359.0</ele><time>2026-04-03T14:33:30.316Z</time></trkpt><trkpt lat="37.6333653" lon="13.896583"><ele>359.0</ele><time>2026-04-03T14:33:31.315Z</time></trkpt><trkpt lat="37.633228" lon="13.896658"><ele>359.0</ele><time>2026-04-03T14:33:32.315Z</time></trkpt><trkpt lat="37.6330938" lon="13.8967364"><ele>359.0</ele><time>2026-04-03T14:33:33.315Z</time></trkpt><trkpt lat="37.63296" lon="13.8968129"><ele>359.0</ele><time>2026-04-03T14:33:34.315Z</time></trkpt><trkpt lat="37.6328261" lon="13.8968749"><ele>358.0</ele><time>2026-04-03T14:33:35.315Z</time></trkpt><trkpt lat="37.6326874" lon="13.8969108"><ele>357.0</ele><time>2026-04-03T14:33:36.315Z</time></trkpt><trkpt lat="37.6325446" lon="13.896925"><ele>356.0</ele><time>2026-04-03T14:33:37.315Z</time></trkpt><trkpt lat="37.6324025" lon="13.8969221"><ele>355.0</ele><time>2026-04-03T14:33:38.316Z</time></trkpt><trkpt lat="37.6322679" lon="13.8968861"><ele>355.0</ele><time>2026-04-03T14:33:39.315Z</time></trkpt><trkpt lat="37.6321403" lon="13.8968149"><ele>355.0</ele><time>2026-04-03T14:33:40.316Z</time></trkpt><trkpt lat="37.632016" lon="13.8967273"><ele>355.0</ele><time>2026-04-03T14:33:41.316Z</time></trkpt><trkpt lat="37.6318882" lon="13.8966389"><ele>355.0</ele><time>2026-04-03T14:33:42.316Z</time></trkpt><trkpt lat="37.6317582" lon="13.8965541"><ele>355.0</ele><time>2026-04-03T14:33:43.316Z</time></trkpt><trkpt lat="37.6316269" lon="13.8964665"><ele>355.0</ele><time>2026-04-03T14:33:44.316Z</time></trkpt><trkpt lat="37.6314922" lon="13.896381"><ele>355.0</ele><time>2026-04-03T14:33:45.316Z</time></trkpt><trkpt lat="37.6313482" lon="13.8963143"><ele>355.0</ele><time>2026-04-03T14:33:46.316Z</time></trkpt><trkpt lat="37.6311978" lon="13.8962691"><ele>355.0</ele><time>2026-04-03T14:33:47.316Z</time></trkpt><trkpt lat="37.6310442" lon="13.8962408"><ele>355.0</ele><time>2026-04-03T14:33:48.316Z</time></trkpt><trkpt lat="37.6308912" lon="13.8962263"><ele>353.0</ele><time>2026-04-03T14:33:49.316Z</time></trkpt><trkpt lat="37.6307396" lon="13.8962211"><ele>351.0</ele><time>2026-04-03T14:33:50.315Z</time></trkpt><trkpt lat="37.6305882" lon="13.8962163"><ele>349.0</ele><time>2026-04-03T14:33:51.316Z</time></trkpt><trkpt lat="37.6304372" lon="13.8962104"><ele>348.75</ele><time>2026-04-03T14:33:52.317Z</time></trkpt><trkpt lat="37.630287" lon="13.8962026"><ele>348.5</ele><time>2026-04-03T14:33:53.316Z</time></trkpt><trkpt lat="37.6301373" lon="13.8961964"><ele>348.25</ele><time>2026-04-03T14:33:54.317Z</time></trkpt><trkpt lat="37.6299886" lon="13.8961911"><ele>348.0</ele><time>2026-04-03T14:33:55.317Z</time></trkpt><trkpt lat="37.6298423" lon="13.8961864"><ele>348.0</ele><time>2026-04-03T14:33:56.317Z</time></trkpt><trkpt lat="37.6297002" lon="13.8961818"><ele>348.0</ele><time>2026-04-03T14:33:57.317Z</time></trkpt><trkpt lat="37.6295615" lon="13.8961777"><ele>348.0</ele><time>2026-04-03T14:33:58.316Z</time></trkpt><trkpt lat="37.6294236" lon="13.8961717"><ele>348.0</ele><time>2026-04-03T14:33:59.316Z</time></trkpt><trkpt lat="37.629285" lon="13.8961667"><ele>347.75</ele><time>2026-04-03T14:34:00.316Z</time></trkpt><trkpt lat="37.629147" lon="13.8961677"><ele>347.5</ele><time>2026-04-03T14:34:01.316Z</time></trkpt><trkpt lat="37.6290071" lon="13.8961814"><ele>347.25</ele><time>2026-04-03T14:34:02.316Z</time></trkpt><trkpt lat="37.6288666" lon="13.8962126"><ele>347.0</ele><time>2026-04-03T14:34:03.316Z</time></trkpt><trkpt lat="37.6287286" lon="13.8962553"><ele>346.75</ele><time>2026-04-03T14:34:04.317Z</time></trkpt><trkpt lat="37.6285954" lon="13.8963091"><ele>346.5</ele><time>2026-04-03T14:34:05.317Z</time></trkpt><trkpt lat="37.6284707" lon="13.8963857"><ele>346.25</ele><time>2026-04-03T14:34:06.317Z</time></trkpt><trkpt lat="37.6283585" lon="13.8964873"><ele>346.0</ele><time>2026-04-03T14:34:07.317Z</time></trkpt><trkpt lat="37.6282549" lon="13.8966059"><ele>346.0</ele><time>2026-04-03T14:34:08.317Z</time></trkpt><trkpt lat="37.628155" lon="13.8967331"><ele>346.0</ele><time>2026-04-03T14:34:09.317Z</time></trkpt><trkpt lat="37.6280531" lon="13.896856"><ele>346.0</ele><time>2026-04-03T14:34:10.317Z</time></trkpt><trkpt lat="37.6279539" lon="13.8969764"><ele>346.0</ele><time>2026-04-03T14:34:11.317Z</time></trkpt><trkpt lat="37.6278527" lon="13.8970901"><ele>345.25</ele><time>2026-04-03T14:34:12.317Z</time></trkpt><trkpt lat="37.6277384" lon="13.8971844"><ele>344.5</ele><time>2026-04-03T14:34:13.317Z</time></trkpt><trkpt lat="37.6276121" lon="13.8972594"><ele>343.75</ele><time>2026-04-03T14:34:14.315Z</time></trkpt><trkpt lat="37.6274776" lon="13.8973142"><ele>343.0</ele><time>2026-04-03T14:34:15.316Z</time></trkpt><trkpt lat="37.6273363" lon="13.8973544"><ele>343.0</ele><time>2026-04-03T14:34:16.317Z</time></trkpt><trkpt lat="37.6271917" lon="13.8973855"><ele>343.0</ele><time>2026-04-03T14:34:17.317Z</time></trkpt><trkpt lat="37.627044" lon="13.8974149"><ele>343.0</ele><time>2026-04-03T14:34:18.316Z</time></trkpt><trkpt lat="37.6268966" lon="13.8974465"><ele>343.0</ele><time>2026-04-03T14:34:19.317Z</time></trkpt><trkpt lat="37.6267507" lon="13.8974754"><ele>343.25</ele><time>2026-04-03T14:34:20.317Z</time></trkpt><trkpt lat="37.6266077" lon="13.8974933"><ele>343.5</ele><time>2026-04-03T14:34:21.316Z</time></trkpt><trkpt lat="37.6264669" lon="13.8974903"><ele>343.75</ele><time>2026-04-03T14:34:22.316Z</time></trkpt><trkpt lat="37.6263247" lon="13.8974674"><ele>344.0</ele><time>2026-04-03T14:34:23.316Z</time></trkpt><trkpt lat="37.6261832" lon="13.8974356"><ele>343.25</ele><time>2026-04-03T14:34:24.316Z</time></trkpt><trkpt lat="37.6260401" lon="13.8974021"><ele>342.5</ele><time>2026-04-03T14:34:25.316Z</time></trkpt><trkpt lat="37.6258983" lon="13.897371"><ele>341.75</ele><time>2026-04-03T14:34:26.316Z</time></trkpt><trkpt lat="37.6257567" lon="13.8973387"><ele>341.0</ele><time>2026-04-03T14:34:27.316Z</time></trkpt><trkpt lat="37.6256168" lon="13.897306"><ele>341.0</ele><time>2026-04-03T14:34:28.316Z</time></trkpt><trkpt lat="37.625482" lon="13.8972725"><ele>341.0</ele><time>2026-04-03T14:34:29.316Z</time></trkpt><trkpt lat="37.6253525" lon="13.8972394"><ele>341.0</ele><time>2026-04-03T14:34:30.315Z</time></trkpt><trkpt lat="37.6252275" lon="13.89721"><ele>341.0</ele><time>2026-04-03T14:34:31.317Z</time></trkpt><trkpt lat="37.6251069" lon="13.8971806"><ele>340.4</ele><time>2026-04-03T14:34:32.317Z</time></trkpt><trkpt lat="37.6249905" lon="13.8971508"><ele>339.8</ele><time>2026-04-03T14:34:33.316Z</time></trkpt><trkpt lat="37.6248806" lon="13.8971224"><ele>339.2</ele><time>2026-04-03T14:34:34.317Z</time></trkpt><trkpt lat="37.6247748" lon="13.8970951"><ele>338.59999999999997</ele><time>2026-04-03T14:34:35.316Z</time></trkpt><trkpt lat="37.624673" lon="13.897069"><ele>338.0</ele><time>2026-04-03T14:34:36.316Z</time></trkpt><trkpt lat="37.6245768" lon="13.8970442"><ele>338.0</ele><time>2026-04-03T14:34:37.316Z</time></trkpt><trkpt lat="37.6244934" lon="13.8970215"><ele>338.0</ele><time>2026-04-03T14:34:38.317Z</time></trkpt><trkpt lat="37.6244186" lon="13.8970036"><ele>338.0</ele><time>2026-04-03T14:34:39.317Z</time></trkpt><trkpt lat="37.6243473" lon="13.896985"><ele>338.0</ele><time>2026-04-03T14:34:40.317Z</time></trkpt><trkpt lat="37.6242817" lon="13.8969668"><ele>338.0</ele><time>2026-04-03T14:34:41.317Z</time></trkpt><trkpt lat="37.6241654" lon="13.896953"><ele>338.0</ele><time>2026-04-03T14:34:43.317Z</time></trkpt><trkpt lat="37.6240753" lon="13.8969508"><ele>337.79999999999995</ele><time>2026-04-03T14:34:45.317Z</time></trkpt><trkpt lat="37.6240098" lon="13.8969656"><ele>337.6</ele><time>2026-04-03T14:34:48.317Z</time></trkpt><trkpt lat="37.6239252" lon="13.8970225"><ele>337.4</ele><time>2026-04-03T14:34:54.317Z</time></trkpt><trkpt lat="37.6238423" lon="13.8971049"><ele>337.20000000000005</ele><time>2026-04-03T14:34:56.316Z</time></trkpt><trkpt lat="37.6238102" lon="13.8972492"><ele>337.0</ele><time>2026-04-03T14:34:58.317Z</time></trkpt><trkpt lat="37.623817" lon="13.8973328"><ele>337.0</ele><time>2026-04-03T14:34:59.317Z</time></trkpt><trkpt lat="37.6238258" lon="13.8974227"><ele>337.0</ele><time>2026-04-03T14:35:00.317Z</time></trkpt><trkpt lat="37.6238338" lon="13.8975188"><ele>337.0</ele><time>2026-04-03T14:35:01.317Z</time></trkpt><trkpt lat="37.6238409" lon="13.8976181"><ele>337.0</ele><time>2026-04-03T14:35:02.317Z</time></trkpt><trkpt lat="37.6238518" lon="13.8977179"><ele>337.0</ele><time>2026-04-03T14:35:03.317Z</time></trkpt><trkpt lat="37.6238638" lon="13.8978261"><ele>337.0</ele><time>2026-04-03T14:35:04.317Z</time></trkpt><trkpt lat="37.6238717" lon="13.8979407"><ele>337.6</ele><time>2026-04-03T14:35:05.317Z</time></trkpt><trkpt lat="37.6238609" lon="13.8980565"><ele>338.20000000000005</ele><time>2026-04-03T14:35:06.317Z</time></trkpt><trkpt lat="37.6238285" lon="13.8981666"><ele>338.8</ele><time>2026-04-03T14:35:07.317Z</time></trkpt><trkpt lat="37.6237726" lon="13.8982588"><ele>339.4</ele><time>2026-04-03T14:35:08.317Z</time></trkpt><trkpt lat="37.6236962" lon="13.8983293"><ele>340.0</ele><time>2026-04-03T14:35:09.317Z</time></trkpt><trkpt lat="37.6236057" lon="13.8983772"><ele>340.0</ele><time>2026-04-03T14:35:10.317Z</time></trkpt><trkpt lat="37.623505" lon="13.8984045"><ele>340.0</ele><time>2026-04-03T14:35:11.317Z</time></trkpt><trkpt lat="37.6234022" lon="13.8984212"><ele>340.0</ele><time>2026-04-03T14:35:12.316Z</time></trkpt><trkpt lat="37.6232962" lon="13.8984428"><ele>340.0</ele><time>2026-04-03T14:35:13.316Z</time></trkpt><trkpt lat="37.6231883" lon="13.8984655"><ele>340.0</ele><time>2026-04-03T14:35:14.316Z</time></trkpt><trkpt lat="37.6230794" lon="13.8984858"><ele>340.0</ele><time>2026-04-03T14:35:15.316Z</time></trkpt><trkpt lat="37.6229699" lon="13.898503"><ele>340.0</ele><time>2026-04-03T14:35:16.317Z</time></trkpt><trkpt lat="37.622855" lon="13.8985209"><ele>340.0</ele><time>2026-04-03T14:35:17.316Z</time></trkpt><trkpt lat="37.6227343" lon="13.8985377"><ele>340.0</ele><time>2026-04-03T14:35:18.317Z</time></trkpt><trkpt lat="37.6226096" lon="13.8985562"><ele>340.25</ele><time>2026-04-03T14:35:19.317Z</time></trkpt><trkpt lat="37.6224792" lon="13.8985768"><ele>340.5</ele><time>2026-04-03T14:35:20.317Z</time></trkpt><trkpt lat="37.6223483" lon="13.898603"><ele>340.75</ele><time>2026-04-03T14:35:21.317Z</time></trkpt><trkpt lat="37.6222166" lon="13.8986329"><ele>341.0</ele><time>2026-04-03T14:35:22.316Z</time></trkpt><trkpt lat="37.6220851" lon="13.8986662"><ele>341.0</ele><time>2026-04-03T14:35:23.316Z</time></trkpt><trkpt lat="37.621955" lon="13.8987091"><ele>341.0</ele><time>2026-04-03T14:35:24.316Z</time></trkpt><trkpt lat="37.6218274" lon="13.8987596"><ele>341.0</ele><time>2026-04-03T14:35:25.316Z</time></trkpt><trkpt lat="37.6217005" lon="13.8988156"><ele>341.0</ele><time>2026-04-03T14:35:26.317Z</time></trkpt><trkpt lat="37.6215748" lon="13.8988737"><ele>341.0</ele><time>2026-04-03T14:35:27.317Z</time></trkpt><trkpt lat="37.6214501" lon="13.8989353"><ele>341.0</ele><time>2026-04-03T14:35:28.317Z</time></trkpt><trkpt lat="37.6213239" lon="13.898996"><ele>341.0</ele><time>2026-04-03T14:35:29.317Z</time></trkpt><trkpt lat="37.6211981" lon="13.8990582"><ele>341.0</ele><time>2026-04-03T14:35:30.317Z</time></trkpt><trkpt lat="37.6210701" lon="13.8991183"><ele>341.25</ele><time>2026-04-03T14:35:31.317Z</time></trkpt><trkpt lat="37.6209409" lon="13.8991749"><ele>341.5</ele><time>2026-04-03T14:35:32.316Z</time></trkpt><trkpt lat="37.6208079" lon="13.8992182"><ele>341.75</ele><time>2026-04-03T14:35:33.316Z</time></trkpt><trkpt lat="37.620672" lon="13.8992481"><ele>342.0</ele><time>2026-04-03T14:35:34.316Z</time></trkpt><trkpt lat="37.6205345" lon="13.8992753"><ele>342.0</ele><time>2026-04-03T14:35:35.317Z</time></trkpt><trkpt lat="37.6203961" lon="13.8993043"><ele>342.0</ele><time>2026-04-03T14:35:36.317Z</time></trkpt><trkpt lat="37.6202574" lon="13.8993329"><ele>342.0</ele><time>2026-04-03T14:35:37.317Z</time></trkpt><trkpt lat="37.6201199" lon="13.8993644"><ele>342.0</ele><time>2026-04-03T14:35:38.317Z</time></trkpt><trkpt lat="37.619985" lon="13.8993994"><ele>342.5</ele><time>2026-04-03T14:35:39.316Z</time></trkpt><trkpt lat="37.6198482" lon="13.8994322"><ele>343.0</ele><time>2026-04-03T14:35:40.317Z</time></trkpt><trkpt lat="37.6197127" lon="13.8994654"><ele>343.5</ele><time>2026-04-03T14:35:41.317Z</time></trkpt><trkpt lat="37.6195777" lon="13.8995005"><ele>344.0</ele><time>2026-04-03T14:35:42.317Z</time></trkpt><trkpt lat="37.6194454" lon="13.8995339"><ele>344.75</ele><time>2026-04-03T14:35:43.316Z</time></trkpt><trkpt lat="37.6193119" lon="13.899563"><ele>345.5</ele><time>2026-04-03T14:35:44.317Z</time></trkpt><trkpt lat="37.6191776" lon="13.8995833"><ele>346.25</ele><time>2026-04-03T14:35:45.316Z</time></trkpt><trkpt lat="37.6190426" lon="13.899588"><ele>347.0</ele><time>2026-04-03T14:35:46.317Z</time></trkpt><trkpt lat="37.6189066" lon="13.8995736"><ele>347.0</ele><time>2026-04-03T14:35:47.317Z</time></trkpt><trkpt lat="37.6187732" lon="13.8995465"><ele>347.0</ele><time>2026-04-03T14:35:48.317Z</time></trkpt><trkpt lat="37.6186437" lon="13.8995131"><ele>347.0</ele><time>2026-04-03T14:35:49.316Z</time></trkpt><trkpt lat="37.6185202" lon="13.8994657"><ele>347.0</ele><time>2026-04-03T14:35:50.317Z</time></trkpt><trkpt lat="37.6184099" lon="13.8993948"><ele>347.40000000000003</ele><time>2026-04-03T14:35:51.316Z</time></trkpt><trkpt lat="37.6183205" lon="13.8992995"><ele>347.8</ele><time>2026-04-03T14:35:52.316Z</time></trkpt><trkpt lat="37.6182576" lon="13.8991875"><ele>348.2</ele><time>2026-04-03T14:35:53.317Z</time></trkpt><trkpt lat="37.6182151" lon="13.8990644"><ele>348.6</ele><time>2026-04-03T14:35:54.316Z</time></trkpt><trkpt lat="37.6181761" lon="13.8989367"><ele>349.0</ele><time>2026-04-03T14:35:55.317Z</time></trkpt><trkpt lat="37.6181163" lon="13.8988187"><ele>349.0</ele><time>2026-04-03T14:35:56.317Z</time></trkpt><trkpt lat="37.6180389" lon="13.8987171"><ele>349.0</ele><time>2026-04-03T14:35:57.317Z</time></trkpt><trkpt lat="37.6179492" lon="13.8986297"><ele>349.0</ele><time>2026-04-03T14:35:58.317Z</time></trkpt><trkpt lat="37.6178518" lon="13.8985514"><ele>349.0</ele><time>2026-04-03T14:35:59.317Z</time></trkpt><trkpt lat="37.617752" lon="13.8984743"><ele>350.0</ele><time>2026-04-03T14:36:00.315Z</time></trkpt><trkpt lat="37.6176492" lon="13.8983984"><ele>351.0</ele><time>2026-04-03T14:36:01.317Z</time></trkpt><trkpt lat="37.6175461" lon="13.8983179"><ele>352.0</ele><time>2026-04-03T14:36:02.317Z</time></trkpt><trkpt lat="37.6174437" lon="13.8982358"><ele>353.0</ele><time>2026-04-03T14:36:03.317Z</time></trkpt><trkpt lat="37.6173404" lon="13.8981531"><ele>353.0</ele><time>2026-04-03T14:36:04.317Z</time></trkpt><trkpt lat="37.6172349" lon="13.8980736"><ele>353.0</ele><time>2026-04-03T14:36:05.317Z</time></trkpt><trkpt lat="37.6171276" lon="13.8979941"><ele>353.0</ele><time>2026-04-03T14:36:06.317Z</time></trkpt><trkpt lat="37.6170214" lon="13.897914"><ele>353.0</ele><time>2026-04-03T14:36:07.317Z</time></trkpt><trkpt lat="37.6169149" lon="13.8978319"><ele>354.5</ele><time>2026-04-03T14:36:08.317Z</time></trkpt><trkpt lat="37.6168081" lon="13.897749"><ele>356.0</ele><time>2026-04-03T14:36:09.317Z</time></trkpt><trkpt lat="37.6166992" lon="13.8976679"><ele>357.5</ele><time>2026-04-03T14:36:10.317Z</time></trkpt><trkpt lat="37.6165902" lon="13.8975884"><ele>359.0</ele><time>2026-04-03T14:36:11.316Z</time></trkpt><trkpt lat="37.6164764" lon="13.8975208"><ele>359.0</ele><time>2026-04-03T14:36:12.317Z</time></trkpt><trkpt lat="37.616354" lon="13.8974905"><ele>359.0</ele><time>2026-04-03T14:36:13.317Z</time></trkpt><trkpt lat="37.6162293" lon="13.897496"><ele>359.0</ele><time>2026-04-03T14:36:14.316Z</time></trkpt><trkpt lat="37.6161072" lon="13.8975309"><ele>359.0</ele><time>2026-04-03T14:36:15.316Z</time></trkpt><trkpt lat="37.6159887" lon="13.8975844"><ele>362.0</ele><time>2026-04-03T14:36:16.317Z</time></trkpt><trkpt lat="37.6158804" lon="13.8976695"><ele>365.0</ele><time>2026-04-03T14:36:17.317Z</time></trkpt><trkpt lat="37.6157907" lon="13.8977865"><ele>368.0</ele><time>2026-04-03T14:36:18.316Z</time></trkpt><trkpt lat="37.6157163" lon="13.897916"><ele>371.0</ele><time>2026-04-03T14:36:19.316Z</time></trkpt><trkpt lat="37.6156409" lon="13.8980311"><ele>371.0</ele><time>2026-04-03T14:36:20.316Z</time></trkpt><trkpt lat="37.6155551" lon="13.8981148"><ele>371.0</ele><time>2026-04-03T14:36:21.317Z</time></trkpt><trkpt lat="37.6154645" lon="13.8981514"><ele>371.0</ele><time>2026-04-03T14:36:22.316Z</time></trkpt><trkpt lat="37.6153775" lon="13.8981378"><ele>371.0</ele><time>2026-04-03T14:36:23.316Z</time></trkpt><trkpt lat="37.6153061" lon="13.898072"><ele>371.0</ele><time>2026-04-03T14:36:24.316Z</time></trkpt><trkpt lat="37.6152303" lon="13.8980035"><ele>370.6</ele><time>2026-04-03T14:36:25.317Z</time></trkpt><trkpt lat="37.6151443" lon="13.897942"><ele>370.20000000000005</ele><time>2026-04-03T14:36:26.317Z</time></trkpt><trkpt lat="37.6150551" lon="13.8978773"><ele>369.79999999999995</ele><time>2026-04-03T14:36:27.317Z</time></trkpt><trkpt lat="37.614959" lon="13.8978176"><ele>369.4</ele><time>2026-04-03T14:36:28.317Z</time></trkpt><trkpt lat="37.6148569" lon="13.8977629"><ele>369.0</ele><time>2026-04-03T14:36:29.317Z</time></trkpt><trkpt lat="37.6147562" lon="13.8977079"><ele>369.0</ele><time>2026-04-03T14:36:30.316Z</time></trkpt><trkpt lat="37.6146529" lon="13.8976507"><ele>369.0</ele><time>2026-04-03T14:36:31.317Z</time></trkpt><trkpt lat="37.6145501" lon="13.8975951"><ele>369.0</ele><time>2026-04-03T14:36:32.317Z</time></trkpt><trkpt lat="37.6144449" lon="13.8975436"><ele>369.0</ele><time>2026-04-03T14:36:33.317Z</time></trkpt><trkpt lat="37.6143384" lon="13.8974923"><ele>371.5</ele><time>2026-04-03T14:36:34.317Z</time></trkpt><trkpt lat="37.6142319" lon="13.8974381"><ele>374.0</ele><time>2026-04-03T14:36:35.317Z</time></trkpt><trkpt lat="37.6141291" lon="13.8973796"><ele>376.5</ele><time>2026-04-03T14:36:36.317Z</time></trkpt><trkpt lat="37.6140291" lon="13.8973119"><ele>379.0</ele><time>2026-04-03T14:36:37.317Z</time></trkpt><trkpt lat="37.6139291" lon="13.8972386"><ele>379.0</ele><time>2026-04-03T14:36:38.317Z</time></trkpt><trkpt lat="37.613833" lon="13.8971608"><ele>379.0</ele><time>2026-04-03T14:36:39.317Z</time></trkpt><trkpt lat="37.613745" lon="13.8970689"><ele>379.0</ele><time>2026-04-03T14:36:40.316Z</time></trkpt><trkpt lat="37.6136764" lon="13.896955"><ele>379.0</ele><time>2026-04-03T14:36:41.317Z</time></trkpt><trkpt lat="37.6136299" lon="13.8968268"><ele>381.0</ele><time>2026-04-03T14:36:42.316Z</time></trkpt><trkpt lat="37.6136066" lon="13.8966908"><ele>383.0</ele><time>2026-04-03T14:36:43.317Z</time></trkpt><trkpt lat="37.6135991" lon="13.8965514"><ele>385.0</ele><time>2026-04-03T14:36:44.317Z</time></trkpt><trkpt lat="37.6135977" lon="13.8964117"><ele>387.0</ele><time>2026-04-03T14:36:45.317Z</time></trkpt><trkpt lat="37.6136022" lon="13.8962709"><ele>389.0</ele><time>2026-04-03T14:36:46.317Z</time></trkpt><trkpt lat="37.6136034" lon="13.8961303"><ele>389.0</ele><time>2026-04-03T14:36:47.316Z</time></trkpt><trkpt lat="37.613603" lon="13.8959889"><ele>389.0</ele><time>2026-04-03T14:36:48.316Z</time></trkpt><trkpt lat="37.6136035" lon="13.8958462"><ele>389.0</ele><time>2026-04-03T14:36:49.316Z</time></trkpt><trkpt lat="37.6136054" lon="13.8957061"><ele>389.0</ele><time>2026-04-03T14:36:50.316Z</time></trkpt><trkpt lat="37.613606" lon="13.8955692"><ele>389.0</ele><time>2026-04-03T14:36:51.316Z</time></trkpt><trkpt lat="37.6136083" lon="13.8954308"><ele>389.6</ele><time>2026-04-03T14:36:52.315Z</time></trkpt><trkpt lat="37.6136114" lon="13.8952947"><ele>390.2</ele><time>2026-04-03T14:36:53.317Z</time></trkpt><trkpt lat="37.6136169" lon="13.8951592"><ele>390.8</ele><time>2026-04-03T14:36:54.316Z</time></trkpt><trkpt lat="37.6136259" lon="13.8950242"><ele>391.40000000000003</ele><time>2026-04-03T14:36:55.316Z</time></trkpt><trkpt lat="37.613642" lon="13.8948908"><ele>392.0</ele><time>2026-04-03T14:36:56.316Z</time></trkpt><trkpt lat="37.6136706" lon="13.8947625"><ele>390.8</ele><time>2026-04-03T14:36:57.316Z</time></trkpt><trkpt lat="37.6137024" lon="13.8946335"><ele>389.6</ele><time>2026-04-03T14:36:58.316Z</time></trkpt><trkpt lat="37.6137278" lon="13.8945036"><ele>388.40000000000003</ele><time>2026-04-03T14:36:59.315Z</time></trkpt><trkpt lat="37.6137504" lon="13.894377"><ele>387.20000000000005</ele><time>2026-04-03T14:37:00.316Z</time></trkpt><trkpt lat="37.6137598" lon="13.8942528"><ele>386.0</ele><time>2026-04-03T14:37:01.316Z</time></trkpt><trkpt lat="37.6137418" lon="13.8941338"><ele>386.0</ele><time>2026-04-03T14:37:02.316Z</time></trkpt><trkpt lat="37.6137005" lon="13.8940257"><ele>386.0</ele><time>2026-04-03T14:37:03.317Z</time></trkpt><trkpt lat="37.6136346" lon="13.8939358"><ele>386.0</ele><time>2026-04-03T14:37:04.317Z</time></trkpt><trkpt lat="37.6135522" lon="13.8938638"><ele>386.0</ele><time>2026-04-03T14:37:05.317Z</time></trkpt><trkpt lat="37.613457" lon="13.8938141"><ele>386.0</ele><time>2026-04-03T14:37:06.316Z</time></trkpt><trkpt lat="37.6133551" lon="13.8937911"><ele>388.8</ele><time>2026-04-03T14:37:07.316Z</time></trkpt><trkpt lat="37.6132524" lon="13.8937987"><ele>391.6</ele><time>2026-04-03T14:37:08.316Z</time></trkpt><trkpt lat="37.613153" lon="13.893836"><ele>394.4</ele><time>2026-04-03T14:37:09.316Z</time></trkpt><trkpt lat="37.6130577" lon="13.8938842"><ele>397.2</ele><time>2026-04-03T14:37:10.317Z</time></trkpt><trkpt lat="37.6129635" lon="13.8939335"><ele>400.0</ele><time>2026-04-03T14:37:11.317Z</time></trkpt><trkpt lat="37.6128717" lon="13.8939873"><ele>401.4</ele><time>2026-04-03T14:37:12.317Z</time></trkpt><trkpt lat="37.6127782" lon="13.8940423"><ele>402.8</ele><time>2026-04-03T14:37:13.317Z</time></trkpt><trkpt lat="37.6126857" lon="13.8940987"><ele>404.20000000000005</ele><time>2026-04-03T14:37:14.317Z</time></trkpt><trkpt lat="37.612595" lon="13.8941582"><ele>405.6</ele><time>2026-04-03T14:37:15.316Z</time></trkpt><trkpt lat="37.6125003" lon="13.8942038"><ele>407.0</ele><time>2026-04-03T14:37:16.316Z</time></trkpt><trkpt lat="37.6124013" lon="13.8942267"><ele>407.0</ele><time>2026-04-03T14:37:17.316Z</time></trkpt><trkpt lat="37.6123018" lon="13.8942221"><ele>407.0</ele><time>2026-04-03T14:37:18.316Z</time></trkpt><trkpt lat="37.6122044" lon="13.894193"><ele>407.0</ele><time>2026-04-03T14:37:19.316Z</time></trkpt><trkpt lat="37.6121123" lon="13.8941429"><ele>407.0</ele><time>2026-04-03T14:37:20.316Z</time></trkpt><trkpt lat="37.6120224" lon="13.8940794"><ele>407.0</ele><time>2026-04-03T14:37:21.317Z</time></trkpt><trkpt lat="37.6119321" lon="13.8940134"><ele>408.6</ele><time>2026-04-03T14:37:22.317Z</time></trkpt><trkpt lat="37.6118418" lon="13.893944"><ele>410.20000000000005</ele><time>2026-04-03T14:37:23.316Z</time></trkpt><trkpt lat="37.6117498" lon="13.8938747"><ele>411.8</ele><time>2026-04-03T14:37:24.316Z</time></trkpt><trkpt lat="37.6116585" lon="13.893807"><ele>413.4</ele><time>2026-04-03T14:37:25.316Z</time></trkpt><trkpt lat="37.6115685" lon="13.8937381"><ele>415.0</ele><time>2026-04-03T14:37:26.316Z</time></trkpt><trkpt lat="37.6114842" lon="13.8936611"><ele>415.0</ele><time>2026-04-03T14:37:27.317Z</time></trkpt><trkpt lat="37.611409" lon="13.8935694"><ele>415.0</ele><time>2026-04-03T14:37:28.317Z</time></trkpt><trkpt lat="37.6113455" lon="13.8934632"><ele>415.0</ele><time>2026-04-03T14:37:29.317Z</time></trkpt><trkpt lat="37.6112909" lon="13.8933518"><ele>415.0</ele><time>2026-04-03T14:37:30.317Z</time></trkpt><trkpt lat="37.6112406" lon="13.8932378"><ele>415.0</ele><time>2026-04-03T14:37:31.317Z</time></trkpt><trkpt lat="37.6111937" lon="13.8931227"><ele>417.2</ele><time>2026-04-03T14:37:32.317Z</time></trkpt><trkpt lat="37.611146" lon="13.8930107"><ele>419.4</ele><time>2026-04-03T14:37:33.317Z</time></trkpt><trkpt lat="37.6111007" lon="13.8929003"><ele>421.6</ele><time>2026-04-03T14:37:34.316Z</time></trkpt><trkpt lat="37.6110597" lon="13.8927873"><ele>423.8</ele><time>2026-04-03T14:37:35.316Z</time></trkpt><trkpt lat="37.6110168" lon="13.8926748"><ele>426.0</ele><time>2026-04-03T14:37:36.317Z</time></trkpt><trkpt lat="37.610972" lon="13.8925629"><ele>426.20000000000005</ele><time>2026-04-03T14:37:37.316Z</time></trkpt><trkpt lat="37.610926" lon="13.8924519"><ele>426.40000000000003</ele><time>2026-04-03T14:37:38.316Z</time></trkpt><trkpt lat="37.6108818" lon="13.892339"><ele>426.6</ele><time>2026-04-03T14:37:39.316Z</time></trkpt><trkpt lat="37.6108408" lon="13.8922241"><ele>426.8</ele><time>2026-04-03T14:37:40.316Z</time></trkpt><trkpt lat="37.6107978" lon="13.8921099"><ele>427.0</ele><time>2026-04-03T14:37:41.317Z</time></trkpt><trkpt lat="37.610749" lon="13.8919984"><ele>427.0</ele><time>2026-04-03T14:37:42.317Z</time></trkpt><trkpt lat="37.6106929" lon="13.8918907"><ele>427.00000000000006</ele><time>2026-04-03T14:37:43.317Z</time></trkpt><trkpt lat="37.6106279" lon="13.8917902"><ele>427.00000000000006</ele><time>2026-04-03T14:37:44.317Z</time></trkpt><trkpt lat="37.6105551" lon="13.8916978"><ele>427.0</ele><time>2026-04-03T14:37:45.317Z</time></trkpt><trkpt lat="37.6104784" lon="13.8916086"><ele>427.0</ele><time>2026-04-03T14:37:46.315Z</time></trkpt><trkpt lat="37.6104027" lon="13.8915197"><ele>426.8</ele><time>2026-04-03T14:37:47.316Z</time></trkpt><trkpt lat="37.610326" lon="13.8914306"><ele>426.6</ele><time>2026-04-03T14:37:48.316Z</time></trkpt><trkpt lat="37.6102499" lon="13.8913416"><ele>426.40000000000003</ele><time>2026-04-03T14:37:49.316Z</time></trkpt><trkpt lat="37.6101741" lon="13.8912537"><ele>426.20000000000005</ele><time>2026-04-03T14:37:50.316Z</time></trkpt><trkpt lat="37.6100982" lon="13.891167"><ele>426.0</ele><time>2026-04-03T14:37:51.317Z</time></trkpt><trkpt lat="37.6100228" lon="13.8910793"><ele>427.8</ele><time>2026-04-03T14:37:52.317Z</time></trkpt><trkpt lat="37.6099477" lon="13.8909933"><ele>429.6</ele><time>2026-04-03T14:37:53.317Z</time></trkpt><trkpt lat="37.609872" lon="13.8909076"><ele>431.4</ele><time>2026-04-03T14:37:54.316Z</time></trkpt><trkpt lat="37.6097965" lon="13.8908217"><ele>433.2</ele><time>2026-04-03T14:37:55.316Z</time></trkpt><trkpt lat="37.6097218" lon="13.8907352"><ele>435.0</ele><time>2026-04-03T14:37:56.316Z</time></trkpt><trkpt lat="37.6096476" lon="13.890648"><ele>435.0</ele><time>2026-04-03T14:37:57.317Z</time></trkpt><trkpt lat="37.609573" lon="13.8905598"><ele>435.0</ele><time>2026-04-03T14:37:58.317Z</time></trkpt><trkpt lat="37.6094981" lon="13.890472"><ele>435.0</ele><time>2026-04-03T14:37:59.316Z</time></trkpt><trkpt lat="37.6094209" lon="13.890388"><ele>435.0</ele><time>2026-04-03T14:38:00.316Z</time></trkpt><trkpt lat="37.6093364" lon="13.8903134"><ele>435.0</ele><time>2026-04-03T14:38:01.315Z</time></trkpt><trkpt lat="37.609247" lon="13.8902491"><ele>436.6</ele><time>2026-04-03T14:38:02.317Z</time></trkpt><trkpt lat="37.6091558" lon="13.8901889"><ele>438.2</ele><time>2026-04-03T14:38:03.317Z</time></trkpt><trkpt lat="37.6090645" lon="13.890128"><ele>439.79999999999995</ele><time>2026-04-03T14:38:04.317Z</time></trkpt><trkpt lat="37.6089745" lon="13.8900632"><ele>441.4</ele><time>2026-04-03T14:38:05.317Z</time></trkpt><trkpt lat="37.6088862" lon="13.8899916"><ele>443.0</ele><time>2026-04-03T14:38:06.317Z</time></trkpt><trkpt lat="37.6088028" lon="13.8899137"><ele>443.0</ele><time>2026-04-03T14:38:07.317Z</time></trkpt><trkpt lat="37.608722" lon="13.8898331"><ele>442.99999999999994</ele><time>2026-04-03T14:38:08.316Z</time></trkpt><trkpt lat="37.6086453" lon="13.8897503"><ele>442.99999999999994</ele><time>2026-04-03T14:38:09.316Z</time></trkpt><trkpt lat="37.6085617" lon="13.8896777"><ele>443.0</ele><time>2026-04-03T14:38:10.317Z</time></trkpt><trkpt lat="37.6084674" lon="13.8896291"><ele>443.0</ele><time>2026-04-03T14:38:11.317Z</time></trkpt><trkpt lat="37.6083667" lon="13.8896015"><ele>445.4</ele><time>2026-04-03T14:38:12.316Z</time></trkpt><trkpt lat="37.6082628" lon="13.8895925"><ele>447.79999999999995</ele><time>2026-04-03T14:38:13.317Z</time></trkpt><trkpt lat="37.6081584" lon="13.8895913"><ele>450.2</ele><time>2026-04-03T14:38:14.317Z</time></trkpt><trkpt lat="37.6080527" lon="13.8895918"><ele>452.6</ele><time>2026-04-03T14:38:15.316Z</time></trkpt><trkpt lat="37.6079478" lon="13.8895972"><ele>455.0</ele><time>2026-04-03T14:38:16.316Z</time></trkpt><trkpt lat="37.6078454" lon="13.889612"><ele>456.8</ele><time>2026-04-03T14:38:17.316Z</time></trkpt><trkpt lat="37.6077498" lon="13.8896396"><ele>458.6</ele><time>2026-04-03T14:38:18.317Z</time></trkpt><trkpt lat="37.6076716" lon="13.8896939"><ele>460.4</ele><time>2026-04-03T14:38:19.316Z</time></trkpt><trkpt lat="37.6076106" lon="13.8897742"><ele>462.2</ele><time>2026-04-03T14:38:20.317Z</time></trkpt><trkpt lat="37.6075832" lon="13.8898841"><ele>464.0</ele><time>2026-04-03T14:38:21.317Z</time></trkpt><trkpt lat="37.6075784" lon="13.8899961"><ele>465.16666666666663</ele><time>2026-04-03T14:38:22.317Z</time></trkpt><trkpt lat="37.6076012" lon="13.8901034"><ele>466.3333333333333</ele><time>2026-04-03T14:38:23.317Z</time></trkpt><trkpt lat="37.6076445" lon="13.8902012"><ele>467.5</ele><time>2026-04-03T14:38:24.317Z</time></trkpt><trkpt lat="37.6076905" lon="13.8902953"><ele>468.66666666666663</ele><time>2026-04-03T14:38:25.316Z</time></trkpt><trkpt lat="37.6077315" lon="13.8903922"><ele>469.8333333333333</ele><time>2026-04-03T14:38:26.315Z</time></trkpt><trkpt lat="37.6077701" lon="13.89049"><ele>471.0</ele><time>2026-04-03T14:38:27.316Z</time></trkpt><trkpt lat="37.6078139" lon="13.8905872"><ele>469.8</ele><time>2026-04-03T14:38:28.316Z</time></trkpt><trkpt lat="37.6078642" lon="13.8906813"><ele>468.6</ele><time>2026-04-03T14:38:29.317Z</time></trkpt><trkpt lat="37.6079105" lon="13.8907784"><ele>467.4</ele><time>2026-04-03T14:38:30.316Z</time></trkpt><trkpt lat="37.6079464" lon="13.8908846"><ele>466.2</ele><time>2026-04-03T14:38:31.316Z</time></trkpt><trkpt lat="37.607976" lon="13.8909958"><ele>465.0</ele><time>2026-04-03T14:38:32.316Z</time></trkpt><trkpt lat="37.6079976" lon="13.891112"><ele>465.0</ele><time>2026-04-03T14:38:33.316Z</time></trkpt><trkpt lat="37.6080115" lon="13.8912294"><ele>465.0</ele><time>2026-04-03T14:38:34.316Z</time></trkpt><trkpt lat="37.6080188" lon="13.8913503"><ele>465.0</ele><time>2026-04-03T14:38:35.316Z</time></trkpt><trkpt lat="37.608024" lon="13.8914718"><ele>465.0</ele><time>2026-04-03T14:38:36.317Z</time></trkpt><trkpt lat="37.6080247" lon="13.8915953"><ele>465.0</ele><time>2026-04-03T14:38:37.317Z</time></trkpt><trkpt lat="37.6080159" lon="13.891718"><ele>465.4</ele><time>2026-04-03T14:38:38.317Z</time></trkpt><trkpt lat="37.607996" lon="13.8918406"><ele>465.8</ele><time>2026-04-03T14:38:39.317Z</time></trkpt><trkpt lat="37.6079657" lon="13.8919587"><ele>466.20000000000005</ele><time>2026-04-03T14:38:40.317Z</time></trkpt><trkpt lat="37.6079242" lon="13.8920729"><ele>466.6</ele><time>2026-04-03T14:38:41.317Z</time></trkpt><trkpt lat="37.6078831" lon="13.8921865"><ele>467.0</ele><time>2026-04-03T14:38:42.316Z</time></trkpt><trkpt lat="37.607839" lon="13.8923024"><ele>469.0</ele><time>2026-04-03T14:38:43.317Z</time></trkpt><trkpt lat="37.6077955" lon="13.8924202"><ele>471.00000000000006</ele><time>2026-04-03T14:38:44.317Z</time></trkpt><trkpt lat="37.6077574" lon="13.8925441"><ele>473.00000000000006</ele><time>2026-04-03T14:38:45.316Z</time></trkpt><trkpt lat="37.6077319" lon="13.8926758"><ele>475.0</ele><time>2026-04-03T14:38:46.317Z</time></trkpt><trkpt lat="37.6077145" lon="13.8928098"><ele>477.0</ele><time>2026-04-03T14:38:47.317Z</time></trkpt><trkpt lat="37.6077013" lon="13.8929457"><ele>477.8</ele><time>2026-04-03T14:38:48.317Z</time></trkpt><trkpt lat="37.6076915" lon="13.8930824"><ele>478.6</ele><time>2026-04-03T14:38:49.317Z</time></trkpt><trkpt lat="37.6076816" lon="13.8932168"><ele>479.40000000000003</ele><time>2026-04-03T14:38:50.317Z</time></trkpt><trkpt lat="37.6076612" lon="13.8933494"><ele>480.20000000000005</ele><time>2026-04-03T14:38:51.317Z</time></trkpt><trkpt lat="37.6076292" lon="13.8934768"><ele>481.0</ele><time>2026-04-03T14:38:52.317Z</time></trkpt><trkpt lat="37.6075929" lon="13.893603"><ele>481.0</ele><time>2026-04-03T14:38:53.316Z</time></trkpt><trkpt lat="37.6075558" lon="13.8937291"><ele>481.0</ele><time>2026-04-03T14:38:54.317Z</time></trkpt><trkpt lat="37.6075157" lon="13.8938561"><ele>481.0</ele><time>2026-04-03T14:38:55.317Z</time></trkpt><trkpt lat="37.6074736" lon="13.8939808"><ele>481.0</ele><time>2026-04-03T14:38:56.317Z</time></trkpt><trkpt lat="37.6074295" lon="13.8941056"><ele>481.0</ele><time>2026-04-03T14:38:57.317Z</time></trkpt><trkpt lat="37.6073901" lon="13.8942323"><ele>481.20000000000005</ele><time>2026-04-03T14:38:58.317Z</time></trkpt><trkpt lat="37.6073584" lon="13.8943632"><ele>481.40000000000003</ele><time>2026-04-03T14:38:59.317Z</time></trkpt><trkpt lat="37.6073304" lon="13.8944958"><ele>481.6</ele><time>2026-04-03T14:39:00.316Z</time></trkpt><trkpt lat="37.6073027" lon="13.8946292"><ele>481.8</ele><time>2026-04-03T14:39:01.316Z</time></trkpt><trkpt lat="37.6072781" lon="13.8947646"><ele>482.0</ele><time>2026-04-03T14:39:02.315Z</time></trkpt><trkpt lat="37.6072596" lon="13.8949014"><ele>482.0</ele><time>2026-04-03T14:39:03.316Z</time></trkpt><trkpt lat="37.6072406" lon="13.8950384"><ele>482.00000000000006</ele><time>2026-04-03T14:39:04.317Z</time></trkpt><trkpt lat="37.6072193" lon="13.8951742"><ele>482.00000000000006</ele><time>2026-04-03T14:39:05.317Z</time></trkpt><trkpt lat="37.6072018" lon="13.8953111"><ele>482.0</ele><time>2026-04-03T14:39:06.317Z</time></trkpt><trkpt lat="37.6071805" lon="13.8954476"><ele>482.0</ele><time>2026-04-03T14:39:07.317Z</time></trkpt><trkpt lat="37.6071474" lon="13.8955811"><ele>482.25</ele><time>2026-04-03T14:39:08.317Z</time></trkpt><trkpt lat="37.6071037" lon="13.8957104"><ele>482.5</ele><time>2026-04-03T14:39:09.317Z</time></trkpt><trkpt lat="37.6070467" lon="13.8958348"><ele>482.75</ele><time>2026-04-03T14:39:10.317Z</time></trkpt><trkpt lat="37.6069787" lon="13.8959522"><ele>483.0</ele><time>2026-04-03T14:39:11.316Z</time></trkpt><trkpt lat="37.6068988" lon="13.8960588"><ele>484.5</ele><time>2026-04-03T14:39:12.316Z</time></trkpt><trkpt lat="37.6068136" lon="13.8961574"><ele>486.0</ele><time>2026-04-03T14:39:13.316Z</time></trkpt><trkpt lat="37.6067273" lon="13.8962534"><ele>487.5</ele><time>2026-04-03T14:39:14.316Z</time></trkpt><trkpt lat="37.6066406" lon="13.8963544"><ele>489.0</ele><time>2026-04-03T14:39:15.317Z</time></trkpt><trkpt lat="37.6065547" lon="13.89646"><ele>489.0</ele><time>2026-04-03T14:39:16.317Z</time></trkpt><trkpt lat="37.6064747" lon="13.8965766"><ele>489.0</ele><time>2026-04-03T14:39:17.317Z</time></trkpt><trkpt lat="37.6064" lon="13.8967029"><ele>489.0</ele><time>2026-04-03T14:39:18.317Z</time></trkpt><trkpt lat="37.6063324" lon="13.8968378"><ele>489.0</ele><time>2026-04-03T14:39:19.317Z</time></trkpt><trkpt lat="37.6062732" lon="13.8969814"><ele>489.0</ele><time>2026-04-03T14:39:20.317Z</time></trkpt><trkpt lat="37.6062207" lon="13.8971309"><ele>489.0</ele><time>2026-04-03T14:39:21.317Z</time></trkpt><trkpt lat="37.6061697" lon="13.8972817"><ele>489.0</ele><time>2026-04-03T14:39:22.316Z</time></trkpt><trkpt lat="37.6061179" lon="13.8974323"><ele>489.0</ele><time>2026-04-03T14:39:23.317Z</time></trkpt><trkpt lat="37.6060671" lon="13.8975838"><ele>490.25</ele><time>2026-04-03T14:39:24.317Z</time></trkpt><trkpt lat="37.6060193" lon="13.8977382"><ele>491.5</ele><time>2026-04-03T14:39:25.317Z</time></trkpt><trkpt lat="37.6059721" lon="13.8978922"><ele>492.75</ele><time>2026-04-03T14:39:26.317Z</time></trkpt><trkpt lat="37.6059231" lon="13.8980458"><ele>494.0</ele><time>2026-04-03T14:39:27.316Z</time></trkpt><trkpt lat="37.6058739" lon="13.898199"><ele>494.0</ele><time>2026-04-03T14:39:28.317Z</time></trkpt><trkpt lat="37.6058263" lon="13.8983522"><ele>494.0</ele><time>2026-04-03T14:39:29.317Z</time></trkpt><trkpt lat="37.6057779" lon="13.8985051"><ele>494.0</ele><time>2026-04-03T14:39:30.317Z</time></trkpt><trkpt lat="37.605728" lon="13.8986564"><ele>494.0</ele><time>2026-04-03T14:39:31.317Z</time></trkpt><trkpt lat="37.6056773" lon="13.8988072"><ele>495.0</ele><time>2026-04-03T14:39:32.317Z</time></trkpt><trkpt lat="37.6056285" lon="13.8989585"><ele>496.0</ele><time>2026-04-03T14:39:33.317Z</time></trkpt><trkpt lat="37.6055782" lon="13.899108"><ele>497.0</ele><time>2026-04-03T14:39:34.317Z</time></trkpt><trkpt lat="37.6055181" lon="13.8992502"><ele>498.0</ele><time>2026-04-03T14:39:35.317Z</time></trkpt><trkpt lat="37.6054465" lon="13.8993807"><ele>498.0</ele><time>2026-04-03T14:39:36.317Z</time></trkpt><trkpt lat="37.6053636" lon="13.8994975"><ele>498.0</ele><time>2026-04-03T14:39:37.317Z</time></trkpt><trkpt lat="37.6052716" lon="13.899599"><ele>498.0</ele><time>2026-04-03T14:39:38.317Z</time></trkpt><trkpt lat="37.6051726" lon="13.8996856"><ele>498.0</ele><time>2026-04-03T14:39:39.317Z</time></trkpt><trkpt lat="37.6050683" lon="13.8997581"><ele>499.5</ele><time>2026-04-03T14:39:40.317Z</time></trkpt><trkpt lat="37.6049597" lon="13.8998177"><ele>501.0</ele><time>2026-04-03T14:39:41.317Z</time></trkpt><trkpt lat="37.60485" lon="13.8998735"><ele>502.5</ele><time>2026-04-03T14:39:42.317Z</time></trkpt><trkpt lat="37.6047425" lon="13.8999296"><ele>504.0</ele><time>2026-04-03T14:39:43.316Z</time></trkpt><trkpt lat="37.6046363" lon="13.8999851"><ele>504.0</ele><time>2026-04-03T14:39:44.316Z</time></trkpt><trkpt lat="37.604531" lon="13.9000378"><ele>504.0</ele><time>2026-04-03T14:39:45.316Z</time></trkpt><trkpt lat="37.6044264" lon="13.9000916"><ele>504.0</ele><time>2026-04-03T14:39:46.317Z</time></trkpt><trkpt lat="37.6043294" lon="13.9001592"><ele>504.0</ele><time>2026-04-03T14:39:47.317Z</time></trkpt><trkpt lat="37.6042472" lon="13.9002322"><ele>504.0</ele><time>2026-04-03T14:39:48.317Z</time></trkpt><trkpt lat="37.6041745" lon="13.9003072"><ele>507.2</ele><time>2026-04-03T14:39:49.316Z</time></trkpt><trkpt lat="37.6041094" lon="13.9003911"><ele>510.4</ele><time>2026-04-03T14:39:50.317Z</time></trkpt><trkpt lat="37.604056" lon="13.900489"><ele>513.6</ele><time>2026-04-03T14:39:51.317Z</time></trkpt><trkpt lat="37.604018" lon="13.9006004"><ele>516.8</ele><time>2026-04-03T14:39:52.317Z</time></trkpt><trkpt lat="37.6040031" lon="13.9007205"><ele>520.0</ele><time>2026-04-03T14:39:53.317Z</time></trkpt><trkpt lat="37.6040036" lon="13.9008431"><ele>519.8</ele><time>2026-04-03T14:39:54.317Z</time></trkpt><trkpt lat="37.6040069" lon="13.9009634"><ele>519.6</ele><time>2026-04-03T14:39:55.317Z</time></trkpt><trkpt lat="37.604008" lon="13.9010802"><ele>519.4</ele><time>2026-04-03T14:39:56.317Z</time></trkpt><trkpt lat="37.6039995" lon="13.9011914"><ele>519.2</ele><time>2026-04-03T14:39:57.316Z</time></trkpt><trkpt lat="37.603967" lon="13.9012959"><ele>519.0</ele><time>2026-04-03T14:39:58.316Z</time></trkpt><trkpt lat="37.6039125" lon="13.901385"><ele>519.0</ele><time>2026-04-03T14:39:59.316Z</time></trkpt><trkpt lat="37.6038407" lon="13.9014587"><ele>519.0</ele><time>2026-04-03T14:40:00.316Z</time></trkpt><trkpt lat="37.603764" lon="13.901534"><ele>519.0</ele><time>2026-04-03T14:40:01.316Z</time></trkpt><trkpt lat="37.6036836" lon="13.9016098"><ele>519.0</ele><time>2026-04-03T14:40:02.317Z</time></trkpt><trkpt lat="37.6035986" lon="13.9016836"><ele>519.0</ele><time>2026-04-03T14:40:03.317Z</time></trkpt><trkpt lat="37.6035122" lon="13.9017555"><ele>520.8</ele><time>2026-04-03T14:40:04.317Z</time></trkpt><trkpt lat="37.6034257" lon="13.9018266"><ele>522.5999999999999</ele><time>2026-04-03T14:40:05.316Z</time></trkpt><trkpt lat="37.6033354" lon="13.9018887"><ele>524.4</ele><time>2026-04-03T14:40:06.316Z</time></trkpt><trkpt lat="37.6032395" lon="13.9019363"><ele>526.1999999999999</ele><time>2026-04-03T14:40:07.316Z</time></trkpt><trkpt lat="37.603147" lon="13.9019878"><ele>528.0</ele><time>2026-04-03T14:40:08.316Z</time></trkpt><trkpt lat="37.6030747" lon="13.9020574"><ele>528.0</ele><time>2026-04-03T14:40:09.317Z</time></trkpt><trkpt lat="37.6030252" lon="13.9021493"><ele>528.0</ele><time>2026-04-03T14:40:10.317Z</time></trkpt><trkpt lat="37.6029966" lon="13.9022557"><ele>528.0</ele><time>2026-04-03T14:40:11.317Z</time></trkpt><trkpt lat="37.6029918" lon="13.9023672"><ele>528.0</ele><time>2026-04-03T14:40:12.316Z</time></trkpt><trkpt lat="37.6029983" lon="13.902479"><ele>528.0</ele><time>2026-04-03T14:40:13.316Z</time></trkpt><trkpt lat="37.6029926" lon="13.9025909"><ele>528.0</ele><time>2026-04-03T14:40:14.317Z</time></trkpt><trkpt lat="37.6029708" lon="13.9027014"><ele>528.1666666666666</ele><time>2026-04-03T14:40:15.316Z</time></trkpt><trkpt lat="37.6029335" lon="13.9028062"><ele>528.3333333333334</ele><time>2026-04-03T14:40:16.316Z</time></trkpt><trkpt lat="37.6028829" lon="13.902905"><ele>528.5</ele><time>2026-04-03T14:40:17.316Z</time></trkpt><trkpt lat="37.6028203" lon="13.9029942"><ele>528.6666666666667</ele><time>2026-04-03T14:40:18.316Z</time></trkpt><trkpt lat="37.6027477" lon="13.9030525"><ele>528.8333333333334</ele><time>2026-04-03T14:40:19.316Z</time></trkpt><trkpt lat="37.6026659" lon="13.9030686"><ele>529.0</ele><time>2026-04-03T14:40:20.316Z</time></trkpt><trkpt lat="37.6025791" lon="13.9030583"><ele>531.0</ele><time>2026-04-03T14:40:21.316Z</time></trkpt><trkpt lat="37.6024899" lon="13.9030483"><ele>533.0</ele><time>2026-04-03T14:40:22.316Z</time></trkpt><trkpt lat="37.6023976" lon="13.9030396"><ele>535.0</ele><time>2026-04-03T14:40:23.316Z</time></trkpt><trkpt lat="37.6023029" lon="13.903038"><ele>537.0</ele><time>2026-04-03T14:40:24.316Z</time></trkpt><trkpt lat="37.6022064" lon="13.9030528"><ele>539.0</ele><time>2026-04-03T14:40:25.317Z</time></trkpt><trkpt lat="37.6021115" lon="13.9030886"><ele>539.0</ele><time>2026-04-03T14:40:26.317Z</time></trkpt><trkpt lat="37.6020245" lon="13.9031487"><ele>539.0</ele><time>2026-04-03T14:40:27.317Z</time></trkpt><trkpt lat="37.6019476" lon="13.9032334"><ele>539.0</ele><time>2026-04-03T14:40:28.317Z</time></trkpt><trkpt lat="37.6018858" lon="13.9033365"><ele>539.0</ele><time>2026-04-03T14:40:29.317Z</time></trkpt><trkpt lat="37.6018372" lon="13.9034509"><ele>539.0</ele><time>2026-04-03T14:40:30.317Z</time></trkpt><trkpt lat="37.6017893" lon="13.903565"><ele>540.8</ele><time>2026-04-03T14:40:31.317Z</time></trkpt><trkpt lat="37.6017347" lon="13.9036773"><ele>542.5999999999999</ele><time>2026-04-03T14:40:32.317Z</time></trkpt><trkpt lat="37.601676" lon="13.9037865"><ele>544.4</ele><time>2026-04-03T14:40:33.317Z</time></trkpt><trkpt lat="37.6016256" lon="13.9039042"><ele>546.1999999999999</ele><time>2026-04-03T14:40:34.317Z</time></trkpt><trkpt lat="37.601594" lon="13.9040319"><ele>548.0</ele><time>2026-04-03T14:40:35.317Z</time></trkpt><trkpt lat="37.6015705" lon="13.9041607"><ele>548.8</ele><time>2026-04-03T14:40:36.317Z</time></trkpt><trkpt lat="37.6015324" lon="13.9042822"><ele>549.5999999999999</ele><time>2026-04-03T14:40:37.317Z</time></trkpt><trkpt lat="37.6014771" lon="13.904391"><ele>550.4000000000001</ele><time>2026-04-03T14:40:38.317Z</time></trkpt><trkpt lat="37.6014069" lon="13.9044844"><ele>551.2</ele><time>2026-04-03T14:40:39.316Z</time></trkpt><trkpt lat="37.6013278" lon="13.9045671"><ele>552.0</ele><time>2026-04-03T14:40:40.316Z</time></trkpt><trkpt lat="37.6012444" lon="13.9046435"><ele>552.0</ele><time>2026-04-03T14:40:41.317Z</time></trkpt><trkpt lat="37.6011663" lon="13.9047311"><ele>552.0</ele><time>2026-04-03T14:40:42.318Z</time></trkpt><trkpt lat="37.6011053" lon="13.9048343"><ele>552.0</ele><time>2026-04-03T14:40:43.318Z</time></trkpt><trkpt lat="37.6010655" lon="13.9049486"><ele>552.0</ele><time>2026-04-03T14:40:44.318Z</time></trkpt><trkpt lat="37.6010416" lon="13.9050693"><ele>552.0</ele><time>2026-04-03T14:40:45.318Z</time></trkpt><trkpt lat="37.6010285" lon="13.9051928"><ele>554.8000000000001</ele><time>2026-04-03T14:40:46.318Z</time></trkpt><trkpt lat="37.6010209" lon="13.9053182"><ele>557.6</ele><time>2026-04-03T14:40:47.318Z</time></trkpt><trkpt lat="37.601015" lon="13.9054474"><ele>560.4000000000001</ele><time>2026-04-03T14:40:48.317Z</time></trkpt><trkpt lat="37.6010111" lon="13.9055778"><ele>563.2</ele><time>2026-04-03T14:40:49.318Z</time></trkpt><trkpt lat="37.6010066" lon="13.9057089"><ele>566.0</ele><time>2026-04-03T14:40:50.318Z</time></trkpt><trkpt lat="37.6009986" lon="13.90584"><ele>566.8</ele><time>2026-04-03T14:40:51.318Z</time></trkpt><trkpt lat="37.6009855" lon="13.9059702"><ele>567.6</ele><time>2026-04-03T14:40:52.318Z</time></trkpt><trkpt lat="37.6009584" lon="13.9060963"><ele>568.4</ele><time>2026-04-03T14:40:53.318Z</time></trkpt><trkpt lat="37.6009117" lon="13.9062096"><ele>569.2</ele><time>2026-04-03T14:40:54.318Z</time></trkpt><trkpt lat="37.6008499" lon="13.9063069"><ele>570.0</ele><time>2026-04-03T14:40:55.318Z</time></trkpt><trkpt lat="37.600777" lon="13.9063824"><ele>570.0</ele><time>2026-04-03T14:40:56.318Z</time></trkpt><trkpt lat="37.6006945" lon="13.9064254"><ele>570.0</ele><time>2026-04-03T14:40:57.318Z</time></trkpt><trkpt lat="37.6006041" lon="13.9064401"><ele>570.0</ele><time>2026-04-03T14:40:58.318Z</time></trkpt><trkpt lat="37.6005104" lon="13.9064241"><ele>570.0</ele><time>2026-04-03T14:40:59.318Z</time></trkpt><trkpt lat="37.6004184" lon="13.9063894"><ele>570.0</ele><time>2026-04-03T14:41:00.318Z</time></trkpt><trkpt lat="37.6003281" lon="13.9063482"><ele>572.4</ele><time>2026-04-03T14:41:01.318Z</time></trkpt><trkpt lat="37.6002373" lon="13.9063055"><ele>574.8</ele><time>2026-04-03T14:41:02.318Z</time></trkpt><trkpt lat="37.6001437" lon="13.9062655"><ele>577.2</ele><time>2026-04-03T14:41:03.318Z</time></trkpt><trkpt lat="37.6000473" lon="13.9062314"><ele>579.6</ele><time>2026-04-03T14:41:04.317Z</time></trkpt><trkpt lat="37.5999478" lon="13.9062026"><ele>582.0</ele><time>2026-04-03T14:41:05.318Z</time></trkpt><trkpt lat="37.5998461" lon="13.9061736"><ele>582.0</ele><time>2026-04-03T14:41:06.318Z</time></trkpt><trkpt lat="37.5997444" lon="13.906134"><ele>582.0</ele><time>2026-04-03T14:41:07.317Z</time></trkpt><trkpt lat="37.5996437" lon="13.9060888"><ele>582.0</ele><time>2026-04-03T14:41:08.317Z</time></trkpt><trkpt lat="37.5995455" lon="13.9060343"><ele>582.0</ele><time>2026-04-03T14:41:09.317Z</time></trkpt><trkpt lat="37.5994482" lon="13.9059689"><ele>582.0</ele><time>2026-04-03T14:41:10.317Z</time></trkpt><trkpt lat="37.5993511" lon="13.9058984"><ele>582.5</ele><time>2026-04-03T14:41:11.317Z</time></trkpt><trkpt lat="37.5992515" lon="13.9058287"><ele>583.0</ele><time>2026-04-03T14:41:12.317Z</time></trkpt><trkpt lat="37.5991514" lon="13.9057624"><ele>583.5</ele><time>2026-04-03T14:41:13.317Z</time></trkpt><trkpt lat="37.5990495" lon="13.905697"><ele>584.0</ele><time>2026-04-03T14:41:14.317Z</time></trkpt><trkpt lat="37.5989468" lon="13.9056289"><ele>584.0</ele><time>2026-04-03T14:41:15.318Z</time></trkpt><trkpt lat="37.5988444" lon="13.9055599"><ele>584.0</ele><time>2026-04-03T14:41:16.318Z</time></trkpt><trkpt lat="37.598746" lon="13.9054947"><ele>584.0</ele><time>2026-04-03T14:41:17.318Z</time></trkpt><trkpt lat="37.5986473" lon="13.9054276"><ele>584.0</ele><time>2026-04-03T14:41:18.318Z</time></trkpt><trkpt lat="37.5985503" lon="13.9053622"><ele>584.0</ele><time>2026-04-03T14:41:19.318Z</time></trkpt><trkpt lat="37.5984542" lon="13.9053007"><ele>585.8</ele><time>2026-04-03T14:41:20.318Z</time></trkpt><trkpt lat="37.5983597" lon="13.905242"><ele>587.5999999999999</ele><time>2026-04-03T14:41:21.318Z</time></trkpt><trkpt lat="37.5982671" lon="13.9051826"><ele>589.4</ele><time>2026-04-03T14:41:22.317Z</time></trkpt><trkpt lat="37.5981764" lon="13.9051194"><ele>591.1999999999999</ele><time>2026-04-03T14:41:23.318Z</time></trkpt><trkpt lat="37.5980889" lon="13.9050536"><ele>593.0</ele><time>2026-04-03T14:41:24.318Z</time></trkpt><trkpt lat="37.5980033" lon="13.9049857"><ele>593.0</ele><time>2026-04-03T14:41:25.318Z</time></trkpt><trkpt lat="37.59792" lon="13.9049164"><ele>593.0</ele><time>2026-04-03T14:41:26.317Z</time></trkpt><trkpt lat="37.5978411" lon="13.9048399"><ele>593.0</ele><time>2026-04-03T14:41:27.317Z</time></trkpt><trkpt lat="37.5977688" lon="13.9047542"><ele>593.0</ele><time>2026-04-03T14:41:28.316Z</time></trkpt><trkpt lat="37.5977029" lon="13.9046586"><ele>593.0</ele><time>2026-04-03T14:41:29.317Z</time></trkpt><trkpt lat="37.5976424" lon="13.9045544"><ele>594.1999999999999</ele><time>2026-04-03T14:41:30.318Z</time></trkpt><trkpt lat="37.5975846" lon="13.9044446"><ele>595.4</ele><time>2026-04-03T14:41:31.317Z</time></trkpt><trkpt lat="37.5975269" lon="13.9043312"><ele>596.5999999999999</ele><time>2026-04-03T14:41:32.317Z</time></trkpt><trkpt lat="37.5974707" lon="13.9042128"><ele>597.8</ele><time>2026-04-03T14:41:33.317Z</time></trkpt><trkpt lat="37.5974113" lon="13.9040956"><ele>599.0</ele><time>2026-04-03T14:41:34.317Z</time></trkpt><trkpt lat="37.5973451" lon="13.9039831"><ele>599.0</ele><time>2026-04-03T14:41:35.317Z</time></trkpt><trkpt lat="37.5972701" lon="13.9038791"><ele>599.0</ele><time>2026-04-03T14:41:36.317Z</time></trkpt><trkpt lat="37.5971872" lon="13.9037848"><ele>599.0</ele><time>2026-04-03T14:41:37.317Z</time></trkpt><trkpt lat="37.5971019" lon="13.9036939"><ele>599.0</ele><time>2026-04-03T14:41:38.316Z</time></trkpt><trkpt lat="37.597017" lon="13.9036011"><ele>599.0</ele><time>2026-04-03T14:41:39.317Z</time></trkpt><trkpt lat="37.5969349" lon="13.9035098"><ele>599.4</ele><time>2026-04-03T14:41:40.317Z</time></trkpt><trkpt lat="37.5968566" lon="13.9034275"><ele>599.8</ele><time>2026-04-03T14:41:41.318Z</time></trkpt><trkpt lat="37.596777" lon="13.9033629"><ele>600.2</ele><time>2026-04-03T14:41:42.318Z</time></trkpt><trkpt lat="37.5966909" lon="13.9033279"><ele>600.6</ele><time>2026-04-03T14:41:43.318Z</time></trkpt><trkpt lat="37.5965972" lon="13.9033262"><ele>601.0</ele><time>2026-04-03T14:41:44.318Z</time></trkpt><trkpt lat="37.5965075" lon="13.9033631"><ele>602.6</ele><time>2026-04-03T14:41:45.317Z</time></trkpt><trkpt lat="37.5964342" lon="13.9034384"><ele>604.2</ele><time>2026-04-03T14:41:46.318Z</time></trkpt><trkpt lat="37.5963874" lon="13.9035432"><ele>605.8</ele><time>2026-04-03T14:41:47.318Z</time></trkpt><trkpt lat="37.5963628" lon="13.9036593"><ele>607.4</ele><time>2026-04-03T14:41:48.317Z</time></trkpt><trkpt lat="37.5963593" lon="13.9037817"><ele>609.0</ele><time>2026-04-03T14:41:49.318Z</time></trkpt><trkpt lat="37.5963768" lon="13.9039037"><ele>609.0</ele><time>2026-04-03T14:41:50.318Z</time></trkpt><trkpt lat="37.5964089" lon="13.9040244"><ele>609.0</ele><time>2026-04-03T14:41:51.318Z</time></trkpt><trkpt lat="37.5964482" lon="13.9041439"><ele>609.0</ele><time>2026-04-03T14:41:52.318Z</time></trkpt><trkpt lat="37.596487" lon="13.9042644"><ele>609.0</ele><time>2026-04-03T14:41:53.317Z</time></trkpt><trkpt lat="37.5965285" lon="13.9043862"><ele>609.0</ele><time>2026-04-03T14:41:54.317Z</time></trkpt><trkpt lat="37.5965661" lon="13.9045123"><ele>610.6</ele><time>2026-04-03T14:41:55.318Z</time></trkpt><trkpt lat="37.5965915" lon="13.9046442"><ele>612.2</ele><time>2026-04-03T14:41:56.318Z</time></trkpt><trkpt lat="37.5966004" lon="13.9047797"><ele>613.8000000000001</ele><time>2026-04-03T14:41:57.317Z</time></trkpt><trkpt lat="37.5965936" lon="13.9049155"><ele>615.4</ele><time>2026-04-03T14:41:58.317Z</time></trkpt><trkpt lat="37.5965659" lon="13.9050477"><ele>617.0</ele><time>2026-04-03T14:41:59.316Z</time></trkpt><trkpt lat="37.5965197" lon="13.9051675"><ele>617.6</ele><time>2026-04-03T14:42:00.316Z</time></trkpt><trkpt lat="37.5964662" lon="13.9052698"><ele>618.2</ele><time>2026-04-03T14:42:01.317Z</time></trkpt><trkpt lat="37.5964157" lon="13.9053675"><ele>618.8</ele><time>2026-04-03T14:42:02.318Z</time></trkpt><trkpt lat="37.596366" lon="13.9054671"><ele>619.4</ele><time>2026-04-03T14:42:03.317Z</time></trkpt><trkpt lat="37.596316" lon="13.9055674"><ele>620.0</ele><time>2026-04-03T14:42:04.318Z</time></trkpt><trkpt lat="37.5962707" lon="13.9056738"><ele>620.0</ele><time>2026-04-03T14:42:05.317Z</time></trkpt><trkpt lat="37.5962275" lon="13.9057822"><ele>620.0</ele><time>2026-04-03T14:42:06.317Z</time></trkpt><trkpt lat="37.5961859" lon="13.9058955"><ele>620.0</ele><time>2026-04-03T14:42:07.317Z</time></trkpt><trkpt lat="37.596144" lon="13.9060132"><ele>620.0</ele><time>2026-04-03T14:42:08.318Z</time></trkpt><trkpt lat="37.5961045" lon="13.9061347"><ele>620.0</ele><time>2026-04-03T14:42:09.318Z</time></trkpt><trkpt lat="37.596067" lon="13.9062606"><ele>622.0</ele><time>2026-04-03T14:42:10.318Z</time></trkpt><trkpt lat="37.5960305" lon="13.9063905"><ele>624.0</ele><time>2026-04-03T14:42:11.318Z</time></trkpt><trkpt lat="37.595997" lon="13.9065245"><ele>626.0</ele><time>2026-04-03T14:42:12.318Z</time></trkpt><trkpt lat="37.5959647" lon="13.9066609"><ele>628.0</ele><time>2026-04-03T14:42:13.317Z</time></trkpt><trkpt lat="37.5959369" lon="13.9068004"><ele>630.0</ele><time>2026-04-03T14:42:14.317Z</time></trkpt><trkpt lat="37.5959124" lon="13.906942"><ele>631.25</ele><time>2026-04-03T14:42:15.318Z</time></trkpt><trkpt lat="37.5958908" lon="13.9070852"><ele>632.5</ele><time>2026-04-03T14:42:16.318Z</time></trkpt><trkpt lat="37.5958697" lon="13.9072291"><ele>633.75</ele><time>2026-04-03T14:42:17.318Z</time></trkpt><trkpt lat="37.5958479" lon="13.9073688"><ele>635.0</ele><time>2026-04-03T14:42:18.318Z</time></trkpt><trkpt lat="37.5958278" lon="13.9075073"><ele>635.8</ele><time>2026-04-03T14:42:19.317Z</time></trkpt><trkpt lat="37.5958073" lon="13.9076446"><ele>636.6</ele><time>2026-04-03T14:42:20.317Z</time></trkpt><trkpt lat="37.5957865" lon="13.9077796"><ele>637.4</ele><time>2026-04-03T14:42:21.316Z</time></trkpt><trkpt lat="37.5957672" lon="13.9079144"><ele>638.2</ele><time>2026-04-03T14:42:22.317Z</time></trkpt><trkpt lat="37.5957495" lon="13.9080465"><ele>639.0</ele><time>2026-04-03T14:42:23.318Z</time></trkpt><trkpt lat="37.5957309" lon="13.9081764"><ele>639.0</ele><time>2026-04-03T14:42:24.317Z</time></trkpt><trkpt lat="37.5957127" lon="13.9083035"><ele>639.0</ele><time>2026-04-03T14:42:25.318Z</time></trkpt><trkpt lat="37.5956924" lon="13.9084268"><ele>639.0</ele><time>2026-04-03T14:42:26.318Z</time></trkpt><trkpt lat="37.5956707" lon="13.9085454"><ele>639.0</ele><time>2026-04-03T14:42:27.318Z</time></trkpt><trkpt lat="37.5956548" lon="13.9086547"><ele>639.0</ele><time>2026-04-03T14:42:28.318Z</time></trkpt><trkpt lat="37.5956514" lon="13.9087693"><ele>640.8</ele><time>2026-04-03T14:42:29.317Z</time></trkpt><trkpt lat="37.59567" lon="13.9088815"><ele>642.5999999999999</ele><time>2026-04-03T14:42:30.317Z</time></trkpt><trkpt lat="37.5957092" lon="13.908986"><ele>644.4</ele><time>2026-04-03T14:42:31.318Z</time></trkpt><trkpt lat="37.5957595" lon="13.9090855"><ele>646.1999999999999</ele><time>2026-04-03T14:42:32.318Z</time></trkpt><trkpt lat="37.5958124" lon="13.9091878"><ele>648.0</ele><time>2026-04-03T14:42:33.318Z</time></trkpt><trkpt lat="37.5958614" lon="13.9092959"><ele>649.5999999999999</ele><time>2026-04-03T14:42:34.318Z</time></trkpt><trkpt lat="37.5959149" lon="13.9094055"><ele>651.1999999999999</ele><time>2026-04-03T14:42:35.318Z</time></trkpt><trkpt lat="37.5959765" lon="13.9095119"><ele>652.8</ele><time>2026-04-03T14:42:36.318Z</time></trkpt><trkpt lat="37.5960405" lon="13.9096197"><ele>654.4</ele><time>2026-04-03T14:42:37.318Z</time></trkpt><trkpt lat="37.596102" lon="13.9097331"><ele>656.0</ele><time>2026-04-03T14:42:38.318Z</time></trkpt><trkpt lat="37.5961585" lon="13.9098506"><ele>655.5999999999999</ele><time>2026-04-03T14:42:39.317Z</time></trkpt><trkpt lat="37.596208" lon="13.9099728"><ele>655.2</ele><time>2026-04-03T14:42:40.317Z</time></trkpt><trkpt lat="37.5962549" lon="13.9100956"><ele>654.8</ele><time>2026-04-03T14:42:41.317Z</time></trkpt><trkpt lat="37.5962947" lon="13.9102202"><ele>654.4000000000001</ele><time>2026-04-03T14:42:42.317Z</time></trkpt><trkpt lat="37.5963245" lon="13.9103491"><ele>654.0</ele><time>2026-04-03T14:42:43.318Z</time></trkpt><trkpt lat="37.5963518" lon="13.9104799"><ele>654.0</ele><time>2026-04-03T14:42:44.318Z</time></trkpt><trkpt lat="37.5963784" lon="13.910612"><ele>654.0</ele><time>2026-04-03T14:42:45.318Z</time></trkpt><trkpt lat="37.596403" lon="13.9107459"><ele>654.0</ele><time>2026-04-03T14:42:46.318Z</time></trkpt><trkpt lat="37.5964254" lon="13.9108772"><ele>654.0</ele><time>2026-04-03T14:42:47.317Z</time></trkpt><trkpt lat="37.5964456" lon="13.9110072"><ele>654.0</ele><time>2026-04-03T14:42:48.318Z</time></trkpt><trkpt lat="37.5964595" lon="13.9111321"><ele>655.4000000000001</ele><time>2026-04-03T14:42:49.318Z</time></trkpt><trkpt lat="37.5964754" lon="13.9112565"><ele>656.8</ele><time>2026-04-03T14:42:50.318Z</time></trkpt><trkpt lat="37.5964874" lon="13.9113819"><ele>658.2</ele><time>2026-04-03T14:42:51.318Z</time></trkpt><trkpt lat="37.5964973" lon="13.9115099"><ele>659.5999999999999</ele><time>2026-04-03T14:42:52.317Z</time></trkpt><trkpt lat="37.596503" lon="13.9116415"><ele>661.0</ele><time>2026-04-03T14:42:53.317Z</time></trkpt><trkpt lat="37.5965047" lon="13.9117748"><ele>662.0</ele><time>2026-04-03T14:42:54.317Z</time></trkpt><trkpt lat="37.5965044" lon="13.9119115"><ele>663.0</ele><time>2026-04-03T14:42:55.318Z</time></trkpt><trkpt lat="37.5965045" lon="13.912047"><ele>664.0</ele><time>2026-04-03T14:42:56.318Z</time></trkpt><trkpt lat="37.5965067" lon="13.91218"><ele>665.0</ele><time>2026-04-03T14:42:57.317Z</time></trkpt><trkpt lat="37.5965074" lon="13.9123123"><ele>666.0</ele><time>2026-04-03T14:42:58.317Z</time></trkpt><trkpt lat="37.5965143" lon="13.9124446"><ele>668.5999999999999</ele><time>2026-04-03T14:42:59.318Z</time></trkpt><trkpt lat="37.5965375" lon="13.9125729"><ele>671.2</ele><time>2026-04-03T14:43:00.317Z</time></trkpt><trkpt lat="37.5965843" lon="13.9126864"><ele>673.8</ele><time>2026-04-03T14:43:01.317Z</time></trkpt><trkpt lat="37.5966531" lon="13.9127828"><ele>676.4000000000001</ele><time>2026-04-03T14:43:02.318Z</time></trkpt><trkpt lat="37.5967346" lon="13.9128589"><ele>679.0</ele><time>2026-04-03T14:43:03.318Z</time></trkpt><trkpt lat="37.5968223" lon="13.9129294"><ele>679.0</ele><time>2026-04-03T14:43:04.318Z</time></trkpt><trkpt lat="37.5969153" lon="13.9129968"><ele>679.0</ele><time>2026-04-03T14:43:05.317Z</time></trkpt><trkpt lat="37.5970099" lon="13.9130616"><ele>679.0</ele><time>2026-04-03T14:43:06.318Z</time></trkpt><trkpt lat="37.5971059" lon="13.913127"><ele>679.0</ele><time>2026-04-03T14:43:07.318Z</time></trkpt><trkpt lat="37.5972022" lon="13.9131894"><ele>679.0</ele><time>2026-04-03T14:43:08.318Z</time></trkpt><trkpt lat="37.5973023" lon="13.9132492"><ele>678.4000000000001</ele><time>2026-04-03T14:43:09.318Z</time></trkpt><trkpt lat="37.5973995" lon="13.9133142"><ele>677.8</ele><time>2026-04-03T14:43:10.317Z</time></trkpt><trkpt lat="37.5974951" lon="13.9133771"><ele>677.2</ele><time>2026-04-03T14:43:11.317Z</time></trkpt><trkpt lat="37.5975883" lon="13.9134444"><ele>676.5999999999999</ele><time>2026-04-03T14:43:12.318Z</time></trkpt><trkpt lat="37.5976791" lon="13.9135109"><ele>676.0</ele><time>2026-04-03T14:43:13.317Z</time></trkpt><trkpt lat="37.5977681" lon="13.9135796"><ele>677.4</ele><time>2026-04-03T14:43:14.318Z</time></trkpt><trkpt lat="37.5978584" lon="13.9136445"><ele>678.8</ele><time>2026-04-03T14:43:15.317Z</time></trkpt><trkpt lat="37.5979482" lon="13.9137137"><ele>680.1999999999999</ele><time>2026-04-03T14:43:16.317Z</time></trkpt><trkpt lat="37.5980429" lon="13.9137847"><ele>681.5999999999999</ele><time>2026-04-03T14:43:17.317Z</time></trkpt><trkpt lat="37.5981389" lon="13.9138563"><ele>683.0</ele><time>2026-04-03T14:43:18.318Z</time></trkpt><trkpt lat="37.598232" lon="13.9139265"><ele>683.0</ele><time>2026-04-03T14:43:19.318Z</time></trkpt><trkpt lat="37.5983226" lon="13.9139947"><ele>683.0</ele><time>2026-04-03T14:43:20.317Z</time></trkpt><trkpt lat="37.5984092" lon="13.9140608"><ele>683.0</ele><time>2026-04-03T14:43:21.318Z</time></trkpt><trkpt lat="37.5984923" lon="13.9141269"><ele>683.0</ele><time>2026-04-03T14:43:22.317Z</time></trkpt><trkpt lat="37.598571" lon="13.9141904"><ele>683.0</ele><time>2026-04-03T14:43:23.318Z</time></trkpt><trkpt lat="37.5986519" lon="13.9142492"><ele>682.5</ele><time>2026-04-03T14:43:24.318Z</time></trkpt><trkpt lat="37.5987246" lon="13.9143026"><ele>682.0</ele><time>2026-04-03T14:43:25.316Z</time></trkpt><trkpt lat="37.5987987" lon="13.9143558"><ele>681.5</ele><time>2026-04-03T14:43:26.318Z</time></trkpt><trkpt lat="37.5988638" lon="13.91441"><ele>681.0</ele><time>2026-04-03T14:43:27.318Z</time></trkpt><trkpt lat="37.5989207" lon="13.9144594"><ele>680.5</ele><time>2026-04-03T14:43:28.317Z</time></trkpt><trkpt lat="37.5989801" lon="13.9145397"><ele>680.0</ele><time>2026-04-03T14:43:30.318Z</time></trkpt><trkpt lat="37.5990294" lon="13.9145972"><ele>680.0</ele><time>2026-04-03T14:43:32.317Z</time></trkpt><trkpt lat="37.5990724" lon="13.9146622"><ele>680.0</ele><time>2026-04-03T14:43:34.318Z</time></trkpt><trkpt lat="37.5991055" lon="13.9147479"><ele>680.0</ele><time>2026-04-03T14:43:36.318Z</time></trkpt><trkpt lat="37.5991389" lon="13.9148542"><ele>680.0</ele><time>2026-04-03T14:43:38.318Z</time></trkpt><trkpt lat="37.599177" lon="13.9149723"><ele>680.0</ele><time>2026-04-03T14:43:40.317Z</time></trkpt><trkpt lat="37.5992102" lon="13.9151125"><ele>680.4285714285714</ele><time>2026-04-03T14:43:42.318Z</time></trkpt><trkpt lat="37.5992172" lon="13.9151982"><ele>680.8571428571428</ele><time>2026-04-03T14:43:43.317Z</time></trkpt><trkpt lat="37.5992185" lon="13.9152901"><ele>681.2857142857142</ele><time>2026-04-03T14:43:44.317Z</time></trkpt><trkpt lat="37.5992213" lon="13.9153824"><ele>681.7142857142858</ele><time>2026-04-03T14:43:45.317Z</time></trkpt><trkpt lat="37.5992265" lon="13.9154789"><ele>682.1428571428571</ele><time>2026-04-03T14:43:46.318Z</time></trkpt><trkpt lat="37.5992293" lon="13.9155776"><ele>682.5714285714286</ele><time>2026-04-03T14:43:47.318Z</time></trkpt><trkpt lat="37.5992317" lon="13.9156777"><ele>683.0</ele><time>2026-04-03T14:43:48.318Z</time></trkpt><trkpt lat="37.5992317" lon="13.9157806"><ele>683.0</ele><time>2026-04-03T14:43:49.318Z</time></trkpt><trkpt lat="37.5992315" lon="13.9158861"><ele>683.0</ele><time>2026-04-03T14:43:50.317Z</time></trkpt><trkpt lat="37.599235" lon="13.9159933"><ele>683.0</ele><time>2026-04-03T14:43:51.317Z</time></trkpt><trkpt lat="37.5992389" lon="13.9161021"><ele>683.0</ele><time>2026-04-03T14:43:52.317Z</time></trkpt><trkpt lat="37.5992407" lon="13.916208"><ele>683.0</ele><time>2026-04-03T14:43:53.318Z</time></trkpt><trkpt lat="37.5992447" lon="13.9163108"><ele>683.0</ele><time>2026-04-03T14:43:54.318Z</time></trkpt><trkpt lat="37.5992526" lon="13.9164118"><ele>683.1666666666666</ele><time>2026-04-03T14:43:55.318Z</time></trkpt><trkpt lat="37.5992655" lon="13.9165128"><ele>683.3333333333333</ele><time>2026-04-03T14:43:56.318Z</time></trkpt><trkpt lat="37.599279" lon="13.9166116"><ele>683.5</ele><time>2026-04-03T14:43:57.317Z</time></trkpt><trkpt lat="37.5992978" lon="13.9167098"><ele>683.6666666666666</ele><time>2026-04-03T14:43:58.317Z</time></trkpt><trkpt lat="37.5993243" lon="13.9168051"><ele>683.8333333333334</ele><time>2026-04-03T14:43:59.318Z</time></trkpt><trkpt lat="37.5993583" lon="13.9168949"><ele>684.0</ele><time>2026-04-03T14:44:00.318Z</time></trkpt><trkpt lat="37.599391" lon="13.9169811"><ele>684.3333333333334</ele><time>2026-04-03T14:44:01.318Z</time></trkpt><trkpt lat="37.5994198" lon="13.9170651"><ele>684.6666666666666</ele><time>2026-04-03T14:44:02.317Z</time></trkpt><trkpt lat="37.5994422" lon="13.917141"><ele>685.0</ele><time>2026-04-03T14:44:03.317Z</time></trkpt><trkpt lat="37.5994808" lon="13.9172831"><ele>685.3333333333333</ele><time>2026-04-03T14:44:05.318Z</time></trkpt><trkpt lat="37.5995036" lon="13.91738"><ele>685.6666666666666</ele><time>2026-04-03T14:44:07.317Z</time></trkpt><trkpt lat="37.5995281" lon="13.9174544"><ele>686.0</ele><time>2026-04-03T14:45:24.318Z</time></trkpt><trkpt lat="37.5994725" lon="13.9175357"><ele>686.0</ele><time>2026-04-03T14:45:27.316Z</time></trkpt><trkpt lat="37.599392" lon="13.9175642"><ele>686.0</ele><time>2026-04-03T14:45:29.318Z</time></trkpt><trkpt lat="37.599316" lon="13.9176109"><ele>686.0</ele><time>2026-04-03T14:45:31.318Z</time></trkpt><trkpt lat="37.5992416" lon="13.9176591"><ele>686.0</ele><time>2026-04-03T14:45:33.318Z</time></trkpt><trkpt lat="37.5991827" lon="13.9176875"><ele>686.0</ele><time>2026-04-03T14:45:35.317Z</time></trkpt><trkpt lat="37.5991143" lon="13.917617"><ele>686.0</ele><time>2026-04-03T14:45:38.318Z</time></trkpt><trkpt lat="37.599079" lon="13.9174945"><ele>686.0</ele><time>2026-04-03T14:45:40.318Z</time></trkpt><trkpt lat="37.5990384" lon="13.9173845"><ele>686.0</ele><time>2026-04-03T14:45:42.318Z</time></trkpt><trkpt lat="37.598979" lon="13.9172654"><ele>686.0</ele><time>2026-04-03T14:45:44.318Z</time></trkpt><trkpt lat="37.5989039" lon="13.9171534"><ele>686.0</ele><time>2026-04-03T14:45:46.317Z</time></trkpt><trkpt lat="37.5988284" lon="13.9170572"><ele>686.0</ele><time>2026-04-03T14:45:48.318Z</time></trkpt><trkpt lat="37.5987457" lon="13.9170149"><ele>686.0</ele><time>2026-04-03T14:45:51.318Z</time></trkpt><trkpt lat="37.5986903" lon="13.9171045"><ele>686.0</ele><time>2026-04-03T14:45:53.318Z</time></trkpt><trkpt lat="37.5986583" lon="13.9172229"><ele>686.0</ele><time>2026-04-03T14:45:55.317Z</time></trkpt><trkpt lat="37.5986111" lon="13.9173186"><ele>686.0</ele><time>2026-04-03T14:45:57.318Z</time></trkpt><trkpt lat="37.5985432" lon="13.9173953"><ele>686.0</ele><time>2026-04-03T14:45:59.317Z</time></trkpt><trkpt lat="37.5984805" lon="13.9174525"><ele>686.0</ele><time>2026-04-03T14:46:01.317Z</time></trkpt><trkpt lat="37.5984156" lon="13.9175129"><ele>688.5</ele><time>2026-04-03T14:46:03.317Z</time></trkpt><trkpt lat="37.5983561" lon="13.9175566"><ele>691.0</ele><time>2026-04-03T14:46:05.318Z</time></trkpt><trkpt lat="37.5982938" lon="13.9176174"><ele>693.5</ele><time>2026-04-03T14:46:07.318Z</time></trkpt><trkpt lat="37.5982392" lon="13.9176804"><ele>696.0</ele><time>2026-04-03T14:46:09.319Z</time></trkpt><trkpt lat="37.5981904" lon="13.9177349"><ele>698.5</ele><time>2026-04-03T14:46:11.256Z</time></trkpt><trkpt lat="37.5981786" lon="13.917843"><ele>701.0</ele><time>2026-04-03T14:46:13.318Z</time></trkpt><trkpt lat="37.5982214" lon="13.9179701"><ele>702.6666666666666</ele><time>2026-04-03T14:46:15.318Z</time></trkpt><trkpt lat="37.5982873" lon="13.9180893"><ele>704.3333333333333</ele><time>2026-04-03T14:46:17.318Z</time></trkpt><trkpt lat="37.5983351" lon="13.9181489"><ele>706.0</ele><time>2026-04-03T14:46:18.318Z</time></trkpt><trkpt lat="37.59839" lon="13.9182085"><ele>707.6666666666666</ele><time>2026-04-03T14:46:19.319Z</time></trkpt><trkpt lat="37.5984472" lon="13.9182704"><ele>709.3333333333334</ele><time>2026-04-03T14:46:20.319Z</time></trkpt><trkpt lat="37.5985033" lon="13.9183355"><ele>711.0</ele><time>2026-04-03T14:46:21.319Z</time></trkpt><trkpt lat="37.5985571" lon="13.918402"><ele>711.5</ele><time>2026-04-03T14:46:22.318Z</time></trkpt><trkpt lat="37.5986106" lon="13.918473"><ele>712.0</ele><time>2026-04-03T14:46:23.319Z</time></trkpt><trkpt lat="37.5986631" lon="13.91855"><ele>712.5</ele><time>2026-04-03T14:46:24.319Z</time></trkpt><trkpt lat="37.5987117" lon="13.918632"><ele>713.0</ele><time>2026-04-03T14:46:25.318Z</time></trkpt><trkpt lat="37.5987609" lon="13.9187163"><ele>713.5</ele><time>2026-04-03T14:46:26.319Z</time></trkpt><trkpt lat="37.598817" lon="13.9187969"><ele>714.0</ele><time>2026-04-03T14:46:27.319Z</time></trkpt><trkpt lat="37.5988752" lon="13.918879"><ele>714.0</ele><time>2026-04-03T14:46:28.319Z</time></trkpt><trkpt lat="37.5989292" lon="13.9189665"><ele>714.0</ele><time>2026-04-03T14:46:29.319Z</time></trkpt><trkpt lat="37.5989771" lon="13.9190599"><ele>714.0</ele><time>2026-04-03T14:46:30.318Z</time></trkpt><trkpt lat="37.5990237" lon="13.9191568"><ele>714.0</ele><time>2026-04-03T14:46:31.318Z</time></trkpt><trkpt lat="37.5990751" lon="13.9192529"><ele>714.0</ele><time>2026-04-03T14:46:32.319Z</time></trkpt><trkpt lat="37.5991268" lon="13.919351"><ele>716.0</ele><time>2026-04-03T14:46:33.319Z</time></trkpt><trkpt lat="37.5991789" lon="13.9194489"><ele>718.0</ele><time>2026-04-03T14:46:34.319Z</time></trkpt><trkpt lat="37.5992403" lon="13.9195379"><ele>720.0</ele><time>2026-04-03T14:46:35.318Z</time></trkpt><trkpt lat="37.5993101" lon="13.9196185"><ele>722.0</ele><time>2026-04-03T14:46:36.318Z</time></trkpt><trkpt lat="37.5993776" lon="13.919701"><ele>724.0</ele><time>2026-04-03T14:46:37.319Z</time></trkpt><trkpt lat="37.5994397" lon="13.9197882"><ele>724.0</ele><time>2026-04-03T14:46:38.319Z</time></trkpt><trkpt lat="37.5994974" lon="13.9198705"><ele>724.0</ele><time>2026-04-03T14:46:39.319Z</time></trkpt><trkpt lat="37.5995451" lon="13.9199512"><ele>724.0</ele><time>2026-04-03T14:46:40.319Z</time></trkpt><trkpt lat="37.5995755" lon="13.920046"><ele>724.0</ele><time>2026-04-03T14:46:41.319Z</time></trkpt><trkpt lat="37.5995841" lon="13.9201518"><ele>724.0</ele><time>2026-04-03T14:46:42.319Z</time></trkpt><trkpt lat="37.5995771" lon="13.920259"><ele>724.0</ele><time>2026-04-03T14:46:43.319Z</time></trkpt><trkpt lat="37.5995677" lon="13.9203674"><ele>722.4000000000001</ele><time>2026-04-03T14:46:44.319Z</time></trkpt><trkpt lat="37.5995624" lon="13.9204789"><ele>720.8</ele><time>2026-04-03T14:46:45.319Z</time></trkpt><trkpt lat="37.5995569" lon="13.9205924"><ele>719.2</ele><time>2026-04-03T14:46:46.319Z</time></trkpt><trkpt lat="37.5995532" lon="13.920707"><ele>717.5999999999999</ele><time>2026-04-03T14:46:47.319Z</time></trkpt><trkpt lat="37.5995633" lon="13.9208237"><ele>716.0</ele><time>2026-04-03T14:46:48.318Z</time></trkpt><trkpt lat="37.5995837" lon="13.9209404"><ele>719.1999999999999</ele><time>2026-04-03T14:46:49.318Z</time></trkpt><trkpt lat="37.5996055" lon="13.9210562"><ele>722.4</ele><time>2026-04-03T14:46:50.319Z</time></trkpt><trkpt lat="37.5996355" lon="13.9211684"><ele>725.6</ele><time>2026-04-03T14:46:51.319Z</time></trkpt><trkpt lat="37.5996799" lon="13.9212729"><ele>728.8</ele><time>2026-04-03T14:46:52.319Z</time></trkpt><trkpt lat="37.5997377" lon="13.9213689"><ele>732.0</ele><time>2026-04-03T14:46:53.318Z</time></trkpt><trkpt lat="37.599804" lon="13.9214568"><ele>732.0</ele><time>2026-04-03T14:46:54.319Z</time></trkpt><trkpt lat="37.5998751" lon="13.9215391"><ele>732.0</ele><time>2026-04-03T14:46:55.318Z</time></trkpt><trkpt lat="37.599949" lon="13.921618"><ele>732.0</ele><time>2026-04-03T14:46:56.318Z</time></trkpt><trkpt lat="37.6000248" lon="13.9216917"><ele>732.0</ele><time>2026-04-03T14:46:57.318Z</time></trkpt><trkpt lat="37.6000936" lon="13.9217678"><ele>732.0</ele><time>2026-04-03T14:46:58.317Z</time></trkpt><trkpt lat="37.6001492" lon="13.9218591"><ele>735.6</ele><time>2026-04-03T14:46:59.318Z</time></trkpt><trkpt lat="37.6001873" lon="13.9219645"><ele>739.2</ele><time>2026-04-03T14:47:00.318Z</time></trkpt><trkpt lat="37.6002157" lon="13.9220759"><ele>742.8</ele><time>2026-04-03T14:47:01.319Z</time></trkpt><trkpt lat="37.600241" lon="13.922188"><ele>746.4</ele><time>2026-04-03T14:47:02.318Z</time></trkpt><trkpt lat="37.6002729" lon="13.9222973"><ele>750.0</ele><time>2026-04-03T14:47:03.318Z</time></trkpt><trkpt lat="37.6003151" lon="13.9224028"><ele>749.0</ele><time>2026-04-03T14:47:04.319Z</time></trkpt><trkpt lat="37.6003613" lon="13.9225054"><ele>748.0</ele><time>2026-04-03T14:47:05.318Z</time></trkpt><trkpt lat="37.6004059" lon="13.9226093"><ele>747.0</ele><time>2026-04-03T14:47:06.318Z</time></trkpt><trkpt lat="37.6004536" lon="13.9227115"><ele>746.0</ele><time>2026-04-03T14:47:07.318Z</time></trkpt><trkpt lat="37.6005099" lon="13.9228077"><ele>745.0</ele><time>2026-04-03T14:47:08.319Z</time></trkpt><trkpt lat="37.6005747" lon="13.9228964"><ele>745.0</ele><time>2026-04-03T14:47:09.319Z</time></trkpt><trkpt lat="37.6006462" lon="13.9229803"><ele>745.0</ele><time>2026-04-03T14:47:10.319Z</time></trkpt><trkpt lat="37.6007194" lon="13.9230646"><ele>745.0</ele><time>2026-04-03T14:47:11.319Z</time></trkpt><trkpt lat="37.6007893" lon="13.9231547"><ele>745.0</ele><time>2026-04-03T14:47:12.319Z</time></trkpt><trkpt lat="37.6008497" lon="13.923253"><ele>745.0</ele><time>2026-04-03T14:47:13.319Z</time></trkpt><trkpt lat="37.6009003" lon="13.9233587"><ele>748.3333333333334</ele><time>2026-04-03T14:47:14.319Z</time></trkpt><trkpt lat="37.6009502" lon="13.9234656"><ele>751.6666666666667</ele><time>2026-04-03T14:47:15.319Z</time></trkpt><trkpt lat="37.6010033" lon="13.9235667"><ele>755.0</ele><time>2026-04-03T14:47:16.318Z</time></trkpt><trkpt lat="37.6010538" lon="13.9236575"><ele>758.3333333333334</ele><time>2026-04-03T14:47:17.319Z</time></trkpt><trkpt lat="37.6010916" lon="13.9237403"><ele>761.6666666666666</ele><time>2026-04-03T14:47:18.319Z</time></trkpt><trkpt lat="37.6011103" lon="13.9238184"><ele>765.0</ele><time>2026-04-03T14:47:19.318Z</time></trkpt><trkpt lat="37.6010818" lon="13.9239643"><ele>765.0000000000001</ele><time>2026-04-03T14:47:21.318Z</time></trkpt><trkpt lat="37.6010276" lon="13.9240105"><ele>765.0</ele><time>2026-04-03T14:47:22.319Z</time></trkpt><trkpt lat="37.6009593" lon="13.9240242"><ele>765.0</ele><time>2026-04-03T14:47:23.318Z</time></trkpt><trkpt lat="37.6008887" lon="13.9240006"><ele>765.0</ele><time>2026-04-03T14:47:24.318Z</time></trkpt><trkpt lat="37.6008269" lon="13.9239418"><ele>765.0</ele><time>2026-04-03T14:47:25.319Z</time></trkpt><trkpt lat="37.6007773" lon="13.9238696"><ele>765.0000000000001</ele><time>2026-04-03T14:47:26.319Z</time></trkpt><trkpt lat="37.6007293" lon="13.9237983"><ele>765.0</ele><time>2026-04-03T14:47:27.319Z</time></trkpt><trkpt lat="37.6006823" lon="13.9237195"><ele>765.0</ele><time>2026-04-03T14:47:28.319Z</time></trkpt><trkpt lat="37.6006399" lon="13.923632"><ele>765.0</ele><time>2026-04-03T14:47:29.319Z</time></trkpt><trkpt lat="37.6005999" lon="13.923539"><ele>765.0</ele><time>2026-04-03T14:47:30.319Z</time></trkpt><trkpt lat="37.6005543" lon="13.9234464"><ele>765.0</ele><time>2026-04-03T14:47:31.318Z</time></trkpt><trkpt lat="37.6004945" lon="13.9233621"><ele>765.0</ele><time>2026-04-03T14:47:32.318Z</time></trkpt><trkpt lat="37.6004205" lon="13.9232909"><ele>765.0</ele><time>2026-04-03T14:47:33.317Z</time></trkpt><trkpt lat="37.6003375" lon="13.9232314"><ele>764.4</ele><time>2026-04-03T14:47:34.319Z</time></trkpt><trkpt lat="37.6002511" lon="13.923178"><ele>763.8</ele><time>2026-04-03T14:47:35.319Z</time></trkpt><trkpt lat="37.600165" lon="13.9231261"><ele>763.2</ele><time>2026-04-03T14:47:36.319Z</time></trkpt><trkpt lat="37.6000787" lon="13.9230763"><ele>762.6</ele><time>2026-04-03T14:47:37.319Z</time></trkpt><trkpt lat="37.5999917" lon="13.9230287"><ele>762.0</ele><time>2026-04-03T14:47:38.319Z</time></trkpt><trkpt lat="37.599903" lon="13.9229855"><ele>762.0</ele><time>2026-04-03T14:47:39.319Z</time></trkpt><trkpt lat="37.5998153" lon="13.9229372"><ele>762.0</ele><time>2026-04-03T14:47:40.319Z</time></trkpt><trkpt lat="37.5997337" lon="13.9228753"><ele>762.0</ele><time>2026-04-03T14:47:41.319Z</time></trkpt><trkpt lat="37.5996538" lon="13.92281"><ele>762.0</ele><time>2026-04-03T14:47:42.318Z</time></trkpt><trkpt lat="37.5995678" lon="13.9227585"><ele>762.0</ele><time>2026-04-03T14:47:43.319Z</time></trkpt><trkpt lat="37.5994767" lon="13.9227299"><ele>764.8571428571428</ele><time>2026-04-03T14:47:44.319Z</time></trkpt><trkpt lat="37.5993913" lon="13.922733"><ele>767.7142857142858</ele><time>2026-04-03T14:47:45.319Z</time></trkpt><trkpt lat="37.5993204" lon="13.922772"><ele>770.5714285714286</ele><time>2026-04-03T14:47:46.319Z</time></trkpt><trkpt lat="37.5992722" lon="13.9228461"><ele>773.4285714285713</ele><time>2026-04-03T14:47:47.319Z</time></trkpt><trkpt lat="37.5992568" lon="13.9229313"><ele>776.2857142857142</ele><time>2026-04-03T14:47:48.319Z</time></trkpt><trkpt lat="37.599272" lon="13.9230121"><ele>779.1428571428571</ele><time>2026-04-03T14:47:49.318Z</time></trkpt><trkpt lat="37.599298" lon="13.9230929"><ele>782.0</ele><time>2026-04-03T14:47:50.318Z</time></trkpt><trkpt lat="37.5993179" lon="13.9231799"><ele>782.0000000000001</ele><time>2026-04-03T14:47:51.319Z</time></trkpt><trkpt lat="37.5993365" lon="13.9232725"><ele>782.0</ele><time>2026-04-03T14:47:52.318Z</time></trkpt><trkpt lat="37.5993583" lon="13.9233657"><ele>782.0</ele><time>2026-04-03T14:47:53.317Z</time></trkpt><trkpt lat="37.5993792" lon="13.9234556"><ele>782.0</ele><time>2026-04-03T14:47:54.318Z</time></trkpt><trkpt lat="37.5993989" lon="13.9235434"><ele>782.0000000000001</ele><time>2026-04-03T14:47:55.318Z</time></trkpt><trkpt lat="37.59942" lon="13.9236343"><ele>782.0</ele><time>2026-04-03T14:47:56.319Z</time></trkpt><trkpt lat="37.5994405" lon="13.9237271"><ele>783.0000000000001</ele><time>2026-04-03T14:47:57.319Z</time></trkpt><trkpt lat="37.5994606" lon="13.9238224"><ele>784.0</ele><time>2026-04-03T14:47:58.318Z</time></trkpt><trkpt lat="37.5994765" lon="13.9239211"><ele>785.0</ele><time>2026-04-03T14:47:59.318Z</time></trkpt><trkpt lat="37.5994781" lon="13.9240241"><ele>786.0</ele><time>2026-04-03T14:48:00.318Z</time></trkpt><trkpt lat="37.599457" lon="13.9241299"><ele>787.0000000000001</ele><time>2026-04-03T14:48:01.318Z</time></trkpt><trkpt lat="37.5994182" lon="13.9242356"><ele>788.0</ele><time>2026-04-03T14:48:02.318Z</time></trkpt><trkpt lat="37.599369" lon="13.9243378"><ele>784.8</ele><time>2026-04-03T14:48:03.318Z</time></trkpt><trkpt lat="37.5993116" lon="13.92443"><ele>781.5999999999999</ele><time>2026-04-03T14:48:04.319Z</time></trkpt><trkpt lat="37.5992459" lon="13.9245072"><ele>778.4000000000001</ele><time>2026-04-03T14:48:05.319Z</time></trkpt><trkpt lat="37.5991739" lon="13.9245672"><ele>775.2</ele><time>2026-04-03T14:48:06.319Z</time></trkpt><trkpt lat="37.5990964" lon="13.9246176"><ele>772.0</ele><time>2026-04-03T14:48:07.319Z</time></trkpt><trkpt lat="37.5990109" lon="13.9246701"><ele>772.0</ele><time>2026-04-03T14:48:08.319Z</time></trkpt><trkpt lat="37.5989164" lon="13.9247286"><ele>772.0</ele><time>2026-04-03T14:48:09.319Z</time></trkpt><trkpt lat="37.5988165" lon="13.9247937"><ele>772.0</ele><time>2026-04-03T14:48:10.319Z</time></trkpt><trkpt lat="37.5987136" lon="13.9248614"><ele>772.0</ele><time>2026-04-03T14:48:11.318Z</time></trkpt><trkpt lat="37.5986089" lon="13.9249303"><ele>770.0</ele><time>2026-04-03T14:48:12.318Z</time></trkpt><trkpt lat="37.5985073" lon="13.9250079"><ele>768.0</ele><time>2026-04-03T14:48:13.319Z</time></trkpt><trkpt lat="37.598412" lon="13.9251033"><ele>766.0</ele><time>2026-04-03T14:48:14.318Z</time></trkpt><trkpt lat="37.5983222" lon="13.9252133"><ele>764.0</ele><time>2026-04-03T14:48:15.318Z</time></trkpt><trkpt lat="37.5982339" lon="13.9253328"><ele>764.0</ele><time>2026-04-03T14:48:16.319Z</time></trkpt><trkpt lat="37.5981486" lon="13.9254608"><ele>764.0</ele><time>2026-04-03T14:48:17.319Z</time></trkpt><trkpt lat="37.5980639" lon="13.9255923"><ele>764.0</ele><time>2026-04-03T14:48:18.319Z</time></trkpt><trkpt lat="37.5979779" lon="13.9257234"><ele>764.0</ele><time>2026-04-03T14:48:19.318Z</time></trkpt><trkpt lat="37.5978946" lon="13.9258583"><ele>763.25</ele><time>2026-04-03T14:48:20.318Z</time></trkpt><trkpt lat="37.5978176" lon="13.9260005"><ele>762.5</ele><time>2026-04-03T14:48:21.318Z</time></trkpt><trkpt lat="37.5977475" lon="13.9261496"><ele>761.75</ele><time>2026-04-03T14:48:22.319Z</time></trkpt><trkpt lat="37.5976824" lon="13.9263024"><ele>761.0</ele><time>2026-04-03T14:48:23.318Z</time></trkpt><trkpt lat="37.5976198" lon="13.9264571"><ele>761.0</ele><time>2026-04-03T14:48:24.319Z</time></trkpt><trkpt lat="37.5975571" lon="13.9266116"><ele>761.0</ele><time>2026-04-03T14:48:25.319Z</time></trkpt><trkpt lat="37.5974929" lon="13.9267655"><ele>761.0</ele><time>2026-04-03T14:48:26.319Z</time></trkpt><trkpt lat="37.5974267" lon="13.926918"><ele>761.0</ele><time>2026-04-03T14:48:27.319Z</time></trkpt><trkpt lat="37.5973612" lon="13.9270685"><ele>758.25</ele><time>2026-04-03T14:48:28.318Z</time></trkpt><trkpt lat="37.5972986" lon="13.9272127"><ele>755.5</ele><time>2026-04-03T14:48:29.319Z</time></trkpt><trkpt lat="37.5972404" lon="13.927348"><ele>752.75</ele><time>2026-04-03T14:48:30.319Z</time></trkpt><trkpt lat="37.5971878" lon="13.9274752"><ele>750.0</ele><time>2026-04-03T14:48:31.319Z</time></trkpt><trkpt lat="37.5971352" lon="13.9275977"><ele>748.5</ele><time>2026-04-03T14:48:32.318Z</time></trkpt><trkpt lat="37.5970771" lon="13.9277171"><ele>747.0</ele><time>2026-04-03T14:48:33.319Z</time></trkpt><trkpt lat="37.5970024" lon="13.927828"><ele>745.5</ele><time>2026-04-03T14:48:34.318Z</time></trkpt><trkpt lat="37.5969089" lon="13.9279266"><ele>744.0</ele><time>2026-04-03T14:48:35.318Z</time></trkpt><trkpt lat="37.5968033" lon="13.9280196"><ele>744.0</ele><time>2026-04-03T14:48:36.318Z</time></trkpt><trkpt lat="37.5966914" lon="13.9281134"><ele>744.0</ele><time>2026-04-03T14:48:37.318Z</time></trkpt><trkpt lat="37.5965773" lon="13.92821"><ele>744.0</ele><time>2026-04-03T14:48:38.318Z</time></trkpt><trkpt lat="37.596463" lon="13.9283052"><ele>744.0</ele><time>2026-04-03T14:48:39.318Z</time></trkpt><trkpt lat="37.5963458" lon="13.928398"><ele>742.25</ele><time>2026-04-03T14:48:40.319Z</time></trkpt><trkpt lat="37.5962285" lon="13.9284883"><ele>740.5</ele><time>2026-04-03T14:48:41.319Z</time></trkpt><trkpt lat="37.5961085" lon="13.9285733"><ele>738.75</ele><time>2026-04-03T14:48:42.319Z</time></trkpt><trkpt lat="37.5959957" lon="13.9286572"><ele>737.0</ele><time>2026-04-03T14:48:43.319Z</time></trkpt><trkpt lat="37.5958973" lon="13.9287429"><ele>737.0</ele><time>2026-04-03T14:48:44.319Z</time></trkpt><trkpt lat="37.5958063" lon="13.928829"><ele>737.0</ele><time>2026-04-03T14:48:45.319Z</time></trkpt><trkpt lat="37.5957243" lon="13.9289309"><ele>737.0</ele><time>2026-04-03T14:48:46.319Z</time></trkpt><trkpt lat="37.5956619" lon="13.9290607"><ele>737.0</ele><time>2026-04-03T14:48:47.319Z</time></trkpt><trkpt lat="37.5956185" lon="13.9292043"><ele>732.75</ele><time>2026-04-03T14:48:48.319Z</time></trkpt><trkpt lat="37.5955769" lon="13.9293473"><ele>728.5</ele><time>2026-04-03T14:48:49.319Z</time></trkpt><trkpt lat="37.5955326" lon="13.9294841"><ele>724.25</ele><time>2026-04-03T14:48:50.319Z</time></trkpt><trkpt lat="37.5954763" lon="13.9296107"><ele>720.0</ele><time>2026-04-03T14:48:51.319Z</time></trkpt><trkpt lat="37.5954031" lon="13.9297287"><ele>721.75</ele><time>2026-04-03T14:48:52.319Z</time></trkpt><trkpt lat="37.5953151" lon="13.9298323"><ele>723.5</ele><time>2026-04-03T14:48:53.319Z</time></trkpt><trkpt lat="37.5952197" lon="13.9299262"><ele>725.25</ele><time>2026-04-03T14:48:54.319Z</time></trkpt><trkpt lat="37.5951231" lon="13.9300133"><ele>727.0</ele><time>2026-04-03T14:48:55.319Z</time></trkpt><trkpt lat="37.5950299" lon="13.9300803"><ele>727.0</ele><time>2026-04-03T14:48:56.317Z</time></trkpt><trkpt lat="37.5949375" lon="13.9301159"><ele>727.0</ele><time>2026-04-03T14:48:57.319Z</time></trkpt><trkpt lat="37.5948442" lon="13.9301139"><ele>727.0</ele><time>2026-04-03T14:48:58.318Z</time></trkpt><trkpt lat="37.5947543" lon="13.9300682"><ele>727.0</ele><time>2026-04-03T14:48:59.318Z</time></trkpt><trkpt lat="37.5946716" lon="13.9300034"><ele>727.0</ele><time>2026-04-03T14:49:00.319Z</time></trkpt><trkpt lat="37.5945996" lon="13.9299537"><ele>727.0</ele><time>2026-04-03T14:49:01.319Z</time></trkpt><trkpt lat="37.5945344" lon="13.9299238"><ele>727.0</ele><time>2026-04-03T14:49:02.318Z</time></trkpt><trkpt lat="37.5944684" lon="13.9299174"><ele>727.0</ele><time>2026-04-03T14:49:03.318Z</time></trkpt><trkpt lat="37.5944076" lon="13.9299437"><ele>727.0</ele><time>2026-04-03T14:49:04.318Z</time></trkpt><trkpt lat="37.5943594" lon="13.929998"><ele>727.0</ele><time>2026-04-03T14:49:05.319Z</time></trkpt><trkpt lat="37.5943393" lon="13.9300758"><ele>727.0</ele><time>2026-04-03T14:49:06.318Z</time></trkpt><trkpt lat="37.5943644" lon="13.9301641"><ele>727.0</ele><time>2026-04-03T14:49:07.319Z</time></trkpt><trkpt lat="37.5944192" lon="13.930241"><ele>724.5</ele><time>2026-04-03T14:49:08.318Z</time></trkpt><trkpt lat="37.5944901" lon="13.9303015"><ele>722.0</ele><time>2026-04-03T14:49:09.319Z</time></trkpt><trkpt lat="37.5945714" lon="13.9303389"><ele>719.5</ele><time>2026-04-03T14:49:10.319Z</time></trkpt><trkpt lat="37.5946571" lon="13.9303619"><ele>717.0</ele><time>2026-04-03T14:49:11.319Z</time></trkpt><trkpt lat="37.5947301" lon="13.930407"><ele>714.5</ele><time>2026-04-03T14:49:12.319Z</time></trkpt><trkpt lat="37.5947814" lon="13.9304751"><ele>712.0</ele><time>2026-04-03T14:49:13.319Z</time></trkpt><trkpt lat="37.5948013" lon="13.930556"><ele>712.0</ele><time>2026-04-03T14:49:14.319Z</time></trkpt><trkpt lat="37.5947798" lon="13.930638"><ele>712.0</ele><time>2026-04-03T14:49:15.318Z</time></trkpt><trkpt lat="37.5947212" lon="13.9307098"><ele>712.0</ele><time>2026-04-03T14:49:16.319Z</time></trkpt><trkpt lat="37.5946464" lon="13.9307719"><ele>712.0</ele><time>2026-04-03T14:49:17.318Z</time></trkpt><trkpt lat="37.5945677" lon="13.9308393"><ele>712.0</ele><time>2026-04-03T14:49:18.318Z</time></trkpt><trkpt lat="37.5944854" lon="13.9309149"><ele>712.0</ele><time>2026-04-03T14:49:19.319Z</time></trkpt><trkpt lat="37.5944" lon="13.9309901"><ele>710.6666666666667</ele><time>2026-04-03T14:49:20.319Z</time></trkpt><trkpt lat="37.5943133" lon="13.9310607"><ele>709.3333333333334</ele><time>2026-04-03T14:49:21.317Z</time></trkpt><trkpt lat="37.5942284" lon="13.9311261"><ele>708.0</ele><time>2026-04-03T14:49:22.319Z</time></trkpt><trkpt lat="37.5941527" lon="13.9311823"><ele>706.6666666666666</ele><time>2026-04-03T14:49:23.318Z</time></trkpt><trkpt lat="37.5940796" lon="13.9312199"><ele>705.3333333333333</ele><time>2026-04-03T14:49:24.319Z</time></trkpt><trkpt lat="37.5939997" lon="13.9312236"><ele>704.0</ele><time>2026-04-03T14:49:25.319Z</time></trkpt><trkpt lat="37.5939218" lon="13.931177"><ele>704.0</ele><time>2026-04-03T14:49:26.319Z</time></trkpt><trkpt lat="37.5938624" lon="13.9310956"><ele>704.0</ele><time>2026-04-03T14:49:27.319Z</time></trkpt><trkpt lat="37.5938352" lon="13.9309848"><ele>704.0</ele><time>2026-04-03T14:49:28.318Z</time></trkpt><trkpt lat="37.5938183" lon="13.9308629"><ele>704.0</ele><time>2026-04-03T14:49:29.319Z</time></trkpt><trkpt lat="37.5937947" lon="13.9307355"><ele>704.0</ele><time>2026-04-03T14:49:30.318Z</time></trkpt><trkpt lat="37.5937685" lon="13.9305979"><ele>705.75</ele><time>2026-04-03T14:49:31.319Z</time></trkpt><trkpt lat="37.5937399" lon="13.9304543"><ele>707.5</ele><time>2026-04-03T14:49:32.319Z</time></trkpt><trkpt lat="37.5937091" lon="13.9303061"><ele>709.25</ele><time>2026-04-03T14:49:33.319Z</time></trkpt><trkpt lat="37.5936803" lon="13.9301504"><ele>711.0</ele><time>2026-04-03T14:49:34.318Z</time></trkpt><trkpt lat="37.5936568" lon="13.9299856"><ele>707.5</ele><time>2026-04-03T14:49:35.319Z</time></trkpt><trkpt lat="37.5936354" lon="13.9298214"><ele>704.0</ele><time>2026-04-03T14:49:36.319Z</time></trkpt><trkpt lat="37.5936145" lon="13.9296595"><ele>700.5</ele><time>2026-04-03T14:49:37.318Z</time></trkpt><trkpt lat="37.5935985" lon="13.929508"><ele>697.0</ele><time>2026-04-03T14:49:38.319Z</time></trkpt><trkpt lat="37.5935806" lon="13.9293672"><ele>697.0</ele><time>2026-04-03T14:49:39.319Z</time></trkpt><trkpt lat="37.5935445" lon="13.9292283"><ele>697.0</ele><time>2026-04-03T14:49:40.319Z</time></trkpt><trkpt lat="37.5934865" lon="13.9290912"><ele>697.0</ele><time>2026-04-03T14:49:41.319Z</time></trkpt><trkpt lat="37.5934079" lon="13.9289619"><ele>697.0</ele><time>2026-04-03T14:49:42.319Z</time></trkpt><trkpt lat="37.5933166" lon="13.9288447"><ele>697.5</ele><time>2026-04-03T14:49:43.318Z</time></trkpt><trkpt lat="37.5932238" lon="13.9287363"><ele>698.0</ele><time>2026-04-03T14:49:44.317Z</time></trkpt><trkpt lat="37.5931317" lon="13.928631"><ele>698.5</ele><time>2026-04-03T14:49:45.317Z</time></trkpt><trkpt lat="37.5930423" lon="13.928527"><ele>699.0</ele><time>2026-04-03T14:49:46.318Z</time></trkpt><trkpt lat="37.5929492" lon="13.9284353"><ele>700.2</ele><time>2026-04-03T14:49:47.319Z</time></trkpt><trkpt lat="37.5928477" lon="13.928364"><ele>701.4000000000001</ele><time>2026-04-03T14:49:48.318Z</time></trkpt><trkpt lat="37.5927416" lon="13.9283182"><ele>702.6</ele><time>2026-04-03T14:49:49.318Z</time></trkpt><trkpt lat="37.5926484" lon="13.9283076"><ele>703.8</ele><time>2026-04-03T14:49:50.318Z</time></trkpt><trkpt lat="37.5925739" lon="13.9283326"><ele>705.0</ele><time>2026-04-03T14:49:51.319Z</time></trkpt><trkpt lat="37.5925139" lon="13.9283962"><ele>700.4</ele><time>2026-04-03T14:49:52.319Z</time></trkpt><trkpt lat="37.5924794" lon="13.9284972"><ele>695.8</ele><time>2026-04-03T14:49:53.319Z</time></trkpt><trkpt lat="37.592484" lon="13.9286137"><ele>691.2</ele><time>2026-04-03T14:49:54.318Z</time></trkpt><trkpt lat="37.5925236" lon="13.9287293"><ele>686.6</ele><time>2026-04-03T14:49:55.318Z</time></trkpt><trkpt lat="37.5925895" lon="13.9288336"><ele>682.0</ele><time>2026-04-03T14:49:56.318Z</time></trkpt><trkpt lat="37.5926652" lon="13.9289313"><ele>682.0</ele><time>2026-04-03T14:49:57.319Z</time></trkpt><trkpt lat="37.5927256" lon="13.9290465"><ele>682.0</ele><time>2026-04-03T14:49:58.319Z</time></trkpt><trkpt lat="37.5927722" lon="13.9291806"><ele>682.0</ele><time>2026-04-03T14:49:59.319Z</time></trkpt><trkpt lat="37.5928131" lon="13.9293214"><ele>682.0</ele><time>2026-04-03T14:50:00.318Z</time></trkpt><trkpt lat="37.592839" lon="13.9294669"><ele>681.2</ele><time>2026-04-03T14:50:01.318Z</time></trkpt><trkpt lat="37.5928473" lon="13.9296071"><ele>680.4000000000001</ele><time>2026-04-03T14:50:02.319Z</time></trkpt><trkpt lat="37.5928455" lon="13.9297318"><ele>679.5999999999999</ele><time>2026-04-03T14:50:03.319Z</time></trkpt><trkpt lat="37.5928339" lon="13.929843"><ele>678.8</ele><time>2026-04-03T14:50:04.319Z</time></trkpt><trkpt lat="37.5927954" lon="13.9299405"><ele>678.0</ele><time>2026-04-03T14:50:05.318Z</time></trkpt><trkpt lat="37.5927217" lon="13.9300117"><ele>678.0</ele><time>2026-04-03T14:50:06.318Z</time></trkpt><trkpt lat="37.5926266" lon="13.930037"><ele>678.0</ele><time>2026-04-03T14:50:07.318Z</time></trkpt><trkpt lat="37.5925305" lon="13.9300107"><ele>678.0</ele><time>2026-04-03T14:50:08.319Z</time></trkpt><trkpt lat="37.5924422" lon="13.9299494"><ele>678.0</ele><time>2026-04-03T14:50:09.319Z</time></trkpt><trkpt lat="37.5923574" lon="13.9298727"><ele>678.0</ele><time>2026-04-03T14:50:10.319Z</time></trkpt><trkpt lat="37.5922714" lon="13.9297865"><ele>678.0</ele><time>2026-04-03T14:50:11.319Z</time></trkpt><trkpt lat="37.5921823" lon="13.9296971"><ele>678.0</ele><time>2026-04-03T14:50:12.319Z</time></trkpt><trkpt lat="37.5920913" lon="13.9296088"><ele>678.0</ele><time>2026-04-03T14:50:13.319Z</time></trkpt><trkpt lat="37.5919998" lon="13.9295192"><ele>678.0</ele><time>2026-04-03T14:50:14.319Z</time></trkpt><trkpt lat="37.5919127" lon="13.9294169"><ele>675.75</ele><time>2026-04-03T14:50:15.318Z</time></trkpt><trkpt lat="37.5918279" lon="13.9293022"><ele>673.5</ele><time>2026-04-03T14:50:16.318Z</time></trkpt><trkpt lat="37.5917434" lon="13.9291821"><ele>671.25</ele><time>2026-04-03T14:50:17.318Z</time></trkpt><trkpt lat="37.5916581" lon="13.92906"><ele>669.0</ele><time>2026-04-03T14:50:18.319Z</time></trkpt><trkpt lat="37.5915771" lon="13.9289318"><ele>669.0</ele><time>2026-04-03T14:50:19.319Z</time></trkpt><trkpt lat="37.5915013" lon="13.9288021"><ele>669.0</ele><time>2026-04-03T14:50:20.319Z</time></trkpt><trkpt lat="37.5914284" lon="13.9286854"><ele>669.0</ele><time>2026-04-03T14:50:21.319Z</time></trkpt><trkpt lat="37.5913529" lon="13.9285892"><ele>669.0</ele><time>2026-04-03T14:50:22.318Z</time></trkpt><trkpt lat="37.5912663" lon="13.9285228"><ele>669.0</ele><time>2026-04-03T14:50:23.318Z</time></trkpt><trkpt lat="37.5911745" lon="13.9285"><ele>669.0</ele><time>2026-04-03T14:50:24.319Z</time></trkpt><trkpt lat="37.5910804" lon="13.9285217"><ele>669.0</ele><time>2026-04-03T14:50:25.319Z</time></trkpt><trkpt lat="37.5909845" lon="13.9285762"><ele>669.0</ele><time>2026-04-03T14:50:26.318Z</time></trkpt><trkpt lat="37.5908857" lon="13.9286387"><ele>669.0</ele><time>2026-04-03T14:50:27.318Z</time></trkpt><trkpt lat="37.5907806" lon="13.9287059"><ele>666.6</ele><time>2026-04-03T14:50:28.319Z</time></trkpt><trkpt lat="37.5906753" lon="13.9287775"><ele>664.2</ele><time>2026-04-03T14:50:29.318Z</time></trkpt><trkpt lat="37.590569" lon="13.9288446"><ele>661.8000000000001</ele><time>2026-04-03T14:50:30.318Z</time></trkpt><trkpt lat="37.5904693" lon="13.9288973"><ele>659.4000000000001</ele><time>2026-04-03T14:50:31.318Z</time></trkpt><trkpt lat="37.5903774" lon="13.9289282"><ele>657.0</ele><time>2026-04-03T14:50:32.319Z</time></trkpt><trkpt lat="37.5902822" lon="13.9289322"><ele>656.0</ele><time>2026-04-03T14:50:33.319Z</time></trkpt><trkpt lat="37.5901841" lon="13.9289043"><ele>655.0</ele><time>2026-04-03T14:50:34.318Z</time></trkpt><trkpt lat="37.5900886" lon="13.928854"><ele>654.0</ele><time>2026-04-03T14:50:35.319Z</time></trkpt><trkpt lat="37.589995" lon="13.9287939"><ele>653.0</ele><time>2026-04-03T14:50:36.319Z</time></trkpt><trkpt lat="37.5899029" lon="13.9287268"><ele>652.0</ele><time>2026-04-03T14:50:37.319Z</time></trkpt><trkpt lat="37.5898097" lon="13.9286553"><ele>652.0</ele><time>2026-04-03T14:50:38.319Z</time></trkpt><trkpt lat="37.5897125" lon="13.9285799"><ele>652.0</ele><time>2026-04-03T14:50:39.319Z</time></trkpt><trkpt lat="37.5896081" lon="13.9285018"><ele>652.0</ele><time>2026-04-03T14:50:40.318Z</time></trkpt><trkpt lat="37.5895001" lon="13.9284233"><ele>652.0</ele><time>2026-04-03T14:50:41.319Z</time></trkpt><trkpt lat="37.5893981" lon="13.9283499"><ele>651.2</ele><time>2026-04-03T14:50:42.319Z</time></trkpt><trkpt lat="37.589313" lon="13.9282715"><ele>650.4000000000001</ele><time>2026-04-03T14:50:43.319Z</time></trkpt><trkpt lat="37.5892479" lon="13.9281676"><ele>649.5999999999999</ele><time>2026-04-03T14:50:44.318Z</time></trkpt><trkpt lat="37.5892084" lon="13.9280345"><ele>648.8</ele><time>2026-04-03T14:50:45.318Z</time></trkpt><trkpt lat="37.5891955" lon="13.9278874"><ele>648.0</ele><time>2026-04-03T14:50:46.318Z</time></trkpt><trkpt lat="37.589183" lon="13.9277415"><ele>648.0</ele><time>2026-04-03T14:50:47.318Z</time></trkpt><trkpt lat="37.5891486" lon="13.9276035"><ele>648.0</ele><time>2026-04-03T14:50:48.318Z</time></trkpt><trkpt lat="37.5890762" lon="13.9274816"><ele>648.0</ele><time>2026-04-03T14:50:49.318Z</time></trkpt><trkpt lat="37.5889852" lon="13.9273718"><ele>648.0</ele><time>2026-04-03T14:50:50.319Z</time></trkpt><trkpt lat="37.5888942" lon="13.9272634"><ele>647.25</ele><time>2026-04-03T14:50:51.319Z</time></trkpt><trkpt lat="37.5888183" lon="13.9271425"><ele>646.5</ele><time>2026-04-03T14:50:52.319Z</time></trkpt><trkpt lat="37.5887721" lon="13.9269979"><ele>645.75</ele><time>2026-04-03T14:50:53.318Z</time></trkpt><trkpt lat="37.5887501" lon="13.9268431"><ele>645.0</ele><time>2026-04-03T14:50:54.318Z</time></trkpt><trkpt lat="37.5887323" lon="13.9266955"><ele>645.0</ele><time>2026-04-03T14:50:55.318Z</time></trkpt><trkpt lat="37.5886922" lon="13.9265694"><ele>645.0</ele><time>2026-04-03T14:50:56.319Z</time></trkpt><trkpt lat="37.5886332" lon="13.9264561"><ele>645.0</ele><time>2026-04-03T14:50:57.318Z</time></trkpt><trkpt lat="37.5885542" lon="13.9263579"><ele>645.0</ele><time>2026-04-03T14:50:58.319Z</time></trkpt><trkpt lat="37.5884606" lon="13.9262749"><ele>645.0</ele><time>2026-04-03T14:50:59.319Z</time></trkpt><trkpt lat="37.5883708" lon="13.9261851"><ele>641.75</ele><time>2026-04-03T14:51:00.319Z</time></trkpt><trkpt lat="37.5882959" lon="13.9260716"><ele>638.5</ele><time>2026-04-03T14:51:01.319Z</time></trkpt><trkpt lat="37.5882378" lon="13.9259365"><ele>635.25</ele><time>2026-04-03T14:51:02.318Z</time></trkpt><trkpt lat="37.588182" lon="13.9257937"><ele>632.0</ele><time>2026-04-03T14:51:03.319Z</time></trkpt><trkpt lat="37.5881111" lon="13.925658"><ele>632.0</ele><time>2026-04-03T14:51:04.319Z</time></trkpt><trkpt lat="37.5880281" lon="13.9255309"><ele>632.0</ele><time>2026-04-03T14:51:05.319Z</time></trkpt><trkpt lat="37.5879408" lon="13.9254061"><ele>632.0</ele><time>2026-04-03T14:51:06.319Z</time></trkpt><trkpt lat="37.5878491" lon="13.9252826"><ele>632.0</ele><time>2026-04-03T14:51:07.319Z</time></trkpt><trkpt lat="37.5877519" lon="13.9251641"><ele>628.5</ele><time>2026-04-03T14:51:08.317Z</time></trkpt><trkpt lat="37.5876577" lon="13.9250467"><ele>625.0</ele><time>2026-04-03T14:51:09.318Z</time></trkpt><trkpt lat="37.5875689" lon="13.924931"><ele>621.5</ele><time>2026-04-03T14:51:10.319Z</time></trkpt><trkpt lat="37.5874748" lon="13.9248294"><ele>618.0</ele><time>2026-04-03T14:51:11.319Z</time></trkpt><trkpt lat="37.5873641" lon="13.9247475"><ele>618.0</ele><time>2026-04-03T14:51:12.319Z</time></trkpt><trkpt lat="37.5872404" lon="13.9246815"><ele>618.0</ele><time>2026-04-03T14:51:13.319Z</time></trkpt><trkpt lat="37.5871113" lon="13.9246216"><ele>618.0</ele><time>2026-04-03T14:51:14.319Z</time></trkpt><trkpt lat="37.5869796" lon="13.9245645"><ele>618.0</ele><time>2026-04-03T14:51:15.318Z</time></trkpt><trkpt lat="37.5868472" lon="13.9245114"><ele>614.75</ele><time>2026-04-03T14:51:16.318Z</time></trkpt><trkpt lat="37.5867161" lon="13.9244597"><ele>611.5</ele><time>2026-04-03T14:51:17.319Z</time></trkpt><trkpt lat="37.5865882" lon="13.9244029"><ele>608.25</ele><time>2026-04-03T14:51:18.319Z</time></trkpt><trkpt lat="37.5864657" lon="13.9243474"><ele>605.0</ele><time>2026-04-03T14:51:19.319Z</time></trkpt><trkpt lat="37.5863523" lon="13.924309"><ele>605.0</ele><time>2026-04-03T14:51:20.319Z</time></trkpt><trkpt lat="37.5862457" lon="13.9243023"><ele>605.0</ele><time>2026-04-03T14:51:21.319Z</time></trkpt><trkpt lat="37.5861478" lon="13.92434"><ele>605.0</ele><time>2026-04-03T14:51:22.319Z</time></trkpt><trkpt lat="37.5860706" lon="13.9244153"><ele>605.0</ele><time>2026-04-03T14:51:23.319Z</time></trkpt><trkpt lat="37.5860266" lon="13.9245158"><ele>605.0</ele><time>2026-04-03T14:51:24.318Z</time></trkpt><trkpt lat="37.5860234" lon="13.9246243"><ele>605.0</ele><time>2026-04-03T14:51:25.318Z</time></trkpt><trkpt lat="37.5860528" lon="13.9247289"><ele>605.0</ele><time>2026-04-03T14:51:26.32Z</time></trkpt><trkpt lat="37.5861131" lon="13.9248193"><ele>605.0</ele><time>2026-04-03T14:51:27.32Z</time></trkpt><trkpt lat="37.5862007" lon="13.9248875"><ele>605.0</ele><time>2026-04-03T14:51:28.32Z</time></trkpt><trkpt lat="37.5862974" lon="13.9249324"><ele>605.0</ele><time>2026-04-03T14:51:29.32Z</time></trkpt><trkpt lat="37.5863995" lon="13.9249691"><ele>605.0</ele><time>2026-04-03T14:51:30.318Z</time></trkpt><trkpt lat="37.5865069" lon="13.9250085"><ele>605.0</ele><time>2026-04-03T14:51:31.319Z</time></trkpt><trkpt lat="37.5866177" lon="13.9250471"><ele>605.0</ele><time>2026-04-03T14:51:32.32Z</time></trkpt><trkpt lat="37.5867279" lon="13.9250811"><ele>605.0</ele><time>2026-04-03T14:51:33.32Z</time></trkpt><trkpt lat="37.5868245" lon="13.9251226"><ele>605.0</ele><time>2026-04-03T14:51:34.32Z</time></trkpt><trkpt lat="37.5868957" lon="13.9251949"><ele>602.6</ele><time>2026-04-03T14:51:35.32Z</time></trkpt><trkpt lat="37.5869395" lon="13.9252962"><ele>600.2</ele><time>2026-04-03T14:51:36.32Z</time></trkpt><trkpt lat="37.5869468" lon="13.9254067"><ele>597.8</ele><time>2026-04-03T14:51:37.32Z</time></trkpt><trkpt lat="37.5869103" lon="13.9255089"><ele>595.4</ele><time>2026-04-03T14:51:38.318Z</time></trkpt><trkpt lat="37.586837" lon="13.9255857"><ele>593.0</ele><time>2026-04-03T14:51:39.32Z</time></trkpt><trkpt lat="37.5867407" lon="13.9256299"><ele>593.0</ele><time>2026-04-03T14:51:40.32Z</time></trkpt><trkpt lat="37.5866331" lon="13.9256564"><ele>593.0</ele><time>2026-04-03T14:51:41.319Z</time></trkpt><trkpt lat="37.5865209" lon="13.9256863"><ele>593.0</ele><time>2026-04-03T14:51:42.32Z</time></trkpt><trkpt lat="37.5864024" lon="13.9257232"><ele>593.0</ele><time>2026-04-03T14:51:43.32Z</time></trkpt><trkpt lat="37.5862745" lon="13.9257608"><ele>592.25</ele><time>2026-04-03T14:51:44.318Z</time></trkpt><trkpt lat="37.5861436" lon="13.925799"><ele>591.5</ele><time>2026-04-03T14:51:45.319Z</time></trkpt><trkpt lat="37.5860128" lon="13.9258438"><ele>590.75</ele><time>2026-04-03T14:51:46.318Z</time></trkpt><trkpt lat="37.585882" lon="13.9258862"><ele>590.0</ele><time>2026-04-03T14:51:47.319Z</time></trkpt><trkpt lat="37.5857513" lon="13.9259231"><ele>588.25</ele><time>2026-04-03T14:51:48.318Z</time></trkpt><trkpt lat="37.5856234" lon="13.9259728"><ele>586.5</ele><time>2026-04-03T14:51:49.32Z</time></trkpt><trkpt lat="37.5855045" lon="13.9260497"><ele>584.75</ele><time>2026-04-03T14:51:50.32Z</time></trkpt><trkpt lat="37.5854" lon="13.9261582"><ele>583.0</ele><time>2026-04-03T14:51:51.32Z</time></trkpt><trkpt lat="37.5853198" lon="13.9262951"><ele>582.75</ele><time>2026-04-03T14:51:52.32Z</time></trkpt><trkpt lat="37.5852725" lon="13.9264544"><ele>582.5</ele><time>2026-04-03T14:51:53.32Z</time></trkpt><trkpt lat="37.5852517" lon="13.9266208"><ele>582.25</ele><time>2026-04-03T14:51:54.32Z</time></trkpt><trkpt lat="37.5852367" lon="13.9267858"><ele>582.0</ele><time>2026-04-03T14:51:55.32Z</time></trkpt><trkpt lat="37.5852165" lon="13.92695"><ele>580.75</ele><time>2026-04-03T14:51:56.318Z</time></trkpt><trkpt lat="37.5851955" lon="13.9271125"><ele>579.5</ele><time>2026-04-03T14:51:57.318Z</time></trkpt><trkpt lat="37.5851745" lon="13.9272733"><ele>578.25</ele><time>2026-04-03T14:51:58.32Z</time></trkpt><trkpt lat="37.5851598" lon="13.9274332"><ele>577.0</ele><time>2026-04-03T14:51:59.319Z</time></trkpt><trkpt lat="37.5851521" lon="13.9275925"><ele>575.5</ele><time>2026-04-03T14:52:00.319Z</time></trkpt><trkpt lat="37.5851376" lon="13.9277491"><ele>574.0</ele><time>2026-04-03T14:52:01.32Z</time></trkpt><trkpt lat="37.5851034" lon="13.9278991"><ele>572.5</ele><time>2026-04-03T14:52:02.318Z</time></trkpt><trkpt lat="37.5850459" lon="13.9280376"><ele>571.0</ele><time>2026-04-03T14:52:03.319Z</time></trkpt><trkpt lat="37.5849725" lon="13.9281634"><ele>571.0</ele><time>2026-04-03T14:52:04.32Z</time></trkpt><trkpt lat="37.5848792" lon="13.9282679"><ele>571.0</ele><time>2026-04-03T14:52:05.319Z</time></trkpt><trkpt lat="37.5847701" lon="13.9283513"><ele>571.0</ele><time>2026-04-03T14:52:06.32Z</time></trkpt><trkpt lat="37.5846581" lon="13.9284251"><ele>571.0</ele><time>2026-04-03T14:52:07.32Z</time></trkpt><trkpt lat="37.5845419" lon="13.9284923"><ele>569.0</ele><time>2026-04-03T14:52:08.32Z</time></trkpt><trkpt lat="37.5844231" lon="13.9285599"><ele>567.0</ele><time>2026-04-03T14:52:09.32Z</time></trkpt><trkpt lat="37.5843031" lon="13.9286296"><ele>565.0</ele><time>2026-04-03T14:52:10.319Z</time></trkpt><trkpt lat="37.5841812" lon="13.9286942"><ele>563.0</ele><time>2026-04-03T14:52:11.319Z</time></trkpt><trkpt lat="37.5840591" lon="13.9287543"><ele>563.0</ele><time>2026-04-03T14:52:12.319Z</time></trkpt><trkpt lat="37.5839388" lon="13.9288088"><ele>563.0</ele><time>2026-04-03T14:52:13.319Z</time></trkpt><trkpt lat="37.5838148" lon="13.9288382"><ele>563.0</ele><time>2026-04-03T14:52:14.32Z</time></trkpt><trkpt lat="37.5836885" lon="13.9288218"><ele>563.0</ele><time>2026-04-03T14:52:15.32Z</time></trkpt><trkpt lat="37.5835724" lon="13.9287536"><ele>563.5</ele><time>2026-04-03T14:52:16.319Z</time></trkpt><trkpt lat="37.5834834" lon="13.9286422"><ele>564.0</ele><time>2026-04-03T14:52:17.32Z</time></trkpt><trkpt lat="37.5834401" lon="13.9285133"><ele>564.5</ele><time>2026-04-03T14:52:18.319Z</time></trkpt><trkpt lat="37.5834424" lon="13.9283792"><ele>565.0</ele><time>2026-04-03T14:52:19.32Z</time></trkpt><trkpt lat="37.5834741" lon="13.9282402"><ele>565.0</ele><time>2026-04-03T14:52:20.32Z</time></trkpt><trkpt lat="37.5835191" lon="13.928107"><ele>565.0</ele><time>2026-04-03T14:52:21.319Z</time></trkpt><trkpt lat="37.5835627" lon="13.9279895"><ele>565.0</ele><time>2026-04-03T14:52:22.319Z</time></trkpt><trkpt lat="37.5835826" lon="13.9278829"><ele>565.0</ele><time>2026-04-03T14:52:23.32Z</time></trkpt><trkpt lat="37.5835655" lon="13.9277828"><ele>565.0</ele><time>2026-04-03T14:52:24.32Z</time></trkpt><trkpt lat="37.5835149" lon="13.9277063"><ele>565.0</ele><time>2026-04-03T14:52:25.319Z</time></trkpt><trkpt lat="37.583444" lon="13.9276717"><ele>565.0</ele><time>2026-04-03T14:52:26.318Z</time></trkpt><trkpt lat="37.583365" lon="13.9276863"><ele>565.0</ele><time>2026-04-03T14:52:27.32Z</time></trkpt><trkpt lat="37.583296" lon="13.9277467"><ele>565.0</ele><time>2026-04-03T14:52:28.319Z</time></trkpt><trkpt lat="37.5832427" lon="13.9278308"><ele>565.0</ele><time>2026-04-03T14:52:29.32Z</time></trkpt><trkpt lat="37.5831923" lon="13.9279236"><ele>565.0</ele><time>2026-04-03T14:52:30.32Z</time></trkpt><trkpt lat="37.5831326" lon="13.9280201"><ele>565.0</ele><time>2026-04-03T14:52:31.319Z</time></trkpt><trkpt lat="37.5830599" lon="13.9281205"><ele>565.0</ele><time>2026-04-03T14:52:32.32Z</time></trkpt><trkpt lat="37.5829759" lon="13.9282235"><ele>565.0</ele><time>2026-04-03T14:52:33.32Z</time></trkpt><trkpt lat="37.5828863" lon="13.9283289"><ele>565.0</ele><time>2026-04-03T14:52:34.32Z</time></trkpt><trkpt lat="37.5827974" lon="13.9284346"><ele>561.25</ele><time>2026-04-03T14:52:35.32Z</time></trkpt><trkpt lat="37.5827048" lon="13.9285378"><ele>557.5</ele><time>2026-04-03T14:52:36.32Z</time></trkpt><trkpt lat="37.5826009" lon="13.9286261"><ele>553.75</ele><time>2026-04-03T14:52:37.319Z</time></trkpt><trkpt lat="37.582484" lon="13.9286904"><ele>550.0</ele><time>2026-04-03T14:52:38.319Z</time></trkpt><trkpt lat="37.582361" lon="13.9287321"><ele>550.0</ele><time>2026-04-03T14:52:39.32Z</time></trkpt><trkpt lat="37.5822469" lon="13.9287659"><ele>550.0</ele><time>2026-04-03T14:52:40.32Z</time></trkpt><trkpt lat="37.5821448" lon="13.9288079"><ele>550.0</ele><time>2026-04-03T14:52:41.32Z</time></trkpt><trkpt lat="37.5820564" lon="13.9288785"><ele>550.0</ele><time>2026-04-03T14:52:42.32Z</time></trkpt><trkpt lat="37.5819848" lon="13.9289835"><ele>550.0</ele><time>2026-04-03T14:52:43.32Z</time></trkpt><trkpt lat="37.5819318" lon="13.9291161"><ele>547.25</ele><time>2026-04-03T14:52:44.32Z</time></trkpt><trkpt lat="37.5818804" lon="13.929259"><ele>544.5</ele><time>2026-04-03T14:52:45.319Z</time></trkpt><trkpt lat="37.5818223" lon="13.9294059"><ele>541.75</ele><time>2026-04-03T14:52:46.319Z</time></trkpt><trkpt lat="37.5817639" lon="13.929553"><ele>539.0</ele><time>2026-04-03T14:52:47.32Z</time></trkpt><trkpt lat="37.5817058" lon="13.9296881"><ele>539.0</ele><time>2026-04-03T14:52:48.318Z</time></trkpt><trkpt lat="37.5816393" lon="13.9298037"><ele>539.0</ele><time>2026-04-03T14:52:49.32Z</time></trkpt><trkpt lat="37.5815556" lon="13.9298852"><ele>539.0</ele><time>2026-04-03T14:52:50.32Z</time></trkpt><trkpt lat="37.581457" lon="13.9299225"><ele>539.0</ele><time>2026-04-03T14:52:51.32Z</time></trkpt><trkpt lat="37.5813533" lon="13.9299084"><ele>539.0</ele><time>2026-04-03T14:52:52.32Z</time></trkpt><trkpt lat="37.5812576" lon="13.9298432"><ele>537.5</ele><time>2026-04-03T14:52:53.32Z</time></trkpt><trkpt lat="37.5811819" lon="13.9297373"><ele>536.0</ele><time>2026-04-03T14:52:54.32Z</time></trkpt><trkpt lat="37.5811307" lon="13.9296043"><ele>534.5</ele><time>2026-04-03T14:52:55.32Z</time></trkpt><trkpt lat="37.5810997" lon="13.9294579"><ele>533.0</ele><time>2026-04-03T14:52:56.319Z</time></trkpt><trkpt lat="37.5810776" lon="13.9293105"><ele>532.4</ele><time>2026-04-03T14:52:57.32Z</time></trkpt><trkpt lat="37.5810496" lon="13.9291771"><ele>531.8</ele><time>2026-04-03T14:52:58.32Z</time></trkpt><trkpt lat="37.5810059" lon="13.9290648"><ele>531.2</ele><time>2026-04-03T14:52:59.32Z</time></trkpt><trkpt lat="37.5809416" lon="13.9289746"><ele>530.6</ele><time>2026-04-03T14:53:00.32Z</time></trkpt><trkpt lat="37.5808526" lon="13.9289081"><ele>530.0</ele><time>2026-04-03T14:53:01.319Z</time></trkpt><trkpt lat="37.5807457" lon="13.9288672"><ele>530.0</ele><time>2026-04-03T14:53:02.319Z</time></trkpt><trkpt lat="37.5806325" lon="13.9288513"><ele>530.0</ele><time>2026-04-03T14:53:03.319Z</time></trkpt><trkpt lat="37.5805172" lon="13.9288496"><ele>530.0</ele><time>2026-04-03T14:53:04.32Z</time></trkpt><trkpt lat="37.5804024" lon="13.928873"><ele>530.0</ele><time>2026-04-03T14:53:05.319Z</time></trkpt><trkpt lat="37.5802972" lon="13.9289369"><ele>529.0</ele><time>2026-04-03T14:53:06.319Z</time></trkpt><trkpt lat="37.5802073" lon="13.9290397"><ele>528.0</ele><time>2026-04-03T14:53:07.32Z</time></trkpt><trkpt lat="37.5801386" lon="13.9291695"><ele>527.0</ele><time>2026-04-03T14:53:08.32Z</time></trkpt><trkpt lat="37.5800868" lon="13.9293117"><ele>526.0</ele><time>2026-04-03T14:53:09.319Z</time></trkpt><trkpt lat="37.5800344" lon="13.9294536"><ele>526.0</ele><time>2026-04-03T14:53:10.319Z</time></trkpt><trkpt lat="37.5799635" lon="13.9295762"><ele>526.0</ele><time>2026-04-03T14:53:11.32Z</time></trkpt><trkpt lat="37.5798698" lon="13.92967"><ele>526.0</ele><time>2026-04-03T14:53:12.319Z</time></trkpt><trkpt lat="37.579757" lon="13.9297335"><ele>526.0</ele><time>2026-04-03T14:53:13.32Z</time></trkpt><trkpt lat="37.5796326" lon="13.9297738"><ele>524.0</ele><time>2026-04-03T14:53:14.32Z</time></trkpt><trkpt lat="37.5795056" lon="13.9298153"><ele>522.0</ele><time>2026-04-03T14:53:15.319Z</time></trkpt><trkpt lat="37.5793768" lon="13.9298669"><ele>520.0</ele><time>2026-04-03T14:53:16.32Z</time></trkpt><trkpt lat="37.5792432" lon="13.9299144"><ele>518.0</ele><time>2026-04-03T14:53:17.319Z</time></trkpt><trkpt lat="37.5791048" lon="13.929944"><ele>518.0</ele><time>2026-04-03T14:53:18.319Z</time></trkpt><trkpt lat="37.5789632" lon="13.9299569"><ele>518.0</ele><time>2026-04-03T14:53:19.319Z</time></trkpt><trkpt lat="37.5788187" lon="13.9299609"><ele>518.0</ele><time>2026-04-03T14:53:20.319Z</time></trkpt><trkpt lat="37.5786738" lon="13.9299661"><ele>518.0</ele><time>2026-04-03T14:53:21.32Z</time></trkpt><trkpt lat="37.5785284" lon="13.9299743"><ele>516.25</ele><time>2026-04-03T14:53:22.32Z</time></trkpt><trkpt lat="37.5783866" lon="13.9299812"><ele>514.5</ele><time>2026-04-03T14:53:23.32Z</time></trkpt><trkpt lat="37.5782573" lon="13.9299878"><ele>512.75</ele><time>2026-04-03T14:53:24.32Z</time></trkpt><trkpt lat="37.5781343" lon="13.9300104"><ele>511.0</ele><time>2026-04-03T14:53:25.319Z</time></trkpt><trkpt lat="37.5780135" lon="13.9300643"><ele>510.75</ele><time>2026-04-03T14:53:26.32Z</time></trkpt><trkpt lat="37.5779" lon="13.9301504"><ele>510.5</ele><time>2026-04-03T14:53:27.32Z</time></trkpt><trkpt lat="37.5777916" lon="13.9302514"><ele>510.25</ele><time>2026-04-03T14:53:28.319Z</time></trkpt><trkpt lat="37.5776822" lon="13.9303544"><ele>510.0</ele><time>2026-04-03T14:53:29.32Z</time></trkpt><trkpt lat="37.5775737" lon="13.9304595"><ele>510.0</ele><time>2026-04-03T14:53:30.319Z</time></trkpt><trkpt lat="37.5774589" lon="13.9305495"><ele>510.0</ele><time>2026-04-03T14:53:31.32Z</time></trkpt><trkpt lat="37.5773316" lon="13.9306073"><ele>510.0</ele><time>2026-04-03T14:53:32.32Z</time></trkpt><trkpt lat="37.5772034" lon="13.9306441"><ele>510.0</ele><time>2026-04-03T14:53:33.319Z</time></trkpt><trkpt lat="37.5770874" lon="13.9306975"><ele>506.0</ele><time>2026-04-03T14:53:34.319Z</time></trkpt><trkpt lat="37.5769837" lon="13.9307892"><ele>502.0</ele><time>2026-04-03T14:53:35.32Z</time></trkpt><trkpt lat="37.5769005" lon="13.9309154"><ele>498.0</ele><time>2026-04-03T14:53:36.32Z</time></trkpt><trkpt lat="37.5768447" lon="13.9310675"><ele>494.0</ele><time>2026-04-03T14:53:37.32Z</time></trkpt><trkpt lat="37.5768094" lon="13.931229"><ele>494.0</ele><time>2026-04-03T14:53:38.319Z</time></trkpt><trkpt lat="37.5767719" lon="13.9313812"><ele>494.0</ele><time>2026-04-03T14:53:39.32Z</time></trkpt><trkpt lat="37.5767125" lon="13.9315092"><ele>494.0</ele><time>2026-04-03T14:53:40.32Z</time></trkpt><trkpt lat="37.5766276" lon="13.9316099"><ele>494.0</ele><time>2026-04-03T14:53:41.32Z</time></trkpt><trkpt lat="37.5765199" lon="13.9316782"><ele>494.0</ele><time>2026-04-03T14:53:42.32Z</time></trkpt><trkpt lat="37.5763978" lon="13.9317179"><ele>494.0</ele><time>2026-04-03T14:53:43.32Z</time></trkpt><trkpt lat="37.5762739" lon="13.93176"><ele>494.0</ele><time>2026-04-03T14:53:44.319Z</time></trkpt><trkpt lat="37.5761578" lon="13.9318135"><ele>494.0</ele><time>2026-04-03T14:53:45.32Z</time></trkpt><trkpt lat="37.5760558" lon="13.9318707"><ele>490.75</ele><time>2026-04-03T14:53:46.319Z</time></trkpt><trkpt lat="37.5759702" lon="13.9319521"><ele>487.5</ele><time>2026-04-03T14:53:47.319Z</time></trkpt><trkpt lat="37.5759071" lon="13.9320731"><ele>484.25</ele><time>2026-04-03T14:53:48.32Z</time></trkpt><trkpt lat="37.5758684" lon="13.9322206"><ele>481.0</ele><time>2026-04-03T14:53:49.319Z</time></trkpt><trkpt lat="37.5758431" lon="13.932375"><ele>481.0</ele><time>2026-04-03T14:53:50.32Z</time></trkpt><trkpt lat="37.5758262" lon="13.9325313"><ele>481.0</ele><time>2026-04-03T14:53:51.32Z</time></trkpt><trkpt lat="37.5758275" lon="13.9326924"><ele>481.0</ele><time>2026-04-03T14:53:52.32Z</time></trkpt><trkpt lat="37.5758511" lon="13.9328524"><ele>481.0</ele><time>2026-04-03T14:53:53.32Z</time></trkpt><trkpt lat="37.5758869" lon="13.9330067"><ele>481.6</ele><time>2026-04-03T14:53:54.319Z</time></trkpt><trkpt lat="37.5759182" lon="13.9331479"><ele>482.20000000000005</ele><time>2026-04-03T14:53:55.32Z</time></trkpt><trkpt lat="37.5759308" lon="13.9332722"><ele>482.79999999999995</ele><time>2026-04-03T14:53:56.32Z</time></trkpt><trkpt lat="37.5759158" lon="13.9333806"><ele>483.4</ele><time>2026-04-03T14:53:57.32Z</time></trkpt><trkpt lat="37.5758695" lon="13.9334679"><ele>484.0</ele><time>2026-04-03T14:53:58.319Z</time></trkpt><trkpt lat="37.5757954" lon="13.9335264"><ele>482.6</ele><time>2026-04-03T14:53:59.32Z</time></trkpt><trkpt lat="37.5757055" lon="13.933546"><ele>481.2</ele><time>2026-04-03T14:54:00.319Z</time></trkpt><trkpt lat="37.5756086" lon="13.9335289"><ele>479.80000000000007</ele><time>2026-04-03T14:54:01.319Z</time></trkpt><trkpt lat="37.5755135" lon="13.9334771"><ele>478.40000000000003</ele><time>2026-04-03T14:54:02.32Z</time></trkpt><trkpt lat="37.5754233" lon="13.9333974"><ele>477.0</ele><time>2026-04-03T14:54:03.32Z</time></trkpt><trkpt lat="37.575332" lon="13.9333112"><ele>477.0</ele><time>2026-04-03T14:54:04.32Z</time></trkpt><trkpt lat="37.5752325" lon="13.9332336"><ele>477.0</ele><time>2026-04-03T14:54:05.32Z</time></trkpt><trkpt lat="37.5751276" lon="13.9331704"><ele>477.0</ele><time>2026-04-03T14:54:06.319Z</time></trkpt><trkpt lat="37.5750173" lon="13.9331308"><ele>477.0</ele><time>2026-04-03T14:54:07.32Z</time></trkpt><trkpt lat="37.5749038" lon="13.9331282"><ele>477.0</ele><time>2026-04-03T14:54:08.319Z</time></trkpt><trkpt lat="37.5747951" lon="13.9331703"><ele>477.0</ele><time>2026-04-03T14:54:09.319Z</time></trkpt><trkpt lat="37.5746991" lon="13.9332575"><ele>477.0</ele><time>2026-04-03T14:54:10.319Z</time></trkpt><trkpt lat="37.574622" lon="13.9333781"><ele>477.0</ele><time>2026-04-03T14:54:11.319Z</time></trkpt><trkpt lat="37.5745554" lon="13.933511"><ele>475.0</ele><time>2026-04-03T14:54:12.32Z</time></trkpt><trkpt lat="37.5744844" lon="13.933643"><ele>473.0</ele><time>2026-04-03T14:54:13.32Z</time></trkpt><trkpt lat="37.5744102" lon="13.9337775"><ele>471.0</ele><time>2026-04-03T14:54:14.32Z</time></trkpt><trkpt lat="37.574341" lon="13.9339202"><ele>469.0</ele><time>2026-04-03T14:54:15.32Z</time></trkpt><trkpt lat="37.5742819" lon="13.9340734"><ele>470.0</ele><time>2026-04-03T14:54:16.319Z</time></trkpt><trkpt lat="37.57423" lon="13.9342353"><ele>471.0</ele><time>2026-04-03T14:54:17.319Z</time></trkpt><trkpt lat="37.5741791" lon="13.9343984"><ele>472.0</ele><time>2026-04-03T14:54:18.319Z</time></trkpt><trkpt lat="37.5741302" lon="13.9345608"><ele>473.0</ele><time>2026-04-03T14:54:19.32Z</time></trkpt><trkpt lat="37.5740866" lon="13.9347217"><ele>473.0</ele><time>2026-04-03T14:54:20.319Z</time></trkpt><trkpt lat="37.5740393" lon="13.9348776"><ele>473.0</ele><time>2026-04-03T14:54:21.32Z</time></trkpt><trkpt lat="37.5739786" lon="13.9350245"><ele>473.0</ele><time>2026-04-03T14:54:22.32Z</time></trkpt><trkpt lat="37.5739035" lon="13.9351613"><ele>473.0</ele><time>2026-04-03T14:54:23.318Z</time></trkpt><trkpt lat="37.5738183" lon="13.9352933"><ele>472.0</ele><time>2026-04-03T14:54:24.319Z</time></trkpt><trkpt lat="37.5737315" lon="13.9354273"><ele>471.0</ele><time>2026-04-03T14:54:25.318Z</time></trkpt><trkpt lat="37.5736471" lon="13.9355675"><ele>470.0</ele><time>2026-04-03T14:54:26.319Z</time></trkpt><trkpt lat="37.5735651" lon="13.935709"><ele>469.0</ele><time>2026-04-03T14:54:27.32Z</time></trkpt><trkpt lat="37.5734833" lon="13.9358447"><ele>465.5</ele><time>2026-04-03T14:54:28.32Z</time></trkpt><trkpt lat="37.5734001" lon="13.9359761"><ele>462.0</ele><time>2026-04-03T14:54:29.32Z</time></trkpt><trkpt lat="37.5733244" lon="13.936105"><ele>458.5</ele><time>2026-04-03T14:54:30.32Z</time></trkpt><trkpt lat="37.573269" lon="13.9362251"><ele>455.0</ele><time>2026-04-03T14:54:31.319Z</time></trkpt><trkpt lat="37.5732385" lon="13.9363389"><ele>454.99999999999994</ele><time>2026-04-03T14:54:32.32Z</time></trkpt><trkpt lat="37.573236" lon="13.9364476"><ele>455.0</ele><time>2026-04-03T14:54:33.319Z</time></trkpt><trkpt lat="37.573268" lon="13.9365388"><ele>455.0</ele><time>2026-04-03T14:54:34.319Z</time></trkpt><trkpt lat="37.5733322" lon="13.9365987"><ele>455.0</ele><time>2026-04-03T14:54:35.32Z</time></trkpt><trkpt lat="37.5734157" lon="13.936612"><ele>454.99999999999994</ele><time>2026-04-03T14:54:36.32Z</time></trkpt><trkpt lat="37.5734986" lon="13.9365719"><ele>455.0</ele><time>2026-04-03T14:54:37.32Z</time></trkpt><trkpt lat="37.5735707" lon="13.9364982"><ele>455.0</ele><time>2026-04-03T14:54:38.32Z</time></trkpt><trkpt lat="37.573645" lon="13.936424"><ele>455.0</ele><time>2026-04-03T14:54:39.319Z</time></trkpt><trkpt lat="37.5737361" lon="13.9363699"><ele>455.0</ele><time>2026-04-03T14:54:40.318Z</time></trkpt><trkpt lat="37.5738385" lon="13.9363354"><ele>455.0</ele><time>2026-04-03T14:54:41.32Z</time></trkpt><trkpt lat="37.5739413" lon="13.9363071"><ele>455.0</ele><time>2026-04-03T14:54:42.32Z</time></trkpt><trkpt lat="37.574037" lon="13.9362804"><ele>454.49999999999994</ele><time>2026-04-03T14:54:43.32Z</time></trkpt><trkpt lat="37.5741219" lon="13.936265"><ele>454.0</ele><time>2026-04-03T14:54:44.318Z</time></trkpt><trkpt lat="37.5741992" lon="13.9362723"><ele>453.5</ele><time>2026-04-03T14:54:45.319Z</time></trkpt><trkpt lat="37.5742651" lon="13.9363251"><ele>453.0</ele><time>2026-04-03T14:54:46.319Z</time></trkpt><trkpt lat="37.5742963" lon="13.9364217"><ele>452.49999999999994</ele><time>2026-04-03T14:54:47.319Z</time></trkpt><trkpt lat="37.5742793" lon="13.9365325"><ele>452.0</ele><time>2026-04-03T14:54:48.319Z</time></trkpt><trkpt lat="37.5742208" lon="13.9366344"><ele>449.0</ele><time>2026-04-03T14:54:49.319Z</time></trkpt><trkpt lat="37.5741422" lon="13.9367224"><ele>446.0</ele><time>2026-04-03T14:54:50.32Z</time></trkpt><trkpt lat="37.5740578" lon="13.9368089"><ele>443.0</ele><time>2026-04-03T14:54:51.32Z</time></trkpt><trkpt lat="37.5739669" lon="13.9369001"><ele>440.0</ele><time>2026-04-03T14:54:52.32Z</time></trkpt><trkpt lat="37.5738724" lon="13.9369989"><ele>440.0</ele><time>2026-04-03T14:54:53.319Z</time></trkpt><trkpt lat="37.573772" lon="13.9371013"><ele>440.0</ele><time>2026-04-03T14:54:54.318Z</time></trkpt><trkpt lat="37.5736675" lon="13.9372071"><ele>440.0</ele><time>2026-04-03T14:54:55.318Z</time></trkpt><trkpt lat="37.573565" lon="13.9373135"><ele>440.0</ele><time>2026-04-03T14:54:56.32Z</time></trkpt><trkpt lat="37.5734663" lon="13.9374195"><ele>439.5</ele><time>2026-04-03T14:54:57.32Z</time></trkpt><trkpt lat="37.573368" lon="13.9375203"><ele>439.0</ele><time>2026-04-03T14:54:58.32Z</time></trkpt><trkpt lat="37.5732731" lon="13.9376154"><ele>438.5</ele><time>2026-04-03T14:54:59.319Z</time></trkpt><trkpt lat="37.5731756" lon="13.9377024"><ele>438.0</ele><time>2026-04-03T14:55:00.319Z</time></trkpt><trkpt lat="37.573069" lon="13.937765"><ele>438.0</ele><time>2026-04-03T14:55:01.319Z</time></trkpt><trkpt lat="37.5729569" lon="13.9377953"><ele>437.99999999999994</ele><time>2026-04-03T14:55:02.32Z</time></trkpt><trkpt lat="37.5728497" lon="13.9377897"><ele>437.99999999999994</ele><time>2026-04-03T14:55:03.32Z</time></trkpt><trkpt lat="37.572752" lon="13.9377476"><ele>438.0</ele><time>2026-04-03T14:55:04.318Z</time></trkpt><trkpt lat="37.5726545" lon="13.9376677"><ele>438.0</ele><time>2026-04-03T14:55:05.32Z</time></trkpt><trkpt lat="37.5725572" lon="13.9375802"><ele>439.2</ele><time>2026-04-03T14:55:06.32Z</time></trkpt><trkpt lat="37.5724618" lon="13.9374982"><ele>440.4</ele><time>2026-04-03T14:55:07.319Z</time></trkpt><trkpt lat="37.5723767" lon="13.9374264"><ele>441.59999999999997</ele><time>2026-04-03T14:55:08.32Z</time></trkpt><trkpt lat="37.5722977" lon="13.9373712"><ele>442.79999999999995</ele><time>2026-04-03T14:55:09.32Z</time></trkpt><trkpt lat="37.5722158" lon="13.937342"><ele>444.0</ele><time>2026-04-03T14:55:10.32Z</time></trkpt><trkpt lat="37.5721301" lon="13.9373519"><ele>444.0</ele><time>2026-04-03T14:55:11.32Z</time></trkpt><trkpt lat="37.5720527" lon="13.9374042"><ele>444.0</ele><time>2026-04-03T14:55:12.32Z</time></trkpt><trkpt lat="37.5720068" lon="13.937499"><ele>444.0</ele><time>2026-04-03T14:55:13.32Z</time></trkpt><trkpt lat="37.5720011" lon="13.9376203"><ele>444.0</ele><time>2026-04-03T14:55:14.32Z</time></trkpt><trkpt lat="37.5720293" lon="13.9377432"><ele>444.0</ele><time>2026-04-03T14:55:15.32Z</time></trkpt><trkpt lat="37.5720855" lon="13.9378618"><ele>442.5</ele><time>2026-04-03T14:55:16.32Z</time></trkpt><trkpt lat="37.5721561" lon="13.9379725"><ele>441.0</ele><time>2026-04-03T14:55:17.32Z</time></trkpt><trkpt lat="37.5722286" lon="13.9380871"><ele>439.5</ele><time>2026-04-03T14:55:18.32Z</time></trkpt><trkpt lat="37.5723003" lon="13.9382151"><ele>438.0</ele><time>2026-04-03T14:55:19.319Z</time></trkpt><trkpt lat="37.5723762" lon="13.9383474"><ele>435.5</ele><time>2026-04-03T14:55:20.319Z</time></trkpt><trkpt lat="37.5724631" lon="13.938471"><ele>433.0</ele><time>2026-04-03T14:55:21.319Z</time></trkpt><trkpt lat="37.5725496" lon="13.9385917"><ele>430.5</ele><time>2026-04-03T14:55:22.32Z</time></trkpt><trkpt lat="37.5726246" lon="13.9387137"><ele>428.0</ele><time>2026-04-03T14:55:23.319Z</time></trkpt><trkpt lat="37.5726921" lon="13.9388253"><ele>427.99999999999994</ele><time>2026-04-03T14:55:24.32Z</time></trkpt><trkpt lat="37.5727447" lon="13.9389297"><ele>428.0</ele><time>2026-04-03T14:55:25.319Z</time></trkpt><trkpt lat="37.5727704" lon="13.9390364"><ele>428.0</ele><time>2026-04-03T14:55:26.319Z</time></trkpt><trkpt lat="37.5727699" lon="13.9391402"><ele>428.0</ele><time>2026-04-03T14:55:27.32Z</time></trkpt><trkpt lat="37.5727444" lon="13.9392333"><ele>427.99999999999994</ele><time>2026-04-03T14:55:28.319Z</time></trkpt><trkpt lat="37.572689" lon="13.9392934"><ele>428.0</ele><time>2026-04-03T14:55:29.32Z</time></trkpt><trkpt lat="37.5726087" lon="13.9393054"><ele>428.0</ele><time>2026-04-03T14:55:30.319Z</time></trkpt><trkpt lat="37.572525" lon="13.9392689"><ele>427.99999999999994</ele><time>2026-04-03T14:55:31.319Z</time></trkpt><trkpt lat="37.5724458" lon="13.9392021"><ele>427.99999999999994</ele><time>2026-04-03T14:55:32.32Z</time></trkpt><trkpt lat="37.5723637" lon="13.9391267"><ele>428.0</ele><time>2026-04-03T14:55:33.319Z</time></trkpt><trkpt lat="37.5722788" lon="13.9390447"><ele>428.0</ele><time>2026-04-03T14:55:34.319Z</time></trkpt><trkpt lat="37.5721936" lon="13.9389601"><ele>428.0</ele><time>2026-04-03T14:55:35.32Z</time></trkpt><trkpt lat="37.572105" lon="13.9388714"><ele>428.0</ele><time>2026-04-03T14:55:36.32Z</time></trkpt><trkpt lat="37.5720087" lon="13.9387813"><ele>428.0</ele><time>2026-04-03T14:55:37.319Z</time></trkpt><trkpt lat="37.5719081" lon="13.9386913"><ele>428.0</ele><time>2026-04-03T14:55:38.32Z</time></trkpt><trkpt lat="37.5718065" lon="13.9386039"><ele>426.75</ele><time>2026-04-03T14:55:39.32Z</time></trkpt><trkpt lat="37.5717058" lon="13.938518"><ele>425.5</ele><time>2026-04-03T14:55:40.32Z</time></trkpt><trkpt lat="37.5716071" lon="13.9384314"><ele>424.25</ele><time>2026-04-03T14:55:41.32Z</time></trkpt><trkpt lat="37.5715083" lon="13.938343"><ele>423.0</ele><time>2026-04-03T14:55:42.32Z</time></trkpt><trkpt lat="37.5714094" lon="13.9382539"><ele>423.0</ele><time>2026-04-03T14:55:43.319Z</time></trkpt><trkpt lat="37.5713165" lon="13.938158"><ele>423.0</ele><time>2026-04-03T14:55:44.319Z</time></trkpt><trkpt lat="37.5712342" lon="13.9380588"><ele>423.0</ele><time>2026-04-03T14:55:45.32Z</time></trkpt><trkpt lat="37.5711627" lon="13.9379731"><ele>423.0</ele><time>2026-04-03T14:55:46.319Z</time></trkpt><trkpt lat="37.5710879" lon="13.9379165"><ele>423.0</ele><time>2026-04-03T14:55:47.32Z</time></trkpt><trkpt lat="37.571003" lon="13.9378947"><ele>420.6666666666667</ele><time>2026-04-03T14:55:48.319Z</time></trkpt><trkpt lat="37.5709175" lon="13.93791"><ele>418.33333333333337</ele><time>2026-04-03T14:55:49.319Z</time></trkpt><trkpt lat="37.5708482" lon="13.9379649"><ele>416.0</ele><time>2026-04-03T14:55:50.319Z</time></trkpt><trkpt lat="37.5708068" lon="13.9380543"><ele>413.6666666666667</ele><time>2026-04-03T14:55:51.32Z</time></trkpt><trkpt lat="37.5707997" lon="13.938161"><ele>411.33333333333337</ele><time>2026-04-03T14:55:52.32Z</time></trkpt><trkpt lat="37.5708275" lon="13.9382659"><ele>409.0</ele><time>2026-04-03T14:55:53.32Z</time></trkpt><trkpt lat="37.5708858" lon="13.9383556"><ele>407.50000000000006</ele><time>2026-04-03T14:55:54.32Z</time></trkpt><trkpt lat="37.5709601" lon="13.9384339"><ele>406.0</ele><time>2026-04-03T14:55:55.319Z</time></trkpt><trkpt lat="37.5710353" lon="13.9385161"><ele>404.5</ele><time>2026-04-03T14:55:56.319Z</time></trkpt><trkpt lat="37.5710992" lon="13.9386007"><ele>403.0</ele><time>2026-04-03T14:55:57.319Z</time></trkpt><trkpt lat="37.5711387" lon="13.9386881"><ele>401.50000000000006</ele><time>2026-04-03T14:55:58.32Z</time></trkpt><trkpt lat="37.5711469" lon="13.9387855"><ele>400.0</ele><time>2026-04-03T14:55:59.32Z</time></trkpt><trkpt lat="37.5711233" lon="13.9388838"><ele>400.0</ele><time>2026-04-03T14:56:00.32Z</time></trkpt><trkpt lat="37.5710665" lon="13.9389656"><ele>400.0</ele><time>2026-04-03T14:56:01.319Z</time></trkpt><trkpt lat="37.570983" lon="13.939007"><ele>400.0</ele><time>2026-04-03T14:56:02.32Z</time></trkpt><trkpt lat="37.5708914" lon="13.9389974"><ele>400.0</ele><time>2026-04-03T14:56:03.32Z</time></trkpt><trkpt lat="37.5707962" lon="13.9389596"><ele>400.0</ele><time>2026-04-03T14:56:04.32Z</time></trkpt><trkpt lat="37.5706922" lon="13.9389222"><ele>400.0</ele><time>2026-04-03T14:56:05.319Z</time></trkpt><trkpt lat="37.5705825" lon="13.9388789"><ele>400.0</ele><time>2026-04-03T14:56:06.32Z</time></trkpt><trkpt lat="37.5704693" lon="13.9388266"><ele>400.0</ele><time>2026-04-03T14:56:07.32Z</time></trkpt><trkpt lat="37.5703455" lon="13.938776"><ele>400.0</ele><time>2026-04-03T14:56:08.32Z</time></trkpt><trkpt lat="37.5702129" lon="13.9387276"><ele>397.0</ele><time>2026-04-03T14:56:09.32Z</time></trkpt><trkpt lat="37.570079" lon="13.9386786"><ele>394.0</ele><time>2026-04-03T14:56:10.32Z</time></trkpt><trkpt lat="37.5699517" lon="13.9386274"><ele>391.0</ele><time>2026-04-03T14:56:11.319Z</time></trkpt><trkpt lat="37.5698352" lon="13.9385801"><ele>388.0</ele><time>2026-04-03T14:56:12.319Z</time></trkpt><trkpt lat="37.5697311" lon="13.9385426"><ele>388.00000000000006</ele><time>2026-04-03T14:56:13.319Z</time></trkpt><trkpt lat="37.5696386" lon="13.938518"><ele>388.0</ele><time>2026-04-03T14:56:14.32Z</time></trkpt><trkpt lat="37.5695512" lon="13.9385145"><ele>388.0</ele><time>2026-04-03T14:56:15.32Z</time></trkpt><trkpt lat="37.5694711" lon="13.9385502"><ele>388.0</ele><time>2026-04-03T14:56:16.319Z</time></trkpt><trkpt lat="37.5694066" lon="13.938627"><ele>388.00000000000006</ele><time>2026-04-03T14:56:17.319Z</time></trkpt><trkpt lat="37.5693738" lon="13.93873"><ele>388.0</ele><time>2026-04-03T14:56:18.32Z</time></trkpt><trkpt lat="37.5693821" lon="13.9388403"><ele>388.0</ele><time>2026-04-03T14:56:19.32Z</time></trkpt><trkpt lat="37.5694265" lon="13.9389394"><ele>388.0</ele><time>2026-04-03T14:56:20.32Z</time></trkpt><trkpt lat="37.5694976" lon="13.9390167"><ele>388.0</ele><time>2026-04-03T14:56:21.319Z</time></trkpt><trkpt lat="37.5695876" lon="13.9390641"><ele>388.0</ele><time>2026-04-03T14:56:22.319Z</time></trkpt><trkpt lat="37.569689" lon="13.9390874"><ele>388.0</ele><time>2026-04-03T14:56:23.32Z</time></trkpt><trkpt lat="37.569791" lon="13.9391013"><ele>388.0</ele><time>2026-04-03T14:56:24.32Z</time></trkpt><trkpt lat="37.5698907" lon="13.9391128"><ele>388.0</ele><time>2026-04-03T14:56:25.318Z</time></trkpt><trkpt lat="37.569982" lon="13.9391258"><ele>388.0</ele><time>2026-04-03T14:56:26.32Z</time></trkpt><trkpt lat="37.5700547" lon="13.9391437"><ele>388.0</ele><time>2026-04-03T14:56:27.32Z</time></trkpt><trkpt lat="37.570114" lon="13.9391727"><ele>388.0</ele><time>2026-04-03T14:56:28.32Z</time></trkpt><trkpt lat="37.570199" lon="13.939292"><ele>385.33333333333337</ele><time>2026-04-03T14:56:30.319Z</time></trkpt><trkpt lat="37.5702166" lon="13.9393849"><ele>382.6666666666667</ele><time>2026-04-03T14:56:31.32Z</time></trkpt><trkpt lat="37.5702149" lon="13.939482"><ele>380.0</ele><time>2026-04-03T14:56:32.32Z</time></trkpt><trkpt lat="37.5701832" lon="13.9395701"><ele>377.33333333333337</ele><time>2026-04-03T14:56:33.32Z</time></trkpt><trkpt lat="37.5701213" lon="13.9396413"><ele>374.6666666666667</ele><time>2026-04-03T14:56:34.319Z</time></trkpt><trkpt lat="37.5700304" lon="13.9396773"><ele>372.0</ele><time>2026-04-03T14:56:35.32Z</time></trkpt><trkpt lat="37.5699287" lon="13.9396916"><ele>372.0</ele><time>2026-04-03T14:56:36.32Z</time></trkpt><trkpt lat="37.5698233" lon="13.9396903"><ele>372.0</ele><time>2026-04-03T14:56:37.32Z</time></trkpt><trkpt lat="37.5697143" lon="13.939679"><ele>372.0</ele><time>2026-04-03T14:56:38.318Z</time></trkpt><trkpt lat="37.5696023" lon="13.9396707"><ele>372.0</ele><time>2026-04-03T14:56:39.319Z</time></trkpt><trkpt lat="37.5694856" lon="13.9396737"><ele>372.0</ele><time>2026-04-03T14:56:40.32Z</time></trkpt><trkpt lat="37.5693635" lon="13.9396781"><ele>370.5</ele><time>2026-04-03T14:56:41.32Z</time></trkpt><trkpt lat="37.5692347" lon="13.9396777"><ele>369.0</ele><time>2026-04-03T14:56:42.32Z</time></trkpt><trkpt lat="37.5691049" lon="13.9396773"><ele>367.5</ele><time>2026-04-03T14:56:43.319Z</time></trkpt><trkpt lat="37.5689847" lon="13.9396767"><ele>366.0</ele><time>2026-04-03T14:56:44.318Z</time></trkpt><trkpt lat="37.5688781" lon="13.9396615"><ele>366.0</ele><time>2026-04-03T14:56:45.319Z</time></trkpt><trkpt lat="37.5687735" lon="13.9396215"><ele>366.0</ele><time>2026-04-03T14:56:46.319Z</time></trkpt><trkpt lat="37.5686675" lon="13.9395598"><ele>366.0</ele><time>2026-04-03T14:56:47.32Z</time></trkpt><trkpt lat="37.5685659" lon="13.9394746"><ele>366.0</ele><time>2026-04-03T14:56:48.319Z</time></trkpt><trkpt lat="37.5684723" lon="13.9393654"><ele>367.0</ele><time>2026-04-03T14:56:49.32Z</time></trkpt><trkpt lat="37.5683824" lon="13.9392524"><ele>368.0</ele><time>2026-04-03T14:56:50.319Z</time></trkpt><trkpt lat="37.5682845" lon="13.9391562"><ele>369.0</ele><time>2026-04-03T14:56:51.32Z</time></trkpt><trkpt lat="37.5681729" lon="13.9390865"><ele>370.0</ele><time>2026-04-03T14:56:52.32Z</time></trkpt><trkpt lat="37.5680531" lon="13.9390445"><ele>370.0</ele><time>2026-04-03T14:56:53.32Z</time></trkpt><trkpt lat="37.5679354" lon="13.9390142"><ele>370.0</ele><time>2026-04-03T14:56:54.32Z</time></trkpt><trkpt lat="37.5678346" lon="13.9389727"><ele>370.0</ele><time>2026-04-03T14:56:55.32Z</time></trkpt><trkpt lat="37.5677563" lon="13.9389001"><ele>370.0</ele><time>2026-04-03T14:56:56.32Z</time></trkpt><trkpt lat="37.5676984" lon="13.9387951"><ele>370.0</ele><time>2026-04-03T14:56:57.32Z</time></trkpt><trkpt lat="37.5676659" lon="13.9386713"><ele>365.75</ele><time>2026-04-03T14:56:58.319Z</time></trkpt><trkpt lat="37.5676631" lon="13.9385358"><ele>361.5</ele><time>2026-04-03T14:56:59.318Z</time></trkpt><trkpt lat="37.5676862" lon="13.938396"><ele>357.25</ele><time>2026-04-03T14:57:00.319Z</time></trkpt><trkpt lat="37.5677328" lon="13.9382585"><ele>353.0</ele><time>2026-04-03T14:57:01.319Z</time></trkpt><trkpt lat="37.5678012" lon="13.9381287"><ele>357.5</ele><time>2026-04-03T14:57:02.32Z</time></trkpt><trkpt lat="37.567888" lon="13.9380094"><ele>362.0</ele><time>2026-04-03T14:57:03.32Z</time></trkpt><trkpt lat="37.5679857" lon="13.9379055"><ele>366.5</ele><time>2026-04-03T14:57:04.32Z</time></trkpt><trkpt lat="37.5680815" lon="13.9378116"><ele>371.0</ele><time>2026-04-03T14:57:05.319Z</time></trkpt><trkpt lat="37.5681605" lon="13.9377173"><ele>371.0</ele><time>2026-04-03T14:57:06.32Z</time></trkpt><trkpt lat="37.5682155" lon="13.9376145"><ele>371.0</ele><time>2026-04-03T14:57:07.32Z</time></trkpt><trkpt lat="37.5682493" lon="13.9374973"><ele>371.0</ele><time>2026-04-03T14:57:08.321Z</time></trkpt><trkpt lat="37.5682566" lon="13.9373672"><ele>371.0</ele><time>2026-04-03T14:57:09.321Z</time></trkpt><trkpt lat="37.5682303" lon="13.9372417"><ele>371.0</ele><time>2026-04-03T14:57:10.32Z</time></trkpt><trkpt lat="37.568177" lon="13.9371423"><ele>368.0</ele><time>2026-04-03T14:57:11.321Z</time></trkpt><trkpt lat="37.5681086" lon="13.9370692"><ele>365.0</ele><time>2026-04-03T14:57:12.321Z</time></trkpt><trkpt lat="37.568031" lon="13.9370173"><ele>362.0</ele><time>2026-04-03T14:57:13.321Z</time></trkpt><trkpt lat="37.5679445" lon="13.9369925"><ele>359.0</ele><time>2026-04-03T14:57:14.321Z</time></trkpt><trkpt lat="37.5678491" lon="13.9369985"><ele>356.0</ele><time>2026-04-03T14:57:15.321Z</time></trkpt><trkpt lat="37.5677529" lon="13.937036"><ele>355.20000000000005</ele><time>2026-04-03T14:57:16.321Z</time></trkpt><trkpt lat="37.5676604" lon="13.9370959"><ele>354.40000000000003</ele><time>2026-04-03T14:57:17.32Z</time></trkpt><trkpt lat="37.5675707" lon="13.9371698"><ele>353.6</ele><time>2026-04-03T14:57:18.321Z</time></trkpt><trkpt lat="37.5674853" lon="13.9372588"><ele>352.8</ele><time>2026-04-03T14:57:19.32Z</time></trkpt><trkpt lat="37.5674068" lon="13.9373626"><ele>352.0</ele><time>2026-04-03T14:57:20.32Z</time></trkpt><trkpt lat="37.5673298" lon="13.9374772"><ele>351.75</ele><time>2026-04-03T14:57:21.32Z</time></trkpt><trkpt lat="37.567252" lon="13.9375968"><ele>351.5</ele><time>2026-04-03T14:57:22.319Z</time></trkpt><trkpt lat="37.5671731" lon="13.9377174"><ele>351.25</ele><time>2026-04-03T14:57:23.321Z</time></trkpt><trkpt lat="37.5670928" lon="13.9378393"><ele>351.0</ele><time>2026-04-03T14:57:24.32Z</time></trkpt><trkpt lat="37.5670123" lon="13.9379651"><ele>350.25</ele><time>2026-04-03T14:57:25.319Z</time></trkpt><trkpt lat="37.5669321" lon="13.9380934"><ele>349.5</ele><time>2026-04-03T14:57:26.32Z</time></trkpt><trkpt lat="37.5668515" lon="13.938225"><ele>348.75</ele><time>2026-04-03T14:57:27.321Z</time></trkpt><trkpt lat="37.5667716" lon="13.9383606"><ele>348.0</ele><time>2026-04-03T14:57:28.32Z</time></trkpt><trkpt lat="37.5666891" lon="13.9384963"><ele>346.25</ele><time>2026-04-03T14:57:29.32Z</time></trkpt><trkpt lat="37.5666041" lon="13.9386315"><ele>344.5</ele><time>2026-04-03T14:57:30.32Z</time></trkpt><trkpt lat="37.5665194" lon="13.9387676"><ele>342.75</ele><time>2026-04-03T14:57:31.321Z</time></trkpt><trkpt lat="37.5664376" lon="13.9389017"><ele>341.0</ele><time>2026-04-03T14:57:32.321Z</time></trkpt><trkpt lat="37.566356" lon="13.9390316"><ele>341.0</ele><time>2026-04-03T14:57:33.32Z</time></trkpt><trkpt lat="37.5662719" lon="13.9391539"><ele>341.0</ele><time>2026-04-03T14:57:34.321Z</time></trkpt><trkpt lat="37.566183" lon="13.93927"><ele>341.0</ele><time>2026-04-03T14:57:35.32Z</time></trkpt><trkpt lat="37.5660891" lon="13.9393806"><ele>341.0</ele><time>2026-04-03T14:57:36.321Z</time></trkpt><trkpt lat="37.565991" lon="13.9394882"><ele>339.75</ele><time>2026-04-03T14:57:37.321Z</time></trkpt><trkpt lat="37.565887" lon="13.9395909"><ele>338.5</ele><time>2026-04-03T14:57:38.32Z</time></trkpt><trkpt lat="37.5657797" lon="13.9396886"><ele>337.25</ele><time>2026-04-03T14:57:39.321Z</time></trkpt><trkpt lat="37.5656766" lon="13.9397906"><ele>336.0</ele><time>2026-04-03T14:57:40.321Z</time></trkpt><trkpt lat="37.5655803" lon="13.9398955"><ele>336.0</ele><time>2026-04-03T14:57:41.32Z</time></trkpt><trkpt lat="37.5654919" lon="13.9400072"><ele>336.0</ele><time>2026-04-03T14:57:42.32Z</time></trkpt><trkpt lat="37.5654051" lon="13.9401212"><ele>336.0</ele><time>2026-04-03T14:57:43.32Z</time></trkpt><trkpt lat="37.5653175" lon="13.940237"><ele>336.0</ele><time>2026-04-03T14:57:44.321Z</time></trkpt><trkpt lat="37.5652415" lon="13.940367"><ele>337.75</ele><time>2026-04-03T14:57:45.321Z</time></trkpt><trkpt lat="37.5651732" lon="13.9405056"><ele>339.5</ele><time>2026-04-03T14:57:46.32Z</time></trkpt><trkpt lat="37.5651056" lon="13.940645"><ele>341.25</ele><time>2026-04-03T14:57:47.32Z</time></trkpt><trkpt lat="37.5650399" lon="13.9407836"><ele>343.0</ele><time>2026-04-03T14:57:48.321Z</time></trkpt><trkpt lat="37.5649786" lon="13.940918"><ele>339.5</ele><time>2026-04-03T14:57:49.321Z</time></trkpt><trkpt lat="37.5649133" lon="13.9410434"><ele>336.0</ele><time>2026-04-03T14:57:50.319Z</time></trkpt><trkpt lat="37.5648354" lon="13.9411573"><ele>332.5</ele><time>2026-04-03T14:57:51.321Z</time></trkpt><trkpt lat="37.5647423" lon="13.94125"><ele>329.0</ele><time>2026-04-03T14:57:52.321Z</time></trkpt><trkpt lat="37.5646421" lon="13.9413098"><ele>329.0</ele><time>2026-04-03T14:57:53.32Z</time></trkpt><trkpt lat="37.5645365" lon="13.9413239"><ele>329.0</ele><time>2026-04-03T14:57:54.32Z</time></trkpt><trkpt lat="37.5644268" lon="13.9412987"><ele>329.0</ele><time>2026-04-03T14:57:55.321Z</time></trkpt><trkpt lat="37.5643095" lon="13.9412668"><ele>329.0</ele><time>2026-04-03T14:57:56.319Z</time></trkpt><trkpt lat="37.5641835" lon="13.9412412"><ele>329.25</ele><time>2026-04-03T14:57:57.321Z</time></trkpt><trkpt lat="37.5640511" lon="13.9412129"><ele>329.5</ele><time>2026-04-03T14:57:58.321Z</time></trkpt><trkpt lat="37.5639137" lon="13.9411773"><ele>329.75</ele><time>2026-04-03T14:57:59.321Z</time></trkpt><trkpt lat="37.5637717" lon="13.9411386"><ele>330.0</ele><time>2026-04-03T14:58:00.321Z</time></trkpt><trkpt lat="37.5636277" lon="13.9411015"><ele>328.75</ele><time>2026-04-03T14:58:01.32Z</time></trkpt><trkpt lat="37.5634811" lon="13.9410785"><ele>327.5</ele><time>2026-04-03T14:58:02.32Z</time></trkpt><trkpt lat="37.5633357" lon="13.9410774"><ele>326.25</ele><time>2026-04-03T14:58:03.319Z</time></trkpt><trkpt lat="37.5631915" lon="13.9410921"><ele>325.0</ele><time>2026-04-03T14:58:04.321Z</time></trkpt><trkpt lat="37.5630485" lon="13.9411103"><ele>325.0</ele><time>2026-04-03T14:58:05.321Z</time></trkpt><trkpt lat="37.562907" lon="13.9411284"><ele>325.0</ele><time>2026-04-03T14:58:06.32Z</time></trkpt><trkpt lat="37.5627675" lon="13.941143"><ele>325.0</ele><time>2026-04-03T14:58:07.32Z</time></trkpt><trkpt lat="37.562629" lon="13.9411592"><ele>325.0</ele><time>2026-04-03T14:58:08.321Z</time></trkpt><trkpt lat="37.5624901" lon="13.9411753"><ele>324.25</ele><time>2026-04-03T14:58:09.319Z</time></trkpt><trkpt lat="37.5623507" lon="13.9411707"><ele>323.5</ele><time>2026-04-03T14:58:10.321Z</time></trkpt><trkpt lat="37.5622135" lon="13.9411374"><ele>322.75</ele><time>2026-04-03T14:58:11.32Z</time></trkpt><trkpt lat="37.5620813" lon="13.9410807"><ele>322.0</ele><time>2026-04-03T14:58:12.321Z</time></trkpt><trkpt lat="37.5619544" lon="13.9410064"><ele>321.25</ele><time>2026-04-03T14:58:13.319Z</time></trkpt><trkpt lat="37.5618294" lon="13.9409251"><ele>320.5</ele><time>2026-04-03T14:58:14.32Z</time></trkpt><trkpt lat="37.5617035" lon="13.9408443"><ele>319.75</ele><time>2026-04-03T14:58:15.321Z</time></trkpt><trkpt lat="37.5615774" lon="13.9407635"><ele>319.0</ele><time>2026-04-03T14:58:16.32Z</time></trkpt><trkpt lat="37.5614517" lon="13.9406819"><ele>320.5</ele><time>2026-04-03T14:58:17.321Z</time></trkpt><trkpt lat="37.5613276" lon="13.9406004"><ele>322.0</ele><time>2026-04-03T14:58:18.321Z</time></trkpt><trkpt lat="37.5612036" lon="13.9405211"><ele>323.5</ele><time>2026-04-03T14:58:19.321Z</time></trkpt><trkpt lat="37.5610776" lon="13.9404421"><ele>325.0</ele><time>2026-04-03T14:58:20.32Z</time></trkpt><trkpt lat="37.560952" lon="13.9403557"><ele>325.0</ele><time>2026-04-03T14:58:21.32Z</time></trkpt><trkpt lat="37.5608326" lon="13.9402562"><ele>325.0</ele><time>2026-04-03T14:58:22.321Z</time></trkpt><trkpt lat="37.5607257" lon="13.9401409"><ele>325.0</ele><time>2026-04-03T14:58:23.32Z</time></trkpt><trkpt lat="37.5606363" lon="13.9400081"><ele>325.0</ele><time>2026-04-03T14:58:24.321Z</time></trkpt><trkpt lat="37.5605678" lon="13.9398574"><ele>326.25</ele><time>2026-04-03T14:58:25.32Z</time></trkpt><trkpt lat="37.5605179" lon="13.9396924"><ele>327.5</ele><time>2026-04-03T14:58:26.321Z</time></trkpt><trkpt lat="37.5604791" lon="13.9395213"><ele>328.75</ele><time>2026-04-03T14:58:27.321Z</time></trkpt><trkpt lat="37.5604464" lon="13.9393456"><ele>330.0</ele><time>2026-04-03T14:58:28.319Z</time></trkpt><trkpt lat="37.5604178" lon="13.9391656"><ele>330.75</ele><time>2026-04-03T14:58:29.321Z</time></trkpt><trkpt lat="37.5603892" lon="13.9389835"><ele>331.5</ele><time>2026-04-03T14:58:30.321Z</time></trkpt><trkpt lat="37.5603618" lon="13.9388003"><ele>332.25</ele><time>2026-04-03T14:58:31.321Z</time></trkpt><trkpt lat="37.5603356" lon="13.9386166"><ele>333.0</ele><time>2026-04-03T14:58:32.32Z</time></trkpt><trkpt lat="37.5603079" lon="13.9384337"><ele>331.25</ele><time>2026-04-03T14:58:33.32Z</time></trkpt><trkpt lat="37.5602802" lon="13.9382504"><ele>329.5</ele><time>2026-04-03T14:58:34.321Z</time></trkpt><trkpt lat="37.5602514" lon="13.9380671"><ele>327.75</ele><time>2026-04-03T14:58:35.321Z</time></trkpt><trkpt lat="37.5602205" lon="13.9378837"><ele>326.0</ele><time>2026-04-03T14:58:36.32Z</time></trkpt><trkpt lat="37.5601915" lon="13.9376992"><ele>326.0</ele><time>2026-04-03T14:58:37.32Z</time></trkpt><trkpt lat="37.5601652" lon="13.9375162"><ele>326.0</ele><time>2026-04-03T14:58:38.32Z</time></trkpt><trkpt lat="37.5601394" lon="13.9373405"><ele>326.0</ele><time>2026-04-03T14:58:39.321Z</time></trkpt><trkpt lat="37.560112" lon="13.9371726"><ele>326.0</ele><time>2026-04-03T14:58:40.32Z</time></trkpt><trkpt lat="37.5600761" lon="13.9370126"><ele>326.0</ele><time>2026-04-03T14:58:41.32Z</time></trkpt><trkpt lat="37.5600221" lon="13.9368663"><ele>326.0</ele><time>2026-04-03T14:58:42.32Z</time></trkpt><trkpt lat="37.5599456" lon="13.9367406"><ele>326.0</ele><time>2026-04-03T14:58:43.32Z</time></trkpt><trkpt lat="37.5598529" lon="13.9366413"><ele>326.0</ele><time>2026-04-03T14:58:44.32Z</time></trkpt><trkpt lat="37.559751" lon="13.936571"><ele>326.75</ele><time>2026-04-03T14:58:45.321Z</time></trkpt><trkpt lat="37.5596449" lon="13.936524"><ele>327.5</ele><time>2026-04-03T14:58:46.32Z</time></trkpt><trkpt lat="37.5595364" lon="13.9364837"><ele>328.25</ele><time>2026-04-03T14:58:47.32Z</time></trkpt><trkpt lat="37.559424" lon="13.9364437"><ele>329.0</ele><time>2026-04-03T14:58:48.321Z</time></trkpt><trkpt lat="37.5593074" lon="13.9364088"><ele>327.25</ele><time>2026-04-03T14:58:49.321Z</time></trkpt><trkpt lat="37.5591873" lon="13.9363746"><ele>325.5</ele><time>2026-04-03T14:58:50.321Z</time></trkpt><trkpt lat="37.5590668" lon="13.9363331"><ele>323.75</ele><time>2026-04-03T14:58:51.321Z</time></trkpt><trkpt lat="37.5589499" lon="13.9362715"><ele>322.0</ele><time>2026-04-03T14:58:52.321Z</time></trkpt><trkpt lat="37.5588377" lon="13.9361893"><ele>322.0</ele><time>2026-04-03T14:58:53.32Z</time></trkpt><trkpt lat="37.5587296" lon="13.9360943"><ele>322.0</ele><time>2026-04-03T14:58:54.321Z</time></trkpt><trkpt lat="37.5586345" lon="13.9359776"><ele>322.0</ele><time>2026-04-03T14:58:55.321Z</time></trkpt><trkpt lat="37.5585548" lon="13.9358472"><ele>322.0</ele><time>2026-04-03T14:58:56.32Z</time></trkpt><trkpt lat="37.5584831" lon="13.9357198"><ele>323.75</ele><time>2026-04-03T14:58:57.32Z</time></trkpt><trkpt lat="37.558408" lon="13.9356031"><ele>325.5</ele><time>2026-04-03T14:58:58.32Z</time></trkpt><trkpt lat="37.5583194" lon="13.9355109"><ele>327.25</ele><time>2026-04-03T14:58:59.321Z</time></trkpt><trkpt lat="37.5582167" lon="13.9354535"><ele>329.0</ele><time>2026-04-03T14:59:00.321Z</time></trkpt><trkpt lat="37.558107" lon="13.9354356"><ele>329.0</ele><time>2026-04-03T14:59:01.321Z</time></trkpt><trkpt lat="37.5579966" lon="13.9354546"><ele>329.0</ele><time>2026-04-03T14:59:02.32Z</time></trkpt><trkpt lat="37.5578957" lon="13.9355109"><ele>329.0</ele><time>2026-04-03T14:59:03.32Z</time></trkpt><trkpt lat="37.5578098" lon="13.9356015"><ele>329.0</ele><time>2026-04-03T14:59:04.321Z</time></trkpt><trkpt lat="37.55774" lon="13.9357156"><ele>329.0</ele><time>2026-04-03T14:59:05.321Z</time></trkpt><trkpt lat="37.5576751" lon="13.9358368"><ele>329.5</ele><time>2026-04-03T14:59:06.32Z</time></trkpt><trkpt lat="37.5576087" lon="13.9359586"><ele>330.0</ele><time>2026-04-03T14:59:07.32Z</time></trkpt><trkpt lat="37.5575413" lon="13.9360827"><ele>330.5</ele><time>2026-04-03T14:59:08.32Z</time></trkpt><trkpt lat="37.5574745" lon="13.9362101"><ele>331.0</ele><time>2026-04-03T14:59:09.321Z</time></trkpt><trkpt lat="37.5574098" lon="13.93634"><ele>331.0</ele><time>2026-04-03T14:59:10.321Z</time></trkpt><trkpt lat="37.5573382" lon="13.9364638"><ele>331.0</ele><time>2026-04-03T14:59:11.32Z</time></trkpt><trkpt lat="37.5572487" lon="13.9365727"><ele>331.0</ele><time>2026-04-03T14:59:12.32Z</time></trkpt><trkpt lat="37.5571444" lon="13.9366608"><ele>331.0</ele><time>2026-04-03T14:59:13.319Z</time></trkpt><trkpt lat="37.5570323" lon="13.9367386"><ele>330.5</ele><time>2026-04-03T14:59:14.321Z</time></trkpt><trkpt lat="37.5569201" lon="13.9368176"><ele>330.0</ele><time>2026-04-03T14:59:15.321Z</time></trkpt><trkpt lat="37.556808" lon="13.9368985"><ele>329.5</ele><time>2026-04-03T14:59:16.32Z</time></trkpt><trkpt lat="37.5566964" lon="13.9369793"><ele>329.0</ele><time>2026-04-03T14:59:17.321Z</time></trkpt><trkpt lat="37.5565844" lon="13.9370606"><ele>329.0</ele><time>2026-04-03T14:59:18.321Z</time></trkpt><trkpt lat="37.5564686" lon="13.9371421"><ele>329.0</ele><time>2026-04-03T14:59:19.32Z</time></trkpt><trkpt lat="37.5563512" lon="13.937223"><ele>329.0</ele><time>2026-04-03T14:59:20.321Z</time></trkpt><trkpt lat="37.5562327" lon="13.937302"><ele>329.0</ele><time>2026-04-03T14:59:21.32Z</time></trkpt><trkpt lat="37.556112" lon="13.9373824"><ele>327.75</ele><time>2026-04-03T14:59:22.32Z</time></trkpt><trkpt lat="37.5559929" lon="13.9374684"><ele>326.5</ele><time>2026-04-03T14:59:23.321Z</time></trkpt><trkpt lat="37.5558764" lon="13.9375582"><ele>325.25</ele><time>2026-04-03T14:59:24.32Z</time></trkpt><trkpt lat="37.55576" lon="13.937649"><ele>324.0</ele><time>2026-04-03T14:59:25.321Z</time></trkpt><trkpt lat="37.5556427" lon="13.9377392"><ele>324.0</ele><time>2026-04-03T14:59:26.321Z</time></trkpt><trkpt lat="37.5555235" lon="13.9378253"><ele>324.0</ele><time>2026-04-03T14:59:27.321Z</time></trkpt><trkpt lat="37.5554013" lon="13.9379062"><ele>324.0</ele><time>2026-04-03T14:59:28.321Z</time></trkpt><trkpt lat="37.5552772" lon="13.9379845"><ele>324.0</ele><time>2026-04-03T14:59:29.32Z</time></trkpt><trkpt lat="37.5551536" lon="13.9380636"><ele>325.75</ele><time>2026-04-03T14:59:30.321Z</time></trkpt><trkpt lat="37.5550304" lon="13.9381424"><ele>327.5</ele><time>2026-04-03T14:59:31.319Z</time></trkpt><trkpt lat="37.5549079" lon="13.9382199"><ele>329.25</ele><time>2026-04-03T14:59:32.32Z</time></trkpt><trkpt lat="37.5547878" lon="13.9383003"><ele>331.0</ele><time>2026-04-03T14:59:33.32Z</time></trkpt><trkpt lat="37.5546691" lon="13.9383804"><ele>330.25</ele><time>2026-04-03T14:59:34.321Z</time></trkpt><trkpt lat="37.55455" lon="13.9384566"><ele>329.5</ele><time>2026-04-03T14:59:35.321Z</time></trkpt><trkpt lat="37.5544303" lon="13.9385306"><ele>328.75</ele><time>2026-04-03T14:59:36.32Z</time></trkpt><trkpt lat="37.5543106" lon="13.9386087"><ele>328.0</ele><time>2026-04-03T14:59:37.32Z</time></trkpt><trkpt lat="37.5541919" lon="13.9386922"><ele>328.0</ele><time>2026-04-03T14:59:38.321Z</time></trkpt><trkpt lat="37.554073" lon="13.9387761"><ele>328.0</ele><time>2026-04-03T14:59:39.321Z</time></trkpt><trkpt lat="37.5539519" lon="13.9388576"><ele>328.0</ele><time>2026-04-03T14:59:40.321Z</time></trkpt><trkpt lat="37.5538313" lon="13.9389367"><ele>328.0</ele><time>2026-04-03T14:59:41.32Z</time></trkpt><trkpt lat="37.5537176" lon="13.9390105"><ele>331.0</ele><time>2026-04-03T14:59:42.32Z</time></trkpt><trkpt lat="37.5536078" lon="13.9390797"><ele>334.0</ele><time>2026-04-03T14:59:43.321Z</time></trkpt><trkpt lat="37.5534961" lon="13.9391509"><ele>337.0</ele><time>2026-04-03T14:59:44.321Z</time></trkpt><trkpt lat="37.5533829" lon="13.9392257"><ele>340.0</ele><time>2026-04-03T14:59:45.321Z</time></trkpt><trkpt lat="37.5532686" lon="13.9392989"><ele>340.0</ele><time>2026-04-03T14:59:46.321Z</time></trkpt><trkpt lat="37.553153" lon="13.9393725"><ele>340.0</ele><time>2026-04-03T14:59:47.321Z</time></trkpt><trkpt lat="37.5530434" lon="13.9394525"><ele>340.0</ele><time>2026-04-03T14:59:48.321Z</time></trkpt><trkpt lat="37.5529449" lon="13.9395457"><ele>340.0</ele><time>2026-04-03T14:59:49.321Z</time></trkpt><trkpt lat="37.5528524" lon="13.9396519"><ele>339.75</ele><time>2026-04-03T14:59:50.32Z</time></trkpt><trkpt lat="37.5527686" lon="13.9397739"><ele>339.5</ele><time>2026-04-03T14:59:51.32Z</time></trkpt><trkpt lat="37.5527003" lon="13.9399136"><ele>339.25</ele><time>2026-04-03T14:59:52.321Z</time></trkpt><trkpt lat="37.5526484" lon="13.9400648"><ele>339.0</ele><time>2026-04-03T14:59:53.32Z</time></trkpt><trkpt lat="37.5526115" lon="13.9402225"><ele>337.75</ele><time>2026-04-03T14:59:54.321Z</time></trkpt><trkpt lat="37.5525733" lon="13.9403839"><ele>336.5</ele><time>2026-04-03T14:59:55.321Z</time></trkpt><trkpt lat="37.5525304" lon="13.9405457"><ele>335.25</ele><time>2026-04-03T14:59:56.32Z</time></trkpt><trkpt lat="37.5524938" lon="13.9407046"><ele>334.0</ele><time>2026-04-03T14:59:57.32Z</time></trkpt><trkpt lat="37.5524624" lon="13.9408645"><ele>332.0</ele><time>2026-04-03T14:59:58.32Z</time></trkpt><trkpt lat="37.5524403" lon="13.9410269"><ele>330.0</ele><time>2026-04-03T14:59:59.32Z</time></trkpt><trkpt lat="37.5524358" lon="13.9411949"><ele>328.0</ele><time>2026-04-03T15:00:00.32Z</time></trkpt><trkpt lat="37.552446" lon="13.9413629"><ele>326.0</ele><time>2026-04-03T15:00:01.32Z</time></trkpt><trkpt lat="37.5524647" lon="13.9415275"><ele>326.0</ele><time>2026-04-03T15:00:02.321Z</time></trkpt><trkpt lat="37.5524855" lon="13.9416914"><ele>326.0</ele><time>2026-04-03T15:00:03.32Z</time></trkpt><trkpt lat="37.5525132" lon="13.9418549"><ele>326.0</ele><time>2026-04-03T15:00:04.321Z</time></trkpt><trkpt lat="37.5525526" lon="13.9420174"><ele>326.0</ele><time>2026-04-03T15:00:05.32Z</time></trkpt><trkpt lat="37.5525968" lon="13.9421795"><ele>323.25</ele><time>2026-04-03T15:00:06.32Z</time></trkpt><trkpt lat="37.5526415" lon="13.9423387"><ele>320.5</ele><time>2026-04-03T15:00:07.321Z</time></trkpt><trkpt lat="37.5526869" lon="13.9424986"><ele>317.75</ele><time>2026-04-03T15:00:08.32Z</time></trkpt><trkpt lat="37.5527323" lon="13.9426605"><ele>315.0</ele><time>2026-04-03T15:00:09.32Z</time></trkpt><trkpt lat="37.5527808" lon="13.9428197"><ele>314.75</ele><time>2026-04-03T15:00:10.32Z</time></trkpt><trkpt lat="37.5528411" lon="13.9429708"><ele>314.5</ele><time>2026-04-03T15:00:11.321Z</time></trkpt><trkpt lat="37.5529201" lon="13.9431081"><ele>314.25</ele><time>2026-04-03T15:00:12.32Z</time></trkpt><trkpt lat="37.5530147" lon="13.9432288"><ele>314.0</ele><time>2026-04-03T15:00:13.321Z</time></trkpt><trkpt lat="37.5531239" lon="13.9433278"><ele>310.5</ele><time>2026-04-03T15:00:14.321Z</time></trkpt><trkpt lat="37.5532436" lon="13.9434044"><ele>307.0</ele><time>2026-04-03T15:00:15.32Z</time></trkpt><trkpt lat="37.553367" lon="13.9434586"><ele>303.5</ele><time>2026-04-03T15:00:16.321Z</time></trkpt><trkpt lat="37.5534824" lon="13.9435065"><ele>300.0</ele><time>2026-04-03T15:00:17.32Z</time></trkpt><trkpt lat="37.5535826" lon="13.9435656"><ele>300.0</ele><time>2026-04-03T15:00:18.32Z</time></trkpt><trkpt lat="37.5536667" lon="13.943643"><ele>300.0</ele><time>2026-04-03T15:00:19.321Z</time></trkpt><trkpt lat="37.5537326" lon="13.9437389"><ele>300.0</ele><time>2026-04-03T15:00:20.321Z</time></trkpt><trkpt lat="37.5537713" lon="13.9438577"><ele>300.0</ele><time>2026-04-03T15:00:21.321Z</time></trkpt><trkpt lat="37.5537844" lon="13.9439912"><ele>300.0</ele><time>2026-04-03T15:00:22.32Z</time></trkpt><trkpt lat="37.553772" lon="13.9441252"><ele>300.0</ele><time>2026-04-03T15:00:23.321Z</time></trkpt><trkpt lat="37.5537352" lon="13.9442512"><ele>300.0</ele><time>2026-04-03T15:00:24.321Z</time></trkpt><trkpt lat="37.553669" lon="13.9443646"><ele>300.0</ele><time>2026-04-03T15:00:25.32Z</time></trkpt><trkpt lat="37.5535836" lon="13.9444695"><ele>300.0</ele><time>2026-04-03T15:00:26.32Z</time></trkpt><trkpt lat="37.5534903" lon="13.9445625"><ele>299.75</ele><time>2026-04-03T15:00:27.32Z</time></trkpt><trkpt lat="37.5533912" lon="13.9446505"><ele>299.5</ele><time>2026-04-03T15:00:28.321Z</time></trkpt><trkpt lat="37.5532945" lon="13.9447465"><ele>299.25</ele><time>2026-04-03T15:00:29.321Z</time></trkpt><trkpt lat="37.5531969" lon="13.9448443"><ele>299.0</ele><time>2026-04-03T15:00:30.321Z</time></trkpt><trkpt lat="37.5530963" lon="13.9449413"><ele>299.0</ele><time>2026-04-03T15:00:31.319Z</time></trkpt><trkpt lat="37.5529947" lon="13.9450439"><ele>299.0</ele><time>2026-04-03T15:00:32.319Z</time></trkpt><trkpt lat="37.5528909" lon="13.9451472"><ele>299.0</ele><time>2026-04-03T15:00:33.321Z</time></trkpt><trkpt lat="37.5527806" lon="13.9452391"><ele>299.0</ele><time>2026-04-03T15:00:34.321Z</time></trkpt><trkpt lat="37.552664" lon="13.9453235"><ele>299.25</ele><time>2026-04-03T15:00:35.32Z</time></trkpt><trkpt lat="37.5525443" lon="13.945407"><ele>299.5</ele><time>2026-04-03T15:00:36.32Z</time></trkpt><trkpt lat="37.5524156" lon="13.9454737"><ele>299.75</ele><time>2026-04-03T15:00:37.32Z</time></trkpt><trkpt lat="37.5522817" lon="13.9455269"><ele>300.0</ele><time>2026-04-03T15:00:38.32Z</time></trkpt><trkpt lat="37.5521514" lon="13.9455821"><ele>299.0</ele><time>2026-04-03T15:00:39.319Z</time></trkpt><trkpt lat="37.5520252" lon="13.9456391"><ele>298.0</ele><time>2026-04-03T15:00:40.321Z</time></trkpt><trkpt lat="37.5518987" lon="13.9456901"><ele>297.0</ele><time>2026-04-03T15:00:41.321Z</time></trkpt><trkpt lat="37.55177" lon="13.9457308"><ele>296.0</ele><time>2026-04-03T15:00:42.32Z</time></trkpt><trkpt lat="37.5516401" lon="13.9457697"><ele>296.0</ele><time>2026-04-03T15:00:43.32Z</time></trkpt><trkpt lat="37.5515089" lon="13.9458113"><ele>296.0</ele><time>2026-04-03T15:00:44.321Z</time></trkpt><trkpt lat="37.5513765" lon="13.9458541"><ele>296.0</ele><time>2026-04-03T15:00:45.32Z</time></trkpt><trkpt lat="37.5512449" lon="13.9458996"><ele>296.0</ele><time>2026-04-03T15:00:46.321Z</time></trkpt><trkpt lat="37.5511133" lon="13.9459484"><ele>295.75</ele><time>2026-04-03T15:00:47.32Z</time></trkpt><trkpt lat="37.5509827" lon="13.9459999"><ele>295.5</ele><time>2026-04-03T15:00:48.321Z</time></trkpt><trkpt lat="37.5508543" lon="13.9460506"><ele>295.25</ele><time>2026-04-03T15:00:49.32Z</time></trkpt><trkpt lat="37.550727" lon="13.9460983"><ele>295.0</ele><time>2026-04-03T15:00:50.32Z</time></trkpt><trkpt lat="37.5506025" lon="13.9461439"><ele>295.0</ele><time>2026-04-03T15:00:51.32Z</time></trkpt><trkpt lat="37.5504823" lon="13.9461973"><ele>295.0</ele><time>2026-04-03T15:00:52.32Z</time></trkpt><trkpt lat="37.5503669" lon="13.9462651"><ele>295.0</ele><time>2026-04-03T15:00:53.32Z</time></trkpt><trkpt lat="37.5502554" lon="13.9463403"><ele>295.0</ele><time>2026-04-03T15:00:54.32Z</time></trkpt><trkpt lat="37.550145" lon="13.9464157"><ele>294.5</ele><time>2026-04-03T15:00:55.321Z</time></trkpt><trkpt lat="37.5500385" lon="13.9464982"><ele>294.0</ele><time>2026-04-03T15:00:56.321Z</time></trkpt><trkpt lat="37.5499375" lon="13.9465871"><ele>293.5</ele><time>2026-04-03T15:00:57.32Z</time></trkpt><trkpt lat="37.5498402" lon="13.9466779"><ele>293.0</ele><time>2026-04-03T15:00:58.32Z</time></trkpt><trkpt lat="37.5497442" lon="13.9467668"><ele>293.0</ele><time>2026-04-03T15:00:59.321Z</time></trkpt><trkpt lat="37.5496469" lon="13.9468497"><ele>293.0</ele><time>2026-04-03T15:01:00.321Z</time></trkpt><trkpt lat="37.5495503" lon="13.9469306"><ele>293.0</ele><time>2026-04-03T15:01:01.321Z</time></trkpt><trkpt lat="37.5494573" lon="13.9470133"><ele>293.0</ele><time>2026-04-03T15:01:02.32Z</time></trkpt><trkpt lat="37.5493672" lon="13.9470954"><ele>294.25</ele><time>2026-04-03T15:01:03.32Z</time></trkpt><trkpt lat="37.5492799" lon="13.9471818"><ele>295.5</ele><time>2026-04-03T15:01:04.32Z</time></trkpt><trkpt lat="37.5491967" lon="13.9472765"><ele>296.75</ele><time>2026-04-03T15:01:05.32Z</time></trkpt><trkpt lat="37.5491129" lon="13.947375"><ele>298.0</ele><time>2026-04-03T15:01:06.321Z</time></trkpt><trkpt lat="37.549027" lon="13.9474754"><ele>299.0</ele><time>2026-04-03T15:01:07.32Z</time></trkpt><trkpt lat="37.5489363" lon="13.947572"><ele>300.0</ele><time>2026-04-03T15:01:08.32Z</time></trkpt><trkpt lat="37.5488435" lon="13.9476698"><ele>301.0</ele><time>2026-04-03T15:01:09.321Z</time></trkpt><trkpt lat="37.5487495" lon="13.9477724"><ele>302.0</ele><time>2026-04-03T15:01:10.32Z</time></trkpt><trkpt lat="37.5486533" lon="13.9478776"><ele>302.0</ele><time>2026-04-03T15:01:11.32Z</time></trkpt><trkpt lat="37.5485604" lon="13.9479909"><ele>302.0</ele><time>2026-04-03T15:01:12.32Z</time></trkpt><trkpt lat="37.5484762" lon="13.9481156"><ele>302.0</ele><time>2026-04-03T15:01:13.32Z</time></trkpt><trkpt lat="37.5484012" lon="13.9482499"><ele>302.0</ele><time>2026-04-03T15:01:14.321Z</time></trkpt><trkpt lat="37.5483386" lon="13.9483916"><ele>300.0</ele><time>2026-04-03T15:01:15.32Z</time></trkpt><trkpt lat="37.5482818" lon="13.948539"><ele>298.0</ele><time>2026-04-03T15:01:16.321Z</time></trkpt><trkpt lat="37.5482232" lon="13.9486881"><ele>296.0</ele><time>2026-04-03T15:01:17.32Z</time></trkpt><trkpt lat="37.5481683" lon="13.9488375"><ele>294.0</ele><time>2026-04-03T15:01:18.321Z</time></trkpt><trkpt lat="37.5481181" lon="13.9489839"><ele>294.0</ele><time>2026-04-03T15:01:19.321Z</time></trkpt><trkpt lat="37.5480703" lon="13.9491246"><ele>294.0</ele><time>2026-04-03T15:01:20.32Z</time></trkpt><trkpt lat="37.5480277" lon="13.9492643"><ele>294.0</ele><time>2026-04-03T15:01:21.321Z</time></trkpt><trkpt lat="37.547999" lon="13.949411"><ele>294.0</ele><time>2026-04-03T15:01:22.32Z</time></trkpt><trkpt lat="37.5479909" lon="13.9495682"><ele>292.75</ele><time>2026-04-03T15:01:23.321Z</time></trkpt><trkpt lat="37.5479971" lon="13.949729"><ele>291.5</ele><time>2026-04-03T15:01:24.319Z</time></trkpt><trkpt lat="37.5480183" lon="13.9498867"><ele>290.25</ele><time>2026-04-03T15:01:25.321Z</time></trkpt><trkpt lat="37.5480541" lon="13.950039"><ele>289.0</ele><time>2026-04-03T15:01:26.32Z</time></trkpt><trkpt lat="37.5480928" lon="13.9501881"><ele>288.25</ele><time>2026-04-03T15:01:27.321Z</time></trkpt><trkpt lat="37.5481319" lon="13.9503358"><ele>287.5</ele><time>2026-04-03T15:01:28.32Z</time></trkpt><trkpt lat="37.548172" lon="13.9504838"><ele>286.75</ele><time>2026-04-03T15:01:29.32Z</time></trkpt><trkpt lat="37.548202" lon="13.9506357"><ele>286.0</ele><time>2026-04-03T15:01:30.32Z</time></trkpt><trkpt lat="37.5482131" lon="13.9507937"><ele>286.0</ele><time>2026-04-03T15:01:31.321Z</time></trkpt><trkpt lat="37.5482131" lon="13.9509574"><ele>286.0</ele><time>2026-04-03T15:01:32.321Z</time></trkpt><trkpt lat="37.5482025" lon="13.9511231"><ele>286.0</ele><time>2026-04-03T15:01:33.321Z</time></trkpt><trkpt lat="37.5481831" lon="13.9512889"><ele>286.0</ele><time>2026-04-03T15:01:34.32Z</time></trkpt><trkpt lat="37.5481613" lon="13.9514559"><ele>286.0</ele><time>2026-04-03T15:01:35.321Z</time></trkpt><trkpt lat="37.5481366" lon="13.9516232"><ele>286.0</ele><time>2026-04-03T15:01:36.319Z</time></trkpt><trkpt lat="37.5481099" lon="13.9517927"><ele>286.0</ele><time>2026-04-03T15:01:37.321Z</time></trkpt><trkpt lat="37.5480855" lon="13.951964"><ele>286.0</ele><time>2026-04-03T15:01:38.321Z</time></trkpt><trkpt lat="37.548064" lon="13.9521352"><ele>285.5</ele><time>2026-04-03T15:01:39.32Z</time></trkpt><trkpt lat="37.5480453" lon="13.9523052"><ele>285.0</ele><time>2026-04-03T15:01:40.32Z</time></trkpt><trkpt lat="37.5480322" lon="13.9524724"><ele>284.5</ele><time>2026-04-03T15:01:41.32Z</time></trkpt><trkpt lat="37.5480367" lon="13.9526363"><ele>284.0</ele><time>2026-04-03T15:01:42.321Z</time></trkpt><trkpt lat="37.5480672" lon="13.9527978"><ele>282.75</ele><time>2026-04-03T15:01:43.321Z</time></trkpt><trkpt lat="37.5481197" lon="13.9529531"><ele>281.5</ele><time>2026-04-03T15:01:44.319Z</time></trkpt><trkpt lat="37.5481858" lon="13.9531011"><ele>280.25</ele><time>2026-04-03T15:01:45.32Z</time></trkpt><trkpt lat="37.5482592" lon="13.953243"><ele>279.0</ele><time>2026-04-03T15:01:46.32Z</time></trkpt><trkpt lat="37.5483386" lon="13.9533777"><ele>279.0</ele><time>2026-04-03T15:01:47.321Z</time></trkpt><trkpt lat="37.5484273" lon="13.9535017"><ele>279.0</ele><time>2026-04-03T15:01:48.321Z</time></trkpt><trkpt lat="37.5485171" lon="13.9536226"><ele>279.0</ele><time>2026-04-03T15:01:49.32Z</time></trkpt><trkpt lat="37.548606" lon="13.9537444"><ele>279.0</ele><time>2026-04-03T15:01:50.32Z</time></trkpt><trkpt lat="37.5486962" lon="13.9538659"><ele>279.5</ele><time>2026-04-03T15:01:51.32Z</time></trkpt><trkpt lat="37.5487883" lon="13.9539841"><ele>280.0</ele><time>2026-04-03T15:01:52.321Z</time></trkpt><trkpt lat="37.5488807" lon="13.954099"><ele>280.5</ele><time>2026-04-03T15:01:53.321Z</time></trkpt><trkpt lat="37.5489691" lon="13.9542127"><ele>281.0</ele><time>2026-04-03T15:01:54.32Z</time></trkpt><trkpt lat="37.5490529" lon="13.9543221"><ele>281.0</ele><time>2026-04-03T15:01:55.32Z</time></trkpt><trkpt lat="37.5491258" lon="13.9544361"><ele>281.0</ele><time>2026-04-03T15:01:56.321Z</time></trkpt><trkpt lat="37.549182" lon="13.9545653"><ele>281.0</ele><time>2026-04-03T15:01:57.321Z</time></trkpt><trkpt lat="37.5492218" lon="13.954707"><ele>281.0</ele><time>2026-04-03T15:01:58.321Z</time></trkpt><trkpt lat="37.5492471" lon="13.9548555"><ele>281.0</ele><time>2026-04-03T15:01:59.32Z</time></trkpt><trkpt lat="37.5492606" lon="13.9550046"><ele>281.0</ele><time>2026-04-03T15:02:00.32Z</time></trkpt><trkpt lat="37.5492696" lon="13.9551493"><ele>281.0</ele><time>2026-04-03T15:02:01.32Z</time></trkpt><trkpt lat="37.5492838" lon="13.9552861"><ele>281.0</ele><time>2026-04-03T15:02:02.321Z</time></trkpt><trkpt lat="37.5493105" lon="13.9554135"><ele>281.0</ele><time>2026-04-03T15:02:03.321Z</time></trkpt><trkpt lat="37.5493531" lon="13.9555257"><ele>281.40000000000003</ele><time>2026-04-03T15:02:04.32Z</time></trkpt><trkpt lat="37.549411" lon="13.9556212"><ele>281.8</ele><time>2026-04-03T15:02:05.32Z</time></trkpt><trkpt lat="37.5494837" lon="13.9557039"><ele>282.20000000000005</ele><time>2026-04-03T15:02:06.32Z</time></trkpt><trkpt lat="37.5495645" lon="13.9557791"><ele>282.6</ele><time>2026-04-03T15:02:07.321Z</time></trkpt><trkpt lat="37.5496381" lon="13.9558648"><ele>283.0</ele><time>2026-04-03T15:02:08.321Z</time></trkpt><trkpt lat="37.5496994" lon="13.9559668"><ele>283.6</ele><time>2026-04-03T15:02:09.321Z</time></trkpt><trkpt lat="37.5497477" lon="13.956077"><ele>284.20000000000005</ele><time>2026-04-03T15:02:10.321Z</time></trkpt><trkpt lat="37.5497793" lon="13.9561958"><ele>284.8</ele><time>2026-04-03T15:02:11.32Z</time></trkpt><trkpt lat="37.5497975" lon="13.9563249"><ele>285.40000000000003</ele><time>2026-04-03T15:02:12.321Z</time></trkpt><trkpt lat="37.5498088" lon="13.9564629"><ele>286.0</ele><time>2026-04-03T15:02:13.321Z</time></trkpt><trkpt lat="37.5498075" lon="13.9566056"><ele>285.75</ele><time>2026-04-03T15:02:14.32Z</time></trkpt><trkpt lat="37.5497889" lon="13.9567476"><ele>285.5</ele><time>2026-04-03T15:02:15.321Z</time></trkpt><trkpt lat="37.54975" lon="13.9568881"><ele>285.25</ele><time>2026-04-03T15:02:16.32Z</time></trkpt><trkpt lat="37.5496891" lon="13.9570222"><ele>285.0</ele><time>2026-04-03T15:02:17.32Z</time></trkpt><trkpt lat="37.549615" lon="13.9571485"><ele>285.5</ele><time>2026-04-03T15:02:18.321Z</time></trkpt><trkpt lat="37.549532" lon="13.9572711"><ele>286.0</ele><time>2026-04-03T15:02:19.321Z</time></trkpt><trkpt lat="37.5494429" lon="13.9573969"><ele>286.5</ele><time>2026-04-03T15:02:20.321Z</time></trkpt><trkpt lat="37.5493508" lon="13.9575269"><ele>287.0</ele><time>2026-04-03T15:02:21.321Z</time></trkpt><trkpt lat="37.5492579" lon="13.9576615"><ele>285.75</ele><time>2026-04-03T15:02:22.321Z</time></trkpt><trkpt lat="37.5491642" lon="13.9577988"><ele>284.5</ele><time>2026-04-03T15:02:23.321Z</time></trkpt><trkpt lat="37.5490669" lon="13.9579369"><ele>283.25</ele><time>2026-04-03T15:02:24.32Z</time></trkpt><trkpt lat="37.5489704" lon="13.9580763"><ele>282.0</ele><time>2026-04-03T15:02:25.32Z</time></trkpt><trkpt lat="37.5488767" lon="13.9582161"><ele>282.0</ele><time>2026-04-03T15:02:26.32Z</time></trkpt><trkpt lat="37.5487831" lon="13.9583549"><ele>282.0</ele><time>2026-04-03T15:02:27.321Z</time></trkpt><trkpt lat="37.5486864" lon="13.958493"><ele>282.0</ele><time>2026-04-03T15:02:28.321Z</time></trkpt><trkpt lat="37.5485866" lon="13.9586321"><ele>282.0</ele><time>2026-04-03T15:02:29.321Z</time></trkpt><trkpt lat="37.5484938" lon="13.9587784"><ele>283.0</ele><time>2026-04-03T15:02:30.32Z</time></trkpt><trkpt lat="37.5484116" lon="13.9589366"><ele>284.0</ele><time>2026-04-03T15:02:31.32Z</time></trkpt><trkpt lat="37.5483379" lon="13.9591027"><ele>285.0</ele><time>2026-04-03T15:02:32.32Z</time></trkpt><trkpt lat="37.5482694" lon="13.9592741"><ele>285.0</ele><time>2026-04-03T15:02:33.32Z</time></trkpt><trkpt lat="37.5482042" lon="13.9594486"><ele>285.0</ele><time>2026-04-03T15:02:34.321Z</time></trkpt><trkpt lat="37.5481395" lon="13.9596246"><ele>285.0</ele><time>2026-04-03T15:02:35.321Z</time></trkpt><trkpt lat="37.548074" lon="13.959801"><ele>285.0</ele><time>2026-04-03T15:02:36.32Z</time></trkpt><trkpt lat="37.5480076" lon="13.9599784"><ele>285.0</ele><time>2026-04-03T15:02:37.32Z</time></trkpt><trkpt lat="37.5479418" lon="13.9601563"><ele>285.0</ele><time>2026-04-03T15:02:38.321Z</time></trkpt><trkpt lat="37.5478756" lon="13.9603338"><ele>286.0</ele><time>2026-04-03T15:02:39.321Z</time></trkpt><trkpt lat="37.5478121" lon="13.9605119"><ele>287.0</ele><time>2026-04-03T15:02:40.321Z</time></trkpt><trkpt lat="37.5477481" lon="13.9606894"><ele>288.0</ele><time>2026-04-03T15:02:41.319Z</time></trkpt><trkpt lat="37.5476838" lon="13.9608664"><ele>288.3333333333333</ele><time>2026-04-03T15:02:42.321Z</time></trkpt><trkpt lat="37.54762" lon="13.9610435"><ele>288.66666666666663</ele><time>2026-04-03T15:02:43.32Z</time></trkpt><trkpt lat="37.5475557" lon="13.9612193"><ele>289.0</ele><time>2026-04-03T15:02:44.321Z</time></trkpt><trkpt lat="37.5474898" lon="13.9613943"><ele>289.0</ele><time>2026-04-03T15:02:45.32Z</time></trkpt><trkpt lat="37.5474234" lon="13.9615685"><ele>289.0</ele><time>2026-04-03T15:02:46.321Z</time></trkpt><trkpt lat="37.5473575" lon="13.9617416"><ele>289.0</ele><time>2026-04-03T15:02:47.321Z</time></trkpt><trkpt lat="37.5472941" lon="13.9619143"><ele>289.0</ele><time>2026-04-03T15:02:48.321Z</time></trkpt><trkpt lat="37.5472337" lon="13.9620882"><ele>289.0</ele><time>2026-04-03T15:02:49.321Z</time></trkpt><trkpt lat="37.5471693" lon="13.9622605"><ele>289.0</ele><time>2026-04-03T15:02:50.32Z</time></trkpt><trkpt lat="37.547103" lon="13.9624312"><ele>290.0</ele><time>2026-04-03T15:02:51.32Z</time></trkpt><trkpt lat="37.5470384" lon="13.962602"><ele>291.0</ele><time>2026-04-03T15:02:52.321Z</time></trkpt><trkpt lat="37.5469764" lon="13.9627722"><ele>292.0</ele><time>2026-04-03T15:02:53.321Z</time></trkpt><trkpt lat="37.5469138" lon="13.962943"><ele>293.0</ele><time>2026-04-03T15:02:54.321Z</time></trkpt><trkpt lat="37.5468514" lon="13.9631151"><ele>293.0</ele><time>2026-04-03T15:02:55.321Z</time></trkpt><trkpt lat="37.5467874" lon="13.9632883"><ele>293.0</ele><time>2026-04-03T15:02:56.32Z</time></trkpt><trkpt lat="37.5467225" lon="13.9634619"><ele>293.0</ele><time>2026-04-03T15:02:57.32Z</time></trkpt><trkpt lat="37.5466569" lon="13.963637"><ele>292.6666666666667</ele><time>2026-04-03T15:02:58.32Z</time></trkpt><trkpt lat="37.5465916" lon="13.9638144"><ele>292.3333333333333</ele><time>2026-04-03T15:02:59.32Z</time></trkpt><trkpt lat="37.5465233" lon="13.9639934"><ele>292.0</ele><time>2026-04-03T15:03:00.321Z</time></trkpt><trkpt lat="37.5464557" lon="13.9641746"><ele>291.66666666666663</ele><time>2026-04-03T15:03:01.321Z</time></trkpt><trkpt lat="37.5463886" lon="13.9643573"><ele>291.3333333333333</ele><time>2026-04-03T15:03:02.321Z</time></trkpt><trkpt lat="37.5463193" lon="13.9645393"><ele>291.0</ele><time>2026-04-03T15:03:03.321Z</time></trkpt><trkpt lat="37.5462508" lon="13.9647222"><ele>291.3333333333333</ele><time>2026-04-03T15:03:04.321Z</time></trkpt><trkpt lat="37.5461832" lon="13.9649033"><ele>291.66666666666663</ele><time>2026-04-03T15:03:05.32Z</time></trkpt><trkpt lat="37.5461154" lon="13.9650828"><ele>292.0</ele><time>2026-04-03T15:03:06.32Z</time></trkpt><trkpt lat="37.5460483" lon="13.9652608"><ele>291.0</ele><time>2026-04-03T15:03:07.32Z</time></trkpt><trkpt lat="37.5459804" lon="13.9654377"><ele>290.0</ele><time>2026-04-03T15:03:08.32Z</time></trkpt><trkpt lat="37.5459149" lon="13.9656142"><ele>289.0</ele><time>2026-04-03T15:03:09.32Z</time></trkpt><trkpt lat="37.5458526" lon="13.9657903"><ele>290.0</ele><time>2026-04-03T15:03:10.321Z</time></trkpt><trkpt lat="37.5457903" lon="13.9659658"><ele>291.0</ele><time>2026-04-03T15:03:11.321Z</time></trkpt><trkpt lat="37.5457263" lon="13.9661399"><ele>292.0</ele><time>2026-04-03T15:03:12.32Z</time></trkpt><trkpt lat="37.5456577" lon="13.9663114"><ele>292.0</ele><time>2026-04-03T15:03:13.321Z</time></trkpt><trkpt lat="37.5455798" lon="13.9664748"><ele>292.0</ele><time>2026-04-03T15:03:14.321Z</time></trkpt><trkpt lat="37.5454897" lon="13.9666279"><ele>292.0</ele><time>2026-04-03T15:03:15.321Z</time></trkpt><trkpt lat="37.5453896" lon="13.9667713"><ele>292.3333333333333</ele><time>2026-04-03T15:03:16.321Z</time></trkpt><trkpt lat="37.5452814" lon="13.9669045"><ele>292.6666666666667</ele><time>2026-04-03T15:03:17.321Z</time></trkpt><trkpt lat="37.5451691" lon="13.9670312"><ele>293.0</ele><time>2026-04-03T15:03:18.32Z</time></trkpt><trkpt lat="37.5450551" lon="13.9671537"><ele>293.0</ele><time>2026-04-03T15:03:19.322Z</time></trkpt><trkpt lat="37.5449403" lon="13.9672741"><ele>293.0</ele><time>2026-04-03T15:03:20.321Z</time></trkpt><trkpt lat="37.5448246" lon="13.9673919"><ele>293.0</ele><time>2026-04-03T15:03:21.321Z</time></trkpt><trkpt lat="37.5447062" lon="13.9675077"><ele>293.0</ele><time>2026-04-03T15:03:22.321Z</time></trkpt><trkpt lat="37.5445867" lon="13.9676224"><ele>293.0</ele><time>2026-04-03T15:03:23.321Z</time></trkpt><trkpt lat="37.5444657" lon="13.9677363"><ele>293.0</ele><time>2026-04-03T15:03:24.321Z</time></trkpt><trkpt lat="37.5443427" lon="13.9678468"><ele>293.0</ele><time>2026-04-03T15:03:25.321Z</time></trkpt><trkpt lat="37.5442187" lon="13.9679541"><ele>293.0</ele><time>2026-04-03T15:03:26.322Z</time></trkpt><trkpt lat="37.5440943" lon="13.9680611"><ele>293.0</ele><time>2026-04-03T15:03:27.321Z</time></trkpt><trkpt lat="37.5439701" lon="13.9681674"><ele>293.0</ele><time>2026-04-03T15:03:28.321Z</time></trkpt><trkpt lat="37.5438439" lon="13.9682676"><ele>293.0</ele><time>2026-04-03T15:03:29.322Z</time></trkpt><trkpt lat="37.5437137" lon="13.9683552"><ele>293.0</ele><time>2026-04-03T15:03:30.322Z</time></trkpt><trkpt lat="37.5435802" lon="13.9684295"><ele>293.0</ele><time>2026-04-03T15:03:31.321Z</time></trkpt><trkpt lat="37.5434461" lon="13.968499"><ele>293.0</ele><time>2026-04-03T15:03:32.321Z</time></trkpt><trkpt lat="37.543314" lon="13.9685701"><ele>293.25</ele><time>2026-04-03T15:03:33.321Z</time></trkpt><trkpt lat="37.5431846" lon="13.9686463"><ele>293.5</ele><time>2026-04-03T15:03:34.322Z</time></trkpt><trkpt lat="37.5430593" lon="13.9687297"><ele>293.75</ele><time>2026-04-03T15:03:35.322Z</time></trkpt><trkpt lat="37.5429367" lon="13.9688204"><ele>294.0</ele><time>2026-04-03T15:03:36.322Z</time></trkpt><trkpt lat="37.5428177" lon="13.968921"><ele>294.25</ele><time>2026-04-03T15:03:37.322Z</time></trkpt><trkpt lat="37.5426994" lon="13.9690268"><ele>294.5</ele><time>2026-04-03T15:03:38.322Z</time></trkpt><trkpt lat="37.54258" lon="13.9691351"><ele>294.75</ele><time>2026-04-03T15:03:39.322Z</time></trkpt><trkpt lat="37.5424609" lon="13.9692476"><ele>295.0</ele><time>2026-04-03T15:03:40.321Z</time></trkpt><trkpt lat="37.5423401" lon="13.9693618"><ele>295.0</ele><time>2026-04-03T15:03:41.322Z</time></trkpt><trkpt lat="37.5422186" lon="13.9694765"><ele>295.0</ele><time>2026-04-03T15:03:42.321Z</time></trkpt><trkpt lat="37.542095" lon="13.9695905"><ele>295.0</ele><time>2026-04-03T15:03:43.321Z</time></trkpt><trkpt lat="37.5419722" lon="13.9697052"><ele>295.3333333333333</ele><time>2026-04-03T15:03:44.321Z</time></trkpt><trkpt lat="37.5418493" lon="13.9698197"><ele>295.6666666666667</ele><time>2026-04-03T15:03:45.321Z</time></trkpt><trkpt lat="37.5417262" lon="13.9699329"><ele>296.0</ele><time>2026-04-03T15:03:46.322Z</time></trkpt><trkpt lat="37.5416035" lon="13.9700458"><ele>296.0</ele><time>2026-04-03T15:03:47.322Z</time></trkpt><trkpt lat="37.5414819" lon="13.9701595"><ele>296.0</ele><time>2026-04-03T15:03:48.322Z</time></trkpt><trkpt lat="37.5413601" lon="13.9702728"><ele>296.0</ele><time>2026-04-03T15:03:49.321Z</time></trkpt><trkpt lat="37.5412372" lon="13.9703849"><ele>297.6666666666667</ele><time>2026-04-03T15:03:50.321Z</time></trkpt><trkpt lat="37.541114" lon="13.970495"><ele>299.3333333333333</ele><time>2026-04-03T15:03:51.321Z</time></trkpt><trkpt lat="37.5409905" lon="13.9706037"><ele>301.0</ele><time>2026-04-03T15:03:52.322Z</time></trkpt><trkpt lat="37.5408673" lon="13.9707122"><ele>301.0</ele><time>2026-04-03T15:03:53.322Z</time></trkpt><trkpt lat="37.540747" lon="13.9708242"><ele>301.0</ele><time>2026-04-03T15:03:54.321Z</time></trkpt><trkpt lat="37.5406271" lon="13.9709393"><ele>301.0</ele><time>2026-04-03T15:03:55.321Z</time></trkpt><trkpt lat="37.5405066" lon="13.9710492"><ele>301.0</ele><time>2026-04-03T15:03:56.321Z</time></trkpt><trkpt lat="37.5403854" lon="13.9711583"><ele>301.25</ele><time>2026-04-03T15:03:57.321Z</time></trkpt><trkpt lat="37.5402639" lon="13.971267"><ele>301.5</ele><time>2026-04-03T15:03:58.322Z</time></trkpt><trkpt lat="37.5401426" lon="13.9713757"><ele>301.75</ele><time>2026-04-03T15:03:59.322Z</time></trkpt><trkpt lat="37.540022" lon="13.9714847"><ele>302.0</ele><time>2026-04-03T15:04:00.322Z</time></trkpt><trkpt lat="37.5399029" lon="13.9715961"><ele>302.0</ele><time>2026-04-03T15:04:01.322Z</time></trkpt><trkpt lat="37.5397847" lon="13.9717097"><ele>302.0</ele><time>2026-04-03T15:04:02.321Z</time></trkpt><trkpt lat="37.5396651" lon="13.9718196"><ele>302.0</ele><time>2026-04-03T15:04:03.321Z</time></trkpt><trkpt lat="37.5395444" lon="13.97193"><ele>302.0</ele><time>2026-04-03T15:04:04.321Z</time></trkpt><trkpt lat="37.5394246" lon="13.9720423"><ele>302.0</ele><time>2026-04-03T15:04:05.322Z</time></trkpt><trkpt lat="37.5393044" lon="13.972152"><ele>302.0</ele><time>2026-04-03T15:04:06.321Z</time></trkpt><trkpt lat="37.5391832" lon="13.9722594"><ele>302.0</ele><time>2026-04-03T15:04:07.322Z</time></trkpt><trkpt lat="37.5390627" lon="13.9723687"><ele>302.0</ele><time>2026-04-03T15:04:08.322Z</time></trkpt><trkpt lat="37.5389434" lon="13.9724814"><ele>302.0</ele><time>2026-04-03T15:04:09.322Z</time></trkpt><trkpt lat="37.538823" lon="13.9725938"><ele>302.0</ele><time>2026-04-03T15:04:10.322Z</time></trkpt><trkpt lat="37.538704" lon="13.9727069"><ele>302.0</ele><time>2026-04-03T15:04:11.322Z</time></trkpt><trkpt lat="37.5385856" lon="13.9728186"><ele>302.0</ele><time>2026-04-03T15:04:12.322Z</time></trkpt><trkpt lat="37.5384657" lon="13.972928"><ele>302.0</ele><time>2026-04-03T15:04:13.322Z</time></trkpt><trkpt lat="37.5383463" lon="13.9730366"><ele>302.0</ele><time>2026-04-03T15:04:14.322Z</time></trkpt><trkpt lat="37.538227" lon="13.9731457"><ele>302.0</ele><time>2026-04-03T15:04:15.322Z</time></trkpt><trkpt lat="37.5381103" lon="13.9732513"><ele>302.0</ele><time>2026-04-03T15:04:16.322Z</time></trkpt><trkpt lat="37.5379976" lon="13.9733509"><ele>301.5</ele><time>2026-04-03T15:04:17.322Z</time></trkpt><trkpt lat="37.5378884" lon="13.9734511"><ele>301.0</ele><time>2026-04-03T15:04:18.322Z</time></trkpt><trkpt lat="37.5377833" lon="13.9735592"><ele>300.5</ele><time>2026-04-03T15:04:19.321Z</time></trkpt><trkpt lat="37.5376878" lon="13.9736816"><ele>300.0</ele><time>2026-04-03T15:04:20.322Z</time></trkpt><trkpt lat="37.5376019" lon="13.9738148"><ele>300.75</ele><time>2026-04-03T15:04:21.321Z</time></trkpt><trkpt lat="37.5375228" lon="13.9739571"><ele>301.5</ele><time>2026-04-03T15:04:22.321Z</time></trkpt><trkpt lat="37.5374465" lon="13.9741066"><ele>302.25</ele><time>2026-04-03T15:04:23.321Z</time></trkpt><trkpt lat="37.5373667" lon="13.974255"><ele>303.0</ele><time>2026-04-03T15:04:24.322Z</time></trkpt><trkpt lat="37.5372842" lon="13.9744033"><ele>303.0</ele><time>2026-04-03T15:04:25.322Z</time></trkpt><trkpt lat="37.5372032" lon="13.974554"><ele>303.0</ele><time>2026-04-03T15:04:26.322Z</time></trkpt><trkpt lat="37.5371207" lon="13.9747047"><ele>303.0</ele><time>2026-04-03T15:04:27.322Z</time></trkpt><trkpt lat="37.5370375" lon="13.9748522"><ele>303.0</ele><time>2026-04-03T15:04:28.321Z</time></trkpt><trkpt lat="37.5369616" lon="13.9750036"><ele>304.25</ele><time>2026-04-03T15:04:29.321Z</time></trkpt><trkpt lat="37.5368963" lon="13.9751635"><ele>305.5</ele><time>2026-04-03T15:04:30.321Z</time></trkpt><trkpt lat="37.5368439" lon="13.9753317"><ele>306.75</ele><time>2026-04-03T15:04:31.322Z</time></trkpt><trkpt lat="37.5368052" lon="13.9755045"><ele>308.0</ele><time>2026-04-03T15:04:32.322Z</time></trkpt><trkpt lat="37.5367785" lon="13.97568"><ele>307.75</ele><time>2026-04-03T15:04:33.322Z</time></trkpt><trkpt lat="37.5367632" lon="13.9758566"><ele>307.5</ele><time>2026-04-03T15:04:34.32Z</time></trkpt><trkpt lat="37.5367537" lon="13.9760335"><ele>307.25</ele><time>2026-04-03T15:04:35.32Z</time></trkpt><trkpt lat="37.5367437" lon="13.9762103"><ele>307.0</ele><time>2026-04-03T15:04:36.321Z</time></trkpt><trkpt lat="37.5367342" lon="13.976387"><ele>307.0</ele><time>2026-04-03T15:04:37.32Z</time></trkpt><trkpt lat="37.5367245" lon="13.9765647"><ele>307.0</ele><time>2026-04-03T15:04:38.321Z</time></trkpt><trkpt lat="37.5367159" lon="13.9767432"><ele>307.0</ele><time>2026-04-03T15:04:39.32Z</time></trkpt><trkpt lat="37.5367055" lon="13.9769222"><ele>307.0</ele><time>2026-04-03T15:04:40.321Z</time></trkpt><trkpt lat="37.5366902" lon="13.9771015"><ele>306.75</ele><time>2026-04-03T15:04:41.321Z</time></trkpt><trkpt lat="37.5366708" lon="13.9772816"><ele>306.5</ele><time>2026-04-03T15:04:42.32Z</time></trkpt><trkpt lat="37.5366508" lon="13.9774624"><ele>306.25</ele><time>2026-04-03T15:04:43.322Z</time></trkpt><trkpt lat="37.5366272" lon="13.9776435"><ele>306.0</ele><time>2026-04-03T15:04:44.322Z</time></trkpt><trkpt lat="37.5365982" lon="13.9778245"><ele>305.5</ele><time>2026-04-03T15:04:45.322Z</time></trkpt><trkpt lat="37.5365672" lon="13.9780062"><ele>305.0</ele><time>2026-04-03T15:04:46.322Z</time></trkpt><trkpt lat="37.5365389" lon="13.9781888"><ele>304.5</ele><time>2026-04-03T15:04:47.322Z</time></trkpt><trkpt lat="37.5365069" lon="13.9783715"><ele>304.0</ele><time>2026-04-03T15:04:48.322Z</time></trkpt><trkpt lat="37.5364676" lon="13.9785518"><ele>304.0</ele><time>2026-04-03T15:04:49.321Z</time></trkpt><trkpt lat="37.5364358" lon="13.9787352"><ele>304.0</ele><time>2026-04-03T15:04:50.321Z</time></trkpt><trkpt lat="37.53641" lon="13.9789195"><ele>304.0</ele><time>2026-04-03T15:04:51.321Z</time></trkpt><trkpt lat="37.5363818" lon="13.9791019"><ele>304.0</ele><time>2026-04-03T15:04:52.322Z</time></trkpt><trkpt lat="37.5363531" lon="13.9792819"><ele>304.0</ele><time>2026-04-03T15:04:53.322Z</time></trkpt><trkpt lat="37.536325" lon="13.9794608"><ele>304.0</ele><time>2026-04-03T15:04:54.322Z</time></trkpt><trkpt lat="37.5362967" lon="13.9796386"><ele>304.0</ele><time>2026-04-03T15:04:55.32Z</time></trkpt><trkpt lat="37.5362685" lon="13.979815"><ele>304.0</ele><time>2026-04-03T15:04:56.321Z</time></trkpt><trkpt lat="37.5362392" lon="13.9799896"><ele>306.25</ele><time>2026-04-03T15:04:57.321Z</time></trkpt><trkpt lat="37.5362119" lon="13.9801632"><ele>308.5</ele><time>2026-04-03T15:04:58.322Z</time></trkpt><trkpt lat="37.536186" lon="13.9803367"><ele>310.75</ele><time>2026-04-03T15:04:59.321Z</time></trkpt><trkpt lat="37.5361593" lon="13.9805115"><ele>313.0</ele><time>2026-04-03T15:05:00.322Z</time></trkpt><trkpt lat="37.5361299" lon="13.9806883"><ele>312.25</ele><time>2026-04-03T15:05:01.322Z</time></trkpt><trkpt lat="37.5361002" lon="13.980868"><ele>311.5</ele><time>2026-04-03T15:05:02.322Z</time></trkpt><trkpt lat="37.5360729" lon="13.9810503"><ele>310.75</ele><time>2026-04-03T15:05:03.322Z</time></trkpt><trkpt lat="37.5360449" lon="13.9812345"><ele>310.0</ele><time>2026-04-03T15:05:04.322Z</time></trkpt><trkpt lat="37.5360168" lon="13.9814199"><ele>310.0</ele><time>2026-04-03T15:05:05.322Z</time></trkpt><trkpt lat="37.5359883" lon="13.9816058"><ele>310.0</ele><time>2026-04-03T15:05:06.321Z</time></trkpt><trkpt lat="37.5359562" lon="13.9817899"><ele>310.0</ele><time>2026-04-03T15:05:07.321Z</time></trkpt><trkpt lat="37.5359198" lon="13.9819743"><ele>309.3333333333333</ele><time>2026-04-03T15:05:08.32Z</time></trkpt><trkpt lat="37.5358791" lon="13.9821575"><ele>308.6666666666667</ele><time>2026-04-03T15:05:09.321Z</time></trkpt><trkpt lat="37.5358353" lon="13.9823401"><ele>308.0</ele><time>2026-04-03T15:05:10.321Z</time></trkpt><trkpt lat="37.5357898" lon="13.9825211"><ele>308.0</ele><time>2026-04-03T15:05:11.321Z</time></trkpt><trkpt lat="37.5357434" lon="13.9827013"><ele>308.0</ele><time>2026-04-03T15:05:12.321Z</time></trkpt><trkpt lat="37.5356968" lon="13.982883"><ele>308.0</ele><time>2026-04-03T15:05:13.321Z</time></trkpt><trkpt lat="37.5356525" lon="13.9830641"><ele>308.0</ele><time>2026-04-03T15:05:14.322Z</time></trkpt><trkpt lat="37.5356085" lon="13.9832433"><ele>308.0</ele><time>2026-04-03T15:05:15.322Z</time></trkpt><trkpt lat="37.5355645" lon="13.9834224"><ele>308.0</ele><time>2026-04-03T15:05:16.322Z</time></trkpt><trkpt lat="37.5355203" lon="13.983602"><ele>308.0</ele><time>2026-04-03T15:05:17.322Z</time></trkpt><trkpt lat="37.5354755" lon="13.9837796"><ele>308.25</ele><time>2026-04-03T15:05:18.32Z</time></trkpt><trkpt lat="37.5354286" lon="13.9839577"><ele>308.5</ele><time>2026-04-03T15:05:19.322Z</time></trkpt><trkpt lat="37.5353814" lon="13.9841377"><ele>308.75</ele><time>2026-04-03T15:05:20.322Z</time></trkpt><trkpt lat="37.535334" lon="13.9843175"><ele>309.0</ele><time>2026-04-03T15:05:21.321Z</time></trkpt><trkpt lat="37.5352865" lon="13.9844954"><ele>309.25</ele><time>2026-04-03T15:05:22.322Z</time></trkpt><trkpt lat="37.5352387" lon="13.9846734"><ele>309.5</ele><time>2026-04-03T15:05:23.321Z</time></trkpt><trkpt lat="37.5351946" lon="13.9848522"><ele>309.75</ele><time>2026-04-03T15:05:24.321Z</time></trkpt><trkpt lat="37.5351479" lon="13.9850314"><ele>310.0</ele><time>2026-04-03T15:05:25.322Z</time></trkpt><trkpt lat="37.5351008" lon="13.9852081"><ele>310.0</ele><time>2026-04-03T15:05:26.321Z</time></trkpt><trkpt lat="37.5350589" lon="13.9853861"><ele>310.0</ele><time>2026-04-03T15:05:27.32Z</time></trkpt><trkpt lat="37.5350139" lon="13.9855621"><ele>310.0</ele><time>2026-04-03T15:05:28.321Z</time></trkpt><trkpt lat="37.5349676" lon="13.9857382"><ele>310.0</ele><time>2026-04-03T15:05:29.321Z</time></trkpt><trkpt lat="37.5349218" lon="13.9859132"><ele>310.25</ele><time>2026-04-03T15:05:30.321Z</time></trkpt><trkpt lat="37.5348802" lon="13.9860903"><ele>310.5</ele><time>2026-04-03T15:05:31.321Z</time></trkpt><trkpt lat="37.534846" lon="13.9862693"><ele>310.75</ele><time>2026-04-03T15:05:32.322Z</time></trkpt><trkpt lat="37.5348217" lon="13.9864512"><ele>311.0</ele><time>2026-04-03T15:05:33.322Z</time></trkpt><trkpt lat="37.5348066" lon="13.9866351"><ele>311.0</ele><time>2026-04-03T15:05:34.322Z</time></trkpt><trkpt lat="37.5347978" lon="13.9868185"><ele>311.0</ele><time>2026-04-03T15:05:35.322Z</time></trkpt><trkpt lat="37.5347943" lon="13.9870024"><ele>311.0</ele><time>2026-04-03T15:05:36.322Z</time></trkpt><trkpt lat="37.5347921" lon="13.9871854"><ele>311.0</ele><time>2026-04-03T15:05:37.322Z</time></trkpt><trkpt lat="37.5347929" lon="13.9873689"><ele>311.5</ele><time>2026-04-03T15:05:38.322Z</time></trkpt><trkpt lat="37.5347984" lon="13.9875527"><ele>312.0</ele><time>2026-04-03T15:05:39.322Z</time></trkpt><trkpt lat="37.5348038" lon="13.9877358"><ele>312.5</ele><time>2026-04-03T15:05:40.321Z</time></trkpt><trkpt lat="37.5348089" lon="13.9879193"><ele>313.0</ele><time>2026-04-03T15:05:41.322Z</time></trkpt><trkpt lat="37.5348128" lon="13.9881042"><ele>313.0</ele><time>2026-04-03T15:05:42.322Z</time></trkpt><trkpt lat="37.5348156" lon="13.9882905"><ele>313.0</ele><time>2026-04-03T15:05:43.321Z</time></trkpt><trkpt lat="37.5348185" lon="13.98848"><ele>313.0</ele><time>2026-04-03T15:05:44.322Z</time></trkpt><trkpt lat="37.5348238" lon="13.9886723"><ele>313.3333333333333</ele><time>2026-04-03T15:05:45.322Z</time></trkpt><trkpt lat="37.5348298" lon="13.9888684"><ele>313.6666666666667</ele><time>2026-04-03T15:05:46.322Z</time></trkpt><trkpt lat="37.5348375" lon="13.9890652"><ele>314.0</ele><time>2026-04-03T15:05:47.321Z</time></trkpt><trkpt lat="37.5348541" lon="13.9892603"><ele>314.6666666666667</ele><time>2026-04-03T15:05:48.322Z</time></trkpt><trkpt lat="37.5348783" lon="13.9894537"><ele>315.3333333333333</ele><time>2026-04-03T15:05:49.322Z</time></trkpt><trkpt lat="37.5349083" lon="13.9896455"><ele>316.0</ele><time>2026-04-03T15:05:50.322Z</time></trkpt><trkpt lat="37.534936" lon="13.9898376"><ele>315.66666666666663</ele><time>2026-04-03T15:05:51.322Z</time></trkpt><trkpt lat="37.5349535" lon="13.9900302"><ele>315.3333333333333</ele><time>2026-04-03T15:05:52.321Z</time></trkpt><trkpt lat="37.5349578" lon="13.9902233"><ele>315.0</ele><time>2026-04-03T15:05:53.322Z</time></trkpt><trkpt lat="37.5349489" lon="13.9904126"><ele>315.0</ele><time>2026-04-03T15:05:54.322Z</time></trkpt><trkpt lat="37.5349194" lon="13.9905871"><ele>315.0</ele><time>2026-04-03T15:05:55.322Z</time></trkpt><trkpt lat="37.5348831" lon="13.9907575"><ele>315.0</ele><time>2026-04-03T15:05:56.322Z</time></trkpt><trkpt lat="37.5348349" lon="13.9909251"><ele>315.0</ele><time>2026-04-03T15:05:57.322Z</time></trkpt><trkpt lat="37.5347765" lon="13.9910894"><ele>315.0</ele><time>2026-04-03T15:05:58.322Z</time></trkpt><trkpt lat="37.53471" lon="13.9912521"><ele>315.0</ele><time>2026-04-03T15:05:59.322Z</time></trkpt><trkpt lat="37.5346393" lon="13.9914159"><ele>315.0</ele><time>2026-04-03T15:06:00.321Z</time></trkpt><trkpt lat="37.5345644" lon="13.9915783"><ele>315.0</ele><time>2026-04-03T15:06:01.321Z</time></trkpt><trkpt lat="37.534483" lon="13.9917363"><ele>315.0</ele><time>2026-04-03T15:06:02.322Z</time></trkpt><trkpt lat="37.5343923" lon="13.9918854"><ele>315.0</ele><time>2026-04-03T15:06:03.322Z</time></trkpt><trkpt lat="37.5342922" lon="13.9920213"><ele>315.0</ele><time>2026-04-03T15:06:04.322Z</time></trkpt><trkpt lat="37.5341932" lon="13.9921552"><ele>315.0</ele><time>2026-04-03T15:06:05.321Z</time></trkpt><trkpt lat="37.5340961" lon="13.9922909"><ele>315.0</ele><time>2026-04-03T15:06:06.322Z</time></trkpt><trkpt lat="37.533996" lon="13.9924245"><ele>315.0</ele><time>2026-04-03T15:06:07.322Z</time></trkpt><trkpt lat="37.5338952" lon="13.9925592"><ele>315.0</ele><time>2026-04-03T15:06:08.321Z</time></trkpt><trkpt lat="37.5337944" lon="13.9926907"><ele>315.0</ele><time>2026-04-03T15:06:09.321Z</time></trkpt><trkpt lat="37.5336964" lon="13.9928233"><ele>316.0</ele><time>2026-04-03T15:06:10.321Z</time></trkpt><trkpt lat="37.5335999" lon="13.9929537"><ele>317.0</ele><time>2026-04-03T15:06:11.322Z</time></trkpt><trkpt lat="37.5335012" lon="13.993082"><ele>318.0</ele><time>2026-04-03T15:06:12.321Z</time></trkpt><trkpt lat="37.5334041" lon="13.9932122"><ele>319.0</ele><time>2026-04-03T15:06:13.322Z</time></trkpt><trkpt lat="37.5333081" lon="13.9933412"><ele>321.25</ele><time>2026-04-03T15:06:14.322Z</time></trkpt><trkpt lat="37.5332148" lon="13.9934707"><ele>323.5</ele><time>2026-04-03T15:06:15.322Z</time></trkpt><trkpt lat="37.5331207" lon="13.993594"><ele>325.75</ele><time>2026-04-03T15:06:16.322Z</time></trkpt><trkpt lat="37.5330231" lon="13.9936945"><ele>328.0</ele><time>2026-04-03T15:06:17.322Z</time></trkpt><trkpt lat="37.5329153" lon="13.993768"><ele>326.75</ele><time>2026-04-03T15:06:18.322Z</time></trkpt><trkpt lat="37.5328005" lon="13.9938227"><ele>325.5</ele><time>2026-04-03T15:06:19.322Z</time></trkpt><trkpt lat="37.5326732" lon="13.993848"><ele>324.25</ele><time>2026-04-03T15:06:20.322Z</time></trkpt><trkpt lat="37.5325419" lon="13.9938631"><ele>323.0</ele><time>2026-04-03T15:06:21.322Z</time></trkpt><trkpt lat="37.5324074" lon="13.9938669"><ele>323.0</ele><time>2026-04-03T15:06:22.321Z</time></trkpt><trkpt lat="37.5322703" lon="13.9938679"><ele>323.0</ele><time>2026-04-03T15:06:23.322Z</time></trkpt><trkpt lat="37.5321315" lon="13.9938651"><ele>323.0</ele><time>2026-04-03T15:06:24.32Z</time></trkpt><trkpt lat="37.53199" lon="13.9938617"><ele>323.0</ele><time>2026-04-03T15:06:25.321Z</time></trkpt><trkpt lat="37.531846" lon="13.9938622"><ele>324.25</ele><time>2026-04-03T15:06:26.321Z</time></trkpt><trkpt lat="37.5317001" lon="13.9938656"><ele>325.5</ele><time>2026-04-03T15:06:27.322Z</time></trkpt><trkpt lat="37.5315524" lon="13.9938695"><ele>326.75</ele><time>2026-04-03T15:06:28.321Z</time></trkpt><trkpt lat="37.5314033" lon="13.9938703"><ele>328.0</ele><time>2026-04-03T15:06:29.321Z</time></trkpt><trkpt lat="37.5312557" lon="13.9938639"><ele>330.75</ele><time>2026-04-03T15:06:30.321Z</time></trkpt><trkpt lat="37.5311105" lon="13.9938338"><ele>333.5</ele><time>2026-04-03T15:06:31.321Z</time></trkpt><trkpt lat="37.5309681" lon="13.9937858"><ele>336.25</ele><time>2026-04-03T15:06:32.322Z</time></trkpt><trkpt lat="37.5308266" lon="13.993734"><ele>339.0</ele><time>2026-04-03T15:06:33.322Z</time></trkpt><trkpt lat="37.5306872" lon="13.9936782"><ele>339.0</ele><time>2026-04-03T15:06:34.322Z</time></trkpt><trkpt lat="37.5305476" lon="13.9936201"><ele>339.0</ele><time>2026-04-03T15:06:35.322Z</time></trkpt><trkpt lat="37.5304096" lon="13.9935592"><ele>339.0</ele><time>2026-04-03T15:06:36.322Z</time></trkpt><trkpt lat="37.5302721" lon="13.9934958"><ele>339.0</ele><time>2026-04-03T15:06:37.322Z</time></trkpt><trkpt lat="37.5301332" lon="13.9934345"><ele>340.5</ele><time>2026-04-03T15:06:38.321Z</time></trkpt><trkpt lat="37.5299971" lon="13.9933718"><ele>342.0</ele><time>2026-04-03T15:06:39.321Z</time></trkpt><trkpt lat="37.5298685" lon="13.9933152"><ele>343.5</ele><time>2026-04-03T15:06:40.322Z</time></trkpt><trkpt lat="37.5297419" lon="13.9932724"><ele>345.0</ele><time>2026-04-03T15:06:41.322Z</time></trkpt><trkpt lat="37.5296102" lon="13.9932552"><ele>345.25</ele><time>2026-04-03T15:06:42.322Z</time></trkpt><trkpt lat="37.5294795" lon="13.9932682"><ele>345.5</ele><time>2026-04-03T15:06:43.321Z</time></trkpt><trkpt lat="37.5293525" lon="13.9933053"><ele>345.75</ele><time>2026-04-03T15:06:44.322Z</time></trkpt><trkpt lat="37.5292274" lon="13.993353"><ele>346.0</ele><time>2026-04-03T15:06:45.322Z</time></trkpt><trkpt lat="37.5291016" lon="13.9933995"><ele>346.0</ele><time>2026-04-03T15:06:46.321Z</time></trkpt><trkpt lat="37.5289756" lon="13.9934473"><ele>346.0</ele><time>2026-04-03T15:06:47.322Z</time></trkpt><trkpt lat="37.5288476" lon="13.9934948"><ele>346.0</ele><time>2026-04-03T15:06:48.322Z</time></trkpt><trkpt lat="37.5287178" lon="13.9935408"><ele>346.0</ele><time>2026-04-03T15:06:49.322Z</time></trkpt><trkpt lat="37.528587" lon="13.9935869"><ele>344.5</ele><time>2026-04-03T15:06:50.322Z</time></trkpt><trkpt lat="37.5284544" lon="13.9936349"><ele>343.0</ele><time>2026-04-03T15:06:51.322Z</time></trkpt><trkpt lat="37.5283223" lon="13.9936898"><ele>341.5</ele><time>2026-04-03T15:06:52.321Z</time></trkpt><trkpt lat="37.5281916" lon="13.9937571"><ele>340.0</ele><time>2026-04-03T15:06:53.321Z</time></trkpt><trkpt lat="37.5280629" lon="13.9938387"><ele>340.0</ele><time>2026-04-03T15:06:54.321Z</time></trkpt><trkpt lat="37.5279316" lon="13.9939191"><ele>340.0</ele><time>2026-04-03T15:06:55.322Z</time></trkpt><trkpt lat="37.5278027" lon="13.9940094"><ele>340.0</ele><time>2026-04-03T15:06:56.322Z</time></trkpt><trkpt lat="37.5276809" lon="13.994116"><ele>340.0</ele><time>2026-04-03T15:06:57.322Z</time></trkpt><trkpt lat="37.5275619" lon="13.9942315"><ele>339.3333333333333</ele><time>2026-04-03T15:06:58.322Z</time></trkpt><trkpt lat="37.5274475" lon="13.9943542"><ele>338.6666666666667</ele><time>2026-04-03T15:06:59.32Z</time></trkpt><trkpt lat="37.5273344" lon="13.9944823"><ele>338.0</ele><time>2026-04-03T15:07:00.321Z</time></trkpt><trkpt lat="37.5272224" lon="13.9946125"><ele>338.0</ele><time>2026-04-03T15:07:01.322Z</time></trkpt><trkpt lat="37.527117" lon="13.9947466"><ele>338.0</ele><time>2026-04-03T15:07:02.322Z</time></trkpt><trkpt lat="37.5270131" lon="13.9948788"><ele>338.0</ele><time>2026-04-03T15:07:03.322Z</time></trkpt><trkpt lat="37.5269091" lon="13.9950026"><ele>338.0</ele><time>2026-04-03T15:07:04.321Z</time></trkpt><trkpt lat="37.5268113" lon="13.9951212"><ele>337.5</ele><time>2026-04-03T15:07:05.321Z</time></trkpt><trkpt lat="37.5267285" lon="13.9952459"><ele>337.0</ele><time>2026-04-03T15:07:06.321Z</time></trkpt><trkpt lat="37.5266692" lon="13.9953788"><ele>336.5</ele><time>2026-04-03T15:07:07.321Z</time></trkpt><trkpt lat="37.526636" lon="13.9955221"><ele>336.0</ele><time>2026-04-03T15:07:08.321Z</time></trkpt><trkpt lat="37.5266294" lon="13.99567"><ele>336.0</ele><time>2026-04-03T15:07:09.322Z</time></trkpt><trkpt lat="37.5266431" lon="13.995816"><ele>336.0</ele><time>2026-04-03T15:07:10.322Z</time></trkpt><trkpt lat="37.5266748" lon="13.9959591"><ele>336.0</ele><time>2026-04-03T15:07:11.321Z</time></trkpt><trkpt lat="37.5266957" lon="13.9961035"><ele>336.0</ele><time>2026-04-03T15:07:12.322Z</time></trkpt><trkpt lat="37.5267168" lon="13.9962489"><ele>336.5</ele><time>2026-04-03T15:07:13.322Z</time></trkpt><trkpt lat="37.5267411" lon="13.9963927"><ele>337.0</ele><time>2026-04-03T15:07:14.322Z</time></trkpt><trkpt lat="37.5267648" lon="13.9965365"><ele>337.5</ele><time>2026-04-03T15:07:15.322Z</time></trkpt><trkpt lat="37.5267849" lon="13.9966796"><ele>338.0</ele><time>2026-04-03T15:07:16.322Z</time></trkpt><trkpt lat="37.5268037" lon="13.9968239"><ele>338.5</ele><time>2026-04-03T15:07:17.322Z</time></trkpt><trkpt lat="37.5268212" lon="13.9969682"><ele>339.0</ele><time>2026-04-03T15:07:18.322Z</time></trkpt><trkpt lat="37.5268295" lon="13.9971133"><ele>339.5</ele><time>2026-04-03T15:07:19.321Z</time></trkpt><trkpt lat="37.5268309" lon="13.9972614"><ele>340.0</ele><time>2026-04-03T15:07:20.321Z</time></trkpt><trkpt lat="37.5268285" lon="13.9974113"><ele>341.5</ele><time>2026-04-03T15:07:21.321Z</time></trkpt><trkpt lat="37.5268164" lon="13.9975636"><ele>343.0</ele><time>2026-04-03T15:07:22.321Z</time></trkpt><trkpt lat="37.5267975" lon="13.9977175"><ele>344.5</ele><time>2026-04-03T15:07:23.321Z</time></trkpt><trkpt lat="37.526778" lon="13.997873"><ele>346.0</ele><time>2026-04-03T15:07:24.321Z</time></trkpt><trkpt lat="37.5267551" lon="13.9980292"><ele>346.0</ele><time>2026-04-03T15:07:25.322Z</time></trkpt><trkpt lat="37.526743" lon="13.9981894"><ele>346.0</ele><time>2026-04-03T15:07:26.322Z</time></trkpt><trkpt lat="37.5267457" lon="13.9983514"><ele>346.0</ele><time>2026-04-03T15:07:27.321Z</time></trkpt><trkpt lat="37.5267544" lon="13.9985126"><ele>346.0</ele><time>2026-04-03T15:07:28.321Z</time></trkpt><trkpt lat="37.526767" lon="13.9986753"><ele>346.25</ele><time>2026-04-03T15:07:29.321Z</time></trkpt><trkpt lat="37.5267834" lon="13.9988393"><ele>346.5</ele><time>2026-04-03T15:07:30.321Z</time></trkpt><trkpt lat="37.5267993" lon="13.9990046"><ele>346.75</ele><time>2026-04-03T15:07:31.321Z</time></trkpt><trkpt lat="37.526809" lon="13.9991689"><ele>347.0</ele><time>2026-04-03T15:07:32.322Z</time></trkpt><trkpt lat="37.5268156" lon="13.9993331"><ele>347.0</ele><time>2026-04-03T15:07:33.322Z</time></trkpt><trkpt lat="37.526813" lon="13.999497"><ele>347.0</ele><time>2026-04-03T15:07:34.321Z</time></trkpt><trkpt lat="37.5268061" lon="13.9996619"><ele>347.0</ele><time>2026-04-03T15:07:35.322Z</time></trkpt><trkpt lat="37.5267972" lon="13.9998269"><ele>347.0</ele><time>2026-04-03T15:07:36.321Z</time></trkpt><trkpt lat="37.5267882" lon="13.9999939"><ele>347.0</ele><time>2026-04-03T15:07:37.322Z</time></trkpt><trkpt lat="37.526782" lon="14.0001519"><ele>347.0</ele><time>2026-04-03T15:07:38.32Z</time></trkpt><trkpt lat="37.5267735" lon="14.0003039"><ele>347.0</ele><time>2026-04-03T15:07:39.322Z</time></trkpt><trkpt lat="37.5267652" lon="14.0004543"><ele>347.0</ele><time>2026-04-03T15:07:40.322Z</time></trkpt><trkpt lat="37.5267677" lon="14.0006062"><ele>347.0</ele><time>2026-04-03T15:07:41.321Z</time></trkpt><trkpt lat="37.5267894" lon="14.0007563"><ele>347.0</ele><time>2026-04-03T15:07:42.321Z</time></trkpt><trkpt lat="37.5268207" lon="14.0009053"><ele>347.0</ele><time>2026-04-03T15:07:43.321Z</time></trkpt><trkpt lat="37.5268619" lon="14.0010533"><ele>347.0</ele><time>2026-04-03T15:07:44.322Z</time></trkpt><trkpt lat="37.5269106" lon="14.001198"><ele>347.5</ele><time>2026-04-03T15:07:45.322Z</time></trkpt><trkpt lat="37.526961" lon="14.0013457"><ele>348.0</ele><time>2026-04-03T15:07:46.321Z</time></trkpt><trkpt lat="37.5270108" lon="14.0014936"><ele>348.5</ele><time>2026-04-03T15:07:47.322Z</time></trkpt><trkpt lat="37.5270601" lon="14.0016427"><ele>349.0</ele><time>2026-04-03T15:07:48.322Z</time></trkpt><trkpt lat="37.5271106" lon="14.001793"><ele>351.75</ele><time>2026-04-03T15:07:49.321Z</time></trkpt><trkpt lat="37.5271625" lon="14.001945"><ele>354.5</ele><time>2026-04-03T15:07:50.322Z</time></trkpt><trkpt lat="37.5272114" lon="14.0020988"><ele>357.25</ele><time>2026-04-03T15:07:51.321Z</time></trkpt><trkpt lat="37.5272608" lon="14.0022544"><ele>360.0</ele><time>2026-04-03T15:07:52.322Z</time></trkpt><trkpt lat="37.5273099" lon="14.0024113"><ele>359.75</ele><time>2026-04-03T15:07:53.321Z</time></trkpt><trkpt lat="37.5273541" lon="14.0025714"><ele>359.5</ele><time>2026-04-03T15:07:54.321Z</time></trkpt><trkpt lat="37.5273994" lon="14.0027319"><ele>359.25</ele><time>2026-04-03T15:07:55.322Z</time></trkpt><trkpt lat="37.5274483" lon="14.0028926"><ele>359.0</ele><time>2026-04-03T15:07:56.322Z</time></trkpt><trkpt lat="37.5275014" lon="14.0030512"><ele>359.0</ele><time>2026-04-03T15:07:57.321Z</time></trkpt><trkpt lat="37.5275542" lon="14.0032107"><ele>359.0</ele><time>2026-04-03T15:07:58.322Z</time></trkpt><trkpt lat="37.5276108" lon="14.0033723"><ele>359.0</ele><time>2026-04-03T15:07:59.321Z</time></trkpt><trkpt lat="37.5276694" lon="14.0035321"><ele>359.0</ele><time>2026-04-03T15:08:00.321Z</time></trkpt><trkpt lat="37.5277279" lon="14.0036917"><ele>358.75</ele><time>2026-04-03T15:08:01.321Z</time></trkpt><trkpt lat="37.5277821" lon="14.0038538"><ele>358.5</ele><time>2026-04-03T15:08:02.322Z</time></trkpt><trkpt lat="37.527834" lon="14.0040173"><ele>358.25</ele><time>2026-04-03T15:08:03.322Z</time></trkpt><trkpt lat="37.5278841" lon="14.0041832"><ele>358.0</ele><time>2026-04-03T15:08:04.322Z</time></trkpt><trkpt lat="37.5279392" lon="14.0043478"><ele>360.75</ele><time>2026-04-03T15:08:05.321Z</time></trkpt><trkpt lat="37.5280026" lon="14.0045091"><ele>363.5</ele><time>2026-04-03T15:08:06.322Z</time></trkpt><trkpt lat="37.52807" lon="14.0046665"><ele>366.25</ele><time>2026-04-03T15:08:07.32Z</time></trkpt><trkpt lat="37.5281545" lon="14.0048119"><ele>369.0</ele><time>2026-04-03T15:08:08.322Z</time></trkpt><trkpt lat="37.5282478" lon="14.0049495"><ele>366.75</ele><time>2026-04-03T15:08:09.322Z</time></trkpt><trkpt lat="37.5283425" lon="14.0050846"><ele>364.5</ele><time>2026-04-03T15:08:10.321Z</time></trkpt><trkpt lat="37.5284376" lon="14.0052161"><ele>362.25</ele><time>2026-04-03T15:08:11.322Z</time></trkpt><trkpt lat="37.5285346" lon="14.005345"><ele>360.0</ele><time>2026-04-03T15:08:12.322Z</time></trkpt><trkpt lat="37.5286265" lon="14.0054771"><ele>360.0</ele><time>2026-04-03T15:08:13.321Z</time></trkpt><trkpt lat="37.5287195" lon="14.0056105"><ele>360.0</ele><time>2026-04-03T15:08:14.322Z</time></trkpt><trkpt lat="37.5288169" lon="14.0057405"><ele>360.0</ele><time>2026-04-03T15:08:15.321Z</time></trkpt><trkpt lat="37.528915" lon="14.005869"><ele>360.0</ele><time>2026-04-03T15:08:16.321Z</time></trkpt><trkpt lat="37.5290105" lon="14.0060052"><ele>362.25</ele><time>2026-04-03T15:08:17.32Z</time></trkpt><trkpt lat="37.5290978" lon="14.0061501"><ele>364.5</ele><time>2026-04-03T15:08:18.322Z</time></trkpt><trkpt lat="37.5291716" lon="14.0063083"><ele>366.75</ele><time>2026-04-03T15:08:19.322Z</time></trkpt><trkpt lat="37.5292484" lon="14.0064666"><ele>369.0</ele><time>2026-04-03T15:08:20.321Z</time></trkpt><trkpt lat="37.5293298" lon="14.0066221"><ele>367.5</ele><time>2026-04-03T15:08:21.321Z</time></trkpt><trkpt lat="37.529414" lon="14.0067777"><ele>366.0</ele><time>2026-04-03T15:08:22.321Z</time></trkpt><trkpt lat="37.5294979" lon="14.0069327"><ele>364.5</ele><time>2026-04-03T15:08:23.321Z</time></trkpt><trkpt lat="37.5295827" lon="14.0070858"><ele>363.0</ele><time>2026-04-03T15:08:24.321Z</time></trkpt><trkpt lat="37.5296689" lon="14.0072365"><ele>365.0</ele><time>2026-04-03T15:08:25.321Z</time></trkpt><trkpt lat="37.529759" lon="14.0073816"><ele>367.0</ele><time>2026-04-03T15:08:26.322Z</time></trkpt><trkpt lat="37.5298504" lon="14.0075235"><ele>369.0</ele><time>2026-04-03T15:08:27.322Z</time></trkpt><trkpt lat="37.5299341" lon="14.0076692"><ele>371.0</ele><time>2026-04-03T15:08:28.322Z</time></trkpt><trkpt lat="37.530003" lon="14.0078249"><ele>371.0</ele><time>2026-04-03T15:08:29.321Z</time></trkpt><trkpt lat="37.5300535" lon="14.0079895"><ele>371.0</ele><time>2026-04-03T15:08:30.321Z</time></trkpt><trkpt lat="37.530088" lon="14.0081569"><ele>371.0</ele><time>2026-04-03T15:08:31.321Z</time></trkpt><trkpt lat="37.5301152" lon="14.0083247"><ele>371.0</ele><time>2026-04-03T15:08:32.321Z</time></trkpt><trkpt lat="37.5301404" lon="14.0084908"><ele>371.25</ele><time>2026-04-03T15:08:33.322Z</time></trkpt><trkpt lat="37.5301552" lon="14.0086558"><ele>371.5</ele><time>2026-04-03T15:08:34.322Z</time></trkpt><trkpt lat="37.5301656" lon="14.0088199"><ele>371.75</ele><time>2026-04-03T15:08:35.322Z</time></trkpt><trkpt lat="37.5301843" lon="14.0089817"><ele>372.0</ele><time>2026-04-03T15:08:36.321Z</time></trkpt><trkpt lat="37.530207" lon="14.0091406"><ele>372.25</ele><time>2026-04-03T15:08:37.321Z</time></trkpt><trkpt lat="37.5302243" lon="14.0092988"><ele>372.5</ele><time>2026-04-03T15:08:38.321Z</time></trkpt><trkpt lat="37.5302482" lon="14.0094543"><ele>372.75</ele><time>2026-04-03T15:08:39.321Z</time></trkpt><trkpt lat="37.5302809" lon="14.0096069"><ele>373.0</ele><time>2026-04-03T15:08:40.322Z</time></trkpt><trkpt lat="37.5303187" lon="14.0097584"><ele>373.0</ele><time>2026-04-03T15:08:41.322Z</time></trkpt><trkpt lat="37.5303634" lon="14.009905"><ele>373.0</ele><time>2026-04-03T15:08:42.322Z</time></trkpt><trkpt lat="37.5304115" lon="14.0100484"><ele>373.0</ele><time>2026-04-03T15:08:43.322Z</time></trkpt><trkpt lat="37.5304656" lon="14.010188"><ele>373.0</ele><time>2026-04-03T15:08:44.321Z</time></trkpt><trkpt lat="37.5305236" lon="14.0103236"><ele>376.75</ele><time>2026-04-03T15:08:45.321Z</time></trkpt><trkpt lat="37.5305829" lon="14.0104567"><ele>380.5</ele><time>2026-04-03T15:08:46.322Z</time></trkpt><trkpt lat="37.530641" lon="14.0105903"><ele>384.25</ele><time>2026-04-03T15:08:47.321Z</time></trkpt><trkpt lat="37.5306956" lon="14.0107256"><ele>388.0</ele><time>2026-04-03T15:08:48.321Z</time></trkpt><trkpt lat="37.5307499" lon="14.0108594"><ele>388.0</ele><time>2026-04-03T15:08:49.321Z</time></trkpt><trkpt lat="37.5308061" lon="14.0109895"><ele>388.0</ele><time>2026-04-03T15:08:50.321Z</time></trkpt><trkpt lat="37.530865" lon="14.0111165"><ele>388.0</ele><time>2026-04-03T15:08:51.322Z</time></trkpt><trkpt lat="37.5309208" lon="14.0112428"><ele>388.0</ele><time>2026-04-03T15:08:52.322Z</time></trkpt><trkpt lat="37.5309737" lon="14.0113705"><ele>388.0</ele><time>2026-04-03T15:08:53.322Z</time></trkpt><trkpt lat="37.5310235" lon="14.0114954"><ele>388.0</ele><time>2026-04-03T15:08:54.322Z</time></trkpt><trkpt lat="37.5310726" lon="14.011611"><ele>388.0</ele><time>2026-04-03T15:08:55.322Z</time></trkpt><trkpt lat="37.5311217" lon="14.011728"><ele>388.0</ele><time>2026-04-03T15:08:56.322Z</time></trkpt><trkpt lat="37.5311689" lon="14.0118468"><ele>388.0</ele><time>2026-04-03T15:08:57.322Z</time></trkpt><trkpt lat="37.5312195" lon="14.0119658"><ele>390.59999999999997</ele><time>2026-04-03T15:08:58.321Z</time></trkpt><trkpt lat="37.5312647" lon="14.0120845"><ele>393.2</ele><time>2026-04-03T15:08:59.321Z</time></trkpt><trkpt lat="37.5313121" lon="14.0122015"><ele>395.8</ele><time>2026-04-03T15:09:00.321Z</time></trkpt><trkpt lat="37.5313606" lon="14.01232"><ele>398.4</ele><time>2026-04-03T15:09:01.321Z</time></trkpt><trkpt lat="37.5314105" lon="14.012438"><ele>401.0</ele><time>2026-04-03T15:09:02.321Z</time></trkpt><trkpt lat="37.531464" lon="14.0125564"><ele>401.0</ele><time>2026-04-03T15:09:03.321Z</time></trkpt><trkpt lat="37.5315171" lon="14.0126763"><ele>401.0</ele><time>2026-04-03T15:09:04.322Z</time></trkpt><trkpt lat="37.5315715" lon="14.0127966"><ele>401.0</ele><time>2026-04-03T15:09:05.32Z</time></trkpt><trkpt lat="37.5316345" lon="14.0129113"><ele>401.0</ele><time>2026-04-03T15:09:06.323Z</time></trkpt><trkpt lat="37.5317049" lon="14.0130156"><ele>401.0</ele><time>2026-04-03T15:09:07.323Z</time></trkpt><trkpt lat="37.5317851" lon="14.0131003"><ele>401.0</ele><time>2026-04-03T15:09:08.322Z</time></trkpt><trkpt lat="37.5318707" lon="14.0131738"><ele>401.0</ele><time>2026-04-03T15:09:09.323Z</time></trkpt><trkpt lat="37.531953" lon="14.0132521"><ele>401.0</ele><time>2026-04-03T15:09:10.322Z</time></trkpt><trkpt lat="37.5320264" lon="14.013335"><ele>401.0</ele><time>2026-04-03T15:09:11.322Z</time></trkpt><trkpt lat="37.5320947" lon="14.0134141"><ele>401.0</ele><time>2026-04-03T15:09:12.323Z</time></trkpt><trkpt lat="37.5321481" lon="14.0135091"><ele>402.6</ele><time>2026-04-03T15:09:13.323Z</time></trkpt><trkpt lat="37.5321823" lon="14.013618"><ele>404.20000000000005</ele><time>2026-04-03T15:09:14.323Z</time></trkpt><trkpt lat="37.5321962" lon="14.0137347"><ele>405.79999999999995</ele><time>2026-04-03T15:09:15.323Z</time></trkpt><trkpt lat="37.532186" lon="14.013853"><ele>407.4</ele><time>2026-04-03T15:09:16.323Z</time></trkpt><trkpt lat="37.5321493" lon="14.0139644"><ele>409.0</ele><time>2026-04-03T15:09:17.323Z</time></trkpt><trkpt lat="37.5320892" lon="14.014054"><ele>409.2</ele><time>2026-04-03T15:09:18.323Z</time></trkpt><trkpt lat="37.5320168" lon="14.0141294"><ele>409.4</ele><time>2026-04-03T15:09:19.323Z</time></trkpt><trkpt lat="37.531933" lon="14.0141897"><ele>409.6</ele><time>2026-04-03T15:09:20.323Z</time></trkpt><trkpt lat="37.5318444" lon="14.0142429"><ele>409.8</ele><time>2026-04-03T15:09:21.323Z</time></trkpt><trkpt lat="37.5317551" lon="14.0142987"><ele>410.0</ele><time>2026-04-03T15:09:22.323Z</time></trkpt><trkpt lat="37.531666" lon="14.0143578"><ele>410.0</ele><time>2026-04-03T15:09:23.323Z</time></trkpt><trkpt lat="37.531574" lon="14.0144152"><ele>410.0</ele><time>2026-04-03T15:09:24.323Z</time></trkpt><trkpt lat="37.5314794" lon="14.0144725"><ele>410.0</ele><time>2026-04-03T15:09:25.322Z</time></trkpt><trkpt lat="37.5313831" lon="14.014531"><ele>410.0</ele><time>2026-04-03T15:09:26.322Z</time></trkpt><trkpt lat="37.5312858" lon="14.0145889"><ele>410.0</ele><time>2026-04-03T15:09:27.323Z</time></trkpt><trkpt lat="37.531188" lon="14.0146491"><ele>410.6</ele><time>2026-04-03T15:09:28.323Z</time></trkpt><trkpt lat="37.5310882" lon="14.0147057"><ele>411.2</ele><time>2026-04-03T15:09:29.323Z</time></trkpt><trkpt lat="37.5309845" lon="14.0147519"><ele>411.79999999999995</ele><time>2026-04-03T15:09:30.323Z</time></trkpt><trkpt lat="37.5308775" lon="14.0147865"><ele>412.4</ele><time>2026-04-03T15:09:31.323Z</time></trkpt><trkpt lat="37.5307695" lon="14.0148127"><ele>413.0</ele><time>2026-04-03T15:09:32.323Z</time></trkpt><trkpt lat="37.5306606" lon="14.0148288"><ele>413.0</ele><time>2026-04-03T15:09:33.323Z</time></trkpt><trkpt lat="37.5305516" lon="14.0148371"><ele>413.0</ele><time>2026-04-03T15:09:34.323Z</time></trkpt><trkpt lat="37.530442" lon="14.0148428"><ele>413.0</ele><time>2026-04-03T15:09:35.323Z</time></trkpt><trkpt lat="37.5303317" lon="14.0148435"><ele>413.0</ele><time>2026-04-03T15:09:36.322Z</time></trkpt><trkpt lat="37.5302218" lon="14.0148446"><ele>413.0</ele><time>2026-04-03T15:09:37.322Z</time></trkpt><trkpt lat="37.5301114" lon="14.0148479"><ele>413.0</ele><time>2026-04-03T15:09:38.323Z</time></trkpt><trkpt lat="37.5300013" lon="14.0148529"><ele>413.0</ele><time>2026-04-03T15:09:39.323Z</time></trkpt><trkpt lat="37.5298929" lon="14.0148657"><ele>413.0</ele><time>2026-04-03T15:09:40.322Z</time></trkpt><trkpt lat="37.529787" lon="14.0148936"><ele>413.0</ele><time>2026-04-03T15:09:41.322Z</time></trkpt><trkpt lat="37.5296842" lon="14.0149403"><ele>413.0</ele><time>2026-04-03T15:09:42.322Z</time></trkpt><trkpt lat="37.5295857" lon="14.0150033"><ele>416.75</ele><time>2026-04-03T15:09:43.322Z</time></trkpt><trkpt lat="37.5294926" lon="14.0150797"><ele>420.5</ele><time>2026-04-03T15:09:44.322Z</time></trkpt><trkpt lat="37.5294019" lon="14.0151656"><ele>424.25</ele><time>2026-04-03T15:09:45.323Z</time></trkpt><trkpt lat="37.5293116" lon="14.0152549"><ele>428.0</ele><time>2026-04-03T15:09:46.323Z</time></trkpt><trkpt lat="37.5292167" lon="14.0153432"><ele>428.0</ele><time>2026-04-03T15:09:47.323Z</time></trkpt><trkpt lat="37.5291191" lon="14.0154309"><ele>428.0</ele><time>2026-04-03T15:09:48.323Z</time></trkpt><trkpt lat="37.5290217" lon="14.0155135"><ele>428.0</ele><time>2026-04-03T15:09:49.323Z</time></trkpt><trkpt lat="37.5289197" lon="14.0155931"><ele>428.0</ele><time>2026-04-03T15:09:50.323Z</time></trkpt><trkpt lat="37.5288129" lon="14.0156701"><ele>427.75</ele><time>2026-04-03T15:09:51.323Z</time></trkpt><trkpt lat="37.5286987" lon="14.0157416"><ele>427.5</ele><time>2026-04-03T15:09:52.323Z</time></trkpt><trkpt lat="37.528577" lon="14.0158092"><ele>427.25</ele><time>2026-04-03T15:09:53.323Z</time></trkpt><trkpt lat="37.5284506" lon="14.0158762"><ele>427.0</ele><time>2026-04-03T15:09:54.323Z</time></trkpt><trkpt lat="37.528321" lon="14.0159439"><ele>427.0</ele><time>2026-04-03T15:09:55.322Z</time></trkpt><trkpt lat="37.5281929" lon="14.0160076"><ele>427.0</ele><time>2026-04-03T15:09:56.322Z</time></trkpt><trkpt lat="37.5280691" lon="14.0160709"><ele>427.0</ele><time>2026-04-03T15:09:57.323Z</time></trkpt><trkpt lat="37.5279415" lon="14.0161251"><ele>427.0</ele><time>2026-04-03T15:09:58.323Z</time></trkpt><trkpt lat="37.5278055" lon="14.0161537"><ele>427.0</ele><time>2026-04-03T15:09:59.323Z</time></trkpt><trkpt lat="37.5276695" lon="14.0161479"><ele>427.0</ele><time>2026-04-03T15:10:00.323Z</time></trkpt><trkpt lat="37.5275376" lon="14.0161116"><ele>427.0</ele><time>2026-04-03T15:10:01.323Z</time></trkpt><trkpt lat="37.5274114" lon="14.0160438"><ele>427.0</ele><time>2026-04-03T15:10:02.323Z</time></trkpt><trkpt lat="37.5272856" lon="14.0159796"><ele>427.0</ele><time>2026-04-03T15:10:03.323Z</time></trkpt><trkpt lat="37.527161" lon="14.0159186"><ele>427.0</ele><time>2026-04-03T15:10:04.323Z</time></trkpt><trkpt lat="37.5270416" lon="14.0158553"><ele>427.0</ele><time>2026-04-03T15:10:05.322Z</time></trkpt><trkpt lat="37.5269366" lon="14.0157971"><ele>427.0</ele><time>2026-04-03T15:10:06.322Z</time></trkpt><trkpt lat="37.5268307" lon="14.0157489"><ele>426.6</ele><time>2026-04-03T15:10:07.323Z</time></trkpt><trkpt lat="37.5267237" lon="14.0157349"><ele>426.20000000000005</ele><time>2026-04-03T15:10:08.323Z</time></trkpt><trkpt lat="37.5266145" lon="14.0157587"><ele>425.8</ele><time>2026-04-03T15:10:09.323Z</time></trkpt><trkpt lat="37.5265138" lon="14.0158168"><ele>425.4</ele><time>2026-04-03T15:10:10.323Z</time></trkpt><trkpt lat="37.5264224" lon="14.0159047"><ele>425.0</ele><time>2026-04-03T15:10:11.323Z</time></trkpt><trkpt lat="37.5263335" lon="14.0160025"><ele>425.0</ele><time>2026-04-03T15:10:12.323Z</time></trkpt><trkpt lat="37.5262508" lon="14.0161139"><ele>425.0</ele><time>2026-04-03T15:10:13.322Z</time></trkpt><trkpt lat="37.5261623" lon="14.01623"><ele>425.0</ele><time>2026-04-03T15:10:14.322Z</time></trkpt><trkpt lat="37.5260727" lon="14.0163534"><ele>425.0</ele><time>2026-04-03T15:10:15.323Z</time></trkpt><trkpt lat="37.5259863" lon="14.0164872"><ele>425.0</ele><time>2026-04-03T15:10:16.323Z</time></trkpt><trkpt lat="37.5258975" lon="14.016627"><ele>425.0</ele><time>2026-04-03T15:10:17.323Z</time></trkpt><trkpt lat="37.525802" lon="14.0167642"><ele>425.0</ele><time>2026-04-03T15:10:18.323Z</time></trkpt><trkpt lat="37.5257003" lon="14.0169041"><ele>425.0</ele><time>2026-04-03T15:10:19.323Z</time></trkpt><trkpt lat="37.5255958" lon="14.0170443"><ele>426.66666666666663</ele><time>2026-04-03T15:10:20.323Z</time></trkpt><trkpt lat="37.5254895" lon="14.0171839"><ele>428.33333333333337</ele><time>2026-04-03T15:10:21.322Z</time></trkpt><trkpt lat="37.5253834" lon="14.0173241"><ele>430.0</ele><time>2026-04-03T15:10:22.322Z</time></trkpt><trkpt lat="37.5252779" lon="14.0174659"><ele>430.33333333333337</ele><time>2026-04-03T15:10:23.321Z</time></trkpt><trkpt lat="37.5251723" lon="14.0176075"><ele>430.66666666666663</ele><time>2026-04-03T15:10:24.322Z</time></trkpt><trkpt lat="37.5250655" lon="14.0177464"><ele>431.0</ele><time>2026-04-03T15:10:25.323Z</time></trkpt><trkpt lat="37.5249578" lon="14.0178848"><ele>431.0</ele><time>2026-04-03T15:10:26.323Z</time></trkpt><trkpt lat="37.5248487" lon="14.0180183"><ele>431.0</ele><time>2026-04-03T15:10:27.322Z</time></trkpt><trkpt lat="37.5247364" lon="14.0181461"><ele>431.0</ele><time>2026-04-03T15:10:28.323Z</time></trkpt><trkpt lat="37.5246239" lon="14.0182658"><ele>432.25</ele><time>2026-04-03T15:10:29.322Z</time></trkpt><trkpt lat="37.5245154" lon="14.0183881"><ele>433.5</ele><time>2026-04-03T15:10:30.323Z</time></trkpt><trkpt lat="37.5244098" lon="14.0185099"><ele>434.75</ele><time>2026-04-03T15:10:31.323Z</time></trkpt><trkpt lat="37.5243018" lon="14.0186263"><ele>436.0</ele><time>2026-04-03T15:10:32.323Z</time></trkpt><trkpt lat="37.5241928" lon="14.0187402"><ele>436.0</ele><time>2026-04-03T15:10:33.323Z</time></trkpt><trkpt lat="37.5240905" lon="14.0188605"><ele>436.0</ele><time>2026-04-03T15:10:34.323Z</time></trkpt><trkpt lat="37.52399" lon="14.0189819"><ele>436.0</ele><time>2026-04-03T15:10:35.323Z</time></trkpt><trkpt lat="37.5238865" lon="14.0190993"><ele>436.0</ele><time>2026-04-03T15:10:36.322Z</time></trkpt><trkpt lat="37.5237828" lon="14.019216"><ele>436.5</ele><time>2026-04-03T15:10:37.322Z</time></trkpt><trkpt lat="37.5236793" lon="14.0193334"><ele>437.0</ele><time>2026-04-03T15:10:38.322Z</time></trkpt><trkpt lat="37.5235758" lon="14.0194494"><ele>437.5</ele><time>2026-04-03T15:10:39.323Z</time></trkpt><trkpt lat="37.5234739" lon="14.0195669"><ele>438.0</ele><time>2026-04-03T15:10:40.323Z</time></trkpt><trkpt lat="37.5233688" lon="14.0196801"><ele>438.0</ele><time>2026-04-03T15:10:41.323Z</time></trkpt><trkpt lat="37.5232539" lon="14.0197794"><ele>438.0</ele><time>2026-04-03T15:10:42.322Z</time></trkpt><trkpt lat="37.523128" lon="14.0198554"><ele>438.0</ele><time>2026-04-03T15:10:43.322Z</time></trkpt><trkpt lat="37.5229979" lon="14.0199136"><ele>438.0</ele><time>2026-04-03T15:10:44.322Z</time></trkpt><trkpt lat="37.5228672" lon="14.0199603"><ele>438.5</ele><time>2026-04-03T15:10:45.323Z</time></trkpt><trkpt lat="37.5227359" lon="14.0199973"><ele>439.0</ele><time>2026-04-03T15:10:46.323Z</time></trkpt><trkpt lat="37.5226061" lon="14.020031"><ele>439.5</ele><time>2026-04-03T15:10:47.323Z</time></trkpt><trkpt lat="37.52248" lon="14.0200668"><ele>440.0</ele><time>2026-04-03T15:10:48.323Z</time></trkpt><trkpt lat="37.5223566" lon="14.0201068"><ele>440.0</ele><time>2026-04-03T15:10:49.323Z</time></trkpt><trkpt lat="37.5222358" lon="14.0201494"><ele>440.0</ele><time>2026-04-03T15:10:50.323Z</time></trkpt><trkpt lat="37.5221181" lon="14.0201984"><ele>440.0</ele><time>2026-04-03T15:10:51.322Z</time></trkpt><trkpt lat="37.5220027" lon="14.0202557"><ele>440.0</ele><time>2026-04-03T15:10:52.323Z</time></trkpt><trkpt lat="37.5218918" lon="14.0203257"><ele>441.0</ele><time>2026-04-03T15:10:53.323Z</time></trkpt><trkpt lat="37.5217861" lon="14.0204067"><ele>442.0</ele><time>2026-04-03T15:10:54.323Z</time></trkpt><trkpt lat="37.5216802" lon="14.0204917"><ele>443.0</ele><time>2026-04-03T15:10:55.323Z</time></trkpt><trkpt lat="37.5215728" lon="14.0205741"><ele>444.0</ele><time>2026-04-03T15:10:56.323Z</time></trkpt><trkpt lat="37.521465" lon="14.0206574"><ele>444.0</ele><time>2026-04-03T15:10:57.323Z</time></trkpt><trkpt lat="37.5213561" lon="14.0207395"><ele>444.0</ele><time>2026-04-03T15:10:58.323Z</time></trkpt><trkpt lat="37.5212448" lon="14.020816"><ele>444.0</ele><time>2026-04-03T15:10:59.323Z</time></trkpt><trkpt lat="37.5211275" lon="14.0208756"><ele>444.0</ele><time>2026-04-03T15:11:00.323Z</time></trkpt><trkpt lat="37.5210045" lon="14.0209171"><ele>445.25</ele><time>2026-04-03T15:11:01.322Z</time></trkpt><trkpt lat="37.5208798" lon="14.0209513"><ele>446.5</ele><time>2026-04-03T15:11:02.323Z</time></trkpt><trkpt lat="37.5207558" lon="14.0209911"><ele>447.75</ele><time>2026-04-03T15:11:03.323Z</time></trkpt><trkpt lat="37.5206311" lon="14.0210327"><ele>449.0</ele><time>2026-04-03T15:11:04.323Z</time></trkpt><trkpt lat="37.5205047" lon="14.0210693"><ele>450.75</ele><time>2026-04-03T15:11:05.322Z</time></trkpt><trkpt lat="37.5203766" lon="14.0211028"><ele>452.5</ele><time>2026-04-03T15:11:06.322Z</time></trkpt><trkpt lat="37.5202493" lon="14.021129"><ele>454.25</ele><time>2026-04-03T15:11:07.323Z</time></trkpt><trkpt lat="37.5201271" lon="14.0211316"><ele>456.0</ele><time>2026-04-03T15:11:08.323Z</time></trkpt><trkpt lat="37.5200035" lon="14.021114"><ele>456.0</ele><time>2026-04-03T15:11:09.323Z</time></trkpt><trkpt lat="37.5198775" lon="14.0210867"><ele>456.0</ele><time>2026-04-03T15:11:10.323Z</time></trkpt><trkpt lat="37.5197517" lon="14.0210525"><ele>456.0</ele><time>2026-04-03T15:11:11.323Z</time></trkpt><trkpt lat="37.519624" lon="14.0210209"><ele>456.0</ele><time>2026-04-03T15:11:12.323Z</time></trkpt><trkpt lat="37.5194918" lon="14.0210105"><ele>455.75</ele><time>2026-04-03T15:11:13.323Z</time></trkpt><trkpt lat="37.5193611" lon="14.0210243"><ele>455.5</ele><time>2026-04-03T15:11:14.322Z</time></trkpt><trkpt lat="37.5192315" lon="14.0210515"><ele>455.25</ele><time>2026-04-03T15:11:15.322Z</time></trkpt><trkpt lat="37.5191" lon="14.0210866"><ele>455.0</ele><time>2026-04-03T15:11:16.322Z</time></trkpt><trkpt lat="37.5189691" lon="14.0211338"><ele>455.0</ele><time>2026-04-03T15:11:17.323Z</time></trkpt><trkpt lat="37.5188391" lon="14.0211941"><ele>455.0</ele><time>2026-04-03T15:11:18.323Z</time></trkpt><trkpt lat="37.5187118" lon="14.0212679"><ele>455.0</ele><time>2026-04-03T15:11:19.323Z</time></trkpt><trkpt lat="37.5185912" lon="14.0213536"><ele>455.0</ele><time>2026-04-03T15:11:20.323Z</time></trkpt><trkpt lat="37.5184753" lon="14.0214392"><ele>453.5</ele><time>2026-04-03T15:11:21.323Z</time></trkpt><trkpt lat="37.5183603" lon="14.021523"><ele>452.0</ele><time>2026-04-03T15:11:22.323Z</time></trkpt><trkpt lat="37.5182424" lon="14.0216081"><ele>450.5</ele><time>2026-04-03T15:11:23.322Z</time></trkpt><trkpt lat="37.5181145" lon="14.0216803"><ele>449.0</ele><time>2026-04-03T15:11:24.322Z</time></trkpt><trkpt lat="37.5179743" lon="14.0217283"><ele>447.75</ele><time>2026-04-03T15:11:25.322Z</time></trkpt><trkpt lat="37.5178311" lon="14.0217619"><ele>446.5</ele><time>2026-04-03T15:11:26.322Z</time></trkpt><trkpt lat="37.5176885" lon="14.0217898"><ele>445.25</ele><time>2026-04-03T15:11:27.323Z</time></trkpt><trkpt lat="37.5175478" lon="14.0218207"><ele>444.0</ele><time>2026-04-03T15:11:28.322Z</time></trkpt><trkpt lat="37.517408" lon="14.0218506"><ele>444.0</ele><time>2026-04-03T15:11:29.322Z</time></trkpt><trkpt lat="37.5172688" lon="14.0218733"><ele>444.0</ele><time>2026-04-03T15:11:30.322Z</time></trkpt><trkpt lat="37.5171306" lon="14.0218861"><ele>444.0</ele><time>2026-04-03T15:11:31.322Z</time></trkpt><trkpt lat="37.5169923" lon="14.0218748"><ele>444.0</ele><time>2026-04-03T15:11:32.322Z</time></trkpt><trkpt lat="37.516858" lon="14.0218294"><ele>445.0</ele><time>2026-04-03T15:11:33.321Z</time></trkpt><trkpt lat="37.5167344" lon="14.0217559"><ele>446.0</ele><time>2026-04-03T15:11:34.322Z</time></trkpt><trkpt lat="37.516617" lon="14.0216705"><ele>447.0</ele><time>2026-04-03T15:11:35.322Z</time></trkpt><trkpt lat="37.5165068" lon="14.0215693"><ele>448.0</ele><time>2026-04-03T15:11:36.323Z</time></trkpt><trkpt lat="37.5164087" lon="14.0214471"><ele>448.75</ele><time>2026-04-03T15:11:37.323Z</time></trkpt><trkpt lat="37.516315" lon="14.0213175"><ele>449.5</ele><time>2026-04-03T15:11:38.323Z</time></trkpt><trkpt lat="37.5162298" lon="14.0211778"><ele>450.25</ele><time>2026-04-03T15:11:39.323Z</time></trkpt><trkpt lat="37.5161448" lon="14.0210369"><ele>451.0</ele><time>2026-04-03T15:11:40.322Z</time></trkpt><trkpt lat="37.5160573" lon="14.020901"><ele>449.0</ele><time>2026-04-03T15:11:41.323Z</time></trkpt><trkpt lat="37.5159731" lon="14.0207684"><ele>447.0</ele><time>2026-04-03T15:11:42.323Z</time></trkpt><trkpt lat="37.515889" lon="14.0206452"><ele>445.0</ele><time>2026-04-03T15:11:43.322Z</time></trkpt><trkpt lat="37.5158087" lon="14.020526"><ele>443.0</ele><time>2026-04-03T15:11:44.323Z</time></trkpt><trkpt lat="37.5157338" lon="14.0204003"><ele>443.0</ele><time>2026-04-03T15:11:45.323Z</time></trkpt><trkpt lat="37.5156598" lon="14.0202671"><ele>443.0</ele><time>2026-04-03T15:11:46.323Z</time></trkpt><trkpt lat="37.5155806" lon="14.0201329"><ele>443.0</ele><time>2026-04-03T15:11:47.322Z</time></trkpt><trkpt lat="37.5154988" lon="14.0199972"><ele>443.0</ele><time>2026-04-03T15:11:48.322Z</time></trkpt><trkpt lat="37.5154161" lon="14.0198634"><ele>443.0</ele><time>2026-04-03T15:11:49.322Z</time></trkpt><trkpt lat="37.5153348" lon="14.0197295"><ele>443.0</ele><time>2026-04-03T15:11:50.322Z</time></trkpt><trkpt lat="37.5152471" lon="14.0196031"><ele>443.0</ele><time>2026-04-03T15:11:51.323Z</time></trkpt><trkpt lat="37.5151433" lon="14.0194982"><ele>443.0</ele><time>2026-04-03T15:11:52.323Z</time></trkpt><trkpt lat="37.5150225" lon="14.0194181"><ele>443.0</ele><time>2026-04-03T15:11:53.323Z</time></trkpt><trkpt lat="37.5148911" lon="14.0193608"><ele>443.0</ele><time>2026-04-03T15:11:54.322Z</time></trkpt><trkpt lat="37.5147549" lon="14.0193192"><ele>443.0</ele><time>2026-04-03T15:11:55.322Z</time></trkpt><trkpt lat="37.5146175" lon="14.0192796"><ele>443.0</ele><time>2026-04-03T15:11:56.322Z</time></trkpt><trkpt lat="37.5144841" lon="14.019236"><ele>444.5</ele><time>2026-04-03T15:11:57.323Z</time></trkpt><trkpt lat="37.5143579" lon="14.0191845"><ele>446.0</ele><time>2026-04-03T15:11:58.323Z</time></trkpt><trkpt lat="37.5142417" lon="14.0191092"><ele>447.5</ele><time>2026-04-03T15:11:59.323Z</time></trkpt><trkpt lat="37.5141445" lon="14.0189976"><ele>449.0</ele><time>2026-04-03T15:12:00.323Z</time></trkpt><trkpt lat="37.5140636" lon="14.0188601"><ele>445.5</ele><time>2026-04-03T15:12:01.322Z</time></trkpt><trkpt lat="37.5139847" lon="14.0187179"><ele>442.0</ele><time>2026-04-03T15:12:02.323Z</time></trkpt><trkpt lat="37.5138993" lon="14.0185863"><ele>438.5</ele><time>2026-04-03T15:12:03.322Z</time></trkpt><trkpt lat="37.5138111" lon="14.0184748"><ele>435.0</ele><time>2026-04-03T15:12:04.322Z</time></trkpt><trkpt lat="37.5137193" lon="14.0183881"><ele>435.0</ele><time>2026-04-03T15:12:05.322Z</time></trkpt><trkpt lat="37.5136239" lon="14.0183244"><ele>435.0</ele><time>2026-04-03T15:12:06.323Z</time></trkpt><trkpt lat="37.5135256" lon="14.0182778"><ele>435.0</ele><time>2026-04-03T15:12:07.323Z</time></trkpt><trkpt lat="37.5134196" lon="14.0182432"><ele>435.0</ele><time>2026-04-03T15:12:08.323Z</time></trkpt><trkpt lat="37.5133111" lon="14.0182232"><ele>435.0</ele><time>2026-04-03T15:12:09.323Z</time></trkpt><trkpt lat="37.5132135" lon="14.0182207"><ele>435.0</ele><time>2026-04-03T15:12:10.323Z</time></trkpt><trkpt lat="37.5131291" lon="14.0182434"><ele>435.0</ele><time>2026-04-03T15:12:11.323Z</time></trkpt><trkpt lat="37.5130542" lon="14.0183045"><ele>435.0</ele><time>2026-04-03T15:12:12.323Z</time></trkpt><trkpt lat="37.5129879" lon="14.0183997"><ele>435.0</ele><time>2026-04-03T15:12:13.323Z</time></trkpt><trkpt lat="37.5129209" lon="14.018509"><ele>435.0</ele><time>2026-04-03T15:12:14.322Z</time></trkpt><trkpt lat="37.5128425" lon="14.0186237"><ele>433.0</ele><time>2026-04-03T15:12:15.322Z</time></trkpt><trkpt lat="37.5127525" lon="14.0187419"><ele>431.0</ele><time>2026-04-03T15:12:16.322Z</time></trkpt><trkpt lat="37.5126566" lon="14.0188621"><ele>429.0</ele><time>2026-04-03T15:12:17.322Z</time></trkpt><trkpt lat="37.5125585" lon="14.0189855"><ele>427.0</ele><time>2026-04-03T15:12:18.323Z</time></trkpt><trkpt lat="37.5124613" lon="14.0191097"><ele>426.75</ele><time>2026-04-03T15:12:19.323Z</time></trkpt><trkpt lat="37.512364" lon="14.0192391"><ele>426.5</ele><time>2026-04-03T15:12:20.323Z</time></trkpt><trkpt lat="37.5122686" lon="14.0193734"><ele>426.25</ele><time>2026-04-03T15:12:21.323Z</time></trkpt><trkpt lat="37.5121764" lon="14.0195118"><ele>426.0</ele><time>2026-04-03T15:12:22.323Z</time></trkpt><trkpt lat="37.5120885" lon="14.0196513"><ele>424.5</ele><time>2026-04-03T15:12:23.323Z</time></trkpt><trkpt lat="37.5120004" lon="14.0197886"><ele>423.0</ele><time>2026-04-03T15:12:24.323Z</time></trkpt><trkpt lat="37.5119142" lon="14.0199252"><ele>421.5</ele><time>2026-04-03T15:12:25.322Z</time></trkpt><trkpt lat="37.5118297" lon="14.0200587"><ele>420.0</ele><time>2026-04-03T15:12:26.323Z</time></trkpt><trkpt lat="37.5117537" lon="14.0201815"><ele>419.5</ele><time>2026-04-03T15:12:27.323Z</time></trkpt><trkpt lat="37.5116896" lon="14.0202871"><ele>419.0</ele><time>2026-04-03T15:12:28.321Z</time></trkpt><trkpt lat="37.5116389" lon="14.0203782"><ele>418.5</ele><time>2026-04-03T15:12:29.321Z</time></trkpt><trkpt lat="37.511596" lon="14.0204535"><ele>418.0</ele><time>2026-04-03T15:12:30.323Z</time></trkpt><trkpt lat="37.5115586" lon="14.0205203"><ele>417.5</ele><time>2026-04-03T15:12:31.323Z</time></trkpt><trkpt lat="37.5115146" lon="14.0205934"><ele>417.0</ele><time>2026-04-03T15:12:32.323Z</time></trkpt><trkpt lat="37.5114626" lon="14.0206764"><ele>417.0</ele><time>2026-04-03T15:12:33.322Z</time></trkpt><trkpt lat="37.5114072" lon="14.020766"><ele>417.0</ele><time>2026-04-03T15:12:34.323Z</time></trkpt><trkpt lat="37.5113536" lon="14.0208615"><ele>417.0</ele><time>2026-04-03T15:12:35.323Z</time></trkpt><trkpt lat="37.5113014" lon="14.0209632"><ele>417.0</ele><time>2026-04-03T15:12:36.323Z</time></trkpt><trkpt lat="37.5112493" lon="14.0210697"><ele>417.0</ele><time>2026-04-03T15:12:37.322Z</time></trkpt><trkpt lat="37.5111928" lon="14.0211764"><ele>417.0</ele><time>2026-04-03T15:12:38.322Z</time></trkpt><trkpt lat="37.5111332" lon="14.0212854"><ele>417.0</ele><time>2026-04-03T15:12:39.323Z</time></trkpt><trkpt lat="37.5110736" lon="14.0213951"><ele>417.0</ele><time>2026-04-03T15:12:40.322Z</time></trkpt><trkpt lat="37.5110176" lon="14.0215041"><ele>417.0</ele><time>2026-04-03T15:12:41.322Z</time></trkpt><trkpt lat="37.5109628" lon="14.0216097"><ele>417.0</ele><time>2026-04-03T15:12:42.322Z</time></trkpt><trkpt lat="37.5109077" lon="14.0217115"><ele>417.0</ele><time>2026-04-03T15:12:43.322Z</time></trkpt><trkpt lat="37.5108518" lon="14.0218077"><ele>417.0</ele><time>2026-04-03T15:12:44.323Z</time></trkpt><trkpt lat="37.5107941" lon="14.0218992"><ele>417.0</ele><time>2026-04-03T15:12:45.322Z</time></trkpt><trkpt lat="37.5107301" lon="14.021989"><ele>417.0</ele><time>2026-04-03T15:12:46.323Z</time></trkpt><trkpt lat="37.5106623" lon="14.0220737"><ele>417.0</ele><time>2026-04-03T15:12:47.323Z</time></trkpt><trkpt lat="37.5105907" lon="14.0221517"><ele>417.0</ele><time>2026-04-03T15:12:48.322Z</time></trkpt><trkpt lat="37.5105146" lon="14.0222247"><ele>417.0</ele><time>2026-04-03T15:12:49.323Z</time></trkpt><trkpt lat="37.5104345" lon="14.022288"><ele>417.0</ele><time>2026-04-03T15:12:50.323Z</time></trkpt><trkpt lat="37.5103483" lon="14.0223359"><ele>417.0</ele><time>2026-04-03T15:12:51.322Z</time></trkpt><trkpt lat="37.5102562" lon="14.022365"><ele>417.0</ele><time>2026-04-03T15:12:52.322Z</time></trkpt><trkpt lat="37.5101607" lon="14.022377"><ele>418.6</ele><time>2026-04-03T15:12:53.322Z</time></trkpt><trkpt lat="37.5100644" lon="14.0223813"><ele>420.20000000000005</ele><time>2026-04-03T15:12:54.322Z</time></trkpt><trkpt lat="37.5099682" lon="14.0223827"><ele>421.8</ele><time>2026-04-03T15:12:55.323Z</time></trkpt><trkpt lat="37.5098749" lon="14.0223839"><ele>423.4</ele><time>2026-04-03T15:12:56.323Z</time></trkpt><trkpt lat="37.5097874" lon="14.0223846"><ele>425.0</ele><time>2026-04-03T15:12:57.323Z</time></trkpt><trkpt lat="37.5097103" lon="14.0223855"><ele>424.99999999999994</ele><time>2026-04-03T15:12:58.322Z</time></trkpt><trkpt lat="37.5096325" lon="14.0223856"><ele>425.0</ele><time>2026-04-03T15:13:00.322Z</time></trkpt><trkpt lat="37.5096767" lon="14.0223271"><ele>425.0</ele><time>2026-04-03T15:13:25.323Z</time></trkpt><trkpt lat="37.5096066" lon="14.0223803"><ele>425.0</ele><time>2026-04-03T15:28:49.327Z</time></trkpt><trkpt lat="37.5095213" lon="14.0224045"><ele>424.99999999999994</ele><time>2026-04-03T15:28:51.327Z</time></trkpt><trkpt lat="37.5094232" lon="14.0224391"><ele>425.0</ele><time>2026-04-03T15:28:53.327Z</time></trkpt><trkpt lat="37.5093138" lon="14.0225078"><ele>426.42857142857144</ele><time>2026-04-03T15:28:55.327Z</time></trkpt><trkpt lat="37.5092576" lon="14.0225534"><ele>427.85714285714283</ele><time>2026-04-03T15:28:56.327Z</time></trkpt><trkpt lat="37.5092039" lon="14.022607"><ele>429.28571428571433</ele><time>2026-04-03T15:28:57.327Z</time></trkpt><trkpt lat="37.5091548" lon="14.022667"><ele>430.7142857142857</ele><time>2026-04-03T15:28:58.327Z</time></trkpt><trkpt lat="37.5091051" lon="14.022727"><ele>432.14285714285717</ele><time>2026-04-03T15:28:59.327Z</time></trkpt><trkpt lat="37.5090543" lon="14.0227847"><ele>433.5714285714286</ele><time>2026-04-03T15:29:00.327Z</time></trkpt><trkpt lat="37.5090036" lon="14.0228456"><ele>435.0</ele><time>2026-04-03T15:29:01.327Z</time></trkpt><trkpt lat="37.5089532" lon="14.0229069"><ele>435.0</ele><time>2026-04-03T15:29:02.327Z</time></trkpt><trkpt lat="37.5089032" lon="14.0229684"><ele>435.0</ele><time>2026-04-03T15:29:03.327Z</time></trkpt><trkpt lat="37.5088513" lon="14.023036"><ele>435.0</ele><time>2026-04-03T15:29:04.327Z</time></trkpt><trkpt lat="37.5087955" lon="14.0231022"><ele>435.0</ele><time>2026-04-03T15:29:05.327Z</time></trkpt><trkpt lat="37.5087408" lon="14.0231714"><ele>435.0</ele><time>2026-04-03T15:29:06.326Z</time></trkpt><trkpt lat="37.5086864" lon="14.0232413"><ele>435.0</ele><time>2026-04-03T15:29:07.327Z</time></trkpt><trkpt lat="37.5086296" lon="14.0233104"><ele>437.0</ele><time>2026-04-03T15:29:08.327Z</time></trkpt><trkpt lat="37.5085693" lon="14.0233819"><ele>439.0</ele><time>2026-04-03T15:29:09.327Z</time></trkpt><trkpt lat="37.5085083" lon="14.0234557"><ele>441.0</ele><time>2026-04-03T15:29:10.326Z</time></trkpt><trkpt lat="37.5084456" lon="14.0235332"><ele>443.0</ele><time>2026-04-03T15:29:11.327Z</time></trkpt><trkpt lat="37.5083798" lon="14.0236113"><ele>445.0</ele><time>2026-04-03T15:29:12.327Z</time></trkpt><trkpt lat="37.5083106" lon="14.0236905"><ele>447.0</ele><time>2026-04-03T15:29:13.327Z</time></trkpt><trkpt lat="37.5082366" lon="14.0237707"><ele>447.0</ele><time>2026-04-03T15:29:14.327Z</time></trkpt><trkpt lat="37.5081597" lon="14.0238525"><ele>447.00000000000006</ele><time>2026-04-03T15:29:15.327Z</time></trkpt><trkpt lat="37.5080822" lon="14.0239393"><ele>447.00000000000006</ele><time>2026-04-03T15:29:16.326Z</time></trkpt><trkpt lat="37.508002" lon="14.0240297"><ele>447.0</ele><time>2026-04-03T15:29:17.327Z</time></trkpt><trkpt lat="37.5079188" lon="14.0241167"><ele>447.0</ele><time>2026-04-03T15:29:18.327Z</time></trkpt><trkpt lat="37.5078374" lon="14.0241985"><ele>449.40000000000003</ele><time>2026-04-03T15:29:19.327Z</time></trkpt><trkpt lat="37.5077573" lon="14.024281"><ele>451.80000000000007</ele><time>2026-04-03T15:29:20.327Z</time></trkpt><trkpt lat="37.5076782" lon="14.0243626"><ele>454.2</ele><time>2026-04-03T15:29:21.327Z</time></trkpt><trkpt lat="37.5075997" lon="14.0244418"><ele>456.6</ele><time>2026-04-03T15:29:22.327Z</time></trkpt><trkpt lat="37.5075228" lon="14.0245207"><ele>459.0</ele><time>2026-04-03T15:29:23.327Z</time></trkpt><trkpt lat="37.5074494" lon="14.0245977"><ele>459.0</ele><time>2026-04-03T15:29:24.327Z</time></trkpt><trkpt lat="37.507382" lon="14.024667"><ele>459.0</ele><time>2026-04-03T15:29:25.326Z</time></trkpt><trkpt lat="37.5073128" lon="14.0247357"><ele>459.0</ele><time>2026-04-03T15:29:26.327Z</time></trkpt><trkpt lat="37.5072437" lon="14.0248043"><ele>459.0</ele><time>2026-04-03T15:29:27.327Z</time></trkpt><trkpt lat="37.5071758" lon="14.0248744"><ele>459.0</ele><time>2026-04-03T15:29:28.327Z</time></trkpt><trkpt lat="37.5071073" lon="14.0249477"><ele>459.0</ele><time>2026-04-03T15:29:29.327Z</time></trkpt><trkpt lat="37.5070383" lon="14.0250185"><ele>462.0</ele><time>2026-04-03T15:29:30.327Z</time></trkpt><trkpt lat="37.5069684" lon="14.0250907"><ele>465.0</ele><time>2026-04-03T15:29:31.327Z</time></trkpt><trkpt lat="37.5069003" lon="14.0251681"><ele>468.0</ele><time>2026-04-03T15:29:32.327Z</time></trkpt><trkpt lat="37.5068359" lon="14.0252488"><ele>471.0</ele><time>2026-04-03T15:29:33.327Z</time></trkpt><trkpt lat="37.5067749" lon="14.025332"><ele>474.0</ele><time>2026-04-03T15:29:34.327Z</time></trkpt><trkpt lat="37.5067118" lon="14.0254147"><ele>474.0</ele><time>2026-04-03T15:29:35.327Z</time></trkpt><trkpt lat="37.5066483" lon="14.0254947"><ele>474.0</ele><time>2026-04-03T15:29:36.326Z</time></trkpt><trkpt lat="37.5065874" lon="14.0255768"><ele>474.0</ele><time>2026-04-03T15:29:37.327Z</time></trkpt><trkpt lat="37.5065308" lon="14.0256653"><ele>474.0</ele><time>2026-04-03T15:29:38.327Z</time></trkpt><trkpt lat="37.5064739" lon="14.0257523"><ele>474.0</ele><time>2026-04-03T15:29:39.327Z</time></trkpt><trkpt lat="37.5064177" lon="14.0258405"><ele>474.0</ele><time>2026-04-03T15:29:40.327Z</time></trkpt><trkpt lat="37.5063721" lon="14.0259356"><ele>474.6</ele><time>2026-04-03T15:29:41.327Z</time></trkpt><trkpt lat="37.5063371" lon="14.0260361"><ele>475.2</ele><time>2026-04-03T15:29:42.327Z</time></trkpt><trkpt lat="37.5063143" lon="14.0261428"><ele>475.80000000000007</ele><time>2026-04-03T15:29:43.327Z</time></trkpt><trkpt lat="37.506298" lon="14.0262561"><ele>476.40000000000003</ele><time>2026-04-03T15:29:44.327Z</time></trkpt><trkpt lat="37.5062829" lon="14.0263727"><ele>477.0</ele><time>2026-04-03T15:29:45.327Z</time></trkpt><trkpt lat="37.5062662" lon="14.0264929"><ele>477.0</ele><time>2026-04-03T15:29:46.327Z</time></trkpt><trkpt lat="37.506245" lon="14.0266137"><ele>477.00000000000006</ele><time>2026-04-03T15:29:47.327Z</time></trkpt><trkpt lat="37.506209" lon="14.0267355"><ele>477.00000000000006</ele><time>2026-04-03T15:29:48.327Z</time></trkpt><trkpt lat="37.5061649" lon="14.0268569"><ele>477.0</ele><time>2026-04-03T15:29:49.327Z</time></trkpt><trkpt lat="37.5061188" lon="14.0269775"><ele>477.0</ele><time>2026-04-03T15:29:50.327Z</time></trkpt><trkpt lat="37.5060754" lon="14.0270919"><ele>478.40000000000003</ele><time>2026-04-03T15:29:51.327Z</time></trkpt><trkpt lat="37.5060294" lon="14.0272095"><ele>479.80000000000007</ele><time>2026-04-03T15:29:52.327Z</time></trkpt><trkpt lat="37.5059818" lon="14.0273285"><ele>481.2</ele><time>2026-04-03T15:29:53.327Z</time></trkpt><trkpt lat="37.5059345" lon="14.0274502"><ele>482.6</ele><time>2026-04-03T15:29:54.327Z</time></trkpt><trkpt lat="37.5058835" lon="14.0275706"><ele>484.0</ele><time>2026-04-03T15:29:55.327Z</time></trkpt><trkpt lat="37.505832" lon="14.0276926"><ele>484.2</ele><time>2026-04-03T15:29:56.327Z</time></trkpt><trkpt lat="37.5057831" lon="14.0278175"><ele>484.4</ele><time>2026-04-03T15:29:57.327Z</time></trkpt><trkpt lat="37.5057336" lon="14.0279411"><ele>484.6</ele><time>2026-04-03T15:29:58.327Z</time></trkpt><trkpt lat="37.5056839" lon="14.0280621"><ele>484.8</ele><time>2026-04-03T15:29:59.327Z</time></trkpt><trkpt lat="37.5056368" lon="14.0281806"><ele>485.0</ele><time>2026-04-03T15:30:00.327Z</time></trkpt><trkpt lat="37.5055898" lon="14.0282974"><ele>485.6</ele><time>2026-04-03T15:30:01.327Z</time></trkpt><trkpt lat="37.5055477" lon="14.0284048"><ele>486.2</ele><time>2026-04-03T15:30:02.327Z</time></trkpt><trkpt lat="37.5055046" lon="14.0285169"><ele>486.79999999999995</ele><time>2026-04-03T15:30:03.327Z</time></trkpt><trkpt lat="37.5054617" lon="14.0286278"><ele>487.4</ele><time>2026-04-03T15:30:04.327Z</time></trkpt><trkpt lat="37.5054184" lon="14.0287363"><ele>488.0</ele><time>2026-04-03T15:30:05.327Z</time></trkpt><trkpt lat="37.5053737" lon="14.0288432"><ele>490.4</ele><time>2026-04-03T15:30:06.327Z</time></trkpt><trkpt lat="37.5053294" lon="14.0289495"><ele>492.79999999999995</ele><time>2026-04-03T15:30:07.327Z</time></trkpt><trkpt lat="37.5052889" lon="14.0290588"><ele>495.2</ele><time>2026-04-03T15:30:08.326Z</time></trkpt><trkpt lat="37.5052468" lon="14.0291662"><ele>497.6</ele><time>2026-04-03T15:30:09.327Z</time></trkpt><trkpt lat="37.5052016" lon="14.029273"><ele>500.0</ele><time>2026-04-03T15:30:10.327Z</time></trkpt><trkpt lat="37.5051572" lon="14.0293818"><ele>500.4</ele><time>2026-04-03T15:30:11.327Z</time></trkpt><trkpt lat="37.5051161" lon="14.0294929"><ele>500.8</ele><time>2026-04-03T15:30:12.327Z</time></trkpt><trkpt lat="37.5050686" lon="14.0295988"><ele>501.20000000000005</ele><time>2026-04-03T15:30:13.327Z</time></trkpt><trkpt lat="37.5050141" lon="14.0297028"><ele>501.6</ele><time>2026-04-03T15:30:14.327Z</time></trkpt><trkpt lat="37.5049574" lon="14.0298064"><ele>502.0</ele><time>2026-04-03T15:30:15.327Z</time></trkpt><trkpt lat="37.5048994" lon="14.0299099"><ele>502.0</ele><time>2026-04-03T15:30:16.327Z</time></trkpt><trkpt lat="37.5048399" lon="14.0300122"><ele>502.00000000000006</ele><time>2026-04-03T15:30:17.327Z</time></trkpt><trkpt lat="37.5047801" lon="14.0301124"><ele>502.00000000000006</ele><time>2026-04-03T15:30:18.327Z</time></trkpt><trkpt lat="37.5047161" lon="14.0302097"><ele>502.0</ele><time>2026-04-03T15:30:19.326Z</time></trkpt><trkpt lat="37.5046486" lon="14.030305"><ele>502.0</ele><time>2026-04-03T15:30:20.327Z</time></trkpt><trkpt lat="37.5045796" lon="14.0303999"><ele>504.0</ele><time>2026-04-03T15:30:21.327Z</time></trkpt><trkpt lat="37.5045096" lon="14.0304959"><ele>506.00000000000006</ele><time>2026-04-03T15:30:22.327Z</time></trkpt><trkpt lat="37.504437" lon="14.0305894"><ele>508.00000000000006</ele><time>2026-04-03T15:30:23.326Z</time></trkpt><trkpt lat="37.5043634" lon="14.0306832"><ele>510.0</ele><time>2026-04-03T15:30:24.327Z</time></trkpt><trkpt lat="37.5042872" lon="14.0307747"><ele>512.0</ele><time>2026-04-03T15:30:25.327Z</time></trkpt><trkpt lat="37.504209" lon="14.0308648"><ele>512.0</ele><time>2026-04-03T15:30:26.327Z</time></trkpt><trkpt lat="37.5041314" lon="14.0309523"><ele>512.0</ele><time>2026-04-03T15:30:27.327Z</time></trkpt><trkpt lat="37.5040488" lon="14.0310352"><ele>512.0</ele><time>2026-04-03T15:30:28.327Z</time></trkpt><trkpt lat="37.5039672" lon="14.0311197"><ele>512.0</ele><time>2026-04-03T15:30:29.327Z</time></trkpt><trkpt lat="37.5038876" lon="14.0312037"><ele>512.0</ele><time>2026-04-03T15:30:30.327Z</time></trkpt><trkpt lat="37.5038044" lon="14.0312814"><ele>514.2</ele><time>2026-04-03T15:30:31.327Z</time></trkpt><trkpt lat="37.503721" lon="14.0313594"><ele>516.4000000000001</ele><time>2026-04-03T15:30:32.327Z</time></trkpt><trkpt lat="37.5036395" lon="14.0314368"><ele>518.5999999999999</ele><time>2026-04-03T15:30:33.326Z</time></trkpt><trkpt lat="37.5035562" lon="14.0315086"><ele>520.8</ele><time>2026-04-03T15:30:34.327Z</time></trkpt><trkpt lat="37.5034734" lon="14.0315798"><ele>523.0</ele><time>2026-04-03T15:30:35.327Z</time></trkpt><trkpt lat="37.5033933" lon="14.0316562"><ele>523.0</ele><time>2026-04-03T15:30:36.327Z</time></trkpt><trkpt lat="37.5033156" lon="14.0317341"><ele>523.0</ele><time>2026-04-03T15:30:37.327Z</time></trkpt><trkpt lat="37.5032369" lon="14.03181"><ele>523.0</ele><time>2026-04-03T15:30:38.327Z</time></trkpt><trkpt lat="37.5031574" lon="14.0318845"><ele>523.0</ele><time>2026-04-03T15:30:39.327Z</time></trkpt><trkpt lat="37.5030778" lon="14.0319586"><ele>523.0</ele><time>2026-04-03T15:30:40.327Z</time></trkpt><trkpt lat="37.5029953" lon="14.032029"><ele>525.8</ele><time>2026-04-03T15:30:41.326Z</time></trkpt><trkpt lat="37.5029117" lon="14.0320963"><ele>528.5999999999999</ele><time>2026-04-03T15:30:42.327Z</time></trkpt><trkpt lat="37.5028303" lon="14.0321697"><ele>531.4000000000001</ele><time>2026-04-03T15:30:43.327Z</time></trkpt><trkpt lat="37.5027504" lon="14.0322505"><ele>534.2</ele><time>2026-04-03T15:30:44.327Z</time></trkpt><trkpt lat="37.5026763" lon="14.0323421"><ele>537.0</ele><time>2026-04-03T15:30:45.327Z</time></trkpt><trkpt lat="37.5026062" lon="14.0324371"><ele>535.6</ele><time>2026-04-03T15:30:46.327Z</time></trkpt><trkpt lat="37.5025408" lon="14.032536"><ele>534.2</ele><time>2026-04-03T15:30:47.327Z</time></trkpt><trkpt lat="37.5024764" lon="14.032636"><ele>532.8</ele><time>2026-04-03T15:30:48.327Z</time></trkpt><trkpt lat="37.502411" lon="14.0327352"><ele>531.4</ele><time>2026-04-03T15:30:49.327Z</time></trkpt><trkpt lat="37.5023436" lon="14.0328317"><ele>530.0</ele><time>2026-04-03T15:30:50.327Z</time></trkpt><trkpt lat="37.5022758" lon="14.032928"><ele>530.0</ele><time>2026-04-03T15:30:51.327Z</time></trkpt><trkpt lat="37.5022115" lon="14.0330279"><ele>530.0</ele><time>2026-04-03T15:30:52.327Z</time></trkpt><trkpt lat="37.5021442" lon="14.0331225"><ele>530.0</ele><time>2026-04-03T15:30:53.327Z</time></trkpt><trkpt lat="37.5020727" lon="14.0332109"><ele>530.0</ele><time>2026-04-03T15:30:54.326Z</time></trkpt><trkpt lat="37.5019973" lon="14.0332904"><ele>530.0</ele><time>2026-04-03T15:30:55.327Z</time></trkpt><trkpt lat="37.5019197" lon="14.0333671"><ele>532.4</ele><time>2026-04-03T15:30:56.327Z</time></trkpt><trkpt lat="37.5018458" lon="14.0334453"><ele>534.8</ele><time>2026-04-03T15:30:57.327Z</time></trkpt><trkpt lat="37.5017731" lon="14.033524"><ele>537.2</ele><time>2026-04-03T15:30:58.327Z</time></trkpt><trkpt lat="37.501697" lon="14.0335977"><ele>539.6</ele><time>2026-04-03T15:30:59.327Z</time></trkpt><trkpt lat="37.5016154" lon="14.0336623"><ele>542.0</ele><time>2026-04-03T15:31:00.327Z</time></trkpt><trkpt lat="37.5015316" lon="14.0337263"><ele>542.0</ele><time>2026-04-03T15:31:01.326Z</time></trkpt><trkpt lat="37.5014465" lon="14.0337905"><ele>542.0</ele><time>2026-04-03T15:31:02.327Z</time></trkpt><trkpt lat="37.5013604" lon="14.0338534"><ele>542.0</ele><time>2026-04-03T15:31:03.327Z</time></trkpt><trkpt lat="37.5012748" lon="14.0339154"><ele>542.0</ele><time>2026-04-03T15:31:04.326Z</time></trkpt><trkpt lat="37.5011887" lon="14.0339769"><ele>542.0</ele><time>2026-04-03T15:31:05.327Z</time></trkpt><trkpt lat="37.5011043" lon="14.0340465"><ele>543.6</ele><time>2026-04-03T15:31:06.327Z</time></trkpt><trkpt lat="37.5010288" lon="14.0341331"><ele>545.2</ele><time>2026-04-03T15:31:07.327Z</time></trkpt><trkpt lat="37.5009696" lon="14.0342398"><ele>546.8</ele><time>2026-04-03T15:31:08.326Z</time></trkpt><trkpt lat="37.500928" lon="14.03436"><ele>548.4</ele><time>2026-04-03T15:31:09.327Z</time></trkpt><trkpt lat="37.5009007" lon="14.0344837"><ele>550.0</ele><time>2026-04-03T15:31:10.326Z</time></trkpt><trkpt lat="37.5008894" lon="14.0346077"><ele>550.0</ele><time>2026-04-03T15:31:11.327Z</time></trkpt><trkpt lat="37.5008924" lon="14.0347292"><ele>550.0</ele><time>2026-04-03T15:31:12.327Z</time></trkpt><trkpt lat="37.5008989" lon="14.0348459"><ele>550.0</ele><time>2026-04-03T15:31:13.327Z</time></trkpt><trkpt lat="37.5009095" lon="14.0349553"><ele>550.0</ele><time>2026-04-03T15:31:14.327Z</time></trkpt><trkpt lat="37.5009162" lon="14.0350616"><ele>550.0</ele><time>2026-04-03T15:31:15.327Z</time></trkpt><trkpt lat="37.5009252" lon="14.0351655"><ele>550.0</ele><time>2026-04-03T15:31:16.327Z</time></trkpt><trkpt lat="37.5009343" lon="14.0352654"><ele>551.1428571428571</ele><time>2026-04-03T15:31:17.327Z</time></trkpt><trkpt lat="37.5009415" lon="14.0353613"><ele>552.2857142857142</ele><time>2026-04-03T15:31:18.327Z</time></trkpt><trkpt lat="37.5009401" lon="14.0354426"><ele>553.4285714285713</ele><time>2026-04-03T15:31:19.327Z</time></trkpt><trkpt lat="37.5009341" lon="14.035528"><ele>554.5714285714286</ele><time>2026-04-03T15:31:20.327Z</time></trkpt><trkpt lat="37.5009221" lon="14.0356097"><ele>555.7142857142857</ele><time>2026-04-03T15:31:21.327Z</time></trkpt><trkpt lat="37.5008984" lon="14.0356894"><ele>556.8571428571428</ele><time>2026-04-03T15:31:22.327Z</time></trkpt><trkpt lat="37.5008627" lon="14.035763"><ele>558.0</ele><time>2026-04-03T15:31:23.327Z</time></trkpt><trkpt lat="37.5008207" lon="14.0358342"><ele>558.7142857142857</ele><time>2026-04-03T15:31:24.327Z</time></trkpt><trkpt lat="37.5007796" lon="14.0359072"><ele>559.4285714285714</ele><time>2026-04-03T15:31:25.327Z</time></trkpt><trkpt lat="37.5007363" lon="14.0359753"><ele>560.1428571428571</ele><time>2026-04-03T15:31:26.327Z</time></trkpt><trkpt lat="37.5006888" lon="14.0360414"><ele>560.8571428571429</ele><time>2026-04-03T15:31:27.327Z</time></trkpt><trkpt lat="37.500643" lon="14.0361111"><ele>561.5714285714286</ele><time>2026-04-03T15:31:28.327Z</time></trkpt><trkpt lat="37.5005988" lon="14.0361851"><ele>562.2857142857142</ele><time>2026-04-03T15:31:29.327Z</time></trkpt><trkpt lat="37.500554" lon="14.036257"><ele>563.0</ele><time>2026-04-03T15:31:30.327Z</time></trkpt><trkpt lat="37.5005129" lon="14.0363325"><ele>563.0</ele><time>2026-04-03T15:31:31.327Z</time></trkpt><trkpt lat="37.5004812" lon="14.0364165"><ele>563.0</ele><time>2026-04-03T15:31:32.327Z</time></trkpt><trkpt lat="37.5004523" lon="14.0365063"><ele>563.0</ele><time>2026-04-03T15:31:33.327Z</time></trkpt><trkpt lat="37.5004243" lon="14.0365974"><ele>563.0</ele><time>2026-04-03T15:31:34.327Z</time></trkpt><trkpt lat="37.5004016" lon="14.036692"><ele>563.0</ele><time>2026-04-03T15:31:35.326Z</time></trkpt><trkpt lat="37.5003854" lon="14.036788"><ele>563.0</ele><time>2026-04-03T15:31:36.327Z</time></trkpt><trkpt lat="37.5003719" lon="14.0368757"><ele>566.3333333333333</ele><time>2026-04-03T15:31:37.327Z</time></trkpt><trkpt lat="37.5003578" lon="14.0369628"><ele>569.6666666666666</ele><time>2026-04-03T15:31:38.327Z</time></trkpt><trkpt lat="37.5003412" lon="14.0370491"><ele>573.0</ele><time>2026-04-03T15:31:39.327Z</time></trkpt><trkpt lat="37.5003238" lon="14.0371335"><ele>576.3333333333334</ele><time>2026-04-03T15:31:40.327Z</time></trkpt><trkpt lat="37.5003072" lon="14.0372123"><ele>579.6666666666667</ele><time>2026-04-03T15:31:41.327Z</time></trkpt><trkpt lat="37.500262" lon="14.0373462"><ele>583.0</ele><time>2026-04-03T15:31:43.326Z</time></trkpt><trkpt lat="37.5001947" lon="14.037487"><ele>583.3333333333334</ele><time>2026-04-03T15:31:45.327Z</time></trkpt><trkpt lat="37.5001546" lon="14.0375631"><ele>583.6666666666667</ele><time>2026-04-03T15:31:46.327Z</time></trkpt><trkpt lat="37.5001118" lon="14.0376438"><ele>584.0</ele><time>2026-04-03T15:31:47.327Z</time></trkpt><trkpt lat="37.5000628" lon="14.0377249"><ele>584.3333333333334</ele><time>2026-04-03T15:31:48.326Z</time></trkpt><trkpt lat="37.5000184" lon="14.0378007"><ele>584.6666666666666</ele><time>2026-04-03T15:31:49.327Z</time></trkpt><trkpt lat="37.4999722" lon="14.0378826"><ele>585.0</ele><time>2026-04-03T15:31:50.327Z</time></trkpt><trkpt lat="37.4999252" lon="14.0379617"><ele>585.0</ele><time>2026-04-03T15:31:51.326Z</time></trkpt><trkpt lat="37.4998866" lon="14.0380506"><ele>585.0</ele><time>2026-04-03T15:31:52.327Z</time></trkpt><trkpt lat="37.4998622" lon="14.0381524"><ele>585.0</ele><time>2026-04-03T15:31:53.327Z</time></trkpt><trkpt lat="37.4998461" lon="14.0382608"><ele>585.0</ele><time>2026-04-03T15:31:54.327Z</time></trkpt><trkpt lat="37.4998322" lon="14.0383761"><ele>585.0</ele><time>2026-04-03T15:31:55.327Z</time></trkpt><trkpt lat="37.4998139" lon="14.0384952"><ele>585.0</ele><time>2026-04-03T15:31:56.326Z</time></trkpt><trkpt lat="37.4997904" lon="14.0386168"><ele>585.4</ele><time>2026-04-03T15:31:57.327Z</time></trkpt><trkpt lat="37.4997578" lon="14.0387373"><ele>585.8</ele><time>2026-04-03T15:31:58.327Z</time></trkpt><trkpt lat="37.4997169" lon="14.0388578"><ele>586.2</ele><time>2026-04-03T15:31:59.327Z</time></trkpt><trkpt lat="37.4996725" lon="14.0389764"><ele>586.6</ele><time>2026-04-03T15:32:00.327Z</time></trkpt><trkpt lat="37.4996317" lon="14.0390993"><ele>587.0</ele><time>2026-04-03T15:32:01.327Z</time></trkpt><trkpt lat="37.4995935" lon="14.039226"><ele>590.0</ele><time>2026-04-03T15:32:02.327Z</time></trkpt><trkpt lat="37.4995474" lon="14.0393511"><ele>593.0</ele><time>2026-04-03T15:32:03.327Z</time></trkpt><trkpt lat="37.4995009" lon="14.0394714"><ele>596.0</ele><time>2026-04-03T15:32:04.327Z</time></trkpt><trkpt lat="37.4994571" lon="14.0395915"><ele>599.0</ele><time>2026-04-03T15:32:05.327Z</time></trkpt><trkpt lat="37.4994163" lon="14.0397046"><ele>602.0</ele><time>2026-04-03T15:32:06.327Z</time></trkpt><trkpt lat="37.4993769" lon="14.0397996"><ele>602.0</ele><time>2026-04-03T15:32:07.327Z</time></trkpt><trkpt lat="37.4993162" lon="14.0399067"><ele>602.0</ele><time>2026-04-03T15:32:09.327Z</time></trkpt><trkpt lat="37.4992732" lon="14.0399775"><ele>602.0</ele><time>2026-04-03T15:32:11.327Z</time></trkpt><trkpt lat="37.4992363" lon="14.0400868"><ele>602.0</ele><time>2026-04-03T15:32:13.327Z</time></trkpt><trkpt lat="37.4992137" lon="14.0401667"><ele>602.0</ele><time>2026-04-03T15:32:14.327Z</time></trkpt><trkpt lat="37.4991839" lon="14.0402515"><ele>602.0</ele><time>2026-04-03T15:32:15.327Z</time></trkpt><trkpt lat="37.4991533" lon="14.0403428"><ele>601.4</ele><time>2026-04-03T15:32:16.327Z</time></trkpt><trkpt lat="37.4991244" lon="14.0404462"><ele>600.8000000000001</ele><time>2026-04-03T15:32:17.327Z</time></trkpt><trkpt lat="37.4990967" lon="14.0405606"><ele>600.2</ele><time>2026-04-03T15:32:18.327Z</time></trkpt><trkpt lat="37.4990699" lon="14.0406833"><ele>599.6</ele><time>2026-04-03T15:32:19.327Z</time></trkpt><trkpt lat="37.4990439" lon="14.0408101"><ele>599.0</ele><time>2026-04-03T15:32:20.327Z</time></trkpt><trkpt lat="37.4990224" lon="14.0409402"><ele>597.5</ele><time>2026-04-03T15:32:21.327Z</time></trkpt><trkpt lat="37.4990026" lon="14.0410786"><ele>596.0</ele><time>2026-04-03T15:32:22.327Z</time></trkpt><trkpt lat="37.4989816" lon="14.0412207"><ele>594.5</ele><time>2026-04-03T15:32:23.327Z</time></trkpt><trkpt lat="37.4989601" lon="14.0413687"><ele>593.0</ele><time>2026-04-03T15:32:24.327Z</time></trkpt><trkpt lat="37.4989355" lon="14.0415209"><ele>592.25</ele><time>2026-04-03T15:32:25.327Z</time></trkpt><trkpt lat="37.4989114" lon="14.0416719"><ele>591.5</ele><time>2026-04-03T15:32:26.327Z</time></trkpt><trkpt lat="37.4988883" lon="14.0418185"><ele>590.75</ele><time>2026-04-03T15:32:27.327Z</time></trkpt><trkpt lat="37.498867" lon="14.0419636"><ele>590.0</ele><time>2026-04-03T15:32:28.327Z</time></trkpt><trkpt lat="37.4988439" lon="14.0421102"><ele>590.0</ele><time>2026-04-03T15:32:29.327Z</time></trkpt><trkpt lat="37.4988221" lon="14.0422592"><ele>590.0</ele><time>2026-04-03T15:32:30.327Z</time></trkpt><trkpt lat="37.4988042" lon="14.0424114"><ele>590.0</ele><time>2026-04-03T15:32:31.327Z</time></trkpt><trkpt lat="37.498787" lon="14.0425649"><ele>590.0</ele><time>2026-04-03T15:32:32.327Z</time></trkpt><trkpt lat="37.4987663" lon="14.042718"><ele>590.0</ele><time>2026-04-03T15:32:33.327Z</time></trkpt><trkpt lat="37.4987442" lon="14.0428688"><ele>590.0</ele><time>2026-04-03T15:32:34.327Z</time></trkpt><trkpt lat="37.4987262" lon="14.0430169"><ele>590.0</ele><time>2026-04-03T15:32:35.327Z</time></trkpt><trkpt lat="37.4987082" lon="14.0431625"><ele>590.0</ele><time>2026-04-03T15:32:36.327Z</time></trkpt><trkpt lat="37.4986872" lon="14.0433035"><ele>590.5</ele><time>2026-04-03T15:32:37.327Z</time></trkpt><trkpt lat="37.498665" lon="14.0434441"><ele>591.0</ele><time>2026-04-03T15:32:38.327Z</time></trkpt><trkpt lat="37.4986384" lon="14.0435842"><ele>591.5</ele><time>2026-04-03T15:32:39.327Z</time></trkpt><trkpt lat="37.4986036" lon="14.043723"><ele>592.0</ele><time>2026-04-03T15:32:40.327Z</time></trkpt><trkpt lat="37.4985577" lon="14.0438609"><ele>592.0</ele><time>2026-04-03T15:32:41.327Z</time></trkpt><trkpt lat="37.4985111" lon="14.0440064"><ele>592.0</ele><time>2026-04-03T15:32:42.327Z</time></trkpt><trkpt lat="37.4984688" lon="14.044155"><ele>592.0</ele><time>2026-04-03T15:32:43.327Z</time></trkpt><trkpt lat="37.4984269" lon="14.0443011"><ele>592.0</ele><time>2026-04-03T15:32:44.327Z</time></trkpt><trkpt lat="37.4983846" lon="14.0444436"><ele>591.75</ele><time>2026-04-03T15:32:45.326Z</time></trkpt><trkpt lat="37.4983447" lon="14.0445811"><ele>591.5</ele><time>2026-04-03T15:32:46.327Z</time></trkpt><trkpt lat="37.4983044" lon="14.0447175"><ele>591.25</ele><time>2026-04-03T15:32:47.327Z</time></trkpt><trkpt lat="37.4982611" lon="14.0448533"><ele>591.0</ele><time>2026-04-03T15:32:48.327Z</time></trkpt><trkpt lat="37.498213" lon="14.0449835"><ele>590.8</ele><time>2026-04-03T15:32:49.327Z</time></trkpt><trkpt lat="37.4981621" lon="14.045107"><ele>590.6</ele><time>2026-04-03T15:32:50.326Z</time></trkpt><trkpt lat="37.4981094" lon="14.0452259"><ele>590.4</ele><time>2026-04-03T15:32:51.327Z</time></trkpt><trkpt lat="37.4980509" lon="14.0453442"><ele>590.2</ele><time>2026-04-03T15:32:52.327Z</time></trkpt><trkpt lat="37.4979909" lon="14.045462"><ele>590.0</ele><time>2026-04-03T15:32:53.327Z</time></trkpt><trkpt lat="37.4979314" lon="14.0455821"><ele>590.5</ele><time>2026-04-03T15:32:54.327Z</time></trkpt><trkpt lat="37.4978714" lon="14.045703"><ele>591.0</ele><time>2026-04-03T15:32:55.327Z</time></trkpt><trkpt lat="37.4978119" lon="14.0458258"><ele>591.5</ele><time>2026-04-03T15:32:56.327Z</time></trkpt><trkpt lat="37.4977518" lon="14.0459495"><ele>592.0</ele><time>2026-04-03T15:32:57.327Z</time></trkpt><trkpt lat="37.4976906" lon="14.0460725"><ele>592.0</ele><time>2026-04-03T15:32:58.327Z</time></trkpt><trkpt lat="37.4976363" lon="14.0462016"><ele>592.0</ele><time>2026-04-03T15:32:59.327Z</time></trkpt><trkpt lat="37.497576" lon="14.0463249"><ele>592.0</ele><time>2026-04-03T15:33:00.327Z</time></trkpt><trkpt lat="37.497515" lon="14.0464475"><ele>592.0</ele><time>2026-04-03T15:33:01.327Z</time></trkpt><trkpt lat="37.4974632" lon="14.0465733"><ele>592.6</ele><time>2026-04-03T15:33:02.327Z</time></trkpt><trkpt lat="37.497408" lon="14.0466953"><ele>593.2</ele><time>2026-04-03T15:33:03.326Z</time></trkpt><trkpt lat="37.4973446" lon="14.0468054"><ele>593.8</ele><time>2026-04-03T15:33:04.327Z</time></trkpt><trkpt lat="37.4972826" lon="14.0469124"><ele>594.4</ele><time>2026-04-03T15:33:05.326Z</time></trkpt><trkpt lat="37.4972244" lon="14.0470187"><ele>595.0</ele><time>2026-04-03T15:33:06.327Z</time></trkpt><trkpt lat="37.4971674" lon="14.0471204"><ele>595.0</ele><time>2026-04-03T15:33:07.327Z</time></trkpt><trkpt lat="37.4971149" lon="14.0472139"><ele>595.0</ele><time>2026-04-03T15:33:08.327Z</time></trkpt><trkpt lat="37.4970645" lon="14.0473047"><ele>595.0</ele><time>2026-04-03T15:33:09.327Z</time></trkpt><trkpt lat="37.4970129" lon="14.0473948"><ele>595.0</ele><time>2026-04-03T15:33:10.327Z</time></trkpt><trkpt lat="37.4969618" lon="14.0474851"><ele>595.0</ele><time>2026-04-03T15:33:11.327Z</time></trkpt><trkpt lat="37.4969123" lon="14.0475769"><ele>595.0</ele><time>2026-04-03T15:33:12.327Z</time></trkpt><trkpt lat="37.4968637" lon="14.047668"><ele>597.3333333333334</ele><time>2026-04-03T15:33:13.327Z</time></trkpt><trkpt lat="37.4968135" lon="14.0477559"><ele>599.6666666666667</ele><time>2026-04-03T15:33:14.327Z</time></trkpt><trkpt lat="37.4967639" lon="14.0478418"><ele>602.0</ele><time>2026-04-03T15:33:15.327Z</time></trkpt><trkpt lat="37.496718" lon="14.0479249"><ele>604.3333333333334</ele><time>2026-04-03T15:33:16.327Z</time></trkpt><trkpt lat="37.4966767" lon="14.048003"><ele>606.6666666666666</ele><time>2026-04-03T15:33:17.327Z</time></trkpt><trkpt lat="37.4966407" lon="14.0480721"><ele>609.0</ele><time>2026-04-03T15:33:18.327Z</time></trkpt><trkpt lat="37.4965778" lon="14.0481814"><ele>609.0</ele><time>2026-04-03T15:33:20.327Z</time></trkpt><trkpt lat="37.4965222" lon="14.0482525"><ele>609.0</ele><time>2026-04-03T15:33:22.327Z</time></trkpt><trkpt lat="37.4964438" lon="14.0483043"><ele>609.0</ele><time>2026-04-03T15:33:24.327Z</time></trkpt><trkpt lat="37.4963353" lon="14.0483424"><ele>609.0</ele><time>2026-04-03T15:33:26.327Z</time></trkpt><trkpt lat="37.496278" lon="14.0483761"><ele>609.0</ele><time>2026-04-03T15:33:27.327Z</time></trkpt><trkpt lat="37.4962242" lon="14.0485037"><ele>609.0</ele><time>2026-04-03T15:33:29.326Z</time></trkpt><trkpt lat="37.4962663" lon="14.0486541"><ele>609.0</ele><time>2026-04-03T15:33:31.327Z</time></trkpt><trkpt lat="37.496295" lon="14.0487349"><ele>609.0</ele><time>2026-04-03T15:33:32.327Z</time></trkpt><trkpt lat="37.496319" lon="14.0488188"><ele>609.0</ele><time>2026-04-03T15:33:33.327Z</time></trkpt><trkpt lat="37.4963349" lon="14.0489121"><ele>609.0</ele><time>2026-04-03T15:33:34.327Z</time></trkpt><trkpt lat="37.496338" lon="14.0490135"><ele>609.0</ele><time>2026-04-03T15:33:35.327Z</time></trkpt><trkpt lat="37.4963347" lon="14.0491217"><ele>609.6666666666666</ele><time>2026-04-03T15:33:36.327Z</time></trkpt><trkpt lat="37.4963312" lon="14.0492333"><ele>610.3333333333334</ele><time>2026-04-03T15:33:37.327Z</time></trkpt><trkpt lat="37.4963254" lon="14.049347"><ele>611.0</ele><time>2026-04-03T15:33:38.327Z</time></trkpt><trkpt lat="37.4963124" lon="14.049459"><ele>611.6666666666667</ele><time>2026-04-03T15:33:39.327Z</time></trkpt><trkpt lat="37.4962951" lon="14.0495658"><ele>612.3333333333334</ele><time>2026-04-03T15:33:40.327Z</time></trkpt><trkpt lat="37.4962771" lon="14.0496645"><ele>613.0</ele><time>2026-04-03T15:33:41.327Z</time></trkpt><trkpt lat="37.4962553" lon="14.0497562"><ele>612.1666666666667</ele><time>2026-04-03T15:33:42.327Z</time></trkpt><trkpt lat="37.4962402" lon="14.0498519"><ele>611.3333333333334</ele><time>2026-04-03T15:33:43.327Z</time></trkpt><trkpt lat="37.4962451" lon="14.0499505"><ele>610.5</ele><time>2026-04-03T15:33:44.327Z</time></trkpt><trkpt lat="37.4962734" lon="14.050045"><ele>609.6666666666666</ele><time>2026-04-03T15:33:45.327Z</time></trkpt><trkpt lat="37.4963147" lon="14.0501362"><ele>608.8333333333333</ele><time>2026-04-03T15:33:46.327Z</time></trkpt><trkpt lat="37.4963571" lon="14.0502301"><ele>608.0</ele><time>2026-04-03T15:33:47.326Z</time></trkpt><trkpt lat="37.4963945" lon="14.050329"><ele>609.8333333333333</ele><time>2026-04-03T15:33:48.327Z</time></trkpt><trkpt lat="37.4964239" lon="14.0504329"><ele>611.6666666666666</ele><time>2026-04-03T15:33:49.327Z</time></trkpt><trkpt lat="37.496452" lon="14.0505396"><ele>613.5</ele><time>2026-04-03T15:33:50.327Z</time></trkpt><trkpt lat="37.4964824" lon="14.0506461"><ele>615.3333333333334</ele><time>2026-04-03T15:33:51.327Z</time></trkpt><trkpt lat="37.4965162" lon="14.05075"><ele>617.1666666666667</ele><time>2026-04-03T15:33:52.327Z</time></trkpt><trkpt lat="37.496552" lon="14.0508545"><ele>619.0</ele><time>2026-04-03T15:33:53.327Z</time></trkpt><trkpt lat="37.4965897" lon="14.0509582"><ele>619.2</ele><time>2026-04-03T15:33:54.327Z</time></trkpt><trkpt lat="37.4966228" lon="14.0510646"><ele>619.4</ele><time>2026-04-03T15:33:55.327Z</time></trkpt><trkpt lat="37.4966567" lon="14.0511713"><ele>619.6</ele><time>2026-04-03T15:33:56.327Z</time></trkpt><trkpt lat="37.4966906" lon="14.0512769"><ele>619.8</ele><time>2026-04-03T15:33:57.327Z</time></trkpt><trkpt lat="37.4967207" lon="14.0513849"><ele>620.0</ele><time>2026-04-03T15:33:58.327Z</time></trkpt><trkpt lat="37.4967526" lon="14.0514938"><ele>620.0</ele><time>2026-04-03T15:33:59.327Z</time></trkpt><trkpt lat="37.4967841" lon="14.0516026"><ele>620.0</ele><time>2026-04-03T15:34:00.327Z</time></trkpt><trkpt lat="37.4968118" lon="14.051714"><ele>620.0</ele><time>2026-04-03T15:34:01.327Z</time></trkpt><trkpt lat="37.4968415" lon="14.0518253"><ele>620.0</ele><time>2026-04-03T15:34:02.327Z</time></trkpt><trkpt lat="37.4968769" lon="14.051934"><ele>620.0</ele><time>2026-04-03T15:34:03.327Z</time></trkpt><trkpt lat="37.4969151" lon="14.0520399"><ele>620.0</ele><time>2026-04-03T15:34:04.327Z</time></trkpt><trkpt lat="37.4969525" lon="14.0521463"><ele>620.0</ele><time>2026-04-03T15:34:05.327Z</time></trkpt><trkpt lat="37.4969901" lon="14.0522544"><ele>620.0</ele><time>2026-04-03T15:34:06.327Z</time></trkpt><trkpt lat="37.4970281" lon="14.0523621"><ele>620.0</ele><time>2026-04-03T15:34:07.327Z</time></trkpt><trkpt lat="37.4970674" lon="14.0524701"><ele>620.0</ele><time>2026-04-03T15:34:08.327Z</time></trkpt><trkpt lat="37.4971058" lon="14.0525789"><ele>622.2</ele><time>2026-04-03T15:34:09.327Z</time></trkpt><trkpt lat="37.4971408" lon="14.0526904"><ele>624.4</ele><time>2026-04-03T15:34:10.327Z</time></trkpt><trkpt lat="37.4971764" lon="14.0528021"><ele>626.6</ele><time>2026-04-03T15:34:11.327Z</time></trkpt><trkpt lat="37.4972156" lon="14.0529125"><ele>628.8</ele><time>2026-04-03T15:34:12.327Z</time></trkpt><trkpt lat="37.497252" lon="14.0530237"><ele>631.0</ele><time>2026-04-03T15:34:13.327Z</time></trkpt><trkpt lat="37.4972873" lon="14.0531355"><ele>631.0</ele><time>2026-04-03T15:34:14.327Z</time></trkpt><trkpt lat="37.4973209" lon="14.0532472"><ele>631.0</ele><time>2026-04-03T15:34:15.327Z</time></trkpt><trkpt lat="37.4973535" lon="14.0533555"><ele>631.0</ele><time>2026-04-03T15:34:16.327Z</time></trkpt><trkpt lat="37.497389" lon="14.0534605"><ele>631.0</ele><time>2026-04-03T15:34:17.327Z</time></trkpt><trkpt lat="37.4974224" lon="14.0535642"><ele>631.0</ele><time>2026-04-03T15:34:18.327Z</time></trkpt><trkpt lat="37.4974539" lon="14.053669"><ele>631.3333333333334</ele><time>2026-04-03T15:34:19.327Z</time></trkpt><trkpt lat="37.4974939" lon="14.0537686"><ele>631.6666666666667</ele><time>2026-04-03T15:34:20.327Z</time></trkpt><trkpt lat="37.4975475" lon="14.0538498"><ele>632.0</ele><time>2026-04-03T15:34:21.327Z</time></trkpt><trkpt lat="37.4976027" lon="14.0539137"><ele>632.3333333333334</ele><time>2026-04-03T15:34:22.327Z</time></trkpt><trkpt lat="37.4976479" lon="14.053976"><ele>632.6666666666666</ele><time>2026-04-03T15:34:23.327Z</time></trkpt><trkpt lat="37.497694" lon="14.0541156"><ele>633.0</ele><time>2026-04-03T15:34:25.327Z</time></trkpt><trkpt lat="37.4976621" lon="14.0542399"><ele>633.1999999999999</ele><time>2026-04-03T15:34:27.327Z</time></trkpt><trkpt lat="37.4976441" lon="14.0543838"><ele>633.4</ele><time>2026-04-03T15:34:29.327Z</time></trkpt><trkpt lat="37.497622" lon="14.0545314"><ele>633.5999999999999</ele><time>2026-04-03T15:34:31.327Z</time></trkpt><trkpt lat="37.4976032" lon="14.054659"><ele>633.8</ele><time>2026-04-03T15:34:33.326Z</time></trkpt><trkpt lat="37.4975838" lon="14.0547707"><ele>634.0</ele><time>2026-04-03T15:34:35.327Z</time></trkpt><trkpt lat="37.4975625" lon="14.0548724"><ele>633.3333333333334</ele><time>2026-04-03T15:34:38.327Z</time></trkpt><trkpt lat="37.4975394" lon="14.0549734"><ele>632.6666666666667</ele><time>2026-04-03T15:34:42.327Z</time></trkpt><trkpt lat="37.4975201" lon="14.0550726"><ele>632.0</ele><time>2026-04-03T15:34:51.327Z</time></trkpt><trkpt lat="37.4975034" lon="14.0551723"><ele>631.3333333333334</ele><time>2026-04-03T15:34:53.327Z</time></trkpt><trkpt lat="37.4974863" lon="14.0552887"><ele>630.6666666666666</ele><time>2026-04-03T15:34:55.326Z</time></trkpt><trkpt lat="37.4974596" lon="14.0554171"><ele>630.0</ele><time>2026-04-03T15:34:57.327Z</time></trkpt><trkpt lat="37.4974066" lon="14.0555417"><ele>630.0</ele><time>2026-04-03T15:34:59.327Z</time></trkpt><trkpt lat="37.4973578" lon="14.0556779"><ele>630.0</ele><time>2026-04-03T15:35:01.327Z</time></trkpt><trkpt lat="37.4973178" lon="14.0558135"><ele>630.0</ele><time>2026-04-03T15:35:03.327Z</time></trkpt><trkpt lat="37.4972724" lon="14.0559491"><ele>630.0</ele><time>2026-04-03T15:35:05.327Z</time></trkpt><trkpt lat="37.4972531" lon="14.0560251"><ele>630.0</ele><time>2026-04-03T15:35:06.327Z</time></trkpt><trkpt lat="37.4972396" lon="14.0561036"><ele>630.4285714285714</ele><time>2026-04-03T15:35:07.327Z</time></trkpt><trkpt lat="37.4972252" lon="14.0561865"><ele>630.8571428571429</ele><time>2026-04-03T15:35:08.327Z</time></trkpt><trkpt lat="37.4972115" lon="14.0562721"><ele>631.2857142857142</ele><time>2026-04-03T15:35:09.326Z</time></trkpt><trkpt lat="37.4971972" lon="14.0563612"><ele>631.7142857142858</ele><time>2026-04-03T15:35:10.327Z</time></trkpt><trkpt lat="37.4971827" lon="14.056453"><ele>632.1428571428571</ele><time>2026-04-03T15:35:11.327Z</time></trkpt><trkpt lat="37.4971681" lon="14.0565425"><ele>632.5714285714286</ele><time>2026-04-03T15:35:12.327Z</time></trkpt><trkpt lat="37.4971512" lon="14.0566323"><ele>633.0</ele><time>2026-04-03T15:35:13.327Z</time></trkpt><trkpt lat="37.4971295" lon="14.056722"><ele>633.5</ele><time>2026-04-03T15:35:14.327Z</time></trkpt><trkpt lat="37.4970973" lon="14.0568095"><ele>634.0</ele><time>2026-04-03T15:35:15.327Z</time></trkpt><trkpt lat="37.4970546" lon="14.0568918"><ele>634.5</ele><time>2026-04-03T15:35:16.327Z</time></trkpt><trkpt lat="37.4970006" lon="14.0569682"><ele>635.0</ele><time>2026-04-03T15:35:17.326Z</time></trkpt><trkpt lat="37.4969453" lon="14.0570425"><ele>635.5</ele><time>2026-04-03T15:35:18.327Z</time></trkpt><trkpt lat="37.4968846" lon="14.0571164"><ele>636.0</ele><time>2026-04-03T15:35:19.327Z</time></trkpt><trkpt lat="37.4968234" lon="14.057191"><ele>634.1666666666666</ele><time>2026-04-03T15:35:20.327Z</time></trkpt><trkpt lat="37.4967648" lon="14.0572596"><ele>632.3333333333334</ele><time>2026-04-03T15:35:21.327Z</time></trkpt><trkpt lat="37.4967083" lon="14.0573262"><ele>630.5</ele><time>2026-04-03T15:35:22.327Z</time></trkpt><trkpt lat="37.4966505" lon="14.057393"><ele>628.6666666666667</ele><time>2026-04-03T15:35:23.327Z</time></trkpt><trkpt lat="37.4965929" lon="14.0574614"><ele>626.8333333333334</ele><time>2026-04-03T15:35:24.327Z</time></trkpt><trkpt lat="37.4965333" lon="14.0575337"><ele>625.0</ele><time>2026-04-03T15:35:25.327Z</time></trkpt><trkpt lat="37.4964742" lon="14.0576036"><ele>625.0</ele><time>2026-04-03T15:35:26.327Z</time></trkpt><trkpt lat="37.4964107" lon="14.0576703"><ele>625.0</ele><time>2026-04-03T15:35:27.326Z</time></trkpt><trkpt lat="37.496347" lon="14.057729"><ele>625.0</ele><time>2026-04-03T15:35:28.327Z</time></trkpt><trkpt lat="37.4962865" lon="14.0577728"><ele>625.0</ele><time>2026-04-03T15:35:29.326Z</time></trkpt><trkpt lat="37.4962275" lon="14.0578076"><ele>625.0</ele><time>2026-04-03T15:35:30.327Z</time></trkpt><trkpt lat="37.4961218" lon="14.0578654"><ele>625.0</ele><time>2026-04-03T15:35:32.327Z</time></trkpt><trkpt lat="37.4960161" lon="14.05788"><ele>623.0</ele><time>2026-04-03T15:35:34.327Z</time></trkpt><trkpt lat="37.4959121" lon="14.0578441"><ele>621.0</ele><time>2026-04-03T15:35:36.327Z</time></trkpt><trkpt lat="37.4958061" lon="14.0578001"><ele>619.0</ele><time>2026-04-03T15:35:38.327Z</time></trkpt><trkpt lat="37.4957231" lon="14.0577125"><ele>617.0</ele><time>2026-04-03T15:35:40.327Z</time></trkpt><trkpt lat="37.4956934" lon="14.0575615"><ele>617.0</ele><time>2026-04-03T15:35:42.327Z</time></trkpt><trkpt lat="37.495696" lon="14.0574781"><ele>617.0</ele><time>2026-04-03T15:35:43.327Z</time></trkpt><trkpt lat="37.4956965" lon="14.0573934"><ele>617.0</ele><time>2026-04-03T15:35:44.327Z</time></trkpt><trkpt lat="37.4957045" lon="14.0572555"><ele>617.0</ele><time>2026-04-03T15:35:46.327Z</time></trkpt><trkpt lat="37.4957084" lon="14.0571687"><ele>617.0</ele><time>2026-04-03T15:35:49.327Z</time></trkpt><trkpt lat="37.4957006" lon="14.0570808"><ele>617.0</ele><time>2026-04-03T15:35:51.327Z</time></trkpt><trkpt lat="37.4956395" lon="14.0570096"><ele>617.0</ele><time>2026-04-03T15:35:53.327Z</time></trkpt><trkpt lat="37.495576" lon="14.0570692"><ele>617.0</ele><time>2026-04-03T15:35:55.326Z</time></trkpt><trkpt lat="37.4956009" lon="14.0571656"><ele>617.0</ele><time>2026-04-03T15:35:57.327Z</time></trkpt><trkpt lat="37.4956444" lon="14.0572812"><ele>617.0</ele><time>2026-04-03T15:35:59.327Z</time></trkpt><trkpt lat="37.4956508" lon="14.0574105"><ele>617.0</ele><time>2026-04-03T15:36:01.327Z</time></trkpt><trkpt lat="37.4956533" lon="14.0575556"><ele>617.0</ele><time>2026-04-03T15:36:03.327Z</time></trkpt><trkpt lat="37.4956584" lon="14.0576348"><ele>617.0</ele><time>2026-04-03T15:36:04.327Z</time></trkpt><trkpt lat="37.4956718" lon="14.0577164"><ele>617.0</ele><time>2026-04-03T15:36:05.327Z</time></trkpt><trkpt lat="37.4956939" lon="14.0577953"><ele>617.0</ele><time>2026-04-03T15:36:06.327Z</time></trkpt><trkpt lat="37.4957202" lon="14.0578722"><ele>617.0</ele><time>2026-04-03T15:36:07.327Z</time></trkpt><trkpt lat="37.4957483" lon="14.0579515"><ele>617.0</ele><time>2026-04-03T15:36:08.327Z</time></trkpt><trkpt lat="37.4957794" lon="14.05803"><ele>617.0</ele><time>2026-04-03T15:36:09.327Z</time></trkpt><trkpt lat="37.4958132" lon="14.058104"><ele>617.0</ele><time>2026-04-03T15:36:10.327Z</time></trkpt><trkpt lat="37.4958516" lon="14.058181"><ele>617.0</ele><time>2026-04-03T15:36:11.327Z</time></trkpt><trkpt lat="37.4958936" lon="14.0582645"><ele>617.0</ele><time>2026-04-03T15:36:12.327Z</time></trkpt><trkpt lat="37.4959363" lon="14.0583526"><ele>617.0</ele><time>2026-04-03T15:36:13.327Z</time></trkpt><trkpt lat="37.4959798" lon="14.0584438"><ele>617.0</ele><time>2026-04-03T15:36:14.327Z</time></trkpt><trkpt lat="37.4960217" lon="14.0585343"><ele>617.0</ele><time>2026-04-03T15:36:15.327Z</time></trkpt><trkpt lat="37.496063" lon="14.0586272"><ele>616.6</ele><time>2026-04-03T15:36:16.327Z</time></trkpt><trkpt lat="37.4961277" lon="14.0587677"><ele>616.2</ele><time>2026-04-03T15:36:17.857Z</time></trkpt><trkpt lat="37.4961869" lon="14.058905"><ele>615.8</ele><time>2026-04-03T15:36:19.328Z</time></trkpt><trkpt lat="37.4962321" lon="14.0589956"><ele>615.4</ele><time>2026-04-03T15:36:20.328Z</time></trkpt><trkpt lat="37.4962728" lon="14.0590892"><ele>615.0</ele><time>2026-04-03T15:36:21.328Z</time></trkpt><trkpt lat="37.4963159" lon="14.0591775"><ele>615.6666666666666</ele><time>2026-04-03T15:36:22.327Z</time></trkpt><trkpt lat="37.4963613" lon="14.0592649"><ele>616.3333333333334</ele><time>2026-04-03T15:36:23.328Z</time></trkpt><trkpt lat="37.4964056" lon="14.059347"><ele>617.0</ele><time>2026-04-03T15:36:24.328Z</time></trkpt><trkpt lat="37.4964501" lon="14.0594325"><ele>617.6666666666667</ele><time>2026-04-03T15:36:25.328Z</time></trkpt><trkpt lat="37.4964937" lon="14.0595215"><ele>618.3333333333334</ele><time>2026-04-03T15:36:26.328Z</time></trkpt><trkpt lat="37.4965334" lon="14.0596123"><ele>619.0</ele><time>2026-04-03T15:36:27.328Z</time></trkpt><trkpt lat="37.4965739" lon="14.0596998"><ele>619.0</ele><time>2026-04-03T15:36:28.328Z</time></trkpt><trkpt lat="37.4966141" lon="14.0597848"><ele>619.0</ele><time>2026-04-03T15:36:29.328Z</time></trkpt><trkpt lat="37.4966549" lon="14.0598722"><ele>619.0</ele><time>2026-04-03T15:36:30.328Z</time></trkpt><trkpt lat="37.4966937" lon="14.0599661"><ele>619.0</ele><time>2026-04-03T15:36:31.327Z</time></trkpt><trkpt lat="37.4967249" lon="14.0600634"><ele>619.0</ele><time>2026-04-03T15:36:32.328Z</time></trkpt><trkpt lat="37.4967485" lon="14.0601659"><ele>619.0</ele><time>2026-04-03T15:36:33.328Z</time></trkpt><trkpt lat="37.4967647" lon="14.0602697"><ele>618.5</ele><time>2026-04-03T15:36:34.328Z</time></trkpt><trkpt lat="37.4967779" lon="14.0603737"><ele>618.0</ele><time>2026-04-03T15:36:35.328Z</time></trkpt><trkpt lat="37.49679" lon="14.0604778"><ele>617.5</ele><time>2026-04-03T15:36:36.328Z</time></trkpt><trkpt lat="37.4967999" lon="14.0605775"><ele>617.0</ele><time>2026-04-03T15:36:37.328Z</time></trkpt><trkpt lat="37.4968057" lon="14.060675"><ele>616.5</ele><time>2026-04-03T15:36:38.328Z</time></trkpt><trkpt lat="37.4968086" lon="14.0607732"><ele>616.0</ele><time>2026-04-03T15:36:39.327Z</time></trkpt><trkpt lat="37.4968137" lon="14.0608733"><ele>615.3333333333334</ele><time>2026-04-03T15:36:40.328Z</time></trkpt><trkpt lat="37.4968221" lon="14.0609741"><ele>614.6666666666667</ele><time>2026-04-03T15:36:41.328Z</time></trkpt><trkpt lat="37.496832" lon="14.0610759"><ele>614.0</ele><time>2026-04-03T15:36:42.328Z</time></trkpt><trkpt lat="37.4968384" lon="14.0611768"><ele>613.3333333333334</ele><time>2026-04-03T15:36:43.328Z</time></trkpt><trkpt lat="37.4968449" lon="14.0612749"><ele>612.6666666666666</ele><time>2026-04-03T15:36:44.328Z</time></trkpt><trkpt lat="37.4968515" lon="14.0613665"><ele>612.0</ele><time>2026-04-03T15:36:45.328Z</time></trkpt><trkpt lat="37.4968567" lon="14.0614572"><ele>612.0</ele><time>2026-04-03T15:36:46.328Z</time></trkpt><trkpt lat="37.4968577" lon="14.0615424"><ele>612.0</ele><time>2026-04-03T15:36:47.328Z</time></trkpt><trkpt lat="37.4968268" lon="14.0616931"><ele>612.0</ele><time>2026-04-03T15:36:49.328Z</time></trkpt><trkpt lat="37.4967422" lon="14.0618183"><ele>612.0</ele><time>2026-04-03T15:36:51.328Z</time></trkpt><trkpt lat="37.496693" lon="14.0618708"><ele>612.0</ele><time>2026-04-03T15:36:52.328Z</time></trkpt><trkpt lat="37.4966385" lon="14.0619171"><ele>612.0</ele><time>2026-04-03T15:36:53.327Z</time></trkpt><trkpt lat="37.4965788" lon="14.0619514"><ele>612.0</ele><time>2026-04-03T15:36:54.328Z</time></trkpt><trkpt lat="37.496514" lon="14.0619692"><ele>612.0</ele><time>2026-04-03T15:36:55.328Z</time></trkpt><trkpt lat="37.4963945" lon="14.061957"><ele>612.0</ele><time>2026-04-03T15:36:57.328Z</time></trkpt><trkpt lat="37.4962883" lon="14.0619181"><ele>612.0</ele><time>2026-04-03T15:36:59.328Z</time></trkpt><trkpt lat="37.4961754" lon="14.0618631"><ele>612.0</ele><time>2026-04-03T15:37:01.327Z</time></trkpt><trkpt lat="37.4960691" lon="14.0618056"><ele>612.0</ele><time>2026-04-03T15:37:03.328Z</time></trkpt><trkpt lat="37.4959811" lon="14.0617594"><ele>612.0</ele><time>2026-04-03T15:37:05.328Z</time></trkpt><trkpt lat="37.4958992" lon="14.06172"><ele>612.0</ele><time>2026-04-03T15:37:07.328Z</time></trkpt><trkpt lat="37.4958177" lon="14.0616767"><ele>612.0</ele><time>2026-04-03T15:37:09.328Z</time></trkpt><trkpt lat="37.4957163" lon="14.0616264"><ele>610.0</ele><time>2026-04-03T15:37:11.328Z</time></trkpt><trkpt lat="37.4956098" lon="14.0615619"><ele>608.0</ele><time>2026-04-03T15:37:13.328Z</time></trkpt><trkpt lat="37.4955023" lon="14.0615074"><ele>606.0</ele><time>2026-04-03T15:37:15.328Z</time></trkpt><trkpt lat="37.4953953" lon="14.0614692"><ele>604.0</ele><time>2026-04-03T15:37:17.328Z</time></trkpt><trkpt lat="37.4952881" lon="14.0614221"><ele>603.4</ele><time>2026-04-03T15:37:19.328Z</time></trkpt><trkpt lat="37.495181" lon="14.0613915"><ele>602.8</ele><time>2026-04-03T15:37:21.328Z</time></trkpt><trkpt lat="37.4950718" lon="14.0614051"><ele>602.2</ele><time>2026-04-03T15:37:23.328Z</time></trkpt><trkpt lat="37.4949698" lon="14.0614313"><ele>601.6</ele><time>2026-04-03T15:37:25.328Z</time></trkpt><trkpt lat="37.4948795" lon="14.0614745"><ele>601.0</ele><time>2026-04-03T15:37:27.328Z</time></trkpt><trkpt lat="37.4947983" lon="14.0615276"><ele>601.0</ele><time>2026-04-03T15:37:29.328Z</time></trkpt><trkpt lat="37.494734" lon="14.0615909"><ele>601.0</ele><time>2026-04-03T15:37:31.328Z</time></trkpt><trkpt lat="37.4946933" lon="14.0616595"><ele>601.0</ele><time>2026-04-03T15:37:33.328Z</time></trkpt><trkpt lat="37.4946393" lon="14.0617503"><ele>601.0</ele><time>2026-04-03T15:37:36.328Z</time></trkpt><trkpt lat="37.4945806" lon="14.0618176"><ele>601.0</ele><time>2026-04-03T15:37:38.328Z</time></trkpt><trkpt lat="37.4944898" lon="14.0618337"><ele>601.0</ele><time>2026-04-03T15:37:40.328Z</time></trkpt><trkpt lat="37.4944022" lon="14.0618153"><ele>602.0</ele><time>2026-04-03T15:37:42.327Z</time></trkpt><trkpt lat="37.494337" lon="14.0618019"><ele>603.0</ele><time>2026-04-03T15:37:45.328Z</time></trkpt><trkpt lat="37.4942413" lon="14.0618193"><ele>604.0</ele><time>2026-04-03T15:37:53.327Z</time></trkpt><trkpt lat="37.4941646" lon="14.0618468"><ele>605.0</ele><time>2026-04-03T15:37:55.328Z</time></trkpt><trkpt lat="37.4940868" lon="14.0618874"><ele>606.0</ele><time>2026-04-03T15:37:57.328Z</time></trkpt><trkpt lat="37.4940152" lon="14.0619584"><ele>607.0</ele><time>2026-04-03T15:37:59.328Z</time></trkpt><trkpt lat="37.4939408" lon="14.0620327"><ele>607.0</ele><time>2026-04-03T15:38:01.327Z</time></trkpt><trkpt lat="37.4938512" lon="14.0620902"><ele>607.0</ele><time>2026-04-03T15:38:03.328Z</time></trkpt><trkpt lat="37.4937642" lon="14.0621435"><ele>607.0</ele><time>2026-04-03T15:38:05.328Z</time></trkpt><trkpt lat="37.4936957" lon="14.0621902"><ele>607.0</ele><time>2026-04-03T15:38:07.328Z</time></trkpt><trkpt lat="37.4936412" lon="14.0622309"><ele>607.0</ele><time>2026-04-03T15:38:09.328Z</time></trkpt><trkpt lat="37.4935985" lon="14.062292"><ele>607.0</ele><time>2026-04-03T15:38:11.328Z</time></trkpt><trkpt lat="37.4935561" lon="14.0623671"><ele>607.2</ele><time>2026-04-03T15:38:13.328Z</time></trkpt><trkpt lat="37.4935126" lon="14.0624417"><ele>607.4000000000001</ele><time>2026-04-03T15:38:15.328Z</time></trkpt><trkpt lat="37.4934695" lon="14.0625278"><ele>607.5999999999999</ele><time>2026-04-03T15:38:17.328Z</time></trkpt><trkpt lat="37.493431" lon="14.0626273"><ele>607.8</ele><time>2026-04-03T15:38:19.328Z</time></trkpt><trkpt lat="37.493379" lon="14.0627495"><ele>608.0</ele><time>2026-04-03T15:38:21.328Z</time></trkpt><trkpt lat="37.4933315" lon="14.062892"><ele>608.0</ele><time>2026-04-03T15:38:23.327Z</time></trkpt><trkpt lat="37.4933069" lon="14.0629666"><ele>608.0</ele><time>2026-04-03T15:38:24.328Z</time></trkpt><trkpt lat="37.4932822" lon="14.063042"><ele>608.0</ele><time>2026-04-03T15:38:25.328Z</time></trkpt><trkpt lat="37.4932613" lon="14.0631196"><ele>608.0</ele><time>2026-04-03T15:38:26.328Z</time></trkpt><trkpt lat="37.493248" lon="14.0632072"><ele>608.0</ele><time>2026-04-03T15:38:27.328Z</time></trkpt><trkpt lat="37.4932326" lon="14.0632972"><ele>608.0</ele><time>2026-04-03T15:38:28.328Z</time></trkpt><trkpt lat="37.4932177" lon="14.0633893"><ele>608.0</ele><time>2026-04-03T15:38:29.328Z</time></trkpt><trkpt lat="37.4931996" lon="14.0634844"><ele>609.5</ele><time>2026-04-03T15:38:30.328Z</time></trkpt><trkpt lat="37.4931879" lon="14.063585"><ele>611.0</ele><time>2026-04-03T15:38:31.328Z</time></trkpt><trkpt lat="37.4931774" lon="14.0636853"><ele>612.5</ele><time>2026-04-03T15:38:32.328Z</time></trkpt><trkpt lat="37.4931687" lon="14.0637851"><ele>614.0</ele><time>2026-04-03T15:38:33.328Z</time></trkpt><trkpt lat="37.4931548" lon="14.0638843"><ele>615.5</ele><time>2026-04-03T15:38:34.327Z</time></trkpt><trkpt lat="37.4931394" lon="14.0639857"><ele>617.0</ele><time>2026-04-03T15:38:35.328Z</time></trkpt><trkpt lat="37.4931247" lon="14.0640881"><ele>617.0</ele><time>2026-04-03T15:38:36.327Z</time></trkpt><trkpt lat="37.4931132" lon="14.0641894"><ele>617.0</ele><time>2026-04-03T15:38:37.328Z</time></trkpt><trkpt lat="37.4931055" lon="14.0642883"><ele>617.0</ele><time>2026-04-03T15:38:38.328Z</time></trkpt><trkpt lat="37.4930996" lon="14.0643854"><ele>617.0</ele><time>2026-04-03T15:38:39.328Z</time></trkpt><trkpt lat="37.4930883" lon="14.0644806"><ele>617.0</ele><time>2026-04-03T15:38:40.328Z</time></trkpt><trkpt lat="37.4930755" lon="14.0645771"><ele>617.0</ele><time>2026-04-03T15:38:41.328Z</time></trkpt><trkpt lat="37.4930599" lon="14.0646765"><ele>617.0</ele><time>2026-04-03T15:38:42.328Z</time></trkpt><trkpt lat="37.493045" lon="14.0647758"><ele>617.0</ele><time>2026-04-03T15:38:43.328Z</time></trkpt><trkpt lat="37.4930261" lon="14.0648728"><ele>617.0</ele><time>2026-04-03T15:38:44.328Z</time></trkpt><trkpt lat="37.4930117" lon="14.0649722"><ele>617.0</ele><time>2026-04-03T15:38:45.328Z</time></trkpt><trkpt lat="37.4929983" lon="14.0650734"><ele>617.0</ele><time>2026-04-03T15:38:46.328Z</time></trkpt><trkpt lat="37.4929886" lon="14.0651752"><ele>617.0</ele><time>2026-04-03T15:38:47.328Z</time></trkpt><trkpt lat="37.4929763" lon="14.0652781"><ele>617.0</ele><time>2026-04-03T15:38:48.328Z</time></trkpt><trkpt lat="37.4929643" lon="14.0653833"><ele>617.0</ele><time>2026-04-03T15:38:49.327Z</time></trkpt><trkpt lat="37.492954" lon="14.0654878"><ele>617.0</ele><time>2026-04-03T15:38:50.328Z</time></trkpt><trkpt lat="37.4929461" lon="14.0655923"><ele>617.0</ele><time>2026-04-03T15:38:51.328Z</time></trkpt><trkpt lat="37.4929458" lon="14.0656972"><ele>617.0</ele><time>2026-04-03T15:38:52.328Z</time></trkpt><trkpt lat="37.4929519" lon="14.0658005"><ele>617.0</ele><time>2026-04-03T15:38:53.328Z</time></trkpt><trkpt lat="37.4929584" lon="14.0659014"><ele>617.0</ele><time>2026-04-03T15:38:54.328Z</time></trkpt><trkpt lat="37.4929626" lon="14.0659985"><ele>617.0</ele><time>2026-04-03T15:38:55.328Z</time></trkpt><trkpt lat="37.4929694" lon="14.0660934"><ele>617.0</ele><time>2026-04-03T15:38:56.328Z</time></trkpt><trkpt lat="37.4929793" lon="14.0661779"><ele>617.0</ele><time>2026-04-03T15:38:57.328Z</time></trkpt><trkpt lat="37.4930206" lon="14.0663006"><ele>617.0</ele><time>2026-04-03T15:38:59.328Z</time></trkpt><trkpt lat="37.4930551" lon="14.0663733"><ele>617.0</ele><time>2026-04-03T15:39:02.328Z</time></trkpt><trkpt lat="37.4929906" lon="14.0664166"><ele>615.0</ele><time>2026-04-03T15:39:06.327Z</time></trkpt><trkpt lat="37.4929205" lon="14.0664105"><ele>613.0</ele><time>2026-04-03T15:39:09.328Z</time></trkpt><trkpt lat="37.4928545" lon="14.0664114"><ele>611.0</ele><time>2026-04-03T15:39:12.328Z</time></trkpt><trkpt lat="37.4927794" lon="14.0664072"><ele>609.0</ele><time>2026-04-03T15:39:16.328Z</time></trkpt><trkpt lat="37.4926933" lon="14.0664025"><ele>607.0</ele><time>2026-04-03T15:39:20.328Z</time></trkpt><trkpt lat="37.4926257" lon="14.066401"><ele>605.0</ele><time>2026-04-03T15:39:23.328Z</time></trkpt><trkpt lat="37.4925462" lon="14.0664008"><ele>603.0</ele><time>2026-04-03T15:39:27.328Z</time></trkpt><trkpt lat="37.4924726" lon="14.0663938"><ele>603.0</ele><time>2026-04-03T15:39:31.328Z</time></trkpt><trkpt lat="37.4923901" lon="14.0664024"><ele>603.0</ele><time>2026-04-03T15:39:35.328Z</time></trkpt><trkpt lat="37.4923261" lon="14.066401"><ele>603.0</ele><time>2026-04-03T15:39:38.327Z</time></trkpt><trkpt lat="37.4922522" lon="14.0664066"><ele>603.0</ele><time>2026-04-03T15:39:42.328Z</time></trkpt><trkpt lat="37.4921717" lon="14.0663973"><ele>603.0</ele><time>2026-04-03T15:39:46.328Z</time></trkpt><trkpt lat="37.4920929" lon="14.0663989"><ele>603.0</ele><time>2026-04-03T15:39:50.328Z</time></trkpt><trkpt lat="37.4920246" lon="14.0663907"><ele>603.0</ele><time>2026-04-03T15:39:54.328Z</time></trkpt><trkpt lat="37.4919473" lon="14.0663825"><ele>601.1428571428572</ele><time>2026-04-03T15:39:58.328Z</time></trkpt><trkpt lat="37.4918622" lon="14.0663705"><ele>599.2857142857142</ele><time>2026-04-03T15:40:02.327Z</time></trkpt><trkpt lat="37.4918007" lon="14.0663971"><ele>597.4285714285714</ele><time>2026-04-03T15:40:05.328Z</time></trkpt><trkpt lat="37.4917275" lon="14.0663782"><ele>595.5714285714287</ele><time>2026-04-03T15:40:12.328Z</time></trkpt><trkpt lat="37.4916576" lon="14.0663576"><ele>593.7142857142858</ele><time>2026-04-03T15:40:15.328Z</time></trkpt><trkpt lat="37.4915907" lon="14.0663677"><ele>591.8571428571429</ele><time>2026-04-03T15:40:18.328Z</time></trkpt><trkpt lat="37.4915236" lon="14.0663682"><ele>590.0</ele><time>2026-04-03T15:40:21.328Z</time></trkpt><trkpt lat="37.4914512" lon="14.0663456"><ele>590.0000000000001</ele><time>2026-04-03T15:40:25.327Z</time></trkpt><trkpt lat="37.4914304" lon="14.0662658"><ele>590.0</ele><time>2026-04-03T15:40:46.328Z</time></trkpt><trkpt lat="37.4914976" lon="14.0662624"><ele>590.0</ele><time>2026-04-03T15:51:58.327Z</time></trkpt><trkpt lat="37.4914415" lon="14.0663082"><ele>590.0</ele><time>2026-04-03T16:12:08.329Z</time></trkpt><trkpt lat="37.4914215" lon="14.0663876"><ele>590.0</ele><time>2026-04-03T16:12:21.329Z</time></trkpt><trkpt lat="37.4913421" lon="14.066399"><ele>590.0000000000001</ele><time>2026-04-03T16:12:24.329Z</time></trkpt><trkpt lat="37.4912701" lon="14.066406"><ele>590.0</ele><time>2026-04-03T16:12:26.329Z</time></trkpt><trkpt lat="37.4912" lon="14.0664183"><ele>588.4285714285714</ele><time>2026-04-03T16:12:28.329Z</time></trkpt><trkpt lat="37.4911358" lon="14.0664388"><ele>586.8571428571429</ele><time>2026-04-03T16:12:30.329Z</time></trkpt><trkpt lat="37.4910497" lon="14.0664134"><ele>585.2857142857142</ele><time>2026-04-03T16:12:33.329Z</time></trkpt><trkpt lat="37.4909935" lon="14.0663467"><ele>583.7142857142858</ele><time>2026-04-03T16:12:35.329Z</time></trkpt><trkpt lat="37.4909469" lon="14.0662749"><ele>582.1428571428571</ele><time>2026-04-03T16:12:37.329Z</time></trkpt><trkpt lat="37.4909115" lon="14.0661976"><ele>580.5714285714286</ele><time>2026-04-03T16:12:39.329Z</time></trkpt><trkpt lat="37.490881" lon="14.0661267"><ele>579.0</ele><time>2026-04-03T16:12:41.329Z</time></trkpt><trkpt lat="37.4908547" lon="14.0660543"><ele>579.0</ele><time>2026-04-03T16:12:45.329Z</time></trkpt><trkpt lat="37.4908739" lon="14.0659453"><ele>579.0</ele><time>2026-04-03T16:12:49.328Z</time></trkpt><trkpt lat="37.4909245" lon="14.0658465"><ele>579.0</ele><time>2026-04-03T16:12:52.329Z</time></trkpt><trkpt lat="37.4909633" lon="14.0657834"><ele>579.0</ele><time>2026-04-03T16:12:54.329Z</time></trkpt><trkpt lat="37.4910022" lon="14.0657095"><ele>579.0</ele><time>2026-04-03T16:12:56.329Z</time></trkpt><trkpt lat="37.4910456" lon="14.0656458"><ele>579.0</ele><time>2026-04-03T16:12:58.329Z</time></trkpt><trkpt lat="37.4910922" lon="14.065549"><ele>579.8571428571428</ele><time>2026-04-03T16:13:01.329Z</time></trkpt><trkpt lat="37.4911211" lon="14.0654766"><ele>580.7142857142857</ele><time>2026-04-03T16:13:03.328Z</time></trkpt><trkpt lat="37.4911584" lon="14.0653995"><ele>581.5714285714286</ele><time>2026-04-03T16:13:05.329Z</time></trkpt><trkpt lat="37.4911841" lon="14.0653145"><ele>582.4285714285713</ele><time>2026-04-03T16:13:07.329Z</time></trkpt><trkpt lat="37.4912094" lon="14.0652323"><ele>583.2857142857142</ele><time>2026-04-03T16:13:09.329Z</time></trkpt><trkpt lat="37.4912387" lon="14.0651465"><ele>584.1428571428571</ele><time>2026-04-03T16:13:11.329Z</time></trkpt><trkpt lat="37.4912701" lon="14.0650548"><ele>585.0</ele><time>2026-04-03T16:13:13.329Z</time></trkpt><trkpt lat="37.4912896" lon="14.0649599"><ele>586.0</ele><time>2026-04-03T16:13:15.329Z</time></trkpt><trkpt lat="37.4913119" lon="14.0648681"><ele>587.0</ele><time>2026-04-03T16:13:17.329Z</time></trkpt><trkpt lat="37.4913365" lon="14.0647794"><ele>588.0</ele><time>2026-04-03T16:13:19.329Z</time></trkpt><trkpt lat="37.4913653" lon="14.0646933"><ele>589.0</ele><time>2026-04-03T16:13:21.329Z</time></trkpt><trkpt lat="37.4913973" lon="14.0646129"><ele>590.0</ele><time>2026-04-03T16:13:23.329Z</time></trkpt><trkpt lat="37.491435" lon="14.0645347"><ele>591.0</ele><time>2026-04-03T16:13:25.329Z</time></trkpt><trkpt lat="37.4914739" lon="14.0644468"><ele>592.0</ele><time>2026-04-03T16:13:28.328Z</time></trkpt><trkpt lat="37.4915025" lon="14.0643386"><ele>592.0</ele><time>2026-04-03T16:13:49.329Z</time></trkpt><trkpt lat="37.4915354" lon="14.0642411"><ele>592.0</ele><time>2026-04-03T16:13:51.329Z</time></trkpt><trkpt lat="37.4915757" lon="14.0641333"><ele>592.0</ele><time>2026-04-03T16:13:53.329Z</time></trkpt><trkpt lat="37.4916276" lon="14.0640211"><ele>592.0</ele><time>2026-04-03T16:13:55.328Z</time></trkpt><trkpt lat="37.4916641" lon="14.0638967"><ele>592.0</ele><time>2026-04-03T16:13:57.329Z</time></trkpt><trkpt lat="37.4917058" lon="14.0637783"><ele>591.6</ele><time>2026-04-03T16:13:59.329Z</time></trkpt><trkpt lat="37.4917477" lon="14.0636686"><ele>591.2</ele><time>2026-04-03T16:14:01.329Z</time></trkpt><trkpt lat="37.4917809" lon="14.0635578"><ele>590.8</ele><time>2026-04-03T16:14:03.329Z</time></trkpt><trkpt lat="37.4918134" lon="14.0634544"><ele>590.4</ele><time>2026-04-03T16:14:05.328Z</time></trkpt><trkpt lat="37.4918492" lon="14.0633482"><ele>590.0</ele><time>2026-04-03T16:14:07.329Z</time></trkpt><trkpt lat="37.4918902" lon="14.0632292"><ele>588.8</ele><time>2026-04-03T16:14:09.329Z</time></trkpt><trkpt lat="37.4919275" lon="14.0630949"><ele>587.6</ele><time>2026-04-03T16:14:11.329Z</time></trkpt><trkpt lat="37.4919704" lon="14.0629664"><ele>586.4</ele><time>2026-04-03T16:14:13.329Z</time></trkpt><trkpt lat="37.4920028" lon="14.0628444"><ele>585.2</ele><time>2026-04-03T16:14:15.328Z</time></trkpt><trkpt lat="37.492032" lon="14.062726"><ele>584.0</ele><time>2026-04-03T16:14:17.329Z</time></trkpt><trkpt lat="37.4919901" lon="14.062616"><ele>584.0</ele><time>2026-04-03T16:14:19.328Z</time></trkpt><trkpt lat="37.4918842" lon="14.0625744"><ele>584.0</ele><time>2026-04-03T16:14:21.329Z</time></trkpt><trkpt lat="37.4917802" lon="14.0625295"><ele>584.0</ele><time>2026-04-03T16:14:23.329Z</time></trkpt><trkpt lat="37.4916915" lon="14.0624703"><ele>584.0</ele><time>2026-04-03T16:14:25.329Z</time></trkpt><trkpt lat="37.491608" lon="14.062438"><ele>584.0</ele><time>2026-04-03T16:14:27.328Z</time></trkpt><trkpt lat="37.491539" lon="14.0623952"><ele>583.8</ele><time>2026-04-03T16:14:29.328Z</time></trkpt><trkpt lat="37.4915182" lon="14.0622933"><ele>583.5999999999999</ele><time>2026-04-03T16:14:31.329Z</time></trkpt><trkpt lat="37.4915576" lon="14.0621739"><ele>583.4</ele><time>2026-04-03T16:14:33.329Z</time></trkpt><trkpt lat="37.491629" lon="14.062068"><ele>583.1999999999999</ele><time>2026-04-03T16:14:35.329Z</time></trkpt><trkpt lat="37.4917183" lon="14.0619692"><ele>583.0</ele><time>2026-04-03T16:14:37.329Z</time></trkpt><trkpt lat="37.4917688" lon="14.0619159"><ele>583.0000000000001</ele><time>2026-04-03T16:14:38.329Z</time></trkpt><trkpt lat="37.4918195" lon="14.0618626"><ele>583.0</ele><time>2026-04-03T16:14:39.329Z</time></trkpt><trkpt lat="37.4918705" lon="14.0618045"><ele>583.0</ele><time>2026-04-03T16:14:40.329Z</time></trkpt><trkpt lat="37.4919266" lon="14.0617449"><ele>583.0</ele><time>2026-04-03T16:14:41.329Z</time></trkpt><trkpt lat="37.4919851" lon="14.0616816"><ele>583.0</ele><time>2026-04-03T16:14:42.329Z</time></trkpt><trkpt lat="37.4920451" lon="14.061617"><ele>583.0000000000001</ele><time>2026-04-03T16:14:43.328Z</time></trkpt><trkpt lat="37.4921056" lon="14.0615484"><ele>583.0</ele><time>2026-04-03T16:14:44.329Z</time></trkpt><trkpt lat="37.4921664" lon="14.0614821"><ele>583.1666666666667</ele><time>2026-04-03T16:14:45.328Z</time></trkpt><trkpt lat="37.4922296" lon="14.0614178"><ele>583.3333333333334</ele><time>2026-04-03T16:14:46.329Z</time></trkpt><trkpt lat="37.492293" lon="14.0613513"><ele>583.5</ele><time>2026-04-03T16:14:47.329Z</time></trkpt><trkpt lat="37.4923546" lon="14.0612815"><ele>583.6666666666666</ele><time>2026-04-03T16:14:48.329Z</time></trkpt><trkpt lat="37.4924186" lon="14.0612119"><ele>583.8333333333333</ele><time>2026-04-03T16:14:49.329Z</time></trkpt><trkpt lat="37.492484" lon="14.0611419"><ele>584.0</ele><time>2026-04-03T16:14:50.328Z</time></trkpt><trkpt lat="37.4925492" lon="14.0610722"><ele>584.0</ele><time>2026-04-03T16:14:51.329Z</time></trkpt><trkpt lat="37.4926126" lon="14.0610002"><ele>584.0</ele><time>2026-04-03T16:14:52.328Z</time></trkpt><trkpt lat="37.4926759" lon="14.0609302"><ele>584.0</ele><time>2026-04-03T16:14:53.329Z</time></trkpt><trkpt lat="37.4927396" lon="14.0608605"><ele>584.0</ele><time>2026-04-03T16:14:54.329Z</time></trkpt><trkpt lat="37.4928021" lon="14.0607906"><ele>584.0</ele><time>2026-04-03T16:14:55.329Z</time></trkpt><trkpt lat="37.4928667" lon="14.0607239"><ele>584.0</ele><time>2026-04-03T16:14:56.329Z</time></trkpt><trkpt lat="37.4929285" lon="14.0606576"><ele>583.3333333333333</ele><time>2026-04-03T16:14:57.329Z</time></trkpt><trkpt lat="37.4929925" lon="14.0605914"><ele>582.6666666666666</ele><time>2026-04-03T16:14:58.329Z</time></trkpt><trkpt lat="37.4930541" lon="14.0605271"><ele>582.0</ele><time>2026-04-03T16:14:59.329Z</time></trkpt><trkpt lat="37.4931132" lon="14.0604642"><ele>581.3333333333334</ele><time>2026-04-03T16:15:00.329Z</time></trkpt><trkpt lat="37.4931687" lon="14.0604056"><ele>580.6666666666667</ele><time>2026-04-03T16:15:01.329Z</time></trkpt><trkpt lat="37.4932229" lon="14.0603538"><ele>580.0</ele><time>2026-04-03T16:15:02.329Z</time></trkpt><trkpt lat="37.4933267" lon="14.0602794"><ele>580.0</ele><time>2026-04-03T16:15:04.329Z</time></trkpt><trkpt lat="37.4934335" lon="14.0602494"><ele>580.0</ele><time>2026-04-03T16:15:06.329Z</time></trkpt><trkpt lat="37.493555" lon="14.0602233"><ele>580.0</ele><time>2026-04-03T16:15:08.329Z</time></trkpt><trkpt lat="37.4936202" lon="14.0602232"><ele>580.0</ele><time>2026-04-03T16:15:09.329Z</time></trkpt><trkpt lat="37.4936874" lon="14.0602307"><ele>580.0</ele><time>2026-04-03T16:15:10.329Z</time></trkpt><trkpt lat="37.4937539" lon="14.060235"><ele>580.0</ele><time>2026-04-03T16:15:11.329Z</time></trkpt><trkpt lat="37.4938707" lon="14.060254"><ele>580.8333333333334</ele><time>2026-04-03T16:15:13.329Z</time></trkpt><trkpt lat="37.4939701" lon="14.0602587"><ele>581.6666666666667</ele><time>2026-04-03T16:15:15.329Z</time></trkpt><trkpt lat="37.4940518" lon="14.0602296"><ele>582.5</ele><time>2026-04-03T16:15:17.329Z</time></trkpt><trkpt lat="37.4940855" lon="14.0601471"><ele>583.3333333333334</ele><time>2026-04-03T16:15:19.329Z</time></trkpt><trkpt lat="37.4940825" lon="14.0600467"><ele>584.1666666666666</ele><time>2026-04-03T16:15:21.329Z</time></trkpt><trkpt lat="37.4940739" lon="14.0599347"><ele>585.0</ele><time>2026-04-03T16:15:23.329Z</time></trkpt><trkpt lat="37.4940664" lon="14.0598204"><ele>585.8333333333334</ele><time>2026-04-03T16:15:25.329Z</time></trkpt><trkpt lat="37.4940578" lon="14.0597127"><ele>586.6666666666666</ele><time>2026-04-03T16:15:27.329Z</time></trkpt><trkpt lat="37.4940425" lon="14.0596244"><ele>587.5</ele><time>2026-04-03T16:15:29.329Z</time></trkpt><trkpt lat="37.4940287" lon="14.0595323"><ele>588.3333333333333</ele><time>2026-04-03T16:15:32.329Z</time></trkpt><trkpt lat="37.4940191" lon="14.0594397"><ele>589.1666666666666</ele><time>2026-04-03T16:15:35.329Z</time></trkpt><trkpt lat="37.4940168" lon="14.0593476"><ele>590.0</ele><time>2026-04-03T16:15:37.329Z</time></trkpt><trkpt lat="37.493964" lon="14.0592598"><ele>590.0</ele><time>2026-04-03T16:15:39.329Z</time></trkpt><trkpt lat="37.493888" lon="14.0592241"><ele>590.0</ele><time>2026-04-03T16:15:41.329Z</time></trkpt><trkpt lat="37.4938007" lon="14.0592065"><ele>590.0</ele><time>2026-04-03T16:15:43.329Z</time></trkpt><trkpt lat="37.4937063" lon="14.0591843"><ele>590.0</ele><time>2026-04-03T16:15:45.329Z</time></trkpt><trkpt lat="37.4936101" lon="14.0591561"><ele>590.0</ele><time>2026-04-03T16:15:47.329Z</time></trkpt><trkpt lat="37.4935047" lon="14.0591368"><ele>589.0</ele><time>2026-04-03T16:15:49.329Z</time></trkpt><trkpt lat="37.4934001" lon="14.0591162"><ele>588.0</ele><time>2026-04-03T16:15:51.329Z</time></trkpt><trkpt lat="37.4932969" lon="14.0590969"><ele>587.0</ele><time>2026-04-03T16:15:53.329Z</time></trkpt><trkpt lat="37.4931971" lon="14.0590716"><ele>586.0</ele><time>2026-04-03T16:15:55.328Z</time></trkpt><trkpt lat="37.4930981" lon="14.0590537"><ele>585.0</ele><time>2026-04-03T16:15:57.329Z</time></trkpt><trkpt lat="37.4930002" lon="14.0590391"><ele>581.4</ele><time>2026-04-03T16:15:59.329Z</time></trkpt><trkpt lat="37.4929089" lon="14.0590188"><ele>577.8</ele><time>2026-04-03T16:16:01.329Z</time></trkpt><trkpt lat="37.4928171" lon="14.0589965"><ele>574.2</ele><time>2026-04-03T16:16:03.329Z</time></trkpt><trkpt lat="37.4927267" lon="14.0589779"><ele>570.6</ele><time>2026-04-03T16:16:05.329Z</time></trkpt><trkpt lat="37.4926417" lon="14.0589532"><ele>567.0</ele><time>2026-04-03T16:16:07.329Z</time></trkpt><trkpt lat="37.4925557" lon="14.0589265"><ele>567.0</ele><time>2026-04-03T16:16:09.329Z</time></trkpt><trkpt lat="37.4924684" lon="14.0588905"><ele>567.0</ele><time>2026-04-03T16:16:11.329Z</time></trkpt><trkpt lat="37.4923979" lon="14.0588116"><ele>567.0</ele><time>2026-04-03T16:16:13.329Z</time></trkpt><trkpt lat="37.492369" lon="14.0587164"><ele>567.0</ele><time>2026-04-03T16:16:15.329Z</time></trkpt><trkpt lat="37.4923462" lon="14.0586152"><ele>567.0</ele><time>2026-04-03T16:16:17.329Z</time></trkpt><trkpt lat="37.492328" lon="14.0585088"><ele>567.0</ele><time>2026-04-03T16:16:19.329Z</time></trkpt><trkpt lat="37.4923095" lon="14.0584075"><ele>567.0</ele><time>2026-04-03T16:16:21.329Z</time></trkpt><trkpt lat="37.4922873" lon="14.0583167"><ele>567.0</ele><time>2026-04-03T16:16:23.329Z</time></trkpt><trkpt lat="37.4922613" lon="14.0582383"><ele>567.0</ele><time>2026-04-03T16:16:25.329Z</time></trkpt><trkpt lat="37.4922258" lon="14.0581667"><ele>567.0</ele><time>2026-04-03T16:16:28.329Z</time></trkpt><trkpt lat="37.4921464" lon="14.0581975"><ele>567.0</ele><time>2026-04-03T16:16:32.329Z</time></trkpt><trkpt lat="37.4921098" lon="14.0582906"><ele>567.0</ele><time>2026-04-03T16:16:34.329Z</time></trkpt><trkpt lat="37.4920393" lon="14.0583988"><ele>566.2</ele><time>2026-04-03T16:16:36.329Z</time></trkpt><trkpt lat="37.4919628" lon="14.0585182"><ele>565.4000000000001</ele><time>2026-04-03T16:16:38.329Z</time></trkpt><trkpt lat="37.4918921" lon="14.058627"><ele>564.5999999999999</ele><time>2026-04-03T16:16:40.329Z</time></trkpt><trkpt lat="37.4918239" lon="14.0587245"><ele>563.8</ele><time>2026-04-03T16:16:42.329Z</time></trkpt><trkpt lat="37.4917554" lon="14.0588065"><ele>563.0</ele><time>2026-04-03T16:16:44.329Z</time></trkpt><trkpt lat="37.491667" lon="14.0588523"><ele>563.0</ele><time>2026-04-03T16:16:46.329Z</time></trkpt><trkpt lat="37.4915703" lon="14.0588337"><ele>563.0</ele><time>2026-04-03T16:16:48.329Z</time></trkpt><trkpt lat="37.4914907" lon="14.0587331"><ele>563.0</ele><time>2026-04-03T16:16:50.328Z</time></trkpt><trkpt lat="37.4914572" lon="14.0586592"><ele>563.0</ele><time>2026-04-03T16:16:51.329Z</time></trkpt><trkpt lat="37.491428" lon="14.058581"><ele>563.0</ele><time>2026-04-03T16:16:52.329Z</time></trkpt><trkpt lat="37.4913993" lon="14.058498"><ele>563.0</ele><time>2026-04-03T16:16:53.329Z</time></trkpt><trkpt lat="37.4913733" lon="14.0584134"><ele>563.0</ele><time>2026-04-03T16:16:54.329Z</time></trkpt><trkpt lat="37.4913533" lon="14.0583317"><ele>563.0</ele><time>2026-04-03T16:16:55.329Z</time></trkpt><trkpt lat="37.4913374" lon="14.0582512"><ele>563.0</ele><time>2026-04-03T16:16:56.329Z</time></trkpt><trkpt lat="37.4913224" lon="14.0581663"><ele>563.0</ele><time>2026-04-03T16:16:57.329Z</time></trkpt><trkpt lat="37.491309" lon="14.0580797"><ele>563.0</ele><time>2026-04-03T16:16:58.329Z</time></trkpt><trkpt lat="37.4912974" lon="14.0579889"><ele>563.0</ele><time>2026-04-03T16:16:59.329Z</time></trkpt><trkpt lat="37.4912854" lon="14.0578963"><ele>563.0</ele><time>2026-04-03T16:17:00.329Z</time></trkpt><trkpt lat="37.4912772" lon="14.0578028"><ele>563.5</ele><time>2026-04-03T16:17:01.328Z</time></trkpt><trkpt lat="37.4912683" lon="14.0577048"><ele>564.0</ele><time>2026-04-03T16:17:02.329Z</time></trkpt><trkpt lat="37.4912573" lon="14.0576051"><ele>564.5</ele><time>2026-04-03T16:17:03.329Z</time></trkpt><trkpt lat="37.4912454" lon="14.0575056"><ele>565.0</ele><time>2026-04-03T16:17:04.329Z</time></trkpt><trkpt lat="37.4912342" lon="14.0574053"><ele>565.5</ele><time>2026-04-03T16:17:05.329Z</time></trkpt><trkpt lat="37.4912219" lon="14.0573016"><ele>566.0</ele><time>2026-04-03T16:17:06.329Z</time></trkpt><trkpt lat="37.4912095" lon="14.0571996"><ele>564.3333333333333</ele><time>2026-04-03T16:17:07.328Z</time></trkpt><trkpt lat="37.4912008" lon="14.0570956"><ele>562.6666666666666</ele><time>2026-04-03T16:17:08.329Z</time></trkpt><trkpt lat="37.4911889" lon="14.0569919"><ele>561.0</ele><time>2026-04-03T16:17:09.329Z</time></trkpt><trkpt lat="37.4911795" lon="14.0568884"><ele>559.3333333333334</ele><time>2026-04-03T16:17:10.329Z</time></trkpt><trkpt lat="37.4911718" lon="14.0567836"><ele>557.6666666666667</ele><time>2026-04-03T16:17:11.329Z</time></trkpt><trkpt lat="37.4911644" lon="14.056676"><ele>556.0</ele><time>2026-04-03T16:17:12.329Z</time></trkpt><trkpt lat="37.4911552" lon="14.0565675"><ele>556.0</ele><time>2026-04-03T16:17:13.329Z</time></trkpt><trkpt lat="37.4911452" lon="14.0564594"><ele>556.0</ele><time>2026-04-03T16:17:14.329Z</time></trkpt><trkpt lat="37.4911375" lon="14.056351"><ele>556.0</ele><time>2026-04-03T16:17:15.329Z</time></trkpt><trkpt lat="37.491131" lon="14.0562461"><ele>556.0</ele><time>2026-04-03T16:17:16.329Z</time></trkpt><trkpt lat="37.4911223" lon="14.0561468"><ele>556.0</ele><time>2026-04-03T16:17:17.329Z</time></trkpt><trkpt lat="37.4911076" lon="14.0560519"><ele>556.0</ele><time>2026-04-03T16:17:18.329Z</time></trkpt><trkpt lat="37.4910775" lon="14.0559705"><ele>556.0</ele><time>2026-04-03T16:17:19.329Z</time></trkpt><trkpt lat="37.4910312" lon="14.0559096"><ele>556.0</ele><time>2026-04-03T16:17:20.329Z</time></trkpt><trkpt lat="37.4909726" lon="14.0558736"><ele>556.0</ele><time>2026-04-03T16:17:21.328Z</time></trkpt><trkpt lat="37.4908979" lon="14.0558741"><ele>556.0</ele><time>2026-04-03T16:17:22.329Z</time></trkpt><trkpt lat="37.4908211" lon="14.0558778"><ele>556.0</ele><time>2026-04-03T16:17:23.329Z</time></trkpt><trkpt lat="37.4907405" lon="14.0558866"><ele>556.0</ele><time>2026-04-03T16:17:24.329Z</time></trkpt><trkpt lat="37.4906595" lon="14.0559022"><ele>556.0</ele><time>2026-04-03T16:17:25.328Z</time></trkpt><trkpt lat="37.4905765" lon="14.0559146"><ele>556.0</ele><time>2026-04-03T16:17:26.329Z</time></trkpt><trkpt lat="37.4904958" lon="14.0559262"><ele>556.0</ele><time>2026-04-03T16:17:27.328Z</time></trkpt><trkpt lat="37.4904203" lon="14.0559393"><ele>556.0</ele><time>2026-04-03T16:17:28.328Z</time></trkpt><trkpt lat="37.490353" lon="14.0559498"><ele>556.0</ele><time>2026-04-03T16:17:29.329Z</time></trkpt><trkpt lat="37.4902461" lon="14.055941"><ele>556.0</ele><time>2026-04-03T16:17:31.329Z</time></trkpt><trkpt lat="37.4901808" lon="14.0558208"><ele>556.0</ele><time>2026-04-03T16:17:33.329Z</time></trkpt><trkpt lat="37.4901324" lon="14.0556712"><ele>556.5714285714286</ele><time>2026-04-03T16:17:35.329Z</time></trkpt><trkpt lat="37.4900933" lon="14.0556035"><ele>557.1428571428571</ele><time>2026-04-03T16:17:36.329Z</time></trkpt><trkpt lat="37.490053" lon="14.0555405"><ele>557.7142857142858</ele><time>2026-04-03T16:17:37.329Z</time></trkpt><trkpt lat="37.4900135" lon="14.0554731"><ele>558.2857142857142</ele><time>2026-04-03T16:17:38.329Z</time></trkpt><trkpt lat="37.4899702" lon="14.055408"><ele>558.8571428571429</ele><time>2026-04-03T16:17:39.329Z</time></trkpt><trkpt lat="37.4899262" lon="14.0553457"><ele>559.4285714285714</ele><time>2026-04-03T16:17:40.329Z</time></trkpt><trkpt lat="37.489889" lon="14.0552681"><ele>560.0</ele><time>2026-04-03T16:17:41.329Z</time></trkpt><trkpt lat="37.4898743" lon="14.0551783"><ele>560.0</ele><time>2026-04-03T16:17:42.329Z</time></trkpt><trkpt lat="37.4898838" lon="14.0550931"><ele>560.0</ele><time>2026-04-03T16:17:43.328Z</time></trkpt><trkpt lat="37.4899278" lon="14.0549685"><ele>560.0</ele><time>2026-04-03T16:17:45.329Z</time></trkpt><trkpt lat="37.4900053" lon="14.054898"><ele>560.0</ele><time>2026-04-03T16:17:47.329Z</time></trkpt><trkpt lat="37.4901103" lon="14.0549187"><ele>560.0</ele><time>2026-04-03T16:17:49.329Z</time></trkpt><trkpt lat="37.4902192" lon="14.054976"><ele>560.0</ele><time>2026-04-03T16:17:51.329Z</time></trkpt><trkpt lat="37.4902781" lon="14.0550058"><ele>560.0</ele><time>2026-04-03T16:17:52.329Z</time></trkpt><trkpt lat="37.4903906" lon="14.0550725"><ele>560.0</ele><time>2026-04-03T16:17:54.328Z</time></trkpt><trkpt lat="37.490503" lon="14.0551257"><ele>560.0</ele><time>2026-04-03T16:17:56.329Z</time></trkpt><trkpt lat="37.4906137" lon="14.055144"><ele>560.0</ele><time>2026-04-03T16:17:58.329Z</time></trkpt><trkpt lat="37.4907001" lon="14.0550874"><ele>560.4</ele><time>2026-04-03T16:18:00.329Z</time></trkpt><trkpt lat="37.4907428" lon="14.0550058"><ele>560.8</ele><time>2026-04-03T16:18:02.329Z</time></trkpt><trkpt lat="37.490802" lon="14.0549344"><ele>561.2</ele><time>2026-04-03T16:18:07.329Z</time></trkpt><trkpt lat="37.4908805" lon="14.0549753"><ele>561.6</ele><time>2026-04-03T16:18:09.329Z</time></trkpt><trkpt lat="37.4909818" lon="14.0549998"><ele>562.0</ele><time>2026-04-03T16:18:11.329Z</time></trkpt><trkpt lat="37.4911049" lon="14.0549837"><ele>563.6</ele><time>2026-04-03T16:18:13.329Z</time></trkpt><trkpt lat="37.4912195" lon="14.0549313"><ele>565.2</ele><time>2026-04-03T16:18:15.329Z</time></trkpt><trkpt lat="37.4913182" lon="14.0548696"><ele>566.8</ele><time>2026-04-03T16:18:17.329Z</time></trkpt><trkpt lat="37.4913523" lon="14.0547613"><ele>568.4</ele><time>2026-04-03T16:18:19.329Z</time></trkpt><trkpt lat="37.4913052" lon="14.0546647"><ele>570.0</ele><time>2026-04-03T16:18:21.329Z</time></trkpt><trkpt lat="37.4912208" lon="14.0545834"><ele>570.0</ele><time>2026-04-03T16:18:23.329Z</time></trkpt><trkpt lat="37.4911414" lon="14.0544995"><ele>570.0</ele><time>2026-04-03T16:18:25.329Z</time></trkpt><trkpt lat="37.491068" lon="14.0544129"><ele>570.0</ele><time>2026-04-03T16:18:27.329Z</time></trkpt><trkpt lat="37.4909997" lon="14.0543146"><ele>570.0</ele><time>2026-04-03T16:18:29.329Z</time></trkpt><trkpt lat="37.4909447" lon="14.0542009"><ele>570.0</ele><time>2026-04-03T16:18:31.329Z</time></trkpt><trkpt lat="37.4908951" lon="14.0540833"><ele>571.6</ele><time>2026-04-03T16:18:33.329Z</time></trkpt><trkpt lat="37.4908542" lon="14.0539497"><ele>573.2</ele><time>2026-04-03T16:18:35.328Z</time></trkpt><trkpt lat="37.4908342" lon="14.0538022"><ele>574.8</ele><time>2026-04-03T16:18:37.329Z</time></trkpt><trkpt lat="37.490813" lon="14.0536499"><ele>576.4</ele><time>2026-04-03T16:18:39.329Z</time></trkpt><trkpt lat="37.4908051" lon="14.0535697"><ele>578.0</ele><time>2026-04-03T16:18:40.329Z</time></trkpt><trkpt lat="37.4907998" lon="14.0534893"><ele>578.0</ele><time>2026-04-03T16:18:41.329Z</time></trkpt><trkpt lat="37.4907998" lon="14.0534093"><ele>578.0</ele><time>2026-04-03T16:18:42.329Z</time></trkpt><trkpt lat="37.4908078" lon="14.0532547"><ele>578.0</ele><time>2026-04-03T16:18:44.329Z</time></trkpt><trkpt lat="37.4908047" lon="14.0531754"><ele>578.0</ele><time>2026-04-03T16:18:45.329Z</time></trkpt><trkpt lat="37.4907974" lon="14.0530951"><ele>578.0</ele><time>2026-04-03T16:18:46.328Z</time></trkpt><trkpt lat="37.4907889" lon="14.0530125"><ele>578.0</ele><time>2026-04-03T16:18:47.329Z</time></trkpt><trkpt lat="37.4907797" lon="14.0529295"><ele>578.0</ele><time>2026-04-03T16:18:48.328Z</time></trkpt><trkpt lat="37.4907707" lon="14.0528445"><ele>579.2857142857143</ele><time>2026-04-03T16:18:49.329Z</time></trkpt><trkpt lat="37.490761" lon="14.052758"><ele>580.5714285714286</ele><time>2026-04-03T16:18:50.329Z</time></trkpt><trkpt lat="37.4907519" lon="14.0526706"><ele>581.8571428571429</ele><time>2026-04-03T16:18:51.329Z</time></trkpt><trkpt lat="37.4907414" lon="14.052588"><ele>583.1428571428571</ele><time>2026-04-03T16:18:52.329Z</time></trkpt><trkpt lat="37.4907308" lon="14.0525007"><ele>584.4285714285714</ele><time>2026-04-03T16:18:53.329Z</time></trkpt><trkpt lat="37.490716" lon="14.0524087"><ele>585.7142857142858</ele><time>2026-04-03T16:18:54.329Z</time></trkpt><trkpt lat="37.4906966" lon="14.0523127"><ele>587.0</ele><time>2026-04-03T16:18:55.329Z</time></trkpt><trkpt lat="37.4906741" lon="14.0522172"><ele>587.8333333333333</ele><time>2026-04-03T16:18:56.329Z</time></trkpt><trkpt lat="37.4906476" lon="14.0521217"><ele>588.6666666666666</ele><time>2026-04-03T16:18:57.329Z</time></trkpt><trkpt lat="37.4906155" lon="14.0520273"><ele>589.5</ele><time>2026-04-03T16:18:58.328Z</time></trkpt><trkpt lat="37.4905839" lon="14.0519366"><ele>590.3333333333334</ele><time>2026-04-03T16:18:59.329Z</time></trkpt><trkpt lat="37.4905487" lon="14.0518461"><ele>591.1666666666667</ele><time>2026-04-03T16:19:00.329Z</time></trkpt><trkpt lat="37.4905134" lon="14.0517572"><ele>592.0</ele><time>2026-04-03T16:19:01.329Z</time></trkpt><trkpt lat="37.4904825" lon="14.0516717"><ele>592.6666666666667</ele><time>2026-04-03T16:19:02.329Z</time></trkpt><trkpt lat="37.4904543" lon="14.0515972"><ele>593.3333333333334</ele><time>2026-04-03T16:19:03.329Z</time></trkpt><trkpt lat="37.4904427" lon="14.0514791"><ele>594.0</ele><time>2026-04-03T16:19:05.329Z</time></trkpt><trkpt lat="37.4905202" lon="14.0514047"><ele>594.6666666666666</ele><time>2026-04-03T16:19:07.329Z</time></trkpt><trkpt lat="37.4906411" lon="14.051368"><ele>595.3333333333333</ele><time>2026-04-03T16:19:09.329Z</time></trkpt><trkpt lat="37.4907077" lon="14.051353"><ele>596.0</ele><time>2026-04-03T16:19:10.329Z</time></trkpt><trkpt lat="37.4907755" lon="14.0513395"><ele>596.0</ele><time>2026-04-03T16:19:11.329Z</time></trkpt><trkpt lat="37.4908915" lon="14.0513378"><ele>596.0</ele><time>2026-04-03T16:19:13.329Z</time></trkpt><trkpt lat="37.4909881" lon="14.0513749"><ele>596.0</ele><time>2026-04-03T16:19:15.329Z</time></trkpt><trkpt lat="37.4910766" lon="14.0513275"><ele>596.0</ele><time>2026-04-03T16:19:17.329Z</time></trkpt><trkpt lat="37.4911265" lon="14.05118"><ele>596.0</ele><time>2026-04-03T16:19:19.329Z</time></trkpt><trkpt lat="37.4911467" lon="14.0510989"><ele>596.0</ele><time>2026-04-03T16:19:20.329Z</time></trkpt><trkpt lat="37.4911679" lon="14.0510116"><ele>596.0</ele><time>2026-04-03T16:19:21.329Z</time></trkpt><trkpt lat="37.4911908" lon="14.0509198"><ele>596.0</ele><time>2026-04-03T16:19:22.329Z</time></trkpt><trkpt lat="37.4912118" lon="14.050832"><ele>596.0</ele><time>2026-04-03T16:19:23.329Z</time></trkpt><trkpt lat="37.4912326" lon="14.0507419"><ele>596.0</ele><time>2026-04-03T16:19:24.329Z</time></trkpt><trkpt lat="37.4912559" lon="14.0506483"><ele>596.0</ele><time>2026-04-03T16:19:25.329Z</time></trkpt><trkpt lat="37.4912753" lon="14.0505507"><ele>597.6666666666666</ele><time>2026-04-03T16:19:26.329Z</time></trkpt><trkpt lat="37.4912847" lon="14.0504486"><ele>599.3333333333333</ele><time>2026-04-03T16:19:27.329Z</time></trkpt><trkpt lat="37.4912802" lon="14.0503448"><ele>601.0</ele><time>2026-04-03T16:19:28.329Z</time></trkpt><trkpt lat="37.4912686" lon="14.0502408"><ele>602.6666666666666</ele><time>2026-04-03T16:19:29.329Z</time></trkpt><trkpt lat="37.4912487" lon="14.0501383"><ele>604.3333333333334</ele><time>2026-04-03T16:19:30.329Z</time></trkpt><trkpt lat="37.4912203" lon="14.050037"><ele>606.0</ele><time>2026-04-03T16:19:31.328Z</time></trkpt><trkpt lat="37.4911871" lon="14.0499368"><ele>607.4</ele><time>2026-04-03T16:19:32.329Z</time></trkpt><trkpt lat="37.4911462" lon="14.0498378"><ele>608.8</ele><time>2026-04-03T16:19:33.329Z</time></trkpt><trkpt lat="37.4910978" lon="14.0497395"><ele>610.1999999999999</ele><time>2026-04-03T16:19:34.329Z</time></trkpt><trkpt lat="37.4910429" lon="14.0496411"><ele>611.6</ele><time>2026-04-03T16:19:35.329Z</time></trkpt><trkpt lat="37.490987" lon="14.0495394"><ele>613.0</ele><time>2026-04-03T16:19:36.329Z</time></trkpt><trkpt lat="37.4909337" lon="14.0494331"><ele>613.0</ele><time>2026-04-03T16:19:37.329Z</time></trkpt><trkpt lat="37.4908803" lon="14.0493242"><ele>613.0</ele><time>2026-04-03T16:19:38.329Z</time></trkpt><trkpt lat="37.4908259" lon="14.0492147"><ele>613.0</ele><time>2026-04-03T16:19:39.329Z</time></trkpt><trkpt lat="37.4907689" lon="14.0491073"><ele>613.0</ele><time>2026-04-03T16:19:40.329Z</time></trkpt><trkpt lat="37.4907119" lon="14.0490023"><ele>613.0</ele><time>2026-04-03T16:19:41.329Z</time></trkpt><trkpt lat="37.4906591" lon="14.0488954"><ele>614.8</ele><time>2026-04-03T16:19:42.329Z</time></trkpt><trkpt lat="37.4906076" lon="14.0487868"><ele>616.5999999999999</ele><time>2026-04-03T16:19:43.329Z</time></trkpt><trkpt lat="37.4905577" lon="14.0486789"><ele>618.4000000000001</ele><time>2026-04-03T16:19:44.328Z</time></trkpt><trkpt lat="37.4905122" lon="14.0485688"><ele>620.2</ele><time>2026-04-03T16:19:45.329Z</time></trkpt><trkpt lat="37.4904757" lon="14.0484537"><ele>622.0</ele><time>2026-04-03T16:19:46.329Z</time></trkpt><trkpt lat="37.4904536" lon="14.0483353"><ele>622.6</ele><time>2026-04-03T16:19:47.329Z</time></trkpt><trkpt lat="37.4904443" lon="14.0482168"><ele>623.2</ele><time>2026-04-03T16:19:48.329Z</time></trkpt><trkpt lat="37.4904391" lon="14.0480985"><ele>623.8</ele><time>2026-04-03T16:19:49.329Z</time></trkpt><trkpt lat="37.4904332" lon="14.0479793"><ele>624.4</ele><time>2026-04-03T16:19:50.329Z</time></trkpt><trkpt lat="37.4904277" lon="14.0478583"><ele>625.0</ele><time>2026-04-03T16:19:51.329Z</time></trkpt><trkpt lat="37.490425" lon="14.0477345"><ele>624.8</ele><time>2026-04-03T16:19:52.329Z</time></trkpt><trkpt lat="37.4904243" lon="14.0476079"><ele>624.6</ele><time>2026-04-03T16:19:53.329Z</time></trkpt><trkpt lat="37.490424" lon="14.0474801"><ele>624.4</ele><time>2026-04-03T16:19:54.329Z</time></trkpt><trkpt lat="37.4904233" lon="14.0473517"><ele>624.2</ele><time>2026-04-03T16:19:55.329Z</time></trkpt><trkpt lat="37.4904214" lon="14.0472231"><ele>624.0</ele><time>2026-04-03T16:19:56.329Z</time></trkpt><trkpt lat="37.4904187" lon="14.0470959"><ele>624.0</ele><time>2026-04-03T16:19:57.329Z</time></trkpt><trkpt lat="37.4904144" lon="14.0469706"><ele>624.0</ele><time>2026-04-03T16:19:58.329Z</time></trkpt><trkpt lat="37.4904122" lon="14.0468467"><ele>624.0</ele><time>2026-04-03T16:19:59.329Z</time></trkpt><trkpt lat="37.4904165" lon="14.0467202"><ele>624.0</ele><time>2026-04-03T16:20:00.329Z</time></trkpt><trkpt lat="37.4904247" lon="14.0465904"><ele>624.0</ele><time>2026-04-03T16:20:01.329Z</time></trkpt><trkpt lat="37.490435" lon="14.0464586"><ele>623.4</ele><time>2026-04-03T16:20:02.329Z</time></trkpt><trkpt lat="37.4904472" lon="14.0463228"><ele>622.8</ele><time>2026-04-03T16:20:03.329Z</time></trkpt><trkpt lat="37.4904603" lon="14.0461886"><ele>622.2</ele><time>2026-04-03T16:20:04.329Z</time></trkpt><trkpt lat="37.4904757" lon="14.0460596"><ele>621.6</ele><time>2026-04-03T16:20:05.329Z</time></trkpt><trkpt lat="37.4904922" lon="14.0459322"><ele>621.0</ele><time>2026-04-03T16:20:06.329Z</time></trkpt><trkpt lat="37.490506" lon="14.0458075"><ele>620.6</ele><time>2026-04-03T16:20:07.329Z</time></trkpt><trkpt lat="37.4905194" lon="14.0456855"><ele>620.2</ele><time>2026-04-03T16:20:08.329Z</time></trkpt><trkpt lat="37.4905339" lon="14.0455653"><ele>619.8</ele><time>2026-04-03T16:20:09.329Z</time></trkpt><trkpt lat="37.4905475" lon="14.0454489"><ele>619.4</ele><time>2026-04-03T16:20:10.329Z</time></trkpt><trkpt lat="37.4905586" lon="14.0453348"><ele>619.0</ele><time>2026-04-03T16:20:11.329Z</time></trkpt><trkpt lat="37.4905687" lon="14.0452272"><ele>619.0</ele><time>2026-04-03T16:20:12.329Z</time></trkpt><trkpt lat="37.4905774" lon="14.0451226"><ele>619.0</ele><time>2026-04-03T16:20:13.329Z</time></trkpt><trkpt lat="37.4905879" lon="14.0450173"><ele>619.0</ele><time>2026-04-03T16:20:14.329Z</time></trkpt><trkpt lat="37.490604" lon="14.044907"><ele>619.0</ele><time>2026-04-03T16:20:15.329Z</time></trkpt><trkpt lat="37.4906157" lon="14.0447949"><ele>619.0</ele><time>2026-04-03T16:20:16.329Z</time></trkpt><trkpt lat="37.4906275" lon="14.044684"><ele>619.0</ele><time>2026-04-03T16:20:17.329Z</time></trkpt><trkpt lat="37.4906464" lon="14.0445767"><ele>619.1666666666667</ele><time>2026-04-03T16:20:18.329Z</time></trkpt><trkpt lat="37.4906666" lon="14.0444705"><ele>619.3333333333334</ele><time>2026-04-03T16:20:19.329Z</time></trkpt><trkpt lat="37.4906852" lon="14.0443694"><ele>619.5</ele><time>2026-04-03T16:20:20.329Z</time></trkpt><trkpt lat="37.4907002" lon="14.0442744"><ele>619.6666666666666</ele><time>2026-04-03T16:20:21.329Z</time></trkpt><trkpt lat="37.4907128" lon="14.0441877"><ele>619.8333333333333</ele><time>2026-04-03T16:20:22.329Z</time></trkpt><trkpt lat="37.4907314" lon="14.0440554"><ele>620.0</ele><time>2026-04-03T16:20:24.328Z</time></trkpt><trkpt lat="37.4907441" lon="14.0439733"><ele>620.0</ele><time>2026-04-03T16:20:26.329Z</time></trkpt><trkpt lat="37.4907515" lon="14.0438432"><ele>620.0</ele><time>2026-04-03T16:20:54.329Z</time></trkpt><trkpt lat="37.4907702" lon="14.0436899"><ele>620.0</ele><time>2026-04-03T16:20:56.329Z</time></trkpt><trkpt lat="37.4907817" lon="14.0435978"><ele>620.0</ele><time>2026-04-03T16:20:57.329Z</time></trkpt><trkpt lat="37.4907916" lon="14.0434995"><ele>620.0</ele><time>2026-04-03T16:20:58.329Z</time></trkpt><trkpt lat="37.4908027" lon="14.0433911"><ele>619.0</ele><time>2026-04-03T16:20:59.329Z</time></trkpt><trkpt lat="37.4908186" lon="14.0432758"><ele>618.0</ele><time>2026-04-03T16:21:00.329Z</time></trkpt><trkpt lat="37.4908383" lon="14.0431584"><ele>617.0</ele><time>2026-04-03T16:21:01.328Z</time></trkpt><trkpt lat="37.4908603" lon="14.0430417"><ele>616.0</ele><time>2026-04-03T16:21:02.329Z</time></trkpt><trkpt lat="37.4908809" lon="14.0429227"><ele>615.0</ele><time>2026-04-03T16:21:03.329Z</time></trkpt><trkpt lat="37.4908945" lon="14.0428021"><ele>615.0</ele><time>2026-04-03T16:21:04.329Z</time></trkpt><trkpt lat="37.4909082" lon="14.0426858"><ele>615.0</ele><time>2026-04-03T16:21:05.329Z</time></trkpt><trkpt lat="37.4909203" lon="14.0425734"><ele>615.0</ele><time>2026-04-03T16:21:06.329Z</time></trkpt><trkpt lat="37.4909324" lon="14.0424636"><ele>615.0</ele><time>2026-04-03T16:21:07.329Z</time></trkpt><trkpt lat="37.4909449" lon="14.0423511"><ele>615.0</ele><time>2026-04-03T16:21:08.329Z</time></trkpt><trkpt lat="37.4909588" lon="14.0422354"><ele>614.8</ele><time>2026-04-03T16:21:09.329Z</time></trkpt><trkpt lat="37.4909734" lon="14.0421183"><ele>614.6</ele><time>2026-04-03T16:21:10.328Z</time></trkpt><trkpt lat="37.4909874" lon="14.0419999"><ele>614.4</ele><time>2026-04-03T16:21:11.328Z</time></trkpt><trkpt lat="37.4910005" lon="14.0418851"><ele>614.2</ele><time>2026-04-03T16:21:12.329Z</time></trkpt><trkpt lat="37.4910142" lon="14.0417752"><ele>614.0</ele><time>2026-04-03T16:21:13.328Z</time></trkpt><trkpt lat="37.4910264" lon="14.0416713"><ele>613.1666666666666</ele><time>2026-04-03T16:21:14.329Z</time></trkpt><trkpt lat="37.4910389" lon="14.0415741"><ele>612.3333333333333</ele><time>2026-04-03T16:21:15.329Z</time></trkpt><trkpt lat="37.491051" lon="14.0414881"><ele>611.5</ele><time>2026-04-03T16:21:16.329Z</time></trkpt><trkpt lat="37.4910705" lon="14.0413717"><ele>610.6666666666666</ele><time>2026-04-03T16:21:18.329Z</time></trkpt><trkpt lat="37.4910758" lon="14.0412664"><ele>609.8333333333334</ele><time>2026-04-03T16:21:21.329Z</time></trkpt><trkpt lat="37.4910958" lon="14.0411609"><ele>609.0</ele><time>2026-04-03T16:21:23.329Z</time></trkpt><trkpt lat="37.4911413" lon="14.0410527"><ele>609.0</ele><time>2026-04-03T16:21:25.329Z</time></trkpt><trkpt lat="37.4911858" lon="14.040964"><ele>609.0</ele><time>2026-04-03T16:21:28.329Z</time></trkpt><trkpt lat="37.4912227" lon="14.0408871"><ele>609.0</ele><time>2026-04-03T16:21:30.329Z</time></trkpt><trkpt lat="37.4912907" lon="14.0408091"><ele>609.0</ele><time>2026-04-03T16:21:33.328Z</time></trkpt><trkpt lat="37.4913415" lon="14.0407533"><ele>609.0</ele><time>2026-04-03T16:21:35.29Z</time></trkpt><trkpt lat="37.4914093" lon="14.0406796"><ele>609.0</ele><time>2026-04-03T16:21:37.249Z</time></trkpt><trkpt lat="37.4914513" lon="14.0405597"><ele>610.1666666666666</ele><time>2026-04-03T16:21:39.329Z</time></trkpt><trkpt lat="37.4914328" lon="14.0404363"><ele>611.3333333333334</ele><time>2026-04-03T16:21:41.329Z</time></trkpt><trkpt lat="37.4913993" lon="14.0403423"><ele>612.5</ele><time>2026-04-03T16:21:43.329Z</time></trkpt><trkpt lat="37.4913753" lon="14.0402507"><ele>613.6666666666667</ele><time>2026-04-03T16:21:45.329Z</time></trkpt><trkpt lat="37.4913613" lon="14.040146"><ele>614.8333333333334</ele><time>2026-04-03T16:21:47.328Z</time></trkpt><trkpt lat="37.4913608" lon="14.0400427"><ele>616.0</ele><time>2026-04-03T16:21:49.329Z</time></trkpt><trkpt lat="37.4913647" lon="14.0399577"><ele>616.5</ele><time>2026-04-03T16:21:51.329Z</time></trkpt><trkpt lat="37.4913681" lon="14.0398736"><ele>617.0</ele><time>2026-04-03T16:21:53.329Z</time></trkpt><trkpt lat="37.4913776" lon="14.0397633"><ele>617.5</ele><time>2026-04-03T16:21:55.329Z</time></trkpt><trkpt lat="37.4913666" lon="14.0396279"><ele>618.0</ele><time>2026-04-03T16:21:57.329Z</time></trkpt><trkpt lat="37.4913505" lon="14.0395499"><ele>618.5</ele><time>2026-04-03T16:21:58.329Z</time></trkpt><trkpt lat="37.4913269" lon="14.0394671"><ele>619.0</ele><time>2026-04-03T16:21:59.329Z</time></trkpt><trkpt lat="37.4912987" lon="14.0393869"><ele>619.0</ele><time>2026-04-03T16:22:00.329Z</time></trkpt><trkpt lat="37.4912656" lon="14.0393132"><ele>619.0</ele><time>2026-04-03T16:22:01.329Z</time></trkpt><trkpt lat="37.4912328" lon="14.0392424"><ele>619.0</ele><time>2026-04-03T16:22:02.329Z</time></trkpt><trkpt lat="37.4911607" lon="14.039128"><ele>619.0</ele><time>2026-04-03T16:22:04.329Z</time></trkpt><trkpt lat="37.4910935" lon="14.0390327"><ele>619.0</ele><time>2026-04-03T16:22:06.328Z</time></trkpt><trkpt lat="37.4910318" lon="14.0389482"><ele>619.0</ele><time>2026-04-03T16:22:08.329Z</time></trkpt><trkpt lat="37.490978" lon="14.0388653"><ele>618.0</ele><time>2026-04-03T16:22:10.329Z</time></trkpt><trkpt lat="37.490931" lon="14.0387932"><ele>617.0</ele><time>2026-04-03T16:22:12.329Z</time></trkpt><trkpt lat="37.4908871" lon="14.0387274"><ele>616.0</ele><time>2026-04-03T16:22:15.329Z</time></trkpt><trkpt lat="37.4908204" lon="14.0387456"><ele>615.0</ele><time>2026-04-03T16:22:29.329Z</time></trkpt><trkpt lat="37.4908512" lon="14.0388311"><ele>614.0</ele><time>2026-04-03T16:22:31.329Z</time></trkpt><trkpt lat="37.4909294" lon="14.0389144"><ele>613.0</ele><time>2026-04-03T16:22:33.329Z</time></trkpt><trkpt lat="37.4909971" lon="14.0390017"><ele>613.0</ele><time>2026-04-03T16:22:35.329Z</time></trkpt><trkpt lat="37.4910356" lon="14.0391017"><ele>613.0</ele><time>2026-04-03T16:22:37.329Z</time></trkpt><trkpt lat="37.4909912" lon="14.0392271"><ele>613.0</ele><time>2026-04-03T16:22:39.328Z</time></trkpt><trkpt lat="37.4909508" lon="14.0392945"><ele>613.0</ele><time>2026-04-03T16:22:40.329Z</time></trkpt><trkpt lat="37.4908957" lon="14.0393583"><ele>613.0</ele><time>2026-04-03T16:22:41.329Z</time></trkpt><trkpt lat="37.4908312" lon="14.0394184"><ele>613.0</ele><time>2026-04-03T16:22:42.329Z</time></trkpt><trkpt lat="37.4907606" lon="14.0394717"><ele>613.1666666666667</ele><time>2026-04-03T16:22:43.329Z</time></trkpt><trkpt lat="37.4906856" lon="14.039503"><ele>613.3333333333334</ele><time>2026-04-03T16:22:44.329Z</time></trkpt><trkpt lat="37.4906037" lon="14.0395074"><ele>613.5</ele><time>2026-04-03T16:22:45.329Z</time></trkpt><trkpt lat="37.4905199" lon="14.0394903"><ele>613.6666666666666</ele><time>2026-04-03T16:22:46.329Z</time></trkpt><trkpt lat="37.490434" lon="14.0394543"><ele>613.8333333333333</ele><time>2026-04-03T16:22:47.329Z</time></trkpt><trkpt lat="37.4903483" lon="14.0394042"><ele>614.0</ele><time>2026-04-03T16:22:48.329Z</time></trkpt><trkpt lat="37.4902618" lon="14.0393375"><ele>612.8</ele><time>2026-04-03T16:22:49.329Z</time></trkpt><trkpt lat="37.4901788" lon="14.0392611"><ele>611.5999999999999</ele><time>2026-04-03T16:22:50.329Z</time></trkpt><trkpt lat="37.4900969" lon="14.039175"><ele>610.4</ele><time>2026-04-03T16:22:51.329Z</time></trkpt><trkpt lat="37.4900144" lon="14.0390843"><ele>609.1999999999999</ele><time>2026-04-03T16:22:52.329Z</time></trkpt><trkpt lat="37.4899304" lon="14.0389904"><ele>608.0</ele><time>2026-04-03T16:22:53.329Z</time></trkpt><trkpt lat="37.4898471" lon="14.0388934"><ele>607.75</ele><time>2026-04-03T16:22:54.328Z</time></trkpt><trkpt lat="37.4897644" lon="14.0387945"><ele>607.5</ele><time>2026-04-03T16:22:55.329Z</time></trkpt><trkpt lat="37.4896817" lon="14.0386874"><ele>607.25</ele><time>2026-04-03T16:22:56.329Z</time></trkpt><trkpt lat="37.4896015" lon="14.0385747"><ele>607.0</ele><time>2026-04-03T16:22:57.329Z</time></trkpt><trkpt lat="37.4895252" lon="14.0384528"><ele>605.5</ele><time>2026-04-03T16:22:58.329Z</time></trkpt><trkpt lat="37.4894487" lon="14.0383248"><ele>604.0</ele><time>2026-04-03T16:22:59.329Z</time></trkpt><trkpt lat="37.4893733" lon="14.0381942"><ele>602.5</ele><time>2026-04-03T16:23:00.329Z</time></trkpt><trkpt lat="37.4892973" lon="14.0380608"><ele>601.0</ele><time>2026-04-03T16:23:01.329Z</time></trkpt><trkpt lat="37.4892203" lon="14.037926"><ele>601.0</ele><time>2026-04-03T16:23:02.329Z</time></trkpt><trkpt lat="37.4891419" lon="14.0377921"><ele>601.0</ele><time>2026-04-03T16:23:03.329Z</time></trkpt><trkpt lat="37.4890624" lon="14.037654"><ele>601.0</ele><time>2026-04-03T16:23:04.329Z</time></trkpt><trkpt lat="37.4889838" lon="14.0375126"><ele>601.0</ele><time>2026-04-03T16:23:05.329Z</time></trkpt><trkpt lat="37.4889069" lon="14.0373711"><ele>602.0</ele><time>2026-04-03T16:23:06.329Z</time></trkpt><trkpt lat="37.4888287" lon="14.0372298"><ele>603.0</ele><time>2026-04-03T16:23:07.329Z</time></trkpt><trkpt lat="37.488749" lon="14.0370881"><ele>604.0</ele><time>2026-04-03T16:23:08.329Z</time></trkpt><trkpt lat="37.4886679" lon="14.0369502"><ele>605.0</ele><time>2026-04-03T16:23:09.329Z</time></trkpt><trkpt lat="37.4885852" lon="14.0368127"><ele>603.75</ele><time>2026-04-03T16:23:10.329Z</time></trkpt><trkpt lat="37.4884982" lon="14.0366772"><ele>602.5</ele><time>2026-04-03T16:23:11.329Z</time></trkpt><trkpt lat="37.4884045" lon="14.0365471"><ele>601.25</ele><time>2026-04-03T16:23:12.328Z</time></trkpt><trkpt lat="37.4883054" lon="14.0364237"><ele>600.0</ele><time>2026-04-03T16:23:13.329Z</time></trkpt><trkpt lat="37.488203" lon="14.036306"><ele>600.0</ele><time>2026-04-03T16:23:14.329Z</time></trkpt><trkpt lat="37.4880968" lon="14.0361953"><ele>600.0</ele><time>2026-04-03T16:23:15.329Z</time></trkpt><trkpt lat="37.487986" lon="14.0360901"><ele>600.0</ele><time>2026-04-03T16:23:16.329Z</time></trkpt><trkpt lat="37.4878736" lon="14.0359872"><ele>600.0</ele><time>2026-04-03T16:23:17.329Z</time></trkpt><trkpt lat="37.4877584" lon="14.0358876"><ele>600.25</ele><time>2026-04-03T16:23:18.329Z</time></trkpt><trkpt lat="37.4876427" lon="14.03579"><ele>600.5</ele><time>2026-04-03T16:23:19.329Z</time></trkpt><trkpt lat="37.4875268" lon="14.035692"><ele>600.75</ele><time>2026-04-03T16:23:20.328Z</time></trkpt><trkpt lat="37.487413" lon="14.0355935"><ele>601.0</ele><time>2026-04-03T16:23:21.329Z</time></trkpt><trkpt lat="37.4872991" lon="14.0354966"><ele>601.0</ele><time>2026-04-03T16:23:22.329Z</time></trkpt><trkpt lat="37.4871842" lon="14.0354033"><ele>601.0</ele><time>2026-04-03T16:23:23.329Z</time></trkpt><trkpt lat="37.4870702" lon="14.035309"><ele>601.0</ele><time>2026-04-03T16:23:24.329Z</time></trkpt><trkpt lat="37.4869576" lon="14.035212"><ele>601.0</ele><time>2026-04-03T16:23:25.329Z</time></trkpt><trkpt lat="37.4868441" lon="14.0351158"><ele>599.25</ele><time>2026-04-03T16:23:26.329Z</time></trkpt><trkpt lat="37.4867301" lon="14.0350178"><ele>597.5</ele><time>2026-04-03T16:23:27.329Z</time></trkpt><trkpt lat="37.4866151" lon="14.0349194"><ele>595.75</ele><time>2026-04-03T16:23:28.329Z</time></trkpt><trkpt lat="37.4864989" lon="14.0348204"><ele>594.0</ele><time>2026-04-03T16:23:29.329Z</time></trkpt><trkpt lat="37.4863815" lon="14.0347223"><ele>594.0</ele><time>2026-04-03T16:23:30.329Z</time></trkpt><trkpt lat="37.4862638" lon="14.0346243"><ele>594.0</ele><time>2026-04-03T16:23:31.329Z</time></trkpt><trkpt lat="37.4861469" lon="14.034525"><ele>594.0</ele><time>2026-04-03T16:23:32.329Z</time></trkpt><trkpt lat="37.4860306" lon="14.0344235"><ele>594.0</ele><time>2026-04-03T16:23:33.329Z</time></trkpt><trkpt lat="37.4859133" lon="14.0343243"><ele>594.5</ele><time>2026-04-03T16:23:34.328Z</time></trkpt><trkpt lat="37.4857933" lon="14.03423"><ele>595.0</ele><time>2026-04-03T16:23:35.328Z</time></trkpt><trkpt lat="37.4856716" lon="14.0341411"><ele>595.5</ele><time>2026-04-03T16:23:36.329Z</time></trkpt><trkpt lat="37.4855496" lon="14.0340538"><ele>596.0</ele><time>2026-04-03T16:23:37.329Z</time></trkpt><trkpt lat="37.4854257" lon="14.0339749"><ele>593.75</ele><time>2026-04-03T16:23:38.329Z</time></trkpt><trkpt lat="37.4853" lon="14.0339016"><ele>591.5</ele><time>2026-04-03T16:23:39.329Z</time></trkpt><trkpt lat="37.4851739" lon="14.0338305"><ele>589.25</ele><time>2026-04-03T16:23:40.329Z</time></trkpt><trkpt lat="37.485048" lon="14.0337613"><ele>587.0</ele><time>2026-04-03T16:23:41.329Z</time></trkpt><trkpt lat="37.4849223" lon="14.0336921"><ele>587.0</ele><time>2026-04-03T16:23:42.328Z</time></trkpt><trkpt lat="37.4847961" lon="14.033625"><ele>587.0</ele><time>2026-04-03T16:23:43.329Z</time></trkpt><trkpt lat="37.4846709" lon="14.0335575"><ele>587.0</ele><time>2026-04-03T16:23:44.329Z</time></trkpt><trkpt lat="37.4845464" lon="14.0334902"><ele>587.0</ele><time>2026-04-03T16:23:45.329Z</time></trkpt><trkpt lat="37.484421" lon="14.0334251"><ele>587.0</ele><time>2026-04-03T16:23:46.329Z</time></trkpt><trkpt lat="37.4842962" lon="14.0333592"><ele>587.0</ele><time>2026-04-03T16:23:47.329Z</time></trkpt><trkpt lat="37.4841722" lon="14.0332918"><ele>587.0</ele><time>2026-04-03T16:23:48.329Z</time></trkpt><trkpt lat="37.4840478" lon="14.0332258"><ele>587.0</ele><time>2026-04-03T16:23:49.329Z</time></trkpt><trkpt lat="37.4839234" lon="14.0331587"><ele>587.0</ele><time>2026-04-03T16:23:50.329Z</time></trkpt><trkpt lat="37.4837988" lon="14.0330936"><ele>587.0</ele><time>2026-04-03T16:23:51.329Z</time></trkpt><trkpt lat="37.4836735" lon="14.0330279"><ele>587.0</ele><time>2026-04-03T16:23:52.329Z</time></trkpt><trkpt lat="37.4835478" lon="14.0329615"><ele>587.0</ele><time>2026-04-03T16:23:53.329Z</time></trkpt><trkpt lat="37.4834219" lon="14.0328954"><ele>583.75</ele><time>2026-04-03T16:23:54.329Z</time></trkpt><trkpt lat="37.4832971" lon="14.0328285"><ele>580.5</ele><time>2026-04-03T16:23:55.329Z</time></trkpt><trkpt lat="37.4831731" lon="14.0327606"><ele>577.25</ele><time>2026-04-03T16:23:56.329Z</time></trkpt><trkpt lat="37.483049" lon="14.0326931"><ele>574.0</ele><time>2026-04-03T16:23:57.328Z</time></trkpt><trkpt lat="37.482925" lon="14.032626"><ele>574.75</ele><time>2026-04-03T16:23:58.329Z</time></trkpt><trkpt lat="37.4827996" lon="14.0325578"><ele>575.5</ele><time>2026-04-03T16:23:59.329Z</time></trkpt><trkpt lat="37.4826734" lon="14.032492"><ele>576.25</ele><time>2026-04-03T16:24:00.329Z</time></trkpt><trkpt lat="37.4825469" lon="14.0324286"><ele>577.0</ele><time>2026-04-03T16:24:01.329Z</time></trkpt><trkpt lat="37.4824201" lon="14.0323635"><ele>577.0</ele><time>2026-04-03T16:24:02.329Z</time></trkpt><trkpt lat="37.4822938" lon="14.0322967"><ele>577.0</ele><time>2026-04-03T16:24:03.329Z</time></trkpt><trkpt lat="37.4821665" lon="14.0322289"><ele>577.0</ele><time>2026-04-03T16:24:04.329Z</time></trkpt><trkpt lat="37.4820376" lon="14.0321592"><ele>577.0</ele><time>2026-04-03T16:24:05.329Z</time></trkpt><trkpt lat="37.4819079" lon="14.0320896"><ele>577.25</ele><time>2026-04-03T16:24:06.329Z</time></trkpt><trkpt lat="37.4817789" lon="14.0320184"><ele>577.5</ele><time>2026-04-03T16:24:07.329Z</time></trkpt><trkpt lat="37.4816475" lon="14.0319461"><ele>577.75</ele><time>2026-04-03T16:24:08.329Z</time></trkpt><trkpt lat="37.4815149" lon="14.0318731"><ele>578.0</ele><time>2026-04-03T16:24:09.329Z</time></trkpt><trkpt lat="37.4813817" lon="14.0318015"><ele>577.75</ele><time>2026-04-03T16:24:10.328Z</time></trkpt><trkpt lat="37.4812472" lon="14.0317303"><ele>577.5</ele><time>2026-04-03T16:24:11.329Z</time></trkpt><trkpt lat="37.4811127" lon="14.0316585"><ele>577.25</ele><time>2026-04-03T16:24:12.329Z</time></trkpt><trkpt lat="37.4809774" lon="14.031584"><ele>577.0</ele><time>2026-04-03T16:24:13.329Z</time></trkpt><trkpt lat="37.4808407" lon="14.031511"><ele>577.0</ele><time>2026-04-03T16:24:14.329Z</time></trkpt><trkpt lat="37.4807031" lon="14.0314384"><ele>577.0</ele><time>2026-04-03T16:24:15.329Z</time></trkpt><trkpt lat="37.4805659" lon="14.031367"><ele>577.0</ele><time>2026-04-03T16:24:16.329Z</time></trkpt><trkpt lat="37.4804316" lon="14.0312957"><ele>577.0</ele><time>2026-04-03T16:24:17.329Z</time></trkpt><trkpt lat="37.4802959" lon="14.0312238"><ele>575.5</ele><time>2026-04-03T16:24:18.329Z</time></trkpt><trkpt lat="37.4801614" lon="14.0311531"><ele>574.0</ele><time>2026-04-03T16:24:19.329Z</time></trkpt><trkpt lat="37.480029" lon="14.0310812"><ele>572.5</ele><time>2026-04-03T16:24:20.329Z</time></trkpt><trkpt lat="37.4798981" lon="14.0310083"><ele>571.0</ele><time>2026-04-03T16:24:21.329Z</time></trkpt><trkpt lat="37.4797688" lon="14.0309382"><ele>571.0</ele><time>2026-04-03T16:24:22.329Z</time></trkpt><trkpt lat="37.4796407" lon="14.0308689"><ele>571.0</ele><time>2026-04-03T16:24:23.329Z</time></trkpt><trkpt lat="37.4795152" lon="14.0307991"><ele>571.0</ele><time>2026-04-03T16:24:24.329Z</time></trkpt><trkpt lat="37.479388" lon="14.0307291"><ele>571.0</ele><time>2026-04-03T16:24:25.329Z</time></trkpt><trkpt lat="37.47926" lon="14.0306629"><ele>571.75</ele><time>2026-04-03T16:24:26.329Z</time></trkpt><trkpt lat="37.4791319" lon="14.0305929"><ele>572.5</ele><time>2026-04-03T16:24:27.329Z</time></trkpt><trkpt lat="37.479001" lon="14.0305226"><ele>573.25</ele><time>2026-04-03T16:24:28.329Z</time></trkpt><trkpt lat="37.4788687" lon="14.0304531"><ele>574.0</ele><time>2026-04-03T16:24:29.329Z</time></trkpt><trkpt lat="37.478738" lon="14.0303822"><ele>572.25</ele><time>2026-04-03T16:24:30.329Z</time></trkpt><trkpt lat="37.4786061" lon="14.0303108"><ele>570.5</ele><time>2026-04-03T16:24:31.329Z</time></trkpt><trkpt lat="37.4784745" lon="14.0302384"><ele>568.75</ele><time>2026-04-03T16:24:32.329Z</time></trkpt><trkpt lat="37.4783432" lon="14.0301691"><ele>567.0</ele><time>2026-04-03T16:24:33.328Z</time></trkpt><trkpt lat="37.4782117" lon="14.0301005"><ele>567.0</ele><time>2026-04-03T16:24:34.329Z</time></trkpt><trkpt lat="37.4780807" lon="14.0300324"><ele>567.0</ele><time>2026-04-03T16:24:35.329Z</time></trkpt><trkpt lat="37.47795" lon="14.029963"><ele>567.0</ele><time>2026-04-03T16:24:36.329Z</time></trkpt><trkpt lat="37.47782" lon="14.0298958"><ele>567.0</ele><time>2026-04-03T16:24:37.329Z</time></trkpt><trkpt lat="37.4776916" lon="14.0298278"><ele>567.0</ele><time>2026-04-03T16:24:38.329Z</time></trkpt><trkpt lat="37.4775624" lon="14.0297591"><ele>567.0</ele><time>2026-04-03T16:24:39.329Z</time></trkpt><trkpt lat="37.477435" lon="14.0296906"><ele>567.0</ele><time>2026-04-03T16:24:40.329Z</time></trkpt><trkpt lat="37.4773049" lon="14.0296222"><ele>567.0</ele><time>2026-04-03T16:24:41.329Z</time></trkpt><trkpt lat="37.4771752" lon="14.029553"><ele>566.0</ele><time>2026-04-03T16:24:42.329Z</time></trkpt><trkpt lat="37.4770454" lon="14.0294839"><ele>565.0</ele><time>2026-04-03T16:24:43.329Z</time></trkpt><trkpt lat="37.4769137" lon="14.0294147"><ele>564.0</ele><time>2026-04-03T16:24:44.329Z</time></trkpt><trkpt lat="37.4767854" lon="14.0293453"><ele>563.0</ele><time>2026-04-03T16:24:45.329Z</time></trkpt><trkpt lat="37.4766557" lon="14.029275"><ele>563.0</ele><time>2026-04-03T16:24:46.329Z</time></trkpt><trkpt lat="37.4765245" lon="14.0292033"><ele>563.0</ele><time>2026-04-03T16:24:47.329Z</time></trkpt><trkpt lat="37.4763916" lon="14.029134"><ele>563.0</ele><time>2026-04-03T16:24:48.329Z</time></trkpt><trkpt lat="37.4762593" lon="14.0290631"><ele>563.0</ele><time>2026-04-03T16:24:49.329Z</time></trkpt><trkpt lat="37.4761265" lon="14.0289932"><ele>563.25</ele><time>2026-04-03T16:24:50.329Z</time></trkpt><trkpt lat="37.4759944" lon="14.0289231"><ele>563.5</ele><time>2026-04-03T16:24:51.329Z</time></trkpt><trkpt lat="37.4758641" lon="14.0288522"><ele>563.75</ele><time>2026-04-03T16:24:52.329Z</time></trkpt><trkpt lat="37.4757341" lon="14.0287815"><ele>564.0</ele><time>2026-04-03T16:24:53.328Z</time></trkpt><trkpt lat="37.4756037" lon="14.0287117"><ele>564.0</ele><time>2026-04-03T16:24:54.329Z</time></trkpt><trkpt lat="37.4754753" lon="14.0286428"><ele>564.0</ele><time>2026-04-03T16:24:55.329Z</time></trkpt><trkpt lat="37.475348" lon="14.0285751"><ele>564.0</ele><time>2026-04-03T16:24:56.329Z</time></trkpt><trkpt lat="37.4752219" lon="14.0285098"><ele>564.0</ele><time>2026-04-03T16:24:57.329Z</time></trkpt><trkpt lat="37.4750973" lon="14.0284433"><ele>562.75</ele><time>2026-04-03T16:24:58.328Z</time></trkpt><trkpt lat="37.4749712" lon="14.0283763"><ele>561.5</ele><time>2026-04-03T16:24:59.329Z</time></trkpt><trkpt lat="37.4748432" lon="14.0283057"><ele>560.25</ele><time>2026-04-03T16:25:00.329Z</time></trkpt><trkpt lat="37.474716" lon="14.0282276"><ele>559.0</ele><time>2026-04-03T16:25:01.329Z</time></trkpt><trkpt lat="37.4745933" lon="14.0281401"><ele>557.25</ele><time>2026-04-03T16:25:02.329Z</time></trkpt><trkpt lat="37.4744718" lon="14.0280462"><ele>555.5</ele><time>2026-04-03T16:25:03.329Z</time></trkpt><trkpt lat="37.4743527" lon="14.0279449"><ele>553.75</ele><time>2026-04-03T16:25:04.329Z</time></trkpt><trkpt lat="37.4742377" lon="14.027838"><ele>552.0</ele><time>2026-04-03T16:25:05.329Z</time></trkpt><trkpt lat="37.4741298" lon="14.0277201"><ele>552.0</ele><time>2026-04-03T16:25:06.328Z</time></trkpt><trkpt lat="37.4740289" lon="14.0275946"><ele>552.0</ele><time>2026-04-03T16:25:07.329Z</time></trkpt><trkpt lat="37.4739341" lon="14.0274655"><ele>552.0</ele><time>2026-04-03T16:25:08.329Z</time></trkpt><trkpt lat="37.4738441" lon="14.0273351"><ele>552.0</ele><time>2026-04-03T16:25:09.329Z</time></trkpt><trkpt lat="37.4737603" lon="14.0272005"><ele>550.25</ele><time>2026-04-03T16:25:10.328Z</time></trkpt><trkpt lat="37.473682" lon="14.0270596"><ele>548.5</ele><time>2026-04-03T16:25:11.329Z</time></trkpt><trkpt lat="37.4736096" lon="14.0269138"><ele>546.75</ele><time>2026-04-03T16:25:12.329Z</time></trkpt><trkpt lat="37.4735466" lon="14.0267581"><ele>545.0</ele><time>2026-04-03T16:25:13.329Z</time></trkpt><trkpt lat="37.4734886" lon="14.0266017"><ele>545.0</ele><time>2026-04-03T16:25:14.329Z</time></trkpt><trkpt lat="37.473436" lon="14.0264443"><ele>545.0</ele><time>2026-04-03T16:25:15.329Z</time></trkpt><trkpt lat="37.4733924" lon="14.0262857"><ele>545.0</ele><time>2026-04-03T16:25:16.329Z</time></trkpt><trkpt lat="37.4733557" lon="14.0261265"><ele>545.0</ele><time>2026-04-03T16:25:17.328Z</time></trkpt><trkpt lat="37.4733247" lon="14.0259664"><ele>543.75</ele><time>2026-04-03T16:25:18.329Z</time></trkpt><trkpt lat="37.4732992" lon="14.0258021"><ele>542.5</ele><time>2026-04-03T16:25:19.329Z</time></trkpt><trkpt lat="37.4732795" lon="14.0256412"><ele>541.25</ele><time>2026-04-03T16:25:20.329Z</time></trkpt><trkpt lat="37.4732661" lon="14.0254833"><ele>540.0</ele><time>2026-04-03T16:25:21.329Z</time></trkpt><trkpt lat="37.4732597" lon="14.0253315"><ele>540.0</ele><time>2026-04-03T16:25:22.329Z</time></trkpt><trkpt lat="37.4732619" lon="14.0251836"><ele>540.0</ele><time>2026-04-03T16:25:23.329Z</time></trkpt><trkpt lat="37.4732676" lon="14.0250331"><ele>540.0</ele><time>2026-04-03T16:25:24.329Z</time></trkpt><trkpt lat="37.4732754" lon="14.0248781"><ele>540.0</ele><time>2026-04-03T16:25:25.329Z</time></trkpt><trkpt lat="37.4732882" lon="14.0247184"><ele>538.5</ele><time>2026-04-03T16:25:26.329Z</time></trkpt><trkpt lat="37.4733036" lon="14.0245544"><ele>537.0</ele><time>2026-04-03T16:25:27.329Z</time></trkpt><trkpt lat="37.473322" lon="14.0243853"><ele>535.5</ele><time>2026-04-03T16:25:28.329Z</time></trkpt><trkpt lat="37.4733423" lon="14.024214"><ele>534.0</ele><time>2026-04-03T16:25:29.329Z</time></trkpt><trkpt lat="37.4733614" lon="14.0240422"><ele>531.5</ele><time>2026-04-03T16:25:30.329Z</time></trkpt><trkpt lat="37.473379" lon="14.0238719"><ele>529.0</ele><time>2026-04-03T16:25:31.329Z</time></trkpt><trkpt lat="37.4733973" lon="14.0237009"><ele>526.5</ele><time>2026-04-03T16:25:32.329Z</time></trkpt><trkpt lat="37.4734174" lon="14.0235314"><ele>524.0</ele><time>2026-04-03T16:25:33.329Z</time></trkpt><trkpt lat="37.4734407" lon="14.0233626"><ele>523.75</ele><time>2026-04-03T16:25:34.329Z</time></trkpt><trkpt lat="37.4734625" lon="14.0231932"><ele>523.5</ele><time>2026-04-03T16:25:35.329Z</time></trkpt><trkpt lat="37.4734821" lon="14.0230226"><ele>523.25</ele><time>2026-04-03T16:25:36.329Z</time></trkpt><trkpt lat="37.4735019" lon="14.0228504"><ele>523.0</ele><time>2026-04-03T16:25:37.329Z</time></trkpt><trkpt lat="37.4735205" lon="14.0226773"><ele>523.0</ele><time>2026-04-03T16:25:38.329Z</time></trkpt><trkpt lat="37.473541" lon="14.0225042"><ele>523.0</ele><time>2026-04-03T16:25:39.329Z</time></trkpt><trkpt lat="37.4735619" lon="14.0223309"><ele>523.0</ele><time>2026-04-03T16:25:40.329Z</time></trkpt><trkpt lat="37.4735815" lon="14.0221582"><ele>523.0</ele><time>2026-04-03T16:25:41.328Z</time></trkpt><trkpt lat="37.473599" lon="14.0219851"><ele>522.25</ele><time>2026-04-03T16:25:42.329Z</time></trkpt><trkpt lat="37.4736167" lon="14.0218118"><ele>521.5</ele><time>2026-04-03T16:25:43.329Z</time></trkpt><trkpt lat="37.4736361" lon="14.0216398"><ele>520.75</ele><time>2026-04-03T16:25:44.329Z</time></trkpt><trkpt lat="37.4736565" lon="14.0214699"><ele>520.0</ele><time>2026-04-03T16:25:45.329Z</time></trkpt><trkpt lat="37.4736779" lon="14.0213009"><ele>519.5</ele><time>2026-04-03T16:25:46.329Z</time></trkpt><trkpt lat="37.4737009" lon="14.0211316"><ele>519.0</ele><time>2026-04-03T16:25:47.329Z</time></trkpt><trkpt lat="37.4737222" lon="14.0209605"><ele>518.5</ele><time>2026-04-03T16:25:48.329Z</time></trkpt><trkpt lat="37.4737417" lon="14.0207862"><ele>518.0</ele><time>2026-04-03T16:25:49.329Z</time></trkpt><trkpt lat="37.4737606" lon="14.0206119"><ele>519.25</ele><time>2026-04-03T16:25:50.329Z</time></trkpt><trkpt lat="37.4737805" lon="14.0204377"><ele>520.5</ele><time>2026-04-03T16:25:51.328Z</time></trkpt><trkpt lat="37.4738001" lon="14.0202635"><ele>521.75</ele><time>2026-04-03T16:25:52.328Z</time></trkpt><trkpt lat="37.4738203" lon="14.0200895"><ele>523.0</ele><time>2026-04-03T16:25:53.329Z</time></trkpt><trkpt lat="37.4738403" lon="14.0199164"><ele>523.0</ele><time>2026-04-03T16:25:54.329Z</time></trkpt><trkpt lat="37.4738596" lon="14.0197438"><ele>523.0</ele><time>2026-04-03T16:25:55.329Z</time></trkpt><trkpt lat="37.47388" lon="14.0195721"><ele>523.0</ele><time>2026-04-03T16:25:56.329Z</time></trkpt><trkpt lat="37.4739001" lon="14.0194014"><ele>523.0</ele><time>2026-04-03T16:25:57.329Z</time></trkpt><trkpt lat="37.47392" lon="14.0192322"><ele>523.0</ele><time>2026-04-03T16:25:58.329Z</time></trkpt><trkpt lat="37.4739403" lon="14.0190639"><ele>523.0</ele><time>2026-04-03T16:25:59.329Z</time></trkpt><trkpt lat="37.4739605" lon="14.0188957"><ele>523.0</ele><time>2026-04-03T16:26:00.329Z</time></trkpt><trkpt lat="37.4739812" lon="14.018726"><ele>523.0</ele><time>2026-04-03T16:26:01.329Z</time></trkpt><trkpt lat="37.4740027" lon="14.0185566"><ele>523.0</ele><time>2026-04-03T16:26:02.329Z</time></trkpt><trkpt lat="37.4740232" lon="14.0183875"><ele>523.0</ele><time>2026-04-03T16:26:03.329Z</time></trkpt><trkpt lat="37.4740414" lon="14.018222"><ele>523.0</ele><time>2026-04-03T16:26:04.329Z</time></trkpt><trkpt lat="37.4740586" lon="14.0180624"><ele>523.0</ele><time>2026-04-03T16:26:05.329Z</time></trkpt><trkpt lat="37.4740745" lon="14.0179099"><ele>522.0</ele><time>2026-04-03T16:26:06.329Z</time></trkpt><trkpt lat="37.4740897" lon="14.0177636"><ele>521.0</ele><time>2026-04-03T16:26:07.329Z</time></trkpt><trkpt lat="37.474105" lon="14.0176252"><ele>520.0</ele><time>2026-04-03T16:26:08.329Z</time></trkpt><trkpt lat="37.4741203" lon="14.0174939"><ele>519.0</ele><time>2026-04-03T16:26:09.329Z</time></trkpt><trkpt lat="37.4741321" lon="14.0173691"><ele>518.0</ele><time>2026-04-03T16:26:10.329Z</time></trkpt><trkpt lat="37.4741402" lon="14.0172533"><ele>517.8</ele><time>2026-04-03T16:26:11.329Z</time></trkpt><trkpt lat="37.4741445" lon="14.0171567"><ele>517.5999999999999</ele><time>2026-04-03T16:26:12.329Z</time></trkpt><trkpt lat="37.4741496" lon="14.0170148"><ele>517.4000000000001</ele><time>2026-04-03T16:26:14.329Z</time></trkpt><trkpt lat="37.4741708" lon="14.0168961"><ele>517.2</ele><time>2026-04-03T16:26:16.329Z</time></trkpt><trkpt lat="37.4741818" lon="14.0167621"><ele>517.0</ele><time>2026-04-03T16:26:18.329Z</time></trkpt><trkpt lat="37.4741387" lon="14.0166293"><ele>517.0</ele><time>2026-04-03T16:26:20.329Z</time></trkpt><trkpt lat="37.4740239" lon="14.0165513"><ele>517.0</ele><time>2026-04-03T16:26:22.328Z</time></trkpt><trkpt lat="37.4739505" lon="14.0165458"><ele>517.0</ele><time>2026-04-03T16:26:23.329Z</time></trkpt><trkpt lat="37.4738763" lon="14.0165496"><ele>517.0</ele><time>2026-04-03T16:26:24.329Z</time></trkpt><trkpt lat="37.4738011" lon="14.0165333"><ele>517.0</ele><time>2026-04-03T16:26:25.329Z</time></trkpt><trkpt lat="37.4737274" lon="14.016482"><ele>517.0</ele><time>2026-04-03T16:26:26.329Z</time></trkpt><trkpt lat="37.473659" lon="14.0164004"><ele>515.8000000000001</ele><time>2026-04-03T16:26:27.329Z</time></trkpt><trkpt lat="37.4735959" lon="14.0163029"><ele>514.6</ele><time>2026-04-03T16:26:28.329Z</time></trkpt><trkpt lat="37.4735362" lon="14.0161948"><ele>513.4000000000001</ele><time>2026-04-03T16:26:29.329Z</time></trkpt><trkpt lat="37.4734797" lon="14.0160807"><ele>512.2</ele><time>2026-04-03T16:26:30.329Z</time></trkpt><trkpt lat="37.473427" lon="14.0159626"><ele>511.0</ele><time>2026-04-03T16:26:31.329Z</time></trkpt><trkpt lat="37.4733794" lon="14.015837"><ele>511.4</ele><time>2026-04-03T16:26:32.329Z</time></trkpt><trkpt lat="37.4733384" lon="14.0157037"><ele>511.8</ele><time>2026-04-03T16:26:33.329Z</time></trkpt><trkpt lat="37.4733054" lon="14.0155679"><ele>512.1999999999999</ele><time>2026-04-03T16:26:34.329Z</time></trkpt><trkpt lat="37.473278" lon="14.0154334"><ele>512.6</ele><time>2026-04-03T16:26:35.329Z</time></trkpt><trkpt lat="37.4732611" lon="14.0153013"><ele>513.0</ele><time>2026-04-03T16:26:36.329Z</time></trkpt><trkpt lat="37.4732601" lon="14.0151729"><ele>513.0</ele><time>2026-04-03T16:26:37.329Z</time></trkpt><trkpt lat="37.4732812" lon="14.0150504"><ele>513.0</ele><time>2026-04-03T16:26:38.329Z</time></trkpt><trkpt lat="37.4733175" lon="14.0149387"><ele>513.0</ele><time>2026-04-03T16:26:39.328Z</time></trkpt><trkpt lat="37.4733584" lon="14.014837"><ele>513.0</ele><time>2026-04-03T16:26:40.329Z</time></trkpt><trkpt lat="37.4734047" lon="14.0147379"><ele>513.0</ele><time>2026-04-03T16:26:41.329Z</time></trkpt><trkpt lat="37.4734604" lon="14.0146444"><ele>513.1999999999999</ele><time>2026-04-03T16:26:42.329Z</time></trkpt><trkpt lat="37.4735285" lon="14.0145619"><ele>513.4</ele><time>2026-04-03T16:26:43.329Z</time></trkpt><trkpt lat="37.4736046" lon="14.0144891"><ele>513.5999999999999</ele><time>2026-04-03T16:26:44.329Z</time></trkpt><trkpt lat="37.4736881" lon="14.0144233"><ele>513.8</ele><time>2026-04-03T16:26:45.329Z</time></trkpt><trkpt lat="37.4737786" lon="14.014362"><ele>514.0</ele><time>2026-04-03T16:26:46.329Z</time></trkpt><trkpt lat="37.4738757" lon="14.0143053"><ele>515.0</ele><time>2026-04-03T16:26:47.329Z</time></trkpt><trkpt lat="37.4739752" lon="14.0142492"><ele>516.0</ele><time>2026-04-03T16:26:48.329Z</time></trkpt><trkpt lat="37.4740733" lon="14.0141771"><ele>517.0</ele><time>2026-04-03T16:26:49.329Z</time></trkpt><trkpt lat="37.4741656" lon="14.0140795"><ele>518.0</ele><time>2026-04-03T16:26:50.329Z</time></trkpt><trkpt lat="37.4742629" lon="14.0139722"><ele>519.75</ele><time>2026-04-03T16:26:51.329Z</time></trkpt><trkpt lat="37.4743688" lon="14.0138636"><ele>521.5</ele><time>2026-04-03T16:26:52.329Z</time></trkpt><trkpt lat="37.4744248" lon="14.0137289"><ele>523.25</ele><time>2026-04-03T16:26:53.329Z</time></trkpt><trkpt lat="37.474345" lon="14.013551"><ele>525.0</ele><time>2026-04-03T16:26:54.329Z</time></trkpt><trkpt lat="37.474272" lon="14.0133962"><ele>525.5</ele><time>2026-04-03T16:26:55.329Z</time></trkpt><trkpt lat="37.4742023" lon="14.0132707"><ele>526.0</ele><time>2026-04-03T16:26:56.329Z</time></trkpt><trkpt lat="37.4741213" lon="14.0131682"><ele>526.5</ele><time>2026-04-03T16:26:57.329Z</time></trkpt><trkpt lat="37.4740259" lon="14.0130917"><ele>527.0</ele><time>2026-04-03T16:26:58.329Z</time></trkpt><trkpt lat="37.4739214" lon="14.0130419"><ele>527.0</ele><time>2026-04-03T16:26:59.329Z</time></trkpt><trkpt lat="37.4738138" lon="14.0130154"><ele>527.0</ele><time>2026-04-03T16:27:00.329Z</time></trkpt><trkpt lat="37.4737044" lon="14.0130032"><ele>527.0</ele><time>2026-04-03T16:27:01.329Z</time></trkpt><trkpt lat="37.473592" lon="14.0129916"><ele>527.0</ele><time>2026-04-03T16:27:02.329Z</time></trkpt><trkpt lat="37.4734809" lon="14.0129605"><ele>527.0</ele><time>2026-04-03T16:27:03.329Z</time></trkpt><trkpt lat="37.4733755" lon="14.0129066"><ele>526.0</ele><time>2026-04-03T16:27:04.329Z</time></trkpt><trkpt lat="37.473273" lon="14.0128335"><ele>525.0</ele><time>2026-04-03T16:27:05.329Z</time></trkpt><trkpt lat="37.4731722" lon="14.0127446"><ele>524.0</ele><time>2026-04-03T16:27:06.329Z</time></trkpt><trkpt lat="37.4730714" lon="14.0126459"><ele>523.0</ele><time>2026-04-03T16:27:07.329Z</time></trkpt><trkpt lat="37.4729686" lon="14.0125412"><ele>522.0</ele><time>2026-04-03T16:27:08.329Z</time></trkpt><trkpt lat="37.4728657" lon="14.01243"><ele>521.0</ele><time>2026-04-03T16:27:09.329Z</time></trkpt><trkpt lat="37.472761" lon="14.0123144"><ele>520.0</ele><time>2026-04-03T16:27:10.329Z</time></trkpt><trkpt lat="37.4726536" lon="14.0121978"><ele>519.0</ele><time>2026-04-03T16:27:11.329Z</time></trkpt><trkpt lat="37.4725434" lon="14.0120803"><ele>519.0</ele><time>2026-04-03T16:27:12.329Z</time></trkpt><trkpt lat="37.4724306" lon="14.0119615"><ele>519.0</ele><time>2026-04-03T16:27:13.329Z</time></trkpt><trkpt lat="37.4723147" lon="14.0118409"><ele>519.0</ele><time>2026-04-03T16:27:14.329Z</time></trkpt><trkpt lat="37.4722012" lon="14.0117197"><ele>519.0</ele><time>2026-04-03T16:27:15.329Z</time></trkpt><trkpt lat="37.4720887" lon="14.0116021"><ele>520.0</ele><time>2026-04-03T16:27:16.328Z</time></trkpt><trkpt lat="37.4719748" lon="14.0114834"><ele>521.0</ele><time>2026-04-03T16:27:17.329Z</time></trkpt><trkpt lat="37.4718611" lon="14.0113632"><ele>522.0</ele><time>2026-04-03T16:27:18.329Z</time></trkpt><trkpt lat="37.4717495" lon="14.0112414"><ele>523.0</ele><time>2026-04-03T16:27:19.329Z</time></trkpt><trkpt lat="37.4716387" lon="14.0111191"><ele>523.0</ele><time>2026-04-03T16:27:20.329Z</time></trkpt><trkpt lat="37.4715271" lon="14.0109975"><ele>523.0</ele><time>2026-04-03T16:27:21.329Z</time></trkpt><trkpt lat="37.471414" lon="14.0108771"><ele>523.0</ele><time>2026-04-03T16:27:22.329Z</time></trkpt><trkpt lat="37.4713009" lon="14.0107567"><ele>523.0</ele><time>2026-04-03T16:27:23.329Z</time></trkpt><trkpt lat="37.4711879" lon="14.0106357"><ele>523.75</ele><time>2026-04-03T16:27:24.329Z</time></trkpt><trkpt lat="37.4710749" lon="14.010513"><ele>524.5</ele><time>2026-04-03T16:27:25.329Z</time></trkpt><trkpt lat="37.4709622" lon="14.0103892"><ele>525.25</ele><time>2026-04-03T16:27:26.329Z</time></trkpt><trkpt lat="37.4708489" lon="14.0102652"><ele>526.0</ele><time>2026-04-03T16:27:27.329Z</time></trkpt><trkpt lat="37.4707365" lon="14.0101409"><ele>526.0</ele><time>2026-04-03T16:27:28.329Z</time></trkpt><trkpt lat="37.4706243" lon="14.010017"><ele>526.0</ele><time>2026-04-03T16:27:29.329Z</time></trkpt><trkpt lat="37.4705139" lon="14.0098979"><ele>526.0</ele><time>2026-04-03T16:27:30.329Z</time></trkpt><trkpt lat="37.4704067" lon="14.0097867"><ele>526.0</ele><time>2026-04-03T16:27:31.329Z</time></trkpt><trkpt lat="37.4703032" lon="14.0096804"><ele>523.75</ele><time>2026-04-03T16:27:32.329Z</time></trkpt><trkpt lat="37.4702032" lon="14.0095763"><ele>521.5</ele><time>2026-04-03T16:27:33.329Z</time></trkpt><trkpt lat="37.4701066" lon="14.0094746"><ele>519.25</ele><time>2026-04-03T16:27:34.329Z</time></trkpt><trkpt lat="37.4700122" lon="14.0093773"><ele>517.0</ele><time>2026-04-03T16:27:35.329Z</time></trkpt><trkpt lat="37.4699201" lon="14.0092827"><ele>517.0</ele><time>2026-04-03T16:27:36.329Z</time></trkpt><trkpt lat="37.4698286" lon="14.0091922"><ele>517.0</ele><time>2026-04-03T16:27:37.328Z</time></trkpt><trkpt lat="37.4697379" lon="14.0091065"><ele>517.0</ele><time>2026-04-03T16:27:38.329Z</time></trkpt><trkpt lat="37.4696496" lon="14.0090215"><ele>517.0</ele><time>2026-04-03T16:27:39.329Z</time></trkpt><trkpt lat="37.4695642" lon="14.0089376"><ele>517.0</ele><time>2026-04-03T16:27:40.329Z</time></trkpt><trkpt lat="37.4694771" lon="14.0088542"><ele>517.75</ele><time>2026-04-03T16:27:41.329Z</time></trkpt><trkpt lat="37.4693848" lon="14.0087701"><ele>518.5</ele><time>2026-04-03T16:27:42.329Z</time></trkpt><trkpt lat="37.4692883" lon="14.0086839"><ele>519.25</ele><time>2026-04-03T16:27:43.329Z</time></trkpt><trkpt lat="37.4691873" lon="14.0085931"><ele>520.0</ele><time>2026-04-03T16:27:44.329Z</time></trkpt><trkpt lat="37.4690817" lon="14.0084996"><ele>520.0</ele><time>2026-04-03T16:27:45.328Z</time></trkpt><trkpt lat="37.4689702" lon="14.0084047"><ele>520.0</ele><time>2026-04-03T16:27:46.329Z</time></trkpt><trkpt lat="37.4688539" lon="14.0083083"><ele>520.0</ele><time>2026-04-03T16:27:47.329Z</time></trkpt><trkpt lat="37.4687348" lon="14.008211"><ele>520.0</ele><time>2026-04-03T16:27:48.329Z</time></trkpt><trkpt lat="37.4686144" lon="14.0081131"><ele>521.25</ele><time>2026-04-03T16:27:49.329Z</time></trkpt><trkpt lat="37.4684927" lon="14.0080166"><ele>522.5</ele><time>2026-04-03T16:27:50.329Z</time></trkpt><trkpt lat="37.4683687" lon="14.0079214"><ele>523.75</ele><time>2026-04-03T16:27:51.329Z</time></trkpt><trkpt lat="37.4682445" lon="14.0078248"><ele>525.0</ele><time>2026-04-03T16:27:52.328Z</time></trkpt><trkpt lat="37.4681196" lon="14.0077272"><ele>525.0</ele><time>2026-04-03T16:27:53.329Z</time></trkpt><trkpt lat="37.4679942" lon="14.0076296"><ele>525.0</ele><time>2026-04-03T16:27:54.329Z</time></trkpt><trkpt lat="37.467869" lon="14.0075319"><ele>525.0</ele><time>2026-04-03T16:27:55.328Z</time></trkpt><trkpt lat="37.4672514" lon="14.0070639"><ele>502.0</ele><time>2026-04-03T16:28:00.443Z</time></trkpt><trkpt lat="37.466823" lon="14.0067054"><ele>497.0</ele><time>2026-04-03T16:28:03.329Z</time></trkpt><trkpt lat="37.4667095" lon="14.0066011"><ele>492.0</ele><time>2026-04-03T16:28:04.329Z</time></trkpt><trkpt lat="37.4665833" lon="14.0064901"><ele>487.0</ele><time>2026-04-03T16:28:05.329Z</time></trkpt><trkpt lat="37.4664623" lon="14.0063738"><ele>482.0</ele><time>2026-04-03T16:28:06.328Z</time></trkpt><trkpt lat="37.4663393" lon="14.0062562"><ele>479.0</ele><time>2026-04-03T16:28:07.329Z</time></trkpt><trkpt lat="37.4662171" lon="14.006139"><ele>476.0</ele><time>2026-04-03T16:28:08.329Z</time></trkpt><trkpt lat="37.4660983" lon="14.0060183"><ele>473.0</ele><time>2026-04-03T16:28:09.329Z</time></trkpt><trkpt lat="37.4659774" lon="14.0058955"><ele>472.0</ele><time>2026-04-03T16:28:10.329Z</time></trkpt><trkpt lat="37.4658573" lon="14.0057674"><ele>471.0</ele><time>2026-04-03T16:28:11.329Z</time></trkpt><trkpt lat="37.4657387" lon="14.0056358"><ele>470.0</ele><time>2026-04-03T16:28:12.329Z</time></trkpt><trkpt lat="37.4656231" lon="14.0055025"><ele>470.0</ele><time>2026-04-03T16:28:13.329Z</time></trkpt><trkpt lat="37.4655101" lon="14.0053673"><ele>470.0</ele><time>2026-04-03T16:28:14.329Z</time></trkpt><trkpt lat="37.465397" lon="14.0052311"><ele>470.0</ele><time>2026-04-03T16:28:15.329Z</time></trkpt><trkpt lat="37.4652867" lon="14.0050926"><ele>471.3333333333333</ele><time>2026-04-03T16:28:16.329Z</time></trkpt><trkpt lat="37.4651787" lon="14.0049515"><ele>472.66666666666663</ele><time>2026-04-03T16:28:17.329Z</time></trkpt><trkpt lat="37.4650717" lon="14.0048087"><ele>474.0</ele><time>2026-04-03T16:28:18.329Z</time></trkpt><trkpt lat="37.4649668" lon="14.0046651"><ele>474.0</ele><time>2026-04-03T16:28:19.329Z</time></trkpt><trkpt lat="37.4648637" lon="14.0045206"><ele>474.0</ele><time>2026-04-03T16:28:20.329Z</time></trkpt><trkpt lat="37.4647632" lon="14.0043736"><ele>474.0</ele><time>2026-04-03T16:28:21.329Z</time></trkpt><trkpt lat="37.4646655" lon="14.0042253"><ele>477.0</ele><time>2026-04-03T16:28:22.329Z</time></trkpt><trkpt lat="37.4645684" lon="14.0040759"><ele>480.0</ele><time>2026-04-03T16:28:23.329Z</time></trkpt><trkpt lat="37.4644738" lon="14.0039241"><ele>483.0</ele><time>2026-04-03T16:28:24.329Z</time></trkpt><trkpt lat="37.4643813" lon="14.003771"><ele>483.0</ele><time>2026-04-03T16:28:25.329Z</time></trkpt><trkpt lat="37.4642891" lon="14.0036166"><ele>483.0</ele><time>2026-04-03T16:28:26.329Z</time></trkpt><trkpt lat="37.4641989" lon="14.003461"><ele>483.0</ele><time>2026-04-03T16:28:27.329Z</time></trkpt><trkpt lat="37.4641111" lon="14.003304"><ele>487.0</ele><time>2026-04-03T16:28:28.329Z</time></trkpt><trkpt lat="37.4640258" lon="14.0031463"><ele>491.0</ele><time>2026-04-03T16:28:29.329Z</time></trkpt><trkpt lat="37.4639424" lon="14.0029879"><ele>495.0</ele><time>2026-04-03T16:28:30.329Z</time></trkpt><trkpt lat="37.4638593" lon="14.0028281"><ele>497.66666666666663</ele><time>2026-04-03T16:28:31.329Z</time></trkpt><trkpt lat="37.4637788" lon="14.0026665"><ele>500.3333333333333</ele><time>2026-04-03T16:28:32.329Z</time></trkpt><trkpt lat="37.4637022" lon="14.0025039"><ele>503.0</ele><time>2026-04-03T16:28:33.329Z</time></trkpt><trkpt lat="37.4636266" lon="14.0023399"><ele>507.0</ele><time>2026-04-03T16:28:34.329Z</time></trkpt><trkpt lat="37.4635588" lon="14.0021768"><ele>511.0</ele><time>2026-04-03T16:28:35.329Z</time></trkpt><trkpt lat="37.4634879" lon="14.0020114"><ele>515.0</ele><time>2026-04-03T16:28:36.329Z</time></trkpt><trkpt lat="37.4634156" lon="14.0018471"><ele>519.0</ele><time>2026-04-03T16:28:37.328Z</time></trkpt><trkpt lat="37.4633426" lon="14.0016828"><ele>521.75</ele><time>2026-04-03T16:28:38.329Z</time></trkpt><trkpt lat="37.4632692" lon="14.0015185"><ele>524.5</ele><time>2026-04-03T16:28:39.329Z</time></trkpt><trkpt lat="37.4631958" lon="14.0013542"><ele>527.25</ele><time>2026-04-03T16:28:40.329Z</time></trkpt><trkpt lat="37.463122" lon="14.0011894"><ele>530.0</ele><time>2026-04-03T16:28:41.329Z</time></trkpt><trkpt lat="37.4630425" lon="14.0010288"><ele>530.0</ele><time>2026-04-03T16:28:42.329Z</time></trkpt><trkpt lat="37.4629634" lon="14.0008697"><ele>530.0</ele><time>2026-04-03T16:28:43.329Z</time></trkpt><trkpt lat="37.4628825" lon="14.0007114"><ele>530.0</ele><time>2026-04-03T16:28:44.329Z</time></trkpt><trkpt lat="37.4628029" lon="14.0005522"><ele>530.0</ele><time>2026-04-03T16:28:45.328Z</time></trkpt><trkpt lat="37.462724" lon="14.0003926"><ele>531.5</ele><time>2026-04-03T16:28:46.329Z</time></trkpt><trkpt lat="37.4626427" lon="14.0002349"><ele>533.0</ele><time>2026-04-03T16:28:47.329Z</time></trkpt><trkpt lat="37.4625591" lon="14.0000797"><ele>534.5</ele><time>2026-04-03T16:28:48.329Z</time></trkpt><trkpt lat="37.462476" lon="13.9999242"><ele>536.0</ele><time>2026-04-03T16:28:49.329Z</time></trkpt><trkpt lat="37.4623933" lon="13.9997684"><ele>538.0</ele><time>2026-04-03T16:28:50.329Z</time></trkpt><trkpt lat="37.4620081" lon="13.9990154"><ele>487.0</ele><time>2026-04-03T16:28:55.346Z</time></trkpt><trkpt lat="37.459601" lon="13.9952503"><ele>487.0</ele><time>2026-04-03T16:29:19.329Z</time></trkpt><trkpt lat="37.4594936" lon="13.995123"><ele>487.0</ele><time>2026-04-03T16:29:20.329Z</time></trkpt><trkpt lat="37.459393" lon="13.9949915"><ele>487.0</ele><time>2026-04-03T16:29:21.329Z</time></trkpt><trkpt lat="37.4592918" lon="13.9948607"><ele>487.0</ele><time>2026-04-03T16:29:22.329Z</time></trkpt><trkpt lat="37.4591898" lon="13.9947304"><ele>484.5</ele><time>2026-04-03T16:29:23.329Z</time></trkpt><trkpt lat="37.4590892" lon="13.9945996"><ele>482.0</ele><time>2026-04-03T16:29:24.329Z</time></trkpt><trkpt lat="37.4589899" lon="13.99447"><ele>479.5</ele><time>2026-04-03T16:29:25.329Z</time></trkpt><trkpt lat="37.4588883" lon="13.99434"><ele>477.0</ele><time>2026-04-03T16:29:26.328Z</time></trkpt><trkpt lat="37.4587848" lon="13.9942064"><ele>477.33333333333337</ele><time>2026-04-03T16:29:27.329Z</time></trkpt><trkpt lat="37.4586818" lon="13.9940714"><ele>477.6666666666667</ele><time>2026-04-03T16:29:28.329Z</time></trkpt><trkpt lat="37.4585763" lon="13.993936"><ele>478.0</ele><time>2026-04-03T16:29:29.329Z</time></trkpt><trkpt lat="37.4584703" lon="13.9938013"><ele>478.0</ele><time>2026-04-03T16:29:30.329Z</time></trkpt><trkpt lat="37.4583646" lon="13.9936668"><ele>478.0</ele><time>2026-04-03T16:29:31.329Z</time></trkpt><trkpt lat="37.4582602" lon="13.9935359"><ele>478.0</ele><time>2026-04-03T16:29:32.329Z</time></trkpt><trkpt lat="37.4581571" lon="13.993415"><ele>478.0</ele><time>2026-04-03T16:29:33.329Z</time></trkpt><trkpt lat="37.4580552" lon="13.9932973"><ele>481.25</ele><time>2026-04-03T16:29:34.329Z</time></trkpt><trkpt lat="37.4579543" lon="13.9931787"><ele>484.5</ele><time>2026-04-03T16:29:35.329Z</time></trkpt><trkpt lat="37.4578533" lon="13.9930601"><ele>487.75</ele><time>2026-04-03T16:29:36.329Z</time></trkpt><trkpt lat="37.4577533" lon="13.9929421"><ele>491.0</ele><time>2026-04-03T16:29:37.329Z</time></trkpt><trkpt lat="37.4576531" lon="13.9928242"><ele>491.0</ele><time>2026-04-03T16:29:38.329Z</time></trkpt><trkpt lat="37.4575572" lon="13.9927094"><ele>491.0</ele><time>2026-04-03T16:29:39.329Z</time></trkpt><trkpt lat="37.4574602" lon="13.9925938"><ele>491.0</ele><time>2026-04-03T16:29:40.329Z</time></trkpt><trkpt lat="37.4573625" lon="13.9924778"><ele>491.0</ele><time>2026-04-03T16:29:41.329Z</time></trkpt><trkpt lat="37.4572712" lon="13.992362"><ele>492.25</ele><time>2026-04-03T16:29:42.329Z</time></trkpt><trkpt lat="37.4571801" lon="13.9922464"><ele>493.5</ele><time>2026-04-03T16:29:43.329Z</time></trkpt><trkpt lat="37.4570776" lon="13.9921449"><ele>494.75</ele><time>2026-04-03T16:29:44.329Z</time></trkpt><trkpt lat="37.4569746" lon="13.9920413"><ele>496.0</ele><time>2026-04-03T16:29:45.329Z</time></trkpt><trkpt lat="37.4568714" lon="13.9919362"><ele>496.0</ele><time>2026-04-03T16:29:46.329Z</time></trkpt><trkpt lat="37.45674" lon="13.9917634"><ele>496.0</ele><time>2026-04-03T16:29:47.329Z</time></trkpt><trkpt lat="37.456603" lon="13.9915753"><ele>496.0</ele><time>2026-04-03T16:29:48.329Z</time></trkpt><trkpt lat="37.4564677" lon="13.9913881"><ele>497.0</ele><time>2026-04-03T16:29:49.329Z</time></trkpt><trkpt lat="37.4563378" lon="13.9912117"><ele>498.0</ele><time>2026-04-03T16:29:50.329Z</time></trkpt><trkpt lat="37.4562252" lon="13.9909901"><ele>499.0</ele><time>2026-04-03T16:29:51.328Z</time></trkpt><trkpt lat="37.4561293" lon="13.9907555"><ele>493.0</ele><time>2026-04-03T16:29:52.329Z</time></trkpt><trkpt lat="37.456279" lon="13.9904316"><ele>487.0</ele><time>2026-04-03T16:29:53.329Z</time></trkpt><trkpt lat="37.4562147" lon="13.9902576"><ele>487.0</ele><time>2026-04-03T16:29:54.329Z</time></trkpt><trkpt lat="37.4561476" lon="13.9900907"><ele>487.0</ele><time>2026-04-03T16:29:55.329Z</time></trkpt><trkpt lat="37.4560781" lon="13.9899232"><ele>487.0</ele><time>2026-04-03T16:29:56.329Z</time></trkpt><trkpt lat="37.4560101" lon="13.9897574"><ele>487.0</ele><time>2026-04-03T16:29:57.329Z</time></trkpt><trkpt lat="37.4559443" lon="13.9895915"><ele>486.75</ele><time>2026-04-03T16:29:58.329Z</time></trkpt><trkpt lat="37.4558818" lon="13.9894224"><ele>486.5</ele><time>2026-04-03T16:29:59.329Z</time></trkpt><trkpt lat="37.4558223" lon="13.9892514"><ele>486.25</ele><time>2026-04-03T16:30:00.329Z</time></trkpt><trkpt lat="37.455763" lon="13.98908"><ele>486.0</ele><time>2026-04-03T16:30:01.329Z</time></trkpt><trkpt lat="37.4557036" lon="13.9889092"><ele>486.5</ele><time>2026-04-03T16:30:02.329Z</time></trkpt><trkpt lat="37.4556458" lon="13.9887366"><ele>487.0</ele><time>2026-04-03T16:30:03.329Z</time></trkpt><trkpt lat="37.4555916" lon="13.9885626"><ele>487.5</ele><time>2026-04-03T16:30:04.328Z</time></trkpt><trkpt lat="37.4555391" lon="13.9883864"><ele>488.0</ele><time>2026-04-03T16:30:05.329Z</time></trkpt><trkpt lat="37.4554886" lon="13.9882088"><ele>485.0</ele><time>2026-04-03T16:30:06.329Z</time></trkpt><trkpt lat="37.4554409" lon="13.9880305"><ele>482.0</ele><time>2026-04-03T16:30:07.329Z</time></trkpt><trkpt lat="37.4553949" lon="13.9878527"><ele>479.0</ele><time>2026-04-03T16:30:08.329Z</time></trkpt><trkpt lat="37.4553499" lon="13.9876754"><ele>476.0</ele><time>2026-04-03T16:30:09.329Z</time></trkpt><trkpt lat="37.4553041" lon="13.9875"><ele>476.0</ele><time>2026-04-03T16:30:10.329Z</time></trkpt><trkpt lat="37.4552571" lon="13.987325"><ele>476.0</ele><time>2026-04-03T16:30:11.329Z</time></trkpt><trkpt lat="37.4552103" lon="13.9871478"><ele>476.0</ele><time>2026-04-03T16:30:12.329Z</time></trkpt><trkpt lat="37.4551638" lon="13.9869691"><ele>476.0</ele><time>2026-04-03T16:30:13.329Z</time></trkpt><trkpt lat="37.4551178" lon="13.9867896"><ele>475.75</ele><time>2026-04-03T16:30:14.328Z</time></trkpt><trkpt lat="37.4550712" lon="13.9866109"><ele>475.5</ele><time>2026-04-03T16:30:15.329Z</time></trkpt><trkpt lat="37.4550236" lon="13.9864332"><ele>475.25</ele><time>2026-04-03T16:30:16.329Z</time></trkpt><trkpt lat="37.4549764" lon="13.9862556"><ele>475.0</ele><time>2026-04-03T16:30:17.329Z</time></trkpt><trkpt lat="37.4549301" lon="13.9860766"><ele>475.0</ele><time>2026-04-03T16:30:18.329Z</time></trkpt><trkpt lat="37.4548857" lon="13.9858965"><ele>475.0</ele><time>2026-04-03T16:30:19.329Z</time></trkpt><trkpt lat="37.4548403" lon="13.9857158"><ele>475.0</ele><time>2026-04-03T16:30:20.329Z</time></trkpt><trkpt lat="37.4547937" lon="13.9855343"><ele>475.0</ele><time>2026-04-03T16:30:21.329Z</time></trkpt><trkpt lat="37.4547457" lon="13.9853522"><ele>475.0</ele><time>2026-04-03T16:30:22.328Z</time></trkpt><trkpt lat="37.454698" lon="13.9851697"><ele>475.0</ele><time>2026-04-03T16:30:23.329Z</time></trkpt><trkpt lat="37.4546524" lon="13.9849874"><ele>473.6666666666667</ele><time>2026-04-03T16:30:24.329Z</time></trkpt><trkpt lat="37.4546073" lon="13.9848057"><ele>472.33333333333337</ele><time>2026-04-03T16:30:25.329Z</time></trkpt><trkpt lat="37.4545622" lon="13.9846246"><ele>471.0</ele><time>2026-04-03T16:30:26.329Z</time></trkpt><trkpt lat="37.4545173" lon="13.9844443"><ele>471.0</ele><time>2026-04-03T16:30:27.329Z</time></trkpt><trkpt lat="37.4544712" lon="13.984265"><ele>471.0</ele><time>2026-04-03T16:30:28.329Z</time></trkpt><trkpt lat="37.4544239" lon="13.9840862"><ele>471.0</ele><time>2026-04-03T16:30:29.329Z</time></trkpt><trkpt lat="37.4543766" lon="13.9839072"><ele>471.0</ele><time>2026-04-03T16:30:30.329Z</time></trkpt><trkpt lat="37.4543297" lon="13.9837296"><ele>470.5</ele><time>2026-04-03T16:30:31.329Z</time></trkpt><trkpt lat="37.4542828" lon="13.9835521"><ele>470.0</ele><time>2026-04-03T16:30:32.329Z</time></trkpt><trkpt lat="37.4542353" lon="13.9833745"><ele>469.5</ele><time>2026-04-03T16:30:33.329Z</time></trkpt><trkpt lat="37.4541875" lon="13.983197"><ele>469.0</ele><time>2026-04-03T16:30:34.329Z</time></trkpt><trkpt lat="37.4541402" lon="13.9830199"><ele>469.25</ele><time>2026-04-03T16:30:35.329Z</time></trkpt><trkpt lat="37.4540937" lon="13.9828422"><ele>469.5</ele><time>2026-04-03T16:30:36.329Z</time></trkpt><trkpt lat="37.4540467" lon="13.9826633"><ele>469.75</ele><time>2026-04-03T16:30:37.329Z</time></trkpt><trkpt lat="37.4539966" lon="13.9824842"><ele>470.0</ele><time>2026-04-03T16:30:38.329Z</time></trkpt><trkpt lat="37.4539456" lon="13.9823041"><ele>470.0</ele><time>2026-04-03T16:30:39.329Z</time></trkpt><trkpt lat="37.4538953" lon="13.9821225"><ele>470.0</ele><time>2026-04-03T16:30:40.329Z</time></trkpt><trkpt lat="37.4538463" lon="13.9819409"><ele>470.0</ele><time>2026-04-03T16:30:41.329Z</time></trkpt><trkpt lat="37.4537972" lon="13.9817606"><ele>468.3333333333333</ele><time>2026-04-03T16:30:42.329Z</time></trkpt><trkpt lat="37.4537459" lon="13.9815792"><ele>466.66666666666663</ele><time>2026-04-03T16:30:43.329Z</time></trkpt><trkpt lat="37.4536942" lon="13.9813967"><ele>465.0</ele><time>2026-04-03T16:30:44.328Z</time></trkpt><trkpt lat="37.4536428" lon="13.9812136"><ele>465.0</ele><time>2026-04-03T16:30:45.329Z</time></trkpt><trkpt lat="37.4535924" lon="13.98103"><ele>465.0</ele><time>2026-04-03T16:30:46.329Z</time></trkpt><trkpt lat="37.4535429" lon="13.980846"><ele>465.0</ele><time>2026-04-03T16:30:47.329Z</time></trkpt><trkpt lat="37.4534924" lon="13.9806626"><ele>464.33333333333337</ele><time>2026-04-03T16:30:48.329Z</time></trkpt><trkpt lat="37.4534403" lon="13.9804801"><ele>463.6666666666667</ele><time>2026-04-03T16:30:49.328Z</time></trkpt><trkpt lat="37.4533882" lon="13.9802969"><ele>463.0</ele><time>2026-04-03T16:30:50.329Z</time></trkpt><trkpt lat="37.4533361" lon="13.9801138"><ele>463.0</ele><time>2026-04-03T16:30:51.329Z</time></trkpt><trkpt lat="37.4532839" lon="13.9799297"><ele>463.0</ele><time>2026-04-03T16:30:52.329Z</time></trkpt><trkpt lat="37.4532316" lon="13.979745"><ele>463.0</ele><time>2026-04-03T16:30:53.329Z</time></trkpt><trkpt lat="37.4531789" lon="13.9795605"><ele>463.0</ele><time>2026-04-03T16:30:54.329Z</time></trkpt><trkpt lat="37.4531267" lon="13.9793758"><ele>463.0</ele><time>2026-04-03T16:30:55.329Z</time></trkpt><trkpt lat="37.4530749" lon="13.9791913"><ele>463.0</ele><time>2026-04-03T16:30:56.329Z</time></trkpt><trkpt lat="37.4530233" lon="13.9790072"><ele>464.0</ele><time>2026-04-03T16:30:57.329Z</time></trkpt><trkpt lat="37.4529715" lon="13.9788234"><ele>465.0</ele><time>2026-04-03T16:30:58.329Z</time></trkpt><trkpt lat="37.4529193" lon="13.9786404"><ele>466.0</ele><time>2026-04-03T16:30:59.328Z</time></trkpt><trkpt lat="37.4528674" lon="13.9784592"><ele>462.25</ele><time>2026-04-03T16:31:00.329Z</time></trkpt><trkpt lat="37.4528162" lon="13.9782802"><ele>458.5</ele><time>2026-04-03T16:31:01.329Z</time></trkpt><trkpt lat="37.4527658" lon="13.9781031"><ele>454.75</ele><time>2026-04-03T16:31:02.329Z</time></trkpt><trkpt lat="37.4527159" lon="13.9779282"><ele>451.0</ele><time>2026-04-03T16:31:03.329Z</time></trkpt><trkpt lat="37.4526664" lon="13.977755"><ele>451.0</ele><time>2026-04-03T16:31:04.329Z</time></trkpt><trkpt lat="37.4526174" lon="13.9775823"><ele>451.0</ele><time>2026-04-03T16:31:05.329Z</time></trkpt><trkpt lat="37.4525689" lon="13.9774093"><ele>451.0</ele><time>2026-04-03T16:31:06.329Z</time></trkpt><trkpt lat="37.4525197" lon="13.977236"><ele>451.0</ele><time>2026-04-03T16:31:07.329Z</time></trkpt><trkpt lat="37.4524695" lon="13.9770632"><ele>451.5</ele><time>2026-04-03T16:31:08.329Z</time></trkpt><trkpt lat="37.4524178" lon="13.976891"><ele>452.0</ele><time>2026-04-03T16:31:09.329Z</time></trkpt><trkpt lat="37.4523664" lon="13.9767183"><ele>452.5</ele><time>2026-04-03T16:31:10.329Z</time></trkpt><trkpt lat="37.4523154" lon="13.9765451"><ele>453.0</ele><time>2026-04-03T16:31:11.329Z</time></trkpt><trkpt lat="37.4522648" lon="13.9763719"><ele>453.5</ele><time>2026-04-03T16:31:12.328Z</time></trkpt><trkpt lat="37.4522162" lon="13.9761976"><ele>454.0</ele><time>2026-04-03T16:31:13.329Z</time></trkpt><trkpt lat="37.4521682" lon="13.9760222"><ele>454.5</ele><time>2026-04-03T16:31:14.329Z</time></trkpt><trkpt lat="37.4521217" lon="13.9758465"><ele>455.0</ele><time>2026-04-03T16:31:15.329Z</time></trkpt><trkpt lat="37.4520745" lon="13.9756716"><ele>451.75</ele><time>2026-04-03T16:31:16.329Z</time></trkpt><trkpt lat="37.4520268" lon="13.9754968"><ele>448.5</ele><time>2026-04-03T16:31:17.329Z</time></trkpt><trkpt lat="37.4519771" lon="13.975323"><ele>445.25</ele><time>2026-04-03T16:31:18.329Z</time></trkpt><trkpt lat="37.4519281" lon="13.9751486"><ele>442.0</ele><time>2026-04-03T16:31:19.329Z</time></trkpt><trkpt lat="37.4518795" lon="13.9749736"><ele>441.75</ele><time>2026-04-03T16:31:20.329Z</time></trkpt><trkpt lat="37.4518316" lon="13.9747976"><ele>441.5</ele><time>2026-04-03T16:31:21.329Z</time></trkpt><trkpt lat="37.4517815" lon="13.9746208"><ele>441.25</ele><time>2026-04-03T16:31:22.329Z</time></trkpt><trkpt lat="37.4517306" lon="13.9744433"><ele>441.0</ele><time>2026-04-03T16:31:23.329Z</time></trkpt><trkpt lat="37.4516802" lon="13.9742649"><ele>441.66666666666663</ele><time>2026-04-03T16:31:24.329Z</time></trkpt><trkpt lat="37.4516298" lon="13.9740855"><ele>442.3333333333333</ele><time>2026-04-03T16:31:25.329Z</time></trkpt><trkpt lat="37.4515788" lon="13.9739054"><ele>443.0</ele><time>2026-04-03T16:31:26.329Z</time></trkpt><trkpt lat="37.4515269" lon="13.9737244"><ele>443.0</ele><time>2026-04-03T16:31:27.329Z</time></trkpt><trkpt lat="37.4514743" lon="13.9735436"><ele>443.0</ele><time>2026-04-03T16:31:28.329Z</time></trkpt><trkpt lat="37.4514233" lon="13.9733621"><ele>443.0</ele><time>2026-04-03T16:31:29.329Z</time></trkpt><trkpt lat="37.4513723" lon="13.9731806"><ele>443.3333333333333</ele><time>2026-04-03T16:31:30.329Z</time></trkpt><trkpt lat="37.451321" lon="13.9729988"><ele>443.66666666666663</ele><time>2026-04-03T16:31:31.329Z</time></trkpt><trkpt lat="37.45127" lon="13.9728168"><ele>444.0</ele><time>2026-04-03T16:31:32.329Z</time></trkpt><trkpt lat="37.4512187" lon="13.9726357"><ele>441.33333333333337</ele><time>2026-04-03T16:31:33.329Z</time></trkpt><trkpt lat="37.4511673" lon="13.972455"><ele>438.6666666666667</ele><time>2026-04-03T16:31:34.329Z</time></trkpt><trkpt lat="37.4511161" lon="13.9722755"><ele>436.0</ele><time>2026-04-03T16:31:35.329Z</time></trkpt><trkpt lat="37.4510653" lon="13.9720963"><ele>436.0</ele><time>2026-04-03T16:31:36.329Z</time></trkpt><trkpt lat="37.4510146" lon="13.9719175"><ele>436.0</ele><time>2026-04-03T16:31:37.329Z</time></trkpt><trkpt lat="37.4509639" lon="13.9717391"><ele>436.0</ele><time>2026-04-03T16:31:38.329Z</time></trkpt><trkpt lat="37.4509131" lon="13.9715613"><ele>436.0</ele><time>2026-04-03T16:31:39.329Z</time></trkpt><trkpt lat="37.4508619" lon="13.9713839"><ele>436.0</ele><time>2026-04-03T16:31:40.329Z</time></trkpt><trkpt lat="37.450811" lon="13.9712061"><ele>436.0</ele><time>2026-04-03T16:31:41.329Z</time></trkpt><trkpt lat="37.4507602" lon="13.9710283"><ele>435.33333333333337</ele><time>2026-04-03T16:31:42.329Z</time></trkpt><trkpt lat="37.4507096" lon="13.9708504"><ele>434.66666666666663</ele><time>2026-04-03T16:31:43.329Z</time></trkpt><trkpt lat="37.4506587" lon="13.9706722"><ele>434.0</ele><time>2026-04-03T16:31:44.329Z</time></trkpt><trkpt lat="37.450608" lon="13.9704943"><ele>434.0</ele><time>2026-04-03T16:31:45.329Z</time></trkpt><trkpt lat="37.4505578" lon="13.9703162"><ele>434.0</ele><time>2026-04-03T16:31:46.329Z</time></trkpt><trkpt lat="37.4505079" lon="13.9701383"><ele>434.0</ele><time>2026-04-03T16:31:47.329Z</time></trkpt><trkpt lat="37.4504593" lon="13.9699616"><ele>434.0</ele><time>2026-04-03T16:31:48.329Z</time></trkpt><trkpt lat="37.4504115" lon="13.969786"><ele>433.75</ele><time>2026-04-03T16:31:49.329Z</time></trkpt><trkpt lat="37.450362" lon="13.9696117"><ele>433.5</ele><time>2026-04-03T16:31:50.329Z</time></trkpt><trkpt lat="37.4503127" lon="13.9694367"><ele>433.25</ele><time>2026-04-03T16:31:51.329Z</time></trkpt><trkpt lat="37.4502628" lon="13.9692615"><ele>433.0</ele><time>2026-04-03T16:31:52.329Z</time></trkpt><trkpt lat="37.4502133" lon="13.9690856"><ele>433.0</ele><time>2026-04-03T16:31:53.329Z</time></trkpt><trkpt lat="37.4501635" lon="13.9689089"><ele>433.0</ele><time>2026-04-03T16:31:54.329Z</time></trkpt><trkpt lat="37.4501139" lon="13.9687317"><ele>433.0</ele><time>2026-04-03T16:31:55.329Z</time></trkpt><trkpt lat="37.4500639" lon="13.9685534"><ele>433.0</ele><time>2026-04-03T16:31:56.329Z</time></trkpt><trkpt lat="37.4500129" lon="13.968375"><ele>434.33333333333337</ele><time>2026-04-03T16:31:57.329Z</time></trkpt><trkpt lat="37.4499609" lon="13.9681969"><ele>435.66666666666663</ele><time>2026-04-03T16:31:58.329Z</time></trkpt><trkpt lat="37.4499087" lon="13.9680175"><ele>437.0</ele><time>2026-04-03T16:31:59.329Z</time></trkpt><trkpt lat="37.4498577" lon="13.9678358"><ele>437.0</ele><time>2026-04-03T16:32:00.329Z</time></trkpt><trkpt lat="37.4498065" lon="13.9676525"><ele>437.0</ele><time>2026-04-03T16:32:01.329Z</time></trkpt><trkpt lat="37.4497543" lon="13.9674675"><ele>437.0</ele><time>2026-04-03T16:32:02.329Z</time></trkpt><trkpt lat="37.4497011" lon="13.9672814"><ele>438.3333333333333</ele><time>2026-04-03T16:32:03.329Z</time></trkpt><trkpt lat="37.4496477" lon="13.9670931"><ele>439.66666666666663</ele><time>2026-04-03T16:32:04.329Z</time></trkpt><trkpt lat="37.4495946" lon="13.9669041"><ele>441.0</ele><time>2026-04-03T16:32:05.329Z</time></trkpt><trkpt lat="37.4495417" lon="13.9667151"><ele>437.66666666666663</ele><time>2026-04-03T16:32:06.329Z</time></trkpt><trkpt lat="37.449489" lon="13.9665263"><ele>434.3333333333333</ele><time>2026-04-03T16:32:07.328Z</time></trkpt><trkpt lat="37.4494369" lon="13.9663377"><ele>431.0</ele><time>2026-04-03T16:32:08.329Z</time></trkpt><trkpt lat="37.4493836" lon="13.96615"><ele>431.0</ele><time>2026-04-03T16:32:09.328Z</time></trkpt><trkpt lat="37.4493301" lon="13.9659644"><ele>431.0</ele><time>2026-04-03T16:32:10.329Z</time></trkpt><trkpt lat="37.4492764" lon="13.9657789"><ele>431.0</ele><time>2026-04-03T16:32:11.329Z</time></trkpt><trkpt lat="37.4492233" lon="13.9655944"><ele>430.3333333333333</ele><time>2026-04-03T16:32:12.329Z</time></trkpt><trkpt lat="37.4491707" lon="13.965412"><ele>429.66666666666663</ele><time>2026-04-03T16:32:13.329Z</time></trkpt><trkpt lat="37.4491193" lon="13.9652296"><ele>429.0</ele><time>2026-04-03T16:32:14.329Z</time></trkpt><trkpt lat="37.4490683" lon="13.9650485"><ele>427.66666666666663</ele><time>2026-04-03T16:32:15.329Z</time></trkpt><trkpt lat="37.449018" lon="13.9648673"><ele>426.3333333333333</ele><time>2026-04-03T16:32:16.329Z</time></trkpt><trkpt lat="37.4489684" lon="13.9646867"><ele>425.0</ele><time>2026-04-03T16:32:17.329Z</time></trkpt><trkpt lat="37.4489172" lon="13.9645078"><ele>425.0</ele><time>2026-04-03T16:32:18.329Z</time></trkpt><trkpt lat="37.448866" lon="13.9643302"><ele>425.0</ele><time>2026-04-03T16:32:19.329Z</time></trkpt><trkpt lat="37.4488146" lon="13.9641543"><ele>425.0</ele><time>2026-04-03T16:32:20.329Z</time></trkpt><trkpt lat="37.4487658" lon="13.9639777"><ele>425.0</ele><time>2026-04-03T16:32:21.329Z</time></trkpt><trkpt lat="37.4487171" lon="13.9638002"><ele>423.75</ele><time>2026-04-03T16:32:22.329Z</time></trkpt><trkpt lat="37.4486687" lon="13.9636221"><ele>422.5</ele><time>2026-04-03T16:32:23.329Z</time></trkpt><trkpt lat="37.4486175" lon="13.9634448"><ele>421.25</ele><time>2026-04-03T16:32:24.329Z</time></trkpt><trkpt lat="37.4485655" lon="13.9632675"><ele>420.0</ele><time>2026-04-03T16:32:25.329Z</time></trkpt><trkpt lat="37.4485147" lon="13.963089"><ele>420.0</ele><time>2026-04-03T16:32:26.329Z</time></trkpt><trkpt lat="37.4484631" lon="13.9629109"><ele>420.0</ele><time>2026-04-03T16:32:27.329Z</time></trkpt><trkpt lat="37.4484135" lon="13.9627323"><ele>420.0</ele><time>2026-04-03T16:32:28.329Z</time></trkpt><trkpt lat="37.4483633" lon="13.9625544"><ele>420.33333333333337</ele><time>2026-04-03T16:32:29.329Z</time></trkpt><trkpt lat="37.4483127" lon="13.9623753"><ele>420.6666666666667</ele><time>2026-04-03T16:32:30.329Z</time></trkpt><trkpt lat="37.4482619" lon="13.962194"><ele>421.0</ele><time>2026-04-03T16:32:31.329Z</time></trkpt><trkpt lat="37.4482107" lon="13.9620106"><ele>421.0</ele><time>2026-04-03T16:32:32.329Z</time></trkpt><trkpt lat="37.4481595" lon="13.9618269"><ele>421.0</ele><time>2026-04-03T16:32:33.329Z</time></trkpt><trkpt lat="37.4481082" lon="13.9616454"><ele>421.0</ele><time>2026-04-03T16:32:34.329Z</time></trkpt><trkpt lat="37.4480553" lon="13.9614644"><ele>421.6666666666667</ele><time>2026-04-03T16:32:35.329Z</time></trkpt><trkpt lat="37.4480022" lon="13.9612836"><ele>422.33333333333337</ele><time>2026-04-03T16:32:36.329Z</time></trkpt><trkpt lat="37.4479518" lon="13.9611023"><ele>423.0</ele><time>2026-04-03T16:32:37.329Z</time></trkpt><trkpt lat="37.4479013" lon="13.9609217"><ele>425.0</ele><time>2026-04-03T16:32:38.329Z</time></trkpt><trkpt lat="37.447853" lon="13.960742"><ele>427.0</ele><time>2026-04-03T16:32:39.329Z</time></trkpt><trkpt lat="37.4478026" lon="13.9605637"><ele>429.0</ele><time>2026-04-03T16:32:40.329Z</time></trkpt><trkpt lat="37.4477518" lon="13.9603877"><ele>429.0</ele><time>2026-04-03T16:32:41.329Z</time></trkpt><trkpt lat="37.4477025" lon="13.9602128"><ele>429.0</ele><time>2026-04-03T16:32:42.329Z</time></trkpt><trkpt lat="37.4476553" lon="13.96004"><ele>429.0</ele><time>2026-04-03T16:32:43.329Z</time></trkpt><trkpt lat="37.4476077" lon="13.9598697"><ele>429.0</ele><time>2026-04-03T16:32:44.329Z</time></trkpt><trkpt lat="37.4475582" lon="13.9597018"><ele>430.0</ele><time>2026-04-03T16:32:45.329Z</time></trkpt><trkpt lat="37.4475111" lon="13.9595335"><ele>431.0</ele><time>2026-04-03T16:32:46.329Z</time></trkpt><trkpt lat="37.4474646" lon="13.9593663"><ele>432.0</ele><time>2026-04-03T16:32:47.329Z</time></trkpt><trkpt lat="37.4474195" lon="13.9591997"><ele>433.0</ele><time>2026-04-03T16:32:48.329Z</time></trkpt><trkpt lat="37.4473732" lon="13.9590332"><ele>434.0</ele><time>2026-04-03T16:32:49.329Z</time></trkpt><trkpt lat="37.4473238" lon="13.958867"><ele>435.0</ele><time>2026-04-03T16:32:50.329Z</time></trkpt><trkpt lat="37.4472764" lon="13.9587009"><ele>436.0</ele><time>2026-04-03T16:32:51.329Z</time></trkpt><trkpt lat="37.4472326" lon="13.9585342"><ele>437.0</ele><time>2026-04-03T16:32:52.329Z</time></trkpt><trkpt lat="37.4471877" lon="13.9583673"><ele>438.25</ele><time>2026-04-03T16:32:53.329Z</time></trkpt><trkpt lat="37.4471407" lon="13.9582021"><ele>439.5</ele><time>2026-04-03T16:32:54.329Z</time></trkpt><trkpt lat="37.4470934" lon="13.9580358"><ele>440.75</ele><time>2026-04-03T16:32:55.329Z</time></trkpt><trkpt lat="37.4470483" lon="13.9578689"><ele>442.0</ele><time>2026-04-03T16:32:56.329Z</time></trkpt><trkpt lat="37.4470015" lon="13.9577016"><ele>443.25</ele><time>2026-04-03T16:32:57.329Z</time></trkpt><trkpt lat="37.4469508" lon="13.9575353"><ele>444.5</ele><time>2026-04-03T16:32:58.329Z</time></trkpt><trkpt lat="37.4469011" lon="13.9573701"><ele>445.75</ele><time>2026-04-03T16:32:59.329Z</time></trkpt><trkpt lat="37.4468508" lon="13.9572051"><ele>447.0</ele><time>2026-04-03T16:33:00.329Z</time></trkpt><trkpt lat="37.4468003" lon="13.9570399"><ele>447.0</ele><time>2026-04-03T16:33:01.329Z</time></trkpt><trkpt lat="37.4467491" lon="13.9568737"><ele>447.0</ele><time>2026-04-03T16:33:02.328Z</time></trkpt><trkpt lat="37.4466964" lon="13.9567055"><ele>447.0</ele><time>2026-04-03T16:33:03.329Z</time></trkpt><trkpt lat="37.4466433" lon="13.9565354"><ele>447.0</ele><time>2026-04-03T16:33:04.329Z</time></trkpt><trkpt lat="37.4465883" lon="13.9563656"><ele>446.75</ele><time>2026-04-03T16:33:05.329Z</time></trkpt><trkpt lat="37.446531" lon="13.9561959"><ele>446.5</ele><time>2026-04-03T16:33:06.329Z</time></trkpt><trkpt lat="37.4464726" lon="13.9560251"><ele>446.25</ele><time>2026-04-03T16:33:07.329Z</time></trkpt><trkpt lat="37.4464133" lon="13.9558548"><ele>446.0</ele><time>2026-04-03T16:33:08.328Z</time></trkpt><trkpt lat="37.4463524" lon="13.9556871"><ele>444.5</ele><time>2026-04-03T16:33:09.329Z</time></trkpt><trkpt lat="37.4462883" lon="13.9555227"><ele>443.0</ele><time>2026-04-03T16:33:10.329Z</time></trkpt><trkpt lat="37.4462234" lon="13.9553596"><ele>441.5</ele><time>2026-04-03T16:33:11.328Z</time></trkpt><trkpt lat="37.4461586" lon="13.9551966"><ele>440.0</ele><time>2026-04-03T16:33:12.329Z</time></trkpt><trkpt lat="37.4460928" lon="13.9550348"><ele>439.5</ele><time>2026-04-03T16:33:13.329Z</time></trkpt><trkpt lat="37.4460239" lon="13.9548748"><ele>439.0</ele><time>2026-04-03T16:33:14.329Z</time></trkpt><trkpt lat="37.4459519" lon="13.9547167"><ele>438.5</ele><time>2026-04-03T16:33:15.328Z</time></trkpt><trkpt lat="37.4458789" lon="13.9545585"><ele>438.0</ele><time>2026-04-03T16:33:16.329Z</time></trkpt><trkpt lat="37.4458035" lon="13.9544012"><ele>438.0</ele><time>2026-04-03T16:33:17.329Z</time></trkpt><trkpt lat="37.4457261" lon="13.9542442"><ele>438.0</ele><time>2026-04-03T16:33:18.329Z</time></trkpt><trkpt lat="37.4456485" lon="13.9540873"><ele>438.0</ele><time>2026-04-03T16:33:19.329Z</time></trkpt><trkpt lat="37.4455693" lon="13.9539308"><ele>438.0</ele><time>2026-04-03T16:33:20.329Z</time></trkpt><trkpt lat="37.4454864" lon="13.9537763"><ele>436.66666666666663</ele><time>2026-04-03T16:33:21.329Z</time></trkpt><trkpt lat="37.4454013" lon="13.9536215"><ele>435.3333333333333</ele><time>2026-04-03T16:33:22.329Z</time></trkpt><trkpt lat="37.4453152" lon="13.9534667"><ele>434.0</ele><time>2026-04-03T16:33:23.329Z</time></trkpt><trkpt lat="37.445227" lon="13.9533126"><ele>433.66666666666663</ele><time>2026-04-03T16:33:24.329Z</time></trkpt><trkpt lat="37.4451378" lon="13.953159"><ele>433.33333333333337</ele><time>2026-04-03T16:33:25.329Z</time></trkpt><trkpt lat="37.4450465" lon="13.9530075"><ele>433.0</ele><time>2026-04-03T16:33:26.329Z</time></trkpt><trkpt lat="37.4449532" lon="13.952858"><ele>433.0</ele><time>2026-04-03T16:33:27.329Z</time></trkpt><trkpt lat="37.4448586" lon="13.9527099"><ele>433.0</ele><time>2026-04-03T16:33:28.329Z</time></trkpt><trkpt lat="37.4447643" lon="13.9525624"><ele>433.0</ele><time>2026-04-03T16:33:29.329Z</time></trkpt><trkpt lat="37.4446694" lon="13.952416"><ele>431.6666666666667</ele><time>2026-04-03T16:33:30.329Z</time></trkpt><trkpt lat="37.4445709" lon="13.952273"><ele>430.33333333333337</ele><time>2026-04-03T16:33:31.329Z</time></trkpt><trkpt lat="37.44447" lon="13.9521323"><ele>429.0</ele><time>2026-04-03T16:33:32.328Z</time></trkpt><trkpt lat="37.4443676" lon="13.9519926"><ele>429.0</ele><time>2026-04-03T16:33:33.329Z</time></trkpt><trkpt lat="37.4442646" lon="13.9518524"><ele>429.0</ele><time>2026-04-03T16:33:34.328Z</time></trkpt><trkpt lat="37.4441597" lon="13.951715"><ele>429.0</ele><time>2026-04-03T16:33:35.329Z</time></trkpt><trkpt lat="37.4440525" lon="13.951579"><ele>429.0</ele><time>2026-04-03T16:33:36.328Z</time></trkpt><trkpt lat="37.4439443" lon="13.9514436"><ele>429.0</ele><time>2026-04-03T16:33:37.328Z</time></trkpt><trkpt lat="37.4438347" lon="13.9513104"><ele>429.0</ele><time>2026-04-03T16:33:38.329Z</time></trkpt><trkpt lat="37.443725" lon="13.951178"><ele>428.66666666666663</ele><time>2026-04-03T16:33:39.329Z</time></trkpt><trkpt lat="37.4436143" lon="13.9510485"><ele>428.3333333333333</ele><time>2026-04-03T16:33:40.329Z</time></trkpt><trkpt lat="37.4435022" lon="13.9509219"><ele>428.0</ele><time>2026-04-03T16:33:41.329Z</time></trkpt><trkpt lat="37.4433893" lon="13.9507977"><ele>428.0</ele><time>2026-04-03T16:33:42.329Z</time></trkpt><trkpt lat="37.4432747" lon="13.9506758"><ele>428.0</ele><time>2026-04-03T16:33:43.329Z</time></trkpt><trkpt lat="37.4431602" lon="13.9505549"><ele>428.0</ele><time>2026-04-03T16:33:44.329Z</time></trkpt><trkpt lat="37.4430457" lon="13.9504347"><ele>428.0</ele><time>2026-04-03T16:33:45.329Z</time></trkpt><trkpt lat="37.4429322" lon="13.950314"><ele>427.5</ele><time>2026-04-03T16:33:46.329Z</time></trkpt><trkpt lat="37.4428179" lon="13.9501937"><ele>427.0</ele><time>2026-04-03T16:33:47.329Z</time></trkpt><trkpt lat="37.442702" lon="13.9500752"><ele>426.5</ele><time>2026-04-03T16:33:48.329Z</time></trkpt><trkpt lat="37.4425857" lon="13.9499567"><ele>426.0</ele><time>2026-04-03T16:33:49.329Z</time></trkpt><trkpt lat="37.4424699" lon="13.9498373"><ele>426.0</ele><time>2026-04-03T16:33:50.329Z</time></trkpt><trkpt lat="37.4423544" lon="13.9497183"><ele>426.0</ele><time>2026-04-03T16:33:51.328Z</time></trkpt><trkpt lat="37.442239" lon="13.9496"><ele>426.0</ele><time>2026-04-03T16:33:52.329Z</time></trkpt><trkpt lat="37.4421242" lon="13.9494818"><ele>426.0</ele><time>2026-04-03T16:33:53.329Z</time></trkpt><trkpt lat="37.4420097" lon="13.9493634"><ele>426.0</ele><time>2026-04-03T16:33:54.329Z</time></trkpt><trkpt lat="37.4418951" lon="13.9492461"><ele>426.0</ele><time>2026-04-03T16:33:55.329Z</time></trkpt><trkpt lat="37.4417812" lon="13.9491292"><ele>426.0</ele><time>2026-04-03T16:33:56.329Z</time></trkpt><trkpt lat="37.4416679" lon="13.9490115"><ele>426.0</ele><time>2026-04-03T16:33:57.329Z</time></trkpt><trkpt lat="37.4415541" lon="13.9488944"><ele>426.0</ele><time>2026-04-03T16:33:58.329Z</time></trkpt><trkpt lat="37.4414398" lon="13.9487784"><ele>426.0</ele><time>2026-04-03T16:33:59.329Z</time></trkpt><trkpt lat="37.4413261" lon="13.9486626"><ele>426.0</ele><time>2026-04-03T16:34:00.329Z</time></trkpt><trkpt lat="37.4412134" lon="13.9485444"><ele>426.0</ele><time>2026-04-03T16:34:01.329Z</time></trkpt><trkpt lat="37.4411011" lon="13.9484267"><ele>427.0</ele><time>2026-04-03T16:34:02.329Z</time></trkpt><trkpt lat="37.4409878" lon="13.9483117"><ele>428.0</ele><time>2026-04-03T16:34:03.329Z</time></trkpt><trkpt lat="37.4408746" lon="13.9481971"><ele>429.0</ele><time>2026-04-03T16:34:04.329Z</time></trkpt><trkpt lat="37.4407614" lon="13.9480829"><ele>430.0</ele><time>2026-04-03T16:34:05.329Z</time></trkpt><trkpt lat="37.4406502" lon="13.9479669"><ele>430.0</ele><time>2026-04-03T16:34:06.329Z</time></trkpt><trkpt lat="37.4405398" lon="13.947851"><ele>430.0</ele><time>2026-04-03T16:34:07.329Z</time></trkpt><trkpt lat="37.4404297" lon="13.9477338"><ele>430.0</ele><time>2026-04-03T16:34:08.329Z</time></trkpt><trkpt lat="37.4403181" lon="13.9476168"><ele>430.0</ele><time>2026-04-03T16:34:09.329Z</time></trkpt><trkpt lat="37.4402057" lon="13.947501"><ele>430.0</ele><time>2026-04-03T16:34:10.329Z</time></trkpt><trkpt lat="37.4400949" lon="13.9473835"><ele>430.0</ele><time>2026-04-03T16:34:11.329Z</time></trkpt><trkpt lat="37.4399862" lon="13.9472631"><ele>430.0</ele><time>2026-04-03T16:34:12.329Z</time></trkpt><trkpt lat="37.4398786" lon="13.9471406"><ele>430.0</ele><time>2026-04-03T16:34:13.329Z</time></trkpt><trkpt lat="37.4397716" lon="13.947017"><ele>430.0</ele><time>2026-04-03T16:34:14.328Z</time></trkpt><trkpt lat="37.4396643" lon="13.9468928"><ele>430.0</ele><time>2026-04-03T16:34:15.329Z</time></trkpt><trkpt lat="37.4395594" lon="13.9467663"><ele>430.0</ele><time>2026-04-03T16:34:16.329Z</time></trkpt><trkpt lat="37.4394558" lon="13.9466384"><ele>430.0</ele><time>2026-04-03T16:34:17.329Z</time></trkpt><trkpt lat="37.439353" lon="13.946509"><ele>431.5</ele><time>2026-04-03T16:34:18.329Z</time></trkpt><trkpt lat="37.439253" lon="13.9463776"><ele>433.0</ele><time>2026-04-03T16:34:19.329Z</time></trkpt><trkpt lat="37.4391542" lon="13.9462446"><ele>434.5</ele><time>2026-04-03T16:34:20.329Z</time></trkpt><trkpt lat="37.4390565" lon="13.9461121"><ele>436.0</ele><time>2026-04-03T16:34:21.329Z</time></trkpt><trkpt lat="37.4389589" lon="13.9459793"><ele>436.5</ele><time>2026-04-03T16:34:22.329Z</time></trkpt><trkpt lat="37.4388637" lon="13.9458445"><ele>437.0</ele><time>2026-04-03T16:34:23.329Z</time></trkpt><trkpt lat="37.4387695" lon="13.9457082"><ele>437.5</ele><time>2026-04-03T16:34:24.328Z</time></trkpt><trkpt lat="37.4386772" lon="13.9455709"><ele>438.0</ele><time>2026-04-03T16:34:25.329Z</time></trkpt><trkpt lat="37.4385869" lon="13.9454311"><ele>438.0</ele><time>2026-04-03T16:34:26.329Z</time></trkpt><trkpt lat="37.4384975" lon="13.9452921"><ele>438.0</ele><time>2026-04-03T16:34:27.329Z</time></trkpt><trkpt lat="37.4384086" lon="13.9451517"><ele>438.0</ele><time>2026-04-03T16:34:28.329Z</time></trkpt><trkpt lat="37.4383212" lon="13.94501"><ele>438.0</ele><time>2026-04-03T16:34:29.329Z</time></trkpt><trkpt lat="37.438236" lon="13.9448657"><ele>438.75</ele><time>2026-04-03T16:34:30.329Z</time></trkpt><trkpt lat="37.4381536" lon="13.9447188"><ele>439.5</ele><time>2026-04-03T16:34:31.329Z</time></trkpt><trkpt lat="37.4380701" lon="13.9445716"><ele>440.25</ele><time>2026-04-03T16:34:32.329Z</time></trkpt><trkpt lat="37.4379872" lon="13.9444237"><ele>441.0</ele><time>2026-04-03T16:34:33.329Z</time></trkpt><trkpt lat="37.4379064" lon="13.9442742"><ele>440.75</ele><time>2026-04-03T16:34:34.329Z</time></trkpt><trkpt lat="37.4378282" lon="13.9441241"><ele>440.5</ele><time>2026-04-03T16:34:35.328Z</time></trkpt><trkpt lat="37.437752" lon="13.9439734"><ele>440.25</ele><time>2026-04-03T16:34:36.329Z</time></trkpt><trkpt lat="37.4376772" lon="13.9438225"><ele>440.0</ele><time>2026-04-03T16:34:37.329Z</time></trkpt><trkpt lat="37.4376032" lon="13.9436711"><ele>440.0</ele><time>2026-04-03T16:34:38.329Z</time></trkpt><trkpt lat="37.4375298" lon="13.943519"><ele>440.0</ele><time>2026-04-03T16:34:39.329Z</time></trkpt><trkpt lat="37.4374582" lon="13.9433645"><ele>440.0</ele><time>2026-04-03T16:34:40.329Z</time></trkpt><trkpt lat="37.4373874" lon="13.9432088"><ele>440.0</ele><time>2026-04-03T16:34:41.328Z</time></trkpt><trkpt lat="37.4373169" lon="13.9430533"><ele>440.75</ele><time>2026-04-03T16:34:42.329Z</time></trkpt><trkpt lat="37.4372471" lon="13.9428967"><ele>441.5</ele><time>2026-04-03T16:34:43.329Z</time></trkpt><trkpt lat="37.4371774" lon="13.9427393"><ele>442.25</ele><time>2026-04-03T16:34:44.329Z</time></trkpt><trkpt lat="37.4371067" lon="13.9425831"><ele>443.0</ele><time>2026-04-03T16:34:45.329Z</time></trkpt><trkpt lat="37.4370365" lon="13.9424268"><ele>444.75</ele><time>2026-04-03T16:34:46.329Z</time></trkpt><trkpt lat="37.4369673" lon="13.942271"><ele>446.5</ele><time>2026-04-03T16:34:47.329Z</time></trkpt><trkpt lat="37.4368991" lon="13.942116"><ele>448.25</ele><time>2026-04-03T16:34:48.329Z</time></trkpt><trkpt lat="37.4368279" lon="13.941963"><ele>450.0</ele><time>2026-04-03T16:34:49.329Z</time></trkpt><trkpt lat="37.4367564" lon="13.9418108"><ele>450.25</ele><time>2026-04-03T16:34:50.329Z</time></trkpt><trkpt lat="37.4366867" lon="13.9416572"><ele>450.5</ele><time>2026-04-03T16:34:51.329Z</time></trkpt><trkpt lat="37.4366179" lon="13.941502"><ele>450.75</ele><time>2026-04-03T16:34:52.329Z</time></trkpt><trkpt lat="37.4365465" lon="13.9413481"><ele>451.0</ele><time>2026-04-03T16:34:53.329Z</time></trkpt><trkpt lat="37.4364731" lon="13.9411955"><ele>451.0</ele><time>2026-04-03T16:34:54.329Z</time></trkpt><trkpt lat="37.4363972" lon="13.9410422"><ele>451.0</ele><time>2026-04-03T16:34:55.329Z</time></trkpt><trkpt lat="37.4363207" lon="13.9408898"><ele>451.0</ele><time>2026-04-03T16:34:56.329Z</time></trkpt><trkpt lat="37.4362435" lon="13.9407354"><ele>451.0</ele><time>2026-04-03T16:34:57.329Z</time></trkpt><trkpt lat="37.4361636" lon="13.9405819"><ele>451.0</ele><time>2026-04-03T16:34:58.329Z</time></trkpt><trkpt lat="37.4360803" lon="13.94043"><ele>451.0</ele><time>2026-04-03T16:34:59.329Z</time></trkpt><trkpt lat="37.4359954" lon="13.9402786"><ele>451.0</ele><time>2026-04-03T16:35:00.328Z</time></trkpt><trkpt lat="37.4359086" lon="13.9401258"><ele>451.0</ele><time>2026-04-03T16:35:01.329Z</time></trkpt><trkpt lat="37.4358199" lon="13.9399746"><ele>451.0</ele><time>2026-04-03T16:35:02.329Z</time></trkpt><trkpt lat="37.4357293" lon="13.9398234"><ele>451.0</ele><time>2026-04-03T16:35:03.329Z</time></trkpt><trkpt lat="37.4356376" lon="13.939673"><ele>451.0</ele><time>2026-04-03T16:35:04.329Z</time></trkpt><trkpt lat="37.435544" lon="13.9395235"><ele>450.33333333333337</ele><time>2026-04-03T16:35:05.329Z</time></trkpt><trkpt lat="37.4354478" lon="13.939375"><ele>449.66666666666663</ele><time>2026-04-03T16:35:06.329Z</time></trkpt><trkpt lat="37.4353489" lon="13.9392277"><ele>449.0</ele><time>2026-04-03T16:35:07.329Z</time></trkpt><trkpt lat="37.4352485" lon="13.939082"><ele>450.3333333333333</ele><time>2026-04-03T16:35:08.329Z</time></trkpt><trkpt lat="37.4351463" lon="13.9389375"><ele>451.66666666666663</ele><time>2026-04-03T16:35:09.329Z</time></trkpt><trkpt lat="37.4350439" lon="13.9387939"><ele>453.0</ele><time>2026-04-03T16:35:10.329Z</time></trkpt><trkpt lat="37.4349398" lon="13.9386516"><ele>453.0</ele><time>2026-04-03T16:35:11.329Z</time></trkpt><trkpt lat="37.4348344" lon="13.9385105"><ele>453.0</ele><time>2026-04-03T16:35:12.329Z</time></trkpt><trkpt lat="37.4347281" lon="13.9383708"><ele>453.0</ele><time>2026-04-03T16:35:13.329Z</time></trkpt><trkpt lat="37.4346204" lon="13.9382336"><ele>451.66666666666663</ele><time>2026-04-03T16:35:14.328Z</time></trkpt><trkpt lat="37.4345101" lon="13.9380985"><ele>450.3333333333333</ele><time>2026-04-03T16:35:15.329Z</time></trkpt><trkpt lat="37.4343975" lon="13.9379661"><ele>449.0</ele><time>2026-04-03T16:35:16.329Z</time></trkpt><trkpt lat="37.4342836" lon="13.9378353"><ele>449.0</ele><time>2026-04-03T16:35:17.329Z</time></trkpt><trkpt lat="37.4341696" lon="13.9377056"><ele>449.0</ele><time>2026-04-03T16:35:18.329Z</time></trkpt><trkpt lat="37.4340553" lon="13.9375769"><ele>449.0</ele><time>2026-04-03T16:35:19.329Z</time></trkpt><trkpt lat="37.4339406" lon="13.9374493"><ele>448.3333333333333</ele><time>2026-04-03T16:35:20.329Z</time></trkpt><trkpt lat="37.4338253" lon="13.937324"><ele>447.66666666666663</ele><time>2026-04-03T16:35:21.328Z</time></trkpt><trkpt lat="37.4337091" lon="13.9372015"><ele>447.0</ele><time>2026-04-03T16:35:22.329Z</time></trkpt><trkpt lat="37.4335911" lon="13.937081"><ele>447.0</ele><time>2026-04-03T16:35:23.328Z</time></trkpt><trkpt lat="37.4334736" lon="13.9369609"><ele>447.0</ele><time>2026-04-03T16:35:24.329Z</time></trkpt><trkpt lat="37.4333568" lon="13.9368407"><ele>447.0</ele><time>2026-04-03T16:35:25.329Z</time></trkpt><trkpt lat="37.4332403" lon="13.936721"><ele>447.25</ele><time>2026-04-03T16:35:26.329Z</time></trkpt><trkpt lat="37.4331245" lon="13.9366005"><ele>447.5</ele><time>2026-04-03T16:35:27.329Z</time></trkpt><trkpt lat="37.4330084" lon="13.9364814"><ele>447.75</ele><time>2026-04-03T16:35:28.329Z</time></trkpt><trkpt lat="37.4328929" lon="13.936363"><ele>448.0</ele><time>2026-04-03T16:35:29.329Z</time></trkpt><trkpt lat="37.4327777" lon="13.9362452"><ele>448.0</ele><time>2026-04-03T16:35:30.329Z</time></trkpt><trkpt lat="37.4326628" lon="13.9361278"><ele>448.0</ele><time>2026-04-03T16:35:31.329Z</time></trkpt><trkpt lat="37.4325477" lon="13.9360105"><ele>448.0</ele><time>2026-04-03T16:35:32.329Z</time></trkpt><trkpt lat="37.4324331" lon="13.9358911"><ele>448.0</ele><time>2026-04-03T16:35:33.328Z</time></trkpt><trkpt lat="37.4323194" lon="13.9357709"><ele>447.25</ele><time>2026-04-03T16:35:34.329Z</time></trkpt><trkpt lat="37.4322028" lon="13.9356533"><ele>446.5</ele><time>2026-04-03T16:35:35.329Z</time></trkpt><trkpt lat="37.432085" lon="13.9355368"><ele>445.75</ele><time>2026-04-03T16:35:36.329Z</time></trkpt><trkpt lat="37.4319677" lon="13.935419"><ele>445.0</ele><time>2026-04-03T16:35:37.329Z</time></trkpt><trkpt lat="37.4318523" lon="13.9352991"><ele>445.0</ele><time>2026-04-03T16:35:38.329Z</time></trkpt><trkpt lat="37.431737" lon="13.9351798"><ele>445.0</ele><time>2026-04-03T16:35:39.329Z</time></trkpt><trkpt lat="37.4316219" lon="13.935061"><ele>445.0</ele><time>2026-04-03T16:35:40.329Z</time></trkpt><trkpt lat="37.4315077" lon="13.9349425"><ele>445.0</ele><time>2026-04-03T16:35:41.329Z</time></trkpt><trkpt lat="37.4313936" lon="13.934823"><ele>441.5</ele><time>2026-04-03T16:35:42.328Z</time></trkpt><trkpt lat="37.4312797" lon="13.9347026"><ele>438.0</ele><time>2026-04-03T16:35:43.329Z</time></trkpt><trkpt lat="37.4311644" lon="13.9345833"><ele>434.5</ele><time>2026-04-03T16:35:44.329Z</time></trkpt><trkpt lat="37.431048" lon="13.9344635"><ele>431.0</ele><time>2026-04-03T16:35:45.329Z</time></trkpt><trkpt lat="37.4309315" lon="13.9343429"><ele>429.3333333333333</ele><time>2026-04-03T16:35:46.329Z</time></trkpt><trkpt lat="37.430815" lon="13.9342209"><ele>427.66666666666663</ele><time>2026-04-03T16:35:47.329Z</time></trkpt><trkpt lat="37.4306987" lon="13.9340963"><ele>426.0</ele><time>2026-04-03T16:35:48.329Z</time></trkpt><trkpt lat="37.430582" lon="13.9339714"><ele>423.33333333333337</ele><time>2026-04-03T16:35:49.329Z</time></trkpt><trkpt lat="37.4304652" lon="13.9338469"><ele>420.6666666666667</ele><time>2026-04-03T16:35:50.329Z</time></trkpt><trkpt lat="37.4303491" lon="13.9337214"><ele>418.0</ele><time>2026-04-03T16:35:51.329Z</time></trkpt><trkpt lat="37.4302346" lon="13.9335928"><ele>418.0</ele><time>2026-04-03T16:35:52.329Z</time></trkpt><trkpt lat="37.4301209" lon="13.9334636"><ele>418.0</ele><time>2026-04-03T16:35:53.329Z</time></trkpt><trkpt lat="37.430008" lon="13.9333342"><ele>418.0</ele><time>2026-04-03T16:35:54.329Z</time></trkpt><trkpt lat="37.4298955" lon="13.933205"><ele>417.0</ele><time>2026-04-03T16:35:55.329Z</time></trkpt><trkpt lat="37.4297841" lon="13.9330752"><ele>416.0</ele><time>2026-04-03T16:35:56.329Z</time></trkpt><trkpt lat="37.4296746" lon="13.9329438"><ele>415.0</ele><time>2026-04-03T16:35:57.329Z</time></trkpt><trkpt lat="37.429566" lon="13.9328119"><ele>415.0</ele><time>2026-04-03T16:35:58.329Z</time></trkpt><trkpt lat="37.42946" lon="13.9326782"><ele>415.0</ele><time>2026-04-03T16:35:59.329Z</time></trkpt><trkpt lat="37.4293548" lon="13.9325433"><ele>415.0</ele><time>2026-04-03T16:36:00.329Z</time></trkpt><trkpt lat="37.4292501" lon="13.9324084"><ele>415.0</ele><time>2026-04-03T16:36:01.329Z</time></trkpt><trkpt lat="37.4291473" lon="13.9322724"><ele>415.0</ele><time>2026-04-03T16:36:02.328Z</time></trkpt><trkpt lat="37.4290459" lon="13.9321363"><ele>415.0</ele><time>2026-04-03T16:36:03.329Z</time></trkpt><trkpt lat="37.4289458" lon="13.931999"><ele>415.0</ele><time>2026-04-03T16:36:04.329Z</time></trkpt><trkpt lat="37.428846" lon="13.9318621"><ele>416.0</ele><time>2026-04-03T16:36:05.329Z</time></trkpt><trkpt lat="37.4287473" lon="13.9317249"><ele>417.0</ele><time>2026-04-03T16:36:06.329Z</time></trkpt><trkpt lat="37.4286502" lon="13.9315868"><ele>418.0</ele><time>2026-04-03T16:36:07.329Z</time></trkpt><trkpt lat="37.4285537" lon="13.9314476"><ele>419.0</ele><time>2026-04-03T16:36:08.329Z</time></trkpt><trkpt lat="37.4284587" lon="13.9313056"><ele>419.75</ele><time>2026-04-03T16:36:09.329Z</time></trkpt><trkpt lat="37.4283644" lon="13.9311621"><ele>420.5</ele><time>2026-04-03T16:36:10.328Z</time></trkpt><trkpt lat="37.4282698" lon="13.9310175"><ele>421.25</ele><time>2026-04-03T16:36:11.329Z</time></trkpt><trkpt lat="37.4281762" lon="13.9308716"><ele>422.0</ele><time>2026-04-03T16:36:12.329Z</time></trkpt><trkpt lat="37.4280833" lon="13.930725"><ele>423.66666666666663</ele><time>2026-04-03T16:36:13.328Z</time></trkpt><trkpt lat="37.4279919" lon="13.9305763"><ele>425.33333333333337</ele><time>2026-04-03T16:36:14.328Z</time></trkpt><trkpt lat="37.4279015" lon="13.9304249"><ele>427.0</ele><time>2026-04-03T16:36:15.329Z</time></trkpt><trkpt lat="37.4278121" lon="13.9302723"><ele>427.0</ele><time>2026-04-03T16:36:16.329Z</time></trkpt><trkpt lat="37.4277224" lon="13.9301193"><ele>427.0</ele><time>2026-04-03T16:36:17.329Z</time></trkpt><trkpt lat="37.4276333" lon="13.9299655"><ele>427.0</ele><time>2026-04-03T16:36:18.328Z</time></trkpt><trkpt lat="37.4275464" lon="13.9298101"><ele>429.33333333333337</ele><time>2026-04-03T16:36:19.329Z</time></trkpt><trkpt lat="37.427461" lon="13.9296532"><ele>431.66666666666663</ele><time>2026-04-03T16:36:20.329Z</time></trkpt><trkpt lat="37.4273761" lon="13.9294957"><ele>434.0</ele><time>2026-04-03T16:36:21.329Z</time></trkpt><trkpt lat="37.4272927" lon="13.9293371"><ele>436.66666666666663</ele><time>2026-04-03T16:36:22.329Z</time></trkpt><trkpt lat="37.4272093" lon="13.9291786"><ele>439.33333333333337</ele><time>2026-04-03T16:36:23.329Z</time></trkpt><trkpt lat="37.4271266" lon="13.9290207"><ele>442.0</ele><time>2026-04-03T16:36:24.328Z</time></trkpt><trkpt lat="37.4270463" lon="13.9288616"><ele>444.5</ele><time>2026-04-03T16:36:25.329Z</time></trkpt><trkpt lat="37.4269681" lon="13.9287011"><ele>447.0</ele><time>2026-04-03T16:36:26.329Z</time></trkpt><trkpt lat="37.4268906" lon="13.9285403"><ele>449.5</ele><time>2026-04-03T16:36:27.329Z</time></trkpt><trkpt lat="37.426815" lon="13.9283786"><ele>452.0</ele><time>2026-04-03T16:36:28.329Z</time></trkpt><trkpt lat="37.4267397" lon="13.9282169"><ele>454.0</ele><time>2026-04-03T16:36:29.329Z</time></trkpt><trkpt lat="37.4266649" lon="13.928056"><ele>456.0</ele><time>2026-04-03T16:36:30.329Z</time></trkpt><trkpt lat="37.4265922" lon="13.9278947"><ele>458.0</ele><time>2026-04-03T16:36:31.329Z</time></trkpt><trkpt lat="37.4265224" lon="13.9277318"><ele>460.0</ele><time>2026-04-03T16:36:32.329Z</time></trkpt><trkpt lat="37.4264535" lon="13.92757"><ele>462.0</ele><time>2026-04-03T16:36:33.329Z</time></trkpt><trkpt lat="37.4263848" lon="13.9274077"><ele>464.0</ele><time>2026-04-03T16:36:34.329Z</time></trkpt><trkpt lat="37.4263176" lon="13.9272444"><ele>466.0</ele><time>2026-04-03T16:36:35.329Z</time></trkpt><trkpt lat="37.4262517" lon="13.9270818"><ele>468.0</ele><time>2026-04-03T16:36:36.329Z</time></trkpt><trkpt lat="37.4261884" lon="13.9269184"><ele>470.5</ele><time>2026-04-03T16:36:37.329Z</time></trkpt><trkpt lat="37.4261278" lon="13.9267549"><ele>473.0</ele><time>2026-04-03T16:36:38.329Z</time></trkpt><trkpt lat="37.4260666" lon="13.9265896"><ele>475.5</ele><time>2026-04-03T16:36:39.329Z</time></trkpt><trkpt lat="37.4260049" lon="13.9264248"><ele>478.0</ele><time>2026-04-03T16:36:40.329Z</time></trkpt><trkpt lat="37.4259429" lon="13.9262602"><ele>480.5</ele><time>2026-04-03T16:36:41.329Z</time></trkpt><trkpt lat="37.4258811" lon="13.9260953"><ele>483.0</ele><time>2026-04-03T16:36:42.329Z</time></trkpt><trkpt lat="37.4253375" lon="13.9243783"><ele>484.33333333333337</ele><time>2026-04-03T16:36:52.329Z</time></trkpt><trkpt lat="37.4252835" lon="13.9242039"><ele>485.6666666666667</ele><time>2026-04-03T16:36:53.329Z</time></trkpt><trkpt lat="37.4252282" lon="13.9240253"><ele>487.0</ele><time>2026-04-03T16:36:54.329Z</time></trkpt><trkpt lat="37.4251725" lon="13.9238474"><ele>487.0</ele><time>2026-04-03T16:36:55.329Z</time></trkpt><trkpt lat="37.4251163" lon="13.9236686"><ele>487.0</ele><time>2026-04-03T16:36:56.329Z</time></trkpt><trkpt lat="37.4250589" lon="13.9234884"><ele>487.0</ele><time>2026-04-03T16:36:57.329Z</time></trkpt><trkpt lat="37.4250011" lon="13.923308"><ele>486.6666666666667</ele><time>2026-04-03T16:36:58.329Z</time></trkpt><trkpt lat="37.4249435" lon="13.9231277"><ele>486.33333333333337</ele><time>2026-04-03T16:36:59.329Z</time></trkpt><trkpt lat="37.4248861" lon="13.9229461"><ele>486.0</ele><time>2026-04-03T16:37:00.329Z</time></trkpt><trkpt lat="37.4248287" lon="13.9227655"><ele>486.0</ele><time>2026-04-03T16:37:01.329Z</time></trkpt><trkpt lat="37.4247717" lon="13.9225848"><ele>486.0</ele><time>2026-04-03T16:37:02.329Z</time></trkpt><trkpt lat="37.4247152" lon="13.9224037"><ele>486.0</ele><time>2026-04-03T16:37:03.329Z</time></trkpt><trkpt lat="37.4246583" lon="13.9222234"><ele>485.0</ele><time>2026-04-03T16:37:04.329Z</time></trkpt><trkpt lat="37.4246018" lon="13.9220425"><ele>484.0</ele><time>2026-04-03T16:37:05.329Z</time></trkpt><trkpt lat="37.424545" lon="13.9218613"><ele>483.0</ele><time>2026-04-03T16:37:06.329Z</time></trkpt><trkpt lat="37.424488" lon="13.9216806"><ele>483.0</ele><time>2026-04-03T16:37:07.329Z</time></trkpt><trkpt lat="37.4244318" lon="13.9215001"><ele>483.0</ele><time>2026-04-03T16:37:08.329Z</time></trkpt><trkpt lat="37.4243756" lon="13.9213198"><ele>483.0</ele><time>2026-04-03T16:37:09.329Z</time></trkpt><trkpt lat="37.4243196" lon="13.9211387"><ele>483.0</ele><time>2026-04-03T16:37:10.329Z</time></trkpt><trkpt lat="37.4242636" lon="13.920957"><ele>483.0</ele><time>2026-04-03T16:37:11.329Z</time></trkpt><trkpt lat="37.4242069" lon="13.9207753"><ele>483.0</ele><time>2026-04-03T16:37:12.329Z</time></trkpt><trkpt lat="37.4241502" lon="13.9205938"><ele>484.33333333333337</ele><time>2026-04-03T16:37:13.328Z</time></trkpt><trkpt lat="37.4240937" lon="13.9204125"><ele>485.6666666666667</ele><time>2026-04-03T16:37:14.329Z</time></trkpt><trkpt lat="37.4240384" lon="13.9202306"><ele>487.0</ele><time>2026-04-03T16:37:15.329Z</time></trkpt><trkpt lat="37.4239828" lon="13.9200481"><ele>489.33333333333337</ele><time>2026-04-03T16:37:16.329Z</time></trkpt><trkpt lat="37.4239267" lon="13.9198666"><ele>491.66666666666663</ele><time>2026-04-03T16:37:17.329Z</time></trkpt><trkpt lat="37.4238713" lon="13.9196842"><ele>494.0</ele><time>2026-04-03T16:37:18.329Z</time></trkpt><trkpt lat="37.4238161" lon="13.9195019"><ele>491.66666666666663</ele><time>2026-04-03T16:37:19.329Z</time></trkpt><trkpt lat="37.4237604" lon="13.9193203"><ele>489.33333333333337</ele><time>2026-04-03T16:37:20.329Z</time></trkpt><trkpt lat="37.4237042" lon="13.91914"><ele>487.0</ele><time>2026-04-03T16:37:21.329Z</time></trkpt><trkpt lat="37.4236489" lon="13.9189596"><ele>487.0</ele><time>2026-04-03T16:37:22.329Z</time></trkpt><trkpt lat="37.423594" lon="13.9187793"><ele>487.0</ele><time>2026-04-03T16:37:23.329Z</time></trkpt><trkpt lat="37.4235387" lon="13.9185992"><ele>487.0</ele><time>2026-04-03T16:37:24.329Z</time></trkpt><trkpt lat="37.423482" lon="13.9184205"><ele>488.6666666666667</ele><time>2026-04-03T16:37:25.329Z</time></trkpt><trkpt lat="37.4234263" lon="13.918242"><ele>490.33333333333337</ele><time>2026-04-03T16:37:26.329Z</time></trkpt><trkpt lat="37.4233705" lon="13.9180648"><ele>492.0</ele><time>2026-04-03T16:37:27.329Z</time></trkpt><trkpt lat="37.4233153" lon="13.9178876"><ele>492.0</ele><time>2026-04-03T16:37:28.329Z</time></trkpt><trkpt lat="37.4232592" lon="13.9177115"><ele>492.0</ele><time>2026-04-03T16:37:29.329Z</time></trkpt><trkpt lat="37.4232056" lon="13.9175355"><ele>492.0</ele><time>2026-04-03T16:37:30.329Z</time></trkpt><trkpt lat="37.4231525" lon="13.9173613"><ele>492.0</ele><time>2026-04-03T16:37:31.328Z</time></trkpt><trkpt lat="37.4231004" lon="13.9171893"><ele>493.0</ele><time>2026-04-03T16:37:32.329Z</time></trkpt><trkpt lat="37.4230469" lon="13.9170189"><ele>494.0</ele><time>2026-04-03T16:37:33.329Z</time></trkpt><trkpt lat="37.4229935" lon="13.9168495"><ele>495.0</ele><time>2026-04-03T16:37:34.329Z</time></trkpt><trkpt lat="37.4229404" lon="13.9166796"><ele>496.0</ele><time>2026-04-03T16:37:35.329Z</time></trkpt><trkpt lat="37.422887" lon="13.9165082"><ele>496.75</ele><time>2026-04-03T16:37:36.328Z</time></trkpt><trkpt lat="37.4228345" lon="13.9163364"><ele>497.5</ele><time>2026-04-03T16:37:37.329Z</time></trkpt><trkpt lat="37.4227828" lon="13.9161663"><ele>498.25</ele><time>2026-04-03T16:37:38.329Z</time></trkpt><trkpt lat="37.422732" lon="13.9159973"><ele>499.0</ele><time>2026-04-03T16:37:39.329Z</time></trkpt><trkpt lat="37.4226825" lon="13.9158298"><ele>500.25</ele><time>2026-04-03T16:37:40.329Z</time></trkpt><trkpt lat="37.4226323" lon="13.9156644"><ele>501.5</ele><time>2026-04-03T16:37:41.329Z</time></trkpt><trkpt lat="37.422581" lon="13.9154999"><ele>502.75</ele><time>2026-04-03T16:37:42.329Z</time></trkpt><trkpt lat="37.4225296" lon="13.9153355"><ele>504.0</ele><time>2026-04-03T16:37:43.329Z</time></trkpt><trkpt lat="37.4224787" lon="13.9151722"><ele>504.75</ele><time>2026-04-03T16:37:44.329Z</time></trkpt><trkpt lat="37.4224265" lon="13.9150115"><ele>505.5</ele><time>2026-04-03T16:37:45.329Z</time></trkpt><trkpt lat="37.4223758" lon="13.9148511"><ele>506.25</ele><time>2026-04-03T16:37:46.328Z</time></trkpt><trkpt lat="37.4223272" lon="13.914694"><ele>507.0</ele><time>2026-04-03T16:37:47.329Z</time></trkpt><trkpt lat="37.4222793" lon="13.9145384"><ele>507.0</ele><time>2026-04-03T16:37:48.329Z</time></trkpt><trkpt lat="37.4222306" lon="13.9143826"><ele>507.0</ele><time>2026-04-03T16:37:49.329Z</time></trkpt><trkpt lat="37.4221828" lon="13.9142259"><ele>507.0</ele><time>2026-04-03T16:37:50.329Z</time></trkpt><trkpt lat="37.4221366" lon="13.9140689"><ele>507.0</ele><time>2026-04-03T16:37:51.329Z</time></trkpt><trkpt lat="37.4220937" lon="13.9139142"><ele>506.75</ele><time>2026-04-03T16:37:52.329Z</time></trkpt><trkpt lat="37.4220487" lon="13.9137593"><ele>506.5</ele><time>2026-04-03T16:37:53.328Z</time></trkpt><trkpt lat="37.4220008" lon="13.9136052"><ele>506.25</ele><time>2026-04-03T16:37:54.329Z</time></trkpt><trkpt lat="37.4219515" lon="13.9134526"><ele>506.0</ele><time>2026-04-03T16:37:55.329Z</time></trkpt><trkpt lat="37.4219035" lon="13.9133016"><ele>506.0</ele><time>2026-04-03T16:37:56.329Z</time></trkpt><trkpt lat="37.4218576" lon="13.9131502"><ele>506.0</ele><time>2026-04-03T16:37:57.329Z</time></trkpt><trkpt lat="37.4218119" lon="13.9129994"><ele>506.0</ele><time>2026-04-03T16:37:58.329Z</time></trkpt><trkpt lat="37.4217645" lon="13.912851"><ele>506.0</ele><time>2026-04-03T16:37:59.329Z</time></trkpt><trkpt lat="37.4217187" lon="13.9127044"><ele>507.75</ele><time>2026-04-03T16:38:00.329Z</time></trkpt><trkpt lat="37.4216736" lon="13.9125568"><ele>509.5</ele><time>2026-04-03T16:38:01.329Z</time></trkpt><trkpt lat="37.4216282" lon="13.9124081"><ele>511.25</ele><time>2026-04-03T16:38:02.329Z</time></trkpt><trkpt lat="37.4215804" lon="13.9122599"><ele>513.0</ele><time>2026-04-03T16:38:03.329Z</time></trkpt><trkpt lat="37.4215328" lon="13.9121107"><ele>513.0</ele><time>2026-04-03T16:38:04.329Z</time></trkpt><trkpt lat="37.4214863" lon="13.9119613"><ele>513.0</ele><time>2026-04-03T16:38:05.329Z</time></trkpt><trkpt lat="37.421439" lon="13.9118128"><ele>513.0</ele><time>2026-04-03T16:38:06.328Z</time></trkpt><trkpt lat="37.4213915" lon="13.9116643"><ele>513.0</ele><time>2026-04-03T16:38:07.328Z</time></trkpt><trkpt lat="37.4213438" lon="13.9115158"><ele>512.25</ele><time>2026-04-03T16:38:08.329Z</time></trkpt><trkpt lat="37.421297" lon="13.9113666"><ele>511.5</ele><time>2026-04-03T16:38:09.328Z</time></trkpt><trkpt lat="37.4212495" lon="13.911218"><ele>510.75</ele><time>2026-04-03T16:38:10.329Z</time></trkpt><trkpt lat="37.421202" lon="13.91107"><ele>510.0</ele><time>2026-04-03T16:38:11.329Z</time></trkpt><trkpt lat="37.4211541" lon="13.9109222"><ele>511.75</ele><time>2026-04-03T16:38:12.329Z</time></trkpt><trkpt lat="37.4211044" lon="13.9107756"><ele>513.5</ele><time>2026-04-03T16:38:13.329Z</time></trkpt><trkpt lat="37.4210537" lon="13.9106298"><ele>515.25</ele><time>2026-04-03T16:38:14.329Z</time></trkpt><trkpt lat="37.421003" lon="13.9104848"><ele>517.0</ele><time>2026-04-03T16:38:15.329Z</time></trkpt><trkpt lat="37.420952" lon="13.9103399"><ele>517.0</ele><time>2026-04-03T16:38:16.329Z</time></trkpt><trkpt lat="37.4208984" lon="13.9101953"><ele>517.0</ele><time>2026-04-03T16:38:17.328Z</time></trkpt><trkpt lat="37.4208435" lon="13.9100505"><ele>517.0</ele><time>2026-04-03T16:38:18.329Z</time></trkpt><trkpt lat="37.420788" lon="13.9099065"><ele>517.0</ele><time>2026-04-03T16:38:19.329Z</time></trkpt><trkpt lat="37.4207311" lon="13.9097636"><ele>519.0</ele><time>2026-04-03T16:38:20.329Z</time></trkpt><trkpt lat="37.4206723" lon="13.9096203"><ele>521.0</ele><time>2026-04-03T16:38:21.329Z</time></trkpt><trkpt lat="37.4206121" lon="13.9094782"><ele>523.0</ele><time>2026-04-03T16:38:22.329Z</time></trkpt><trkpt lat="37.4205509" lon="13.9093356"><ele>525.0</ele><time>2026-04-03T16:38:23.329Z</time></trkpt><trkpt lat="37.4204899" lon="13.9091917"><ele>525.75</ele><time>2026-04-03T16:38:24.329Z</time></trkpt><trkpt lat="37.4204288" lon="13.9090463"><ele>526.5</ele><time>2026-04-03T16:38:25.329Z</time></trkpt><trkpt lat="37.4203663" lon="13.9088997"><ele>527.25</ele><time>2026-04-03T16:38:26.329Z</time></trkpt><trkpt lat="37.4203011" lon="13.908753"><ele>528.0</ele><time>2026-04-03T16:38:27.329Z</time></trkpt><trkpt lat="37.4202336" lon="13.9086063"><ele>528.0</ele><time>2026-04-03T16:38:28.329Z</time></trkpt><trkpt lat="37.4201655" lon="13.9084589"><ele>528.0</ele><time>2026-04-03T16:38:29.328Z</time></trkpt><trkpt lat="37.4200971" lon="13.9083104"><ele>528.0</ele><time>2026-04-03T16:38:30.329Z</time></trkpt><trkpt lat="37.4200264" lon="13.9081615"><ele>528.0</ele><time>2026-04-03T16:38:31.329Z</time></trkpt><trkpt lat="37.4199545" lon="13.9080107"><ele>528.0</ele><time>2026-04-03T16:38:32.329Z</time></trkpt><trkpt lat="37.4198803" lon="13.907859"><ele>528.0</ele><time>2026-04-03T16:38:33.328Z</time></trkpt><trkpt lat="37.4198052" lon="13.9077065"><ele>528.0</ele><time>2026-04-03T16:38:34.329Z</time></trkpt><trkpt lat="37.41973" lon="13.9075539"><ele>528.0</ele><time>2026-04-03T16:38:35.329Z</time></trkpt><trkpt lat="37.4196546" lon="13.9074019"><ele>527.25</ele><time>2026-04-03T16:38:36.329Z</time></trkpt><trkpt lat="37.4195785" lon="13.9072514"><ele>526.5</ele><time>2026-04-03T16:38:37.329Z</time></trkpt><trkpt lat="37.4195032" lon="13.907102"><ele>525.75</ele><time>2026-04-03T16:38:38.329Z</time></trkpt><trkpt lat="37.4194289" lon="13.9069522"><ele>525.0</ele><time>2026-04-03T16:38:39.329Z</time></trkpt><trkpt lat="37.4193562" lon="13.9068005"><ele>525.5</ele><time>2026-04-03T16:38:40.329Z</time></trkpt><trkpt lat="37.4192831" lon="13.9066479"><ele>526.0</ele><time>2026-04-03T16:38:41.329Z</time></trkpt><trkpt lat="37.4192085" lon="13.9064955"><ele>526.5</ele><time>2026-04-03T16:38:42.329Z</time></trkpt><trkpt lat="37.4191341" lon="13.9063425"><ele>527.0</ele><time>2026-04-03T16:38:43.329Z</time></trkpt><trkpt lat="37.4190584" lon="13.9061901"><ele>527.0</ele><time>2026-04-03T16:38:44.329Z</time></trkpt><trkpt lat="37.4189818" lon="13.9060376"><ele>527.0</ele><time>2026-04-03T16:38:45.329Z</time></trkpt><trkpt lat="37.4189074" lon="13.9058828"><ele>527.0</ele><time>2026-04-03T16:38:46.329Z</time></trkpt><trkpt lat="37.4188338" lon="13.9057267"><ele>527.0</ele><time>2026-04-03T16:38:47.329Z</time></trkpt><trkpt lat="37.4187587" lon="13.9055703"><ele>527.0</ele><time>2026-04-03T16:38:48.329Z</time></trkpt><trkpt lat="37.418682" lon="13.9054141"><ele>527.0</ele><time>2026-04-03T16:38:49.329Z</time></trkpt><trkpt lat="37.4186055" lon="13.9052571"><ele>527.0</ele><time>2026-04-03T16:38:50.329Z</time></trkpt><trkpt lat="37.4185287" lon="13.9050996"><ele>527.0</ele><time>2026-04-03T16:38:51.329Z</time></trkpt><trkpt lat="37.4184516" lon="13.9049419"><ele>526.5</ele><time>2026-04-03T16:38:52.329Z</time></trkpt><trkpt lat="37.4183745" lon="13.9047848"><ele>526.0</ele><time>2026-04-03T16:38:53.329Z</time></trkpt><trkpt lat="37.4182976" lon="13.9046276"><ele>525.5</ele><time>2026-04-03T16:38:54.329Z</time></trkpt><trkpt lat="37.4182207" lon="13.9044696"><ele>525.0</ele><time>2026-04-03T16:38:55.328Z</time></trkpt><trkpt lat="37.4181442" lon="13.9043117"><ele>524.75</ele><time>2026-04-03T16:38:56.329Z</time></trkpt><trkpt lat="37.4180677" lon="13.9041535"><ele>524.5</ele><time>2026-04-03T16:38:57.329Z</time></trkpt><trkpt lat="37.4179907" lon="13.9039942"><ele>524.25</ele><time>2026-04-03T16:38:58.329Z</time></trkpt><trkpt lat="37.4179136" lon="13.9038342"><ele>524.0</ele><time>2026-04-03T16:38:59.329Z</time></trkpt><trkpt lat="37.4178367" lon="13.9036738"><ele>523.25</ele><time>2026-04-03T16:39:00.329Z</time></trkpt><trkpt lat="37.4177606" lon="13.9035121"><ele>522.5</ele><time>2026-04-03T16:39:01.329Z</time></trkpt><trkpt lat="37.4176827" lon="13.9033517"><ele>521.75</ele><time>2026-04-03T16:39:02.329Z</time></trkpt><trkpt lat="37.4176041" lon="13.9031924"><ele>521.0</ele><time>2026-04-03T16:39:03.329Z</time></trkpt><trkpt lat="37.4175258" lon="13.9030336"><ele>521.0</ele><time>2026-04-03T16:39:04.329Z</time></trkpt><trkpt lat="37.4174485" lon="13.9028753"><ele>521.0</ele><time>2026-04-03T16:39:05.329Z</time></trkpt><trkpt lat="37.417371" lon="13.9027179"><ele>521.0</ele><time>2026-04-03T16:39:06.329Z</time></trkpt><trkpt lat="37.4172943" lon="13.9025599"><ele>521.0</ele><time>2026-04-03T16:39:07.329Z</time></trkpt><trkpt lat="37.4172181" lon="13.9024011"><ele>520.5</ele><time>2026-04-03T16:39:08.329Z</time></trkpt><trkpt lat="37.4171419" lon="13.902241"><ele>520.0</ele><time>2026-04-03T16:39:09.329Z</time></trkpt><trkpt lat="37.4170639" lon="13.9020809"><ele>519.5</ele><time>2026-04-03T16:39:10.329Z</time></trkpt><trkpt lat="37.4169859" lon="13.9019194"><ele>519.0</ele><time>2026-04-03T16:39:11.329Z</time></trkpt><trkpt lat="37.4169076" lon="13.9017566"><ele>520.3333333333334</ele><time>2026-04-03T16:39:12.329Z</time></trkpt><trkpt lat="37.4168281" lon="13.9015941"><ele>521.6666666666667</ele><time>2026-04-03T16:39:13.329Z</time></trkpt><trkpt lat="37.4167487" lon="13.9014314"><ele>523.0</ele><time>2026-04-03T16:39:14.329Z</time></trkpt><trkpt lat="37.4166693" lon="13.9012689"><ele>523.0</ele><time>2026-04-03T16:39:15.329Z</time></trkpt><trkpt lat="37.41659" lon="13.9011055"><ele>523.0</ele><time>2026-04-03T16:39:16.329Z</time></trkpt><trkpt lat="37.4165106" lon="13.9009413"><ele>523.0</ele><time>2026-04-03T16:39:17.329Z</time></trkpt><trkpt lat="37.4164309" lon="13.9007761"><ele>523.0</ele><time>2026-04-03T16:39:18.329Z</time></trkpt><trkpt lat="37.4163504" lon="13.9006121"><ele>523.0</ele><time>2026-04-03T16:39:19.329Z</time></trkpt><trkpt lat="37.4162699" lon="13.9004496"><ele>523.0</ele><time>2026-04-03T16:39:20.329Z</time></trkpt><trkpt lat="37.4161891" lon="13.900288"><ele>521.0</ele><time>2026-04-03T16:39:21.329Z</time></trkpt><trkpt lat="37.4161072" lon="13.9001273"><ele>519.0</ele><time>2026-04-03T16:39:22.329Z</time></trkpt><trkpt lat="37.4160248" lon="13.899967"><ele>517.0</ele><time>2026-04-03T16:39:23.329Z</time></trkpt><trkpt lat="37.4159417" lon="13.8998082"><ele>516.6666666666667</ele><time>2026-04-03T16:39:24.329Z</time></trkpt><trkpt lat="37.4158579" lon="13.8996505"><ele>516.3333333333334</ele><time>2026-04-03T16:39:25.329Z</time></trkpt><trkpt lat="37.4157729" lon="13.899494"><ele>516.0</ele><time>2026-04-03T16:39:26.329Z</time></trkpt><trkpt lat="37.415686" lon="13.8993398"><ele>516.5</ele><time>2026-04-03T16:39:27.329Z</time></trkpt><trkpt lat="37.4155968" lon="13.8991879"><ele>517.0</ele><time>2026-04-03T16:39:28.329Z</time></trkpt><trkpt lat="37.4155065" lon="13.8990385"><ele>517.5</ele><time>2026-04-03T16:39:29.329Z</time></trkpt><trkpt lat="37.4154152" lon="13.8988915"><ele>518.0</ele><time>2026-04-03T16:39:30.329Z</time></trkpt><trkpt lat="37.4153246" lon="13.8987456"><ele>517.5</ele><time>2026-04-03T16:39:31.329Z</time></trkpt><trkpt lat="37.4152329" lon="13.8986024"><ele>517.0</ele><time>2026-04-03T16:39:32.329Z</time></trkpt><trkpt lat="37.4151397" lon="13.8984617"><ele>516.5</ele><time>2026-04-03T16:39:33.329Z</time></trkpt><trkpt lat="37.4150447" lon="13.8983235"><ele>516.0</ele><time>2026-04-03T16:39:34.329Z</time></trkpt><trkpt lat="37.4149479" lon="13.898187"><ele>516.0</ele><time>2026-04-03T16:39:35.329Z</time></trkpt><trkpt lat="37.4148502" lon="13.8980511"><ele>516.0</ele><time>2026-04-03T16:39:36.329Z</time></trkpt><trkpt lat="37.4147504" lon="13.897916"><ele>516.0</ele><time>2026-04-03T16:39:37.329Z</time></trkpt><trkpt lat="37.4146493" lon="13.8977798"><ele>516.0</ele><time>2026-04-03T16:39:38.329Z</time></trkpt><trkpt lat="37.4145463" lon="13.8976448"><ele>516.5</ele><time>2026-04-03T16:39:39.329Z</time></trkpt><trkpt lat="37.414443" lon="13.8975101"><ele>517.0</ele><time>2026-04-03T16:39:40.329Z</time></trkpt><trkpt lat="37.4143387" lon="13.8973771"><ele>517.5</ele><time>2026-04-03T16:39:41.329Z</time></trkpt><trkpt lat="37.4142349" lon="13.8972438"><ele>518.0</ele><time>2026-04-03T16:39:42.329Z</time></trkpt><trkpt lat="37.4141313" lon="13.897111"><ele>518.0</ele><time>2026-04-03T16:39:43.329Z</time></trkpt><trkpt lat="37.4140278" lon="13.8969782"><ele>518.0</ele><time>2026-04-03T16:39:44.328Z</time></trkpt><trkpt lat="37.4139248" lon="13.8968453"><ele>518.0</ele><time>2026-04-03T16:39:45.329Z</time></trkpt><trkpt lat="37.4138211" lon="13.8967128"><ele>518.0</ele><time>2026-04-03T16:39:46.329Z</time></trkpt><trkpt lat="37.413717" lon="13.896581"><ele>518.5</ele><time>2026-04-03T16:39:47.329Z</time></trkpt><trkpt lat="37.4136125" lon="13.8964485"><ele>519.0</ele><time>2026-04-03T16:39:48.329Z</time></trkpt><trkpt lat="37.4135074" lon="13.8963151"><ele>519.5</ele><time>2026-04-03T16:39:49.329Z</time></trkpt><trkpt lat="37.4134021" lon="13.8961824"><ele>520.0</ele><time>2026-04-03T16:39:50.329Z</time></trkpt><trkpt lat="37.4132958" lon="13.896049"><ele>520.6666666666667</ele><time>2026-04-03T16:39:51.329Z</time></trkpt><trkpt lat="37.4131892" lon="13.8959152"><ele>521.3333333333334</ele><time>2026-04-03T16:39:52.329Z</time></trkpt><trkpt lat="37.4130825" lon="13.8957804"><ele>522.0</ele><time>2026-04-03T16:39:53.328Z</time></trkpt><trkpt lat="37.4129758" lon="13.8956457"><ele>518.6666666666666</ele><time>2026-04-03T16:39:54.329Z</time></trkpt><trkpt lat="37.4128693" lon="13.8955105"><ele>515.3333333333333</ele><time>2026-04-03T16:39:55.329Z</time></trkpt><trkpt lat="37.4127628" lon="13.8953745"><ele>512.0</ele><time>2026-04-03T16:39:56.329Z</time></trkpt><trkpt lat="37.4126555" lon="13.8952383"><ele>512.0</ele><time>2026-04-03T16:39:57.329Z</time></trkpt><trkpt lat="37.4125481" lon="13.8951024"><ele>512.0</ele><time>2026-04-03T16:39:58.329Z</time></trkpt><trkpt lat="37.4124406" lon="13.8949671"><ele>512.0</ele><time>2026-04-03T16:39:59.329Z</time></trkpt><trkpt lat="37.4123334" lon="13.894832"><ele>512.6666666666666</ele><time>2026-04-03T16:40:00.329Z</time></trkpt><trkpt lat="37.4122264" lon="13.8946972"><ele>513.3333333333334</ele><time>2026-04-03T16:40:01.329Z</time></trkpt><trkpt lat="37.4121192" lon="13.8945624"><ele>514.0</ele><time>2026-04-03T16:40:02.329Z</time></trkpt><trkpt lat="37.4120127" lon="13.8944268"><ele>514.0</ele><time>2026-04-03T16:40:03.329Z</time></trkpt><trkpt lat="37.4119063" lon="13.894291"><ele>514.0</ele><time>2026-04-03T16:40:04.329Z</time></trkpt><trkpt lat="37.4118008" lon="13.8941557"><ele>514.0</ele><time>2026-04-03T16:40:05.329Z</time></trkpt><trkpt lat="37.4116953" lon="13.8940209"><ele>516.3333333333334</ele><time>2026-04-03T16:40:06.329Z</time></trkpt><trkpt lat="37.4115894" lon="13.8938862"><ele>518.6666666666666</ele><time>2026-04-03T16:40:07.329Z</time></trkpt><trkpt lat="37.411483" lon="13.8937516"><ele>521.0</ele><time>2026-04-03T16:40:08.328Z</time></trkpt><trkpt lat="37.4113763" lon="13.8936173"><ele>521.6666666666666</ele><time>2026-04-03T16:40:09.329Z</time></trkpt><trkpt lat="37.4112706" lon="13.893483"><ele>522.3333333333334</ele><time>2026-04-03T16:40:10.329Z</time></trkpt><trkpt lat="37.4111641" lon="13.8933492"><ele>523.0</ele><time>2026-04-03T16:40:11.329Z</time></trkpt><trkpt lat="37.4110584" lon="13.8932148"><ele>523.0</ele><time>2026-04-03T16:40:12.329Z</time></trkpt><trkpt lat="37.4109523" lon="13.8930811"><ele>523.0</ele><time>2026-04-03T16:40:13.329Z</time></trkpt><trkpt lat="37.4108454" lon="13.8929487"><ele>523.0</ele><time>2026-04-03T16:40:14.329Z</time></trkpt><trkpt lat="37.4107375" lon="13.8928161"><ele>523.0</ele><time>2026-04-03T16:40:15.328Z</time></trkpt><trkpt lat="37.4106302" lon="13.8926843"><ele>523.0</ele><time>2026-04-03T16:40:16.329Z</time></trkpt><trkpt lat="37.4105236" lon="13.8925509"><ele>523.0</ele><time>2026-04-03T16:40:17.329Z</time></trkpt><trkpt lat="37.4104183" lon="13.8924174"><ele>522.5</ele><time>2026-04-03T16:40:18.329Z</time></trkpt><trkpt lat="37.4103135" lon="13.8922837"><ele>522.0</ele><time>2026-04-03T16:40:19.329Z</time></trkpt><trkpt lat="37.4102081" lon="13.8921503"><ele>521.5</ele><time>2026-04-03T16:40:20.329Z</time></trkpt><trkpt lat="37.4101047" lon="13.8920177"><ele>521.0</ele><time>2026-04-03T16:40:21.329Z</time></trkpt><trkpt lat="37.4100021" lon="13.8918866"><ele>521.0</ele><time>2026-04-03T16:40:22.328Z</time></trkpt><trkpt lat="37.4098993" lon="13.8917556"><ele>521.0</ele><time>2026-04-03T16:40:23.329Z</time></trkpt><trkpt lat="37.4097959" lon="13.8916243"><ele>521.0</ele><time>2026-04-03T16:40:24.329Z</time></trkpt><trkpt lat="37.4096922" lon="13.8914937"><ele>521.0</ele><time>2026-04-03T16:40:25.329Z</time></trkpt><trkpt lat="37.4095878" lon="13.8913623"><ele>521.0</ele><time>2026-04-03T16:40:26.328Z</time></trkpt><trkpt lat="37.4094832" lon="13.8912319"><ele>521.0</ele><time>2026-04-03T16:40:27.329Z</time></trkpt><trkpt lat="37.4093799" lon="13.8911"><ele>521.0</ele><time>2026-04-03T16:40:28.329Z</time></trkpt><trkpt lat="37.4092757" lon="13.8909684"><ele>521.0</ele><time>2026-04-03T16:40:29.329Z</time></trkpt><trkpt lat="37.409171" lon="13.8908365"><ele>521.5</ele><time>2026-04-03T16:40:30.329Z</time></trkpt><trkpt lat="37.4090653" lon="13.8907045"><ele>522.0</ele><time>2026-04-03T16:40:31.329Z</time></trkpt><trkpt lat="37.4089607" lon="13.8905702"><ele>522.5</ele><time>2026-04-03T16:40:32.329Z</time></trkpt><trkpt lat="37.4088573" lon="13.8904334"><ele>523.0</ele><time>2026-04-03T16:40:33.329Z</time></trkpt><trkpt lat="37.4087539" lon="13.8902958"><ele>522.6666666666667</ele><time>2026-04-03T16:40:34.329Z</time></trkpt><trkpt lat="37.4086518" lon="13.8901559"><ele>522.3333333333334</ele><time>2026-04-03T16:40:35.329Z</time></trkpt><trkpt lat="37.4085497" lon="13.8900147"><ele>522.0</ele><time>2026-04-03T16:40:36.329Z</time></trkpt><trkpt lat="37.4084487" lon="13.8898717"><ele>522.0</ele><time>2026-04-03T16:40:37.329Z</time></trkpt><trkpt lat="37.4083485" lon="13.8897282"><ele>522.0</ele><time>2026-04-03T16:40:38.329Z</time></trkpt><trkpt lat="37.408251" lon="13.889583"><ele>522.0</ele><time>2026-04-03T16:40:39.329Z</time></trkpt><trkpt lat="37.4081556" lon="13.889436"><ele>522.0</ele><time>2026-04-03T16:40:40.329Z</time></trkpt><trkpt lat="37.4080616" lon="13.889287"><ele>522.0</ele><time>2026-04-03T16:40:41.329Z</time></trkpt><trkpt lat="37.4079681" lon="13.8891367"><ele>522.0</ele><time>2026-04-03T16:40:42.329Z</time></trkpt><trkpt lat="37.4078754" lon="13.8889839"><ele>521.0</ele><time>2026-04-03T16:40:43.329Z</time></trkpt><trkpt lat="37.4077845" lon="13.8888291"><ele>520.0</ele><time>2026-04-03T16:40:44.328Z</time></trkpt><trkpt lat="37.4076942" lon="13.8886731"><ele>519.0</ele><time>2026-04-03T16:40:45.328Z</time></trkpt><trkpt lat="37.4076061" lon="13.8885143"><ele>519.3333333333334</ele><time>2026-04-03T16:40:46.329Z</time></trkpt><trkpt lat="37.4075202" lon="13.8883522"><ele>519.6666666666667</ele><time>2026-04-03T16:40:47.329Z</time></trkpt><trkpt lat="37.4074362" lon="13.8881864"><ele>520.0</ele><time>2026-04-03T16:40:48.329Z</time></trkpt><trkpt lat="37.4073523" lon="13.8880198"><ele>520.0</ele><time>2026-04-03T16:40:49.329Z</time></trkpt><trkpt lat="37.4072707" lon="13.8878513"><ele>520.0</ele><time>2026-04-03T16:40:50.329Z</time></trkpt><trkpt lat="37.4071891" lon="13.8876823"><ele>520.0</ele><time>2026-04-03T16:40:51.329Z</time></trkpt><trkpt lat="37.407109" lon="13.8875127"><ele>518.0</ele><time>2026-04-03T16:40:52.329Z</time></trkpt><trkpt lat="37.4070306" lon="13.8873422"><ele>516.0</ele><time>2026-04-03T16:40:53.329Z</time></trkpt><trkpt lat="37.4069554" lon="13.8871696"><ele>514.0</ele><time>2026-04-03T16:40:54.329Z</time></trkpt><trkpt lat="37.4068842" lon="13.8869948"><ele>514.0</ele><time>2026-04-03T16:40:55.329Z</time></trkpt><trkpt lat="37.4068163" lon="13.8868191"><ele>514.0</ele><time>2026-04-03T16:40:56.329Z</time></trkpt><trkpt lat="37.4067501" lon="13.8866425"><ele>514.0</ele><time>2026-04-03T16:40:57.329Z</time></trkpt><trkpt lat="37.4066845" lon="13.8864658"><ele>513.6666666666667</ele><time>2026-04-03T16:40:58.329Z</time></trkpt><trkpt lat="37.4066202" lon="13.8862892"><ele>513.3333333333334</ele><time>2026-04-03T16:40:59.329Z</time></trkpt><trkpt lat="37.4065569" lon="13.8861103"><ele>513.0</ele><time>2026-04-03T16:41:00.329Z</time></trkpt><trkpt lat="37.4064974" lon="13.885928"><ele>513.0</ele><time>2026-04-03T16:41:01.329Z</time></trkpt><trkpt lat="37.4064372" lon="13.8857452"><ele>513.0</ele><time>2026-04-03T16:41:02.329Z</time></trkpt><trkpt lat="37.4063781" lon="13.8855614"><ele>513.0</ele><time>2026-04-03T16:41:03.329Z</time></trkpt><trkpt lat="37.4063215" lon="13.8853769"><ele>507.33333333333337</ele><time>2026-04-03T16:41:04.329Z</time></trkpt><trkpt lat="37.4062667" lon="13.885192"><ele>501.6666666666667</ele><time>2026-04-03T16:41:05.329Z</time></trkpt><trkpt lat="37.4062144" lon="13.8850073"><ele>496.0</ele><time>2026-04-03T16:41:06.329Z</time></trkpt><trkpt lat="37.4061666" lon="13.884821"><ele>495.33333333333337</ele><time>2026-04-03T16:41:07.329Z</time></trkpt><trkpt lat="37.4061202" lon="13.8846341"><ele>494.66666666666663</ele><time>2026-04-03T16:41:08.329Z</time></trkpt><trkpt lat="37.4060743" lon="13.8844465"><ele>494.0</ele><time>2026-04-03T16:41:09.329Z</time></trkpt><trkpt lat="37.406031" lon="13.8842585"><ele>495.3333333333333</ele><time>2026-04-03T16:41:10.329Z</time></trkpt><trkpt lat="37.4059892" lon="13.8840694"><ele>496.66666666666663</ele><time>2026-04-03T16:41:11.329Z</time></trkpt><trkpt lat="37.4059488" lon="13.88388"><ele>498.0</ele><time>2026-04-03T16:41:12.329Z</time></trkpt><trkpt lat="37.405911" lon="13.8836894"><ele>498.0</ele><time>2026-04-03T16:41:13.328Z</time></trkpt><trkpt lat="37.4058759" lon="13.8834982"><ele>498.0</ele><time>2026-04-03T16:41:14.329Z</time></trkpt><trkpt lat="37.4058423" lon="13.8833074"><ele>498.0</ele><time>2026-04-03T16:41:15.329Z</time></trkpt><trkpt lat="37.4058115" lon="13.8831168"><ele>499.0</ele><time>2026-04-03T16:41:16.328Z</time></trkpt><trkpt lat="37.4057816" lon="13.8829273"><ele>500.0</ele><time>2026-04-03T16:41:17.329Z</time></trkpt><trkpt lat="37.4057537" lon="13.8827382"><ele>501.0</ele><time>2026-04-03T16:41:18.328Z</time></trkpt><trkpt lat="37.405727" lon="13.88255"><ele>501.0</ele><time>2026-04-03T16:41:19.329Z</time></trkpt><trkpt lat="37.4057019" lon="13.882362"><ele>501.0</ele><time>2026-04-03T16:41:20.329Z</time></trkpt><trkpt lat="37.4056765" lon="13.8821753"><ele>501.0</ele><time>2026-04-03T16:41:21.329Z</time></trkpt><trkpt lat="37.4056518" lon="13.8819883"><ele>501.0</ele><time>2026-04-03T16:41:22.328Z</time></trkpt><trkpt lat="37.405628" lon="13.8818032"><ele>501.0</ele><time>2026-04-03T16:41:23.329Z</time></trkpt><trkpt lat="37.4056039" lon="13.8816191"><ele>501.0</ele><time>2026-04-03T16:41:24.329Z</time></trkpt><trkpt lat="37.4055798" lon="13.881436"><ele>501.0</ele><time>2026-04-03T16:41:25.329Z</time></trkpt><trkpt lat="37.405556" lon="13.8812546"><ele>500.75</ele><time>2026-04-03T16:41:26.329Z</time></trkpt><trkpt lat="37.4055324" lon="13.8810727"><ele>500.5</ele><time>2026-04-03T16:41:27.329Z</time></trkpt><trkpt lat="37.4055097" lon="13.8808902"><ele>500.25</ele><time>2026-04-03T16:41:28.329Z</time></trkpt><trkpt lat="37.4054859" lon="13.8807067"><ele>500.0</ele><time>2026-04-03T16:41:29.329Z</time></trkpt><trkpt lat="37.4054617" lon="13.8805234"><ele>497.75</ele><time>2026-04-03T16:41:30.329Z</time></trkpt><trkpt lat="37.4054388" lon="13.8803386"><ele>495.5</ele><time>2026-04-03T16:41:31.329Z</time></trkpt><trkpt lat="37.4054144" lon="13.8801544"><ele>493.25</ele><time>2026-04-03T16:41:32.329Z</time></trkpt><trkpt lat="37.4053881" lon="13.8799707"><ele>491.0</ele><time>2026-04-03T16:41:33.329Z</time></trkpt><trkpt lat="37.4053625" lon="13.8797861"><ele>490.5</ele><time>2026-04-03T16:41:34.329Z</time></trkpt><trkpt lat="37.4053393" lon="13.8796018"><ele>490.0</ele><time>2026-04-03T16:41:35.329Z</time></trkpt><trkpt lat="37.4053167" lon="13.8794168"><ele>489.5</ele><time>2026-04-03T16:41:36.329Z</time></trkpt><trkpt lat="37.4052918" lon="13.8792328"><ele>489.0</ele><time>2026-04-03T16:41:37.329Z</time></trkpt><trkpt lat="37.4052682" lon="13.8790488"><ele>488.75</ele><time>2026-04-03T16:41:38.329Z</time></trkpt><trkpt lat="37.4052441" lon="13.8788642"><ele>488.5</ele><time>2026-04-03T16:41:39.329Z</time></trkpt><trkpt lat="37.4052198" lon="13.8786782"><ele>488.25</ele><time>2026-04-03T16:41:40.329Z</time></trkpt><trkpt lat="37.4051949" lon="13.8784925"><ele>488.0</ele><time>2026-04-03T16:41:41.329Z</time></trkpt><trkpt lat="37.4051706" lon="13.8783073"><ele>488.0</ele><time>2026-04-03T16:41:42.329Z</time></trkpt><trkpt lat="37.4051469" lon="13.8781223"><ele>488.0</ele><time>2026-04-03T16:41:43.329Z</time></trkpt><trkpt lat="37.4051218" lon="13.8779389"><ele>488.0</ele><time>2026-04-03T16:41:44.328Z</time></trkpt><trkpt lat="37.405097" lon="13.8777564"><ele>488.0</ele><time>2026-04-03T16:41:45.328Z</time></trkpt><trkpt lat="37.4050725" lon="13.8775743"><ele>489.25</ele><time>2026-04-03T16:41:46.329Z</time></trkpt><trkpt lat="37.4050494" lon="13.8773923"><ele>490.5</ele><time>2026-04-03T16:41:47.329Z</time></trkpt><trkpt lat="37.4050272" lon="13.8772111"><ele>491.75</ele><time>2026-04-03T16:41:48.329Z</time></trkpt><trkpt lat="37.4050048" lon="13.8770296"><ele>493.0</ele><time>2026-04-03T16:41:49.329Z</time></trkpt><trkpt lat="37.4049818" lon="13.8768487"><ele>494.5</ele><time>2026-04-03T16:41:50.329Z</time></trkpt><trkpt lat="37.404957" lon="13.8766685"><ele>496.0</ele><time>2026-04-03T16:41:51.329Z</time></trkpt><trkpt lat="37.4049327" lon="13.8764884"><ele>497.5</ele><time>2026-04-03T16:41:52.329Z</time></trkpt><trkpt lat="37.4049096" lon="13.8763091"><ele>499.0</ele><time>2026-04-03T16:41:53.329Z</time></trkpt><trkpt lat="37.404888" lon="13.8761299"><ele>499.0</ele><time>2026-04-03T16:41:54.329Z</time></trkpt><trkpt lat="37.4048653" lon="13.8759503"><ele>499.0</ele><time>2026-04-03T16:41:55.329Z</time></trkpt><trkpt lat="37.4048411" lon="13.875771"><ele>499.0</ele><time>2026-04-03T16:41:56.328Z</time></trkpt><trkpt lat="37.4048167" lon="13.8755908"><ele>499.0</ele><time>2026-04-03T16:41:57.328Z</time></trkpt><trkpt lat="37.4047924" lon="13.8754097"><ele>500.0</ele><time>2026-04-03T16:41:58.329Z</time></trkpt><trkpt lat="37.4047684" lon="13.8752283"><ele>501.0</ele><time>2026-04-03T16:41:59.329Z</time></trkpt><trkpt lat="37.4047443" lon="13.8750464"><ele>502.0</ele><time>2026-04-03T16:42:00.329Z</time></trkpt><trkpt lat="37.4047197" lon="13.8748642"><ele>503.0</ele><time>2026-04-03T16:42:01.329Z</time></trkpt><trkpt lat="37.4046952" lon="13.8746819"><ele>503.5</ele><time>2026-04-03T16:42:02.328Z</time></trkpt><trkpt lat="37.404671" lon="13.8744992"><ele>504.0</ele><time>2026-04-03T16:42:03.328Z</time></trkpt><trkpt lat="37.4046462" lon="13.8743161"><ele>504.5</ele><time>2026-04-03T16:42:04.329Z</time></trkpt><trkpt lat="37.4046213" lon="13.8741332"><ele>505.0</ele><time>2026-04-03T16:42:05.329Z</time></trkpt><trkpt lat="37.4045973" lon="13.8739505"><ele>503.5</ele><time>2026-04-03T16:42:06.329Z</time></trkpt><trkpt lat="37.4045736" lon="13.873769"><ele>502.0</ele><time>2026-04-03T16:42:07.329Z</time></trkpt><trkpt lat="37.4045503" lon="13.8735876"><ele>500.5</ele><time>2026-04-03T16:42:08.329Z</time></trkpt><trkpt lat="37.4045265" lon="13.8734052"><ele>499.0</ele><time>2026-04-03T16:42:09.329Z</time></trkpt><trkpt lat="37.4045021" lon="13.8732228"><ele>499.0</ele><time>2026-04-03T16:42:10.329Z</time></trkpt><trkpt lat="37.4044786" lon="13.8730403"><ele>499.0</ele><time>2026-04-03T16:42:11.329Z</time></trkpt><trkpt lat="37.4044552" lon="13.8728573"><ele>499.0</ele><time>2026-04-03T16:42:12.328Z</time></trkpt><trkpt lat="37.4044313" lon="13.872675"><ele>499.0</ele><time>2026-04-03T16:42:13.329Z</time></trkpt><trkpt lat="37.4044068" lon="13.8724944"><ele>498.75</ele><time>2026-04-03T16:42:14.329Z</time></trkpt><trkpt lat="37.404382" lon="13.8723154"><ele>498.5</ele><time>2026-04-03T16:42:15.329Z</time></trkpt><trkpt lat="37.404356" lon="13.8721366"><ele>498.25</ele><time>2026-04-03T16:42:16.329Z</time></trkpt><trkpt lat="37.4043288" lon="13.8719577"><ele>498.0</ele><time>2026-04-03T16:42:17.329Z</time></trkpt><trkpt lat="37.4042988" lon="13.8717793"><ele>498.25</ele><time>2026-04-03T16:42:18.328Z</time></trkpt><trkpt lat="37.4042658" lon="13.8716013"><ele>498.5</ele><time>2026-04-03T16:42:19.328Z</time></trkpt><trkpt lat="37.4042309" lon="13.8714232"><ele>498.75</ele><time>2026-04-03T16:42:20.329Z</time></trkpt><trkpt lat="37.4041933" lon="13.8712455"><ele>499.0</ele><time>2026-04-03T16:42:21.328Z</time></trkpt><trkpt lat="37.4041527" lon="13.8710679"><ele>499.5</ele><time>2026-04-03T16:42:22.329Z</time></trkpt><trkpt lat="37.4041093" lon="13.8708918"><ele>500.0</ele><time>2026-04-03T16:42:23.328Z</time></trkpt><trkpt lat="37.404062" lon="13.8707175"><ele>500.5</ele><time>2026-04-03T16:42:24.328Z</time></trkpt><trkpt lat="37.4040116" lon="13.8705428"><ele>501.0</ele><time>2026-04-03T16:42:25.328Z</time></trkpt><trkpt lat="37.403961" lon="13.8703685"><ele>501.0</ele><time>2026-04-03T16:42:26.329Z</time></trkpt><trkpt lat="37.4039081" lon="13.8701949"><ele>501.0</ele><time>2026-04-03T16:42:27.329Z</time></trkpt><trkpt lat="37.4038524" lon="13.8700219"><ele>501.0</ele><time>2026-04-03T16:42:28.329Z</time></trkpt><trkpt lat="37.403794" lon="13.8698498"><ele>501.0</ele><time>2026-04-03T16:42:29.329Z</time></trkpt><trkpt lat="37.4037327" lon="13.8696792"><ele>501.5</ele><time>2026-04-03T16:42:30.329Z</time></trkpt><trkpt lat="37.4036679" lon="13.869511"><ele>502.0</ele><time>2026-04-03T16:42:31.329Z</time></trkpt><trkpt lat="37.4036016" lon="13.8693447"><ele>502.5</ele><time>2026-04-03T16:42:32.329Z</time></trkpt><trkpt lat="37.4035328" lon="13.8691807"><ele>503.0</ele><time>2026-04-03T16:42:33.329Z</time></trkpt><trkpt lat="37.4034616" lon="13.8690182"><ele>503.0</ele><time>2026-04-03T16:42:34.329Z</time></trkpt><trkpt lat="37.4033891" lon="13.8688577"><ele>503.0</ele><time>2026-04-03T16:42:35.329Z</time></trkpt><trkpt lat="37.4033153" lon="13.8687005"><ele>503.0</ele><time>2026-04-03T16:42:36.329Z</time></trkpt><trkpt lat="37.4032407" lon="13.8685453"><ele>503.0</ele><time>2026-04-03T16:42:37.329Z</time></trkpt><trkpt lat="37.4031639" lon="13.8683928"><ele>502.75</ele><time>2026-04-03T16:42:38.329Z</time></trkpt><trkpt lat="37.4030853" lon="13.868242"><ele>502.5</ele><time>2026-04-03T16:42:39.329Z</time></trkpt><trkpt lat="37.4030048" lon="13.8680931"><ele>502.25</ele><time>2026-04-03T16:42:40.329Z</time></trkpt><trkpt lat="37.4029212" lon="13.8679463"><ele>502.0</ele><time>2026-04-03T16:42:41.328Z</time></trkpt><trkpt lat="37.4028347" lon="13.8678011"><ele>501.75</ele><time>2026-04-03T16:42:42.329Z</time></trkpt><trkpt lat="37.4027464" lon="13.8676565"><ele>501.5</ele><time>2026-04-03T16:42:43.329Z</time></trkpt><trkpt lat="37.4026567" lon="13.8675123"><ele>501.25</ele><time>2026-04-03T16:42:44.329Z</time></trkpt><trkpt lat="37.4025645" lon="13.8673705"><ele>501.0</ele><time>2026-04-03T16:42:45.329Z</time></trkpt><trkpt lat="37.4024693" lon="13.867231"><ele>501.0</ele><time>2026-04-03T16:42:46.329Z</time></trkpt><trkpt lat="37.4023721" lon="13.867093"><ele>501.0</ele><time>2026-04-03T16:42:47.329Z</time></trkpt><trkpt lat="37.402271" lon="13.8669586"><ele>501.0</ele><time>2026-04-03T16:42:48.329Z</time></trkpt><trkpt lat="37.4021682" lon="13.8668256"><ele>501.0</ele><time>2026-04-03T16:42:49.329Z</time></trkpt><trkpt lat="37.4020646" lon="13.8666926"><ele>501.0</ele><time>2026-04-03T16:42:50.329Z</time></trkpt><trkpt lat="37.4019608" lon="13.8665599"><ele>501.0</ele><time>2026-04-03T16:42:51.329Z</time></trkpt><trkpt lat="37.4018558" lon="13.8664287"><ele>501.0</ele><time>2026-04-03T16:42:52.329Z</time></trkpt><trkpt lat="37.4017489" lon="13.8662989"><ele>501.0</ele><time>2026-04-03T16:42:53.329Z</time></trkpt><trkpt lat="37.4016407" lon="13.8661701"><ele>501.0</ele><time>2026-04-03T16:42:54.329Z</time></trkpt><trkpt lat="37.4015317" lon="13.866041"><ele>501.0</ele><time>2026-04-03T16:42:55.329Z</time></trkpt><trkpt lat="37.401424" lon="13.8659113"><ele>501.0</ele><time>2026-04-03T16:42:56.329Z</time></trkpt><trkpt lat="37.4013179" lon="13.8657795"><ele>501.0</ele><time>2026-04-03T16:42:57.328Z</time></trkpt><trkpt lat="37.4012123" lon="13.8656474"><ele>501.0</ele><time>2026-04-03T16:42:58.329Z</time></trkpt><trkpt lat="37.4011075" lon="13.8655139"><ele>501.0</ele><time>2026-04-03T16:42:59.329Z</time></trkpt><trkpt lat="37.4010031" lon="13.8653794"><ele>501.0</ele><time>2026-04-03T16:43:00.329Z</time></trkpt><trkpt lat="37.400901" lon="13.8652411"><ele>501.0</ele><time>2026-04-03T16:43:01.329Z</time></trkpt><trkpt lat="37.4008011" lon="13.8651"><ele>501.0</ele><time>2026-04-03T16:43:02.329Z</time></trkpt><trkpt lat="37.400705" lon="13.8649556"><ele>501.0</ele><time>2026-04-03T16:43:03.329Z</time></trkpt><trkpt lat="37.4006104" lon="13.8648096"><ele>501.0</ele><time>2026-04-03T16:43:04.329Z</time></trkpt><trkpt lat="37.4005179" lon="13.8646617"><ele>501.0</ele><time>2026-04-03T16:43:05.329Z</time></trkpt><trkpt lat="37.4004263" lon="13.8645136"><ele>501.0</ele><time>2026-04-03T16:43:06.329Z</time></trkpt><trkpt lat="37.4003357" lon="13.8643647"><ele>501.0</ele><time>2026-04-03T16:43:07.329Z</time></trkpt><trkpt lat="37.400247" lon="13.8642137"><ele>501.0</ele><time>2026-04-03T16:43:08.329Z</time></trkpt><trkpt lat="37.4001605" lon="13.864061"><ele>501.0</ele><time>2026-04-03T16:43:09.329Z</time></trkpt><trkpt lat="37.4000766" lon="13.8639053"><ele>499.66666666666663</ele><time>2026-04-03T16:43:10.329Z</time></trkpt><trkpt lat="37.3999958" lon="13.8637465"><ele>498.3333333333333</ele><time>2026-04-03T16:43:11.329Z</time></trkpt><trkpt lat="37.399918" lon="13.8635849"><ele>497.0</ele><time>2026-04-03T16:43:12.328Z</time></trkpt><trkpt lat="37.3998424" lon="13.8634212"><ele>496.66666666666663</ele><time>2026-04-03T16:43:13.329Z</time></trkpt><trkpt lat="37.399768" lon="13.8632549"><ele>496.33333333333337</ele><time>2026-04-03T16:43:14.329Z</time></trkpt><trkpt lat="37.3996965" lon="13.863086"><ele>496.0</ele><time>2026-04-03T16:43:15.329Z</time></trkpt><trkpt lat="37.3996273" lon="13.8629149"><ele>497.33333333333337</ele><time>2026-04-03T16:43:16.328Z</time></trkpt><trkpt lat="37.3995598" lon="13.8627417"><ele>498.66666666666663</ele><time>2026-04-03T16:43:17.329Z</time></trkpt><trkpt lat="37.3994948" lon="13.8625665"><ele>500.0</ele><time>2026-04-03T16:43:18.329Z</time></trkpt><trkpt lat="37.3994321" lon="13.8623891"><ele>500.66666666666663</ele><time>2026-04-03T16:43:19.329Z</time></trkpt><trkpt lat="37.3993722" lon="13.8622101"><ele>501.33333333333337</ele><time>2026-04-03T16:43:20.329Z</time></trkpt><trkpt lat="37.3993155" lon="13.8620294"><ele>502.0</ele><time>2026-04-03T16:43:21.328Z</time></trkpt><trkpt lat="37.3992625" lon="13.8618453"><ele>500.6666666666667</ele><time>2026-04-03T16:43:22.329Z</time></trkpt><trkpt lat="37.3992108" lon="13.8616593"><ele>499.33333333333337</ele><time>2026-04-03T16:43:23.329Z</time></trkpt><trkpt lat="37.3991607" lon="13.8614732"><ele>498.0</ele><time>2026-04-03T16:43:24.329Z</time></trkpt><trkpt lat="37.3991164" lon="13.8612842"><ele>498.0</ele><time>2026-04-03T16:43:25.328Z</time></trkpt><trkpt lat="37.3990779" lon="13.8610921"><ele>498.0</ele><time>2026-04-03T16:43:26.329Z</time></trkpt><trkpt lat="37.399042" lon="13.8608991"><ele>498.0</ele><time>2026-04-03T16:43:27.329Z</time></trkpt><trkpt lat="37.3990112" lon="13.8607056"><ele>497.33333333333337</ele><time>2026-04-03T16:43:28.329Z</time></trkpt><trkpt lat="37.3989819" lon="13.8605138"><ele>496.6666666666667</ele><time>2026-04-03T16:43:29.329Z</time></trkpt><trkpt lat="37.3989512" lon="13.8603244"><ele>496.0</ele><time>2026-04-03T16:43:30.329Z</time></trkpt><trkpt lat="37.3989219" lon="13.8601372"><ele>495.75</ele><time>2026-04-03T16:43:31.329Z</time></trkpt><trkpt lat="37.3988951" lon="13.8599525"><ele>495.5</ele><time>2026-04-03T16:43:32.329Z</time></trkpt><trkpt lat="37.3988684" lon="13.859773"><ele>495.25</ele><time>2026-04-03T16:43:33.329Z</time></trkpt><trkpt lat="37.3988424" lon="13.8595992"><ele>495.0</ele><time>2026-04-03T16:43:34.329Z</time></trkpt><trkpt lat="37.3988179" lon="13.8594318"><ele>495.0</ele><time>2026-04-03T16:43:35.329Z</time></trkpt><trkpt lat="37.3987995" lon="13.8592737"><ele>495.0</ele><time>2026-04-03T16:43:36.329Z</time></trkpt><trkpt lat="37.3987915" lon="13.8591256"><ele>495.0</ele><time>2026-04-03T16:43:37.329Z</time></trkpt><trkpt lat="37.3987978" lon="13.8589814"><ele>495.0</ele><time>2026-04-03T16:43:38.329Z</time></trkpt><trkpt lat="37.3988225" lon="13.8588382"><ele>495.0</ele><time>2026-04-03T16:43:39.329Z</time></trkpt><trkpt lat="37.3988639" lon="13.8586975"><ele>495.0</ele><time>2026-04-03T16:43:40.329Z</time></trkpt><trkpt lat="37.3989259" lon="13.8585626"><ele>495.0</ele><time>2026-04-03T16:43:41.329Z</time></trkpt><trkpt lat="37.3990096" lon="13.8584442"><ele>495.0</ele><time>2026-04-03T16:43:42.329Z</time></trkpt><trkpt lat="37.3991123" lon="13.8583497"><ele>495.0</ele><time>2026-04-03T16:43:43.329Z</time></trkpt><trkpt lat="37.39923" lon="13.8582795"><ele>495.0</ele><time>2026-04-03T16:43:44.329Z</time></trkpt><trkpt lat="37.3993575" lon="13.8582348"><ele>495.0</ele><time>2026-04-03T16:43:45.329Z</time></trkpt><trkpt lat="37.3994898" lon="13.8582182"><ele>495.0</ele><time>2026-04-03T16:43:46.329Z</time></trkpt><trkpt lat="37.399622" lon="13.8582327"><ele>495.25</ele><time>2026-04-03T16:43:47.329Z</time></trkpt><trkpt lat="37.3997494" lon="13.8582789"><ele>495.5</ele><time>2026-04-03T16:43:48.329Z</time></trkpt><trkpt lat="37.3998654" lon="13.8583555"><ele>495.75</ele><time>2026-04-03T16:43:49.329Z</time></trkpt><trkpt lat="37.3999646" lon="13.8584611"><ele>496.0</ele><time>2026-04-03T16:43:50.329Z</time></trkpt><trkpt lat="37.4000438" lon="13.8585908"><ele>496.0</ele><time>2026-04-03T16:43:51.329Z</time></trkpt><trkpt lat="37.4001037" lon="13.8587376"><ele>496.0</ele><time>2026-04-03T16:43:52.329Z</time></trkpt><trkpt lat="37.4001461" lon="13.858896"><ele>496.0</ele><time>2026-04-03T16:43:53.329Z</time></trkpt><trkpt lat="37.4001674" lon="13.8590648"><ele>496.0</ele><time>2026-04-03T16:43:54.329Z</time></trkpt><trkpt lat="37.4001627" lon="13.8592394"><ele>495.75</ele><time>2026-04-03T16:43:55.328Z</time></trkpt><trkpt lat="37.4001302" lon="13.8594108"><ele>495.5</ele><time>2026-04-03T16:43:56.329Z</time></trkpt><trkpt lat="37.4000701" lon="13.8595676"><ele>495.25</ele><time>2026-04-03T16:43:57.328Z</time></trkpt><trkpt lat="37.3999919" lon="13.8597067"><ele>495.0</ele><time>2026-04-03T16:43:58.329Z</time></trkpt><trkpt lat="37.3999094" lon="13.8598337"><ele>495.0</ele><time>2026-04-03T16:43:59.329Z</time></trkpt><trkpt lat="37.3998292" lon="13.8599539"><ele>495.0</ele><time>2026-04-03T16:44:00.329Z</time></trkpt><trkpt lat="37.3997547" lon="13.8600609"><ele>495.0</ele><time>2026-04-03T16:44:01.329Z</time></trkpt><trkpt lat="37.3996854" lon="13.860141"><ele>495.0</ele><time>2026-04-03T16:44:02.329Z</time></trkpt><trkpt lat="37.3996185" lon="13.8601883"><ele>495.0</ele><time>2026-04-03T16:44:03.329Z</time></trkpt><trkpt lat="37.399548" lon="13.8602088"><ele>495.0</ele><time>2026-04-03T16:44:04.329Z</time></trkpt><trkpt lat="37.3994705" lon="13.8602212"><ele>495.0</ele><time>2026-04-03T16:44:05.329Z</time></trkpt><trkpt lat="37.3993868" lon="13.8602298"><ele>495.0</ele><time>2026-04-03T16:44:06.329Z</time></trkpt><trkpt lat="37.399299" lon="13.8602143"><ele>495.0</ele><time>2026-04-03T16:44:07.329Z</time></trkpt><trkpt lat="37.3992119" lon="13.8601638"><ele>495.0</ele><time>2026-04-03T16:44:08.329Z</time></trkpt><trkpt lat="37.3991273" lon="13.8600936"><ele>495.0</ele><time>2026-04-03T16:44:09.329Z</time></trkpt><trkpt lat="37.3990408" lon="13.8600226"><ele>495.0</ele><time>2026-04-03T16:44:10.329Z</time></trkpt><trkpt lat="37.3989531" lon="13.8599526"><ele>495.0</ele><time>2026-04-03T16:44:11.329Z</time></trkpt><trkpt lat="37.3988672" lon="13.8598834"><ele>495.0</ele><time>2026-04-03T16:44:12.329Z</time></trkpt><trkpt lat="37.3987901" lon="13.8598122"><ele>495.0</ele><time>2026-04-03T16:44:13.329Z</time></trkpt><trkpt lat="37.3987176" lon="13.8597417"><ele>495.0</ele><time>2026-04-03T16:44:14.329Z</time></trkpt><trkpt lat="37.3986484" lon="13.8596927"><ele>495.0</ele><time>2026-04-03T16:44:15.329Z</time></trkpt><trkpt lat="37.3985703" lon="13.8596333"><ele>495.0</ele><time>2026-04-03T16:44:16.329Z</time></trkpt><trkpt lat="37.3984974" lon="13.8595703"><ele>495.0</ele><time>2026-04-03T16:44:17.329Z</time></trkpt><trkpt lat="37.3984335" lon="13.8594967"><ele>495.0</ele><time>2026-04-03T16:44:18.329Z</time></trkpt><trkpt lat="37.3983852" lon="13.8594064"><ele>495.0</ele><time>2026-04-03T16:44:19.329Z</time></trkpt><trkpt lat="37.3983432" lon="13.8593067"><ele>495.0</ele><time>2026-04-03T16:44:20.329Z</time></trkpt><trkpt lat="37.3982951" lon="13.8592101"><ele>495.0</ele><time>2026-04-03T16:44:21.329Z</time></trkpt><trkpt lat="37.3982318" lon="13.8591262"><ele>495.0</ele><time>2026-04-03T16:44:22.329Z</time></trkpt><trkpt lat="37.3981553" lon="13.8590514"><ele>495.0</ele><time>2026-04-03T16:44:23.329Z</time></trkpt><trkpt lat="37.3980761" lon="13.8589734"><ele>495.0</ele><time>2026-04-03T16:44:24.329Z</time></trkpt><trkpt lat="37.3980062" lon="13.8588768"><ele>495.0</ele><time>2026-04-03T16:44:25.329Z</time></trkpt><trkpt lat="37.3979419" lon="13.8587631"><ele>495.25</ele><time>2026-04-03T16:44:26.329Z</time></trkpt><trkpt lat="37.3978738" lon="13.858651"><ele>495.5</ele><time>2026-04-03T16:44:27.328Z</time></trkpt><trkpt lat="37.3977967" lon="13.8585432"><ele>495.75</ele><time>2026-04-03T16:44:28.329Z</time></trkpt><trkpt lat="37.3977146" lon="13.8584355"><ele>496.0</ele><time>2026-04-03T16:44:29.329Z</time></trkpt><trkpt lat="37.3976312" lon="13.8583266"><ele>495.5</ele><time>2026-04-03T16:44:30.329Z</time></trkpt><trkpt lat="37.3975461" lon="13.8582155"><ele>495.0</ele><time>2026-04-03T16:44:31.328Z</time></trkpt><trkpt lat="37.3974596" lon="13.8581016"><ele>494.5</ele><time>2026-04-03T16:44:32.329Z</time></trkpt><trkpt lat="37.3973725" lon="13.8579858"><ele>494.0</ele><time>2026-04-03T16:44:33.329Z</time></trkpt><trkpt lat="37.3972838" lon="13.8578672"><ele>494.0</ele><time>2026-04-03T16:44:34.329Z</time></trkpt><trkpt lat="37.3971938" lon="13.8577465"><ele>494.0</ele><time>2026-04-03T16:44:35.329Z</time></trkpt><trkpt lat="37.3970996" lon="13.857627"><ele>494.0</ele><time>2026-04-03T16:44:36.329Z</time></trkpt><trkpt lat="37.3970031" lon="13.8575073"><ele>494.0</ele><time>2026-04-03T16:44:37.329Z</time></trkpt><trkpt lat="37.3969062" lon="13.8573848"><ele>494.5</ele><time>2026-04-03T16:44:38.329Z</time></trkpt><trkpt lat="37.3968075" lon="13.8572634"><ele>495.0</ele><time>2026-04-03T16:44:39.329Z</time></trkpt><trkpt lat="37.3967064" lon="13.8571453"><ele>495.5</ele><time>2026-04-03T16:44:40.329Z</time></trkpt><trkpt lat="37.3966011" lon="13.8570307"><ele>496.0</ele><time>2026-04-03T16:44:41.329Z</time></trkpt><trkpt lat="37.3964919" lon="13.8569197"><ele>496.0</ele><time>2026-04-03T16:44:42.329Z</time></trkpt><trkpt lat="37.3963824" lon="13.8568111"><ele>496.0</ele><time>2026-04-03T16:44:43.329Z</time></trkpt><trkpt lat="37.3962751" lon="13.8567027"><ele>496.0</ele><time>2026-04-03T16:44:44.329Z</time></trkpt><trkpt lat="37.3961683" lon="13.8565933"><ele>496.0</ele><time>2026-04-03T16:44:45.329Z</time></trkpt><trkpt lat="37.3960609" lon="13.8564836"><ele>496.25</ele><time>2026-04-03T16:44:46.329Z</time></trkpt><trkpt lat="37.3959513" lon="13.8563754"><ele>496.5</ele><time>2026-04-03T16:44:47.329Z</time></trkpt><trkpt lat="37.3958406" lon="13.8562685"><ele>496.75</ele><time>2026-04-03T16:44:48.328Z</time></trkpt><trkpt lat="37.3957293" lon="13.8561606"><ele>497.0</ele><time>2026-04-03T16:44:49.329Z</time></trkpt><trkpt lat="37.3956176" lon="13.8560526"><ele>497.25</ele><time>2026-04-03T16:44:50.329Z</time></trkpt><trkpt lat="37.3955059" lon="13.8559428"><ele>497.5</ele><time>2026-04-03T16:44:51.329Z</time></trkpt><trkpt lat="37.3953946" lon="13.8558325"><ele>497.75</ele><time>2026-04-03T16:44:52.329Z</time></trkpt><trkpt lat="37.3952812" lon="13.8557238"><ele>498.0</ele><time>2026-04-03T16:44:53.328Z</time></trkpt><trkpt lat="37.3951673" lon="13.8556143"><ele>498.0</ele><time>2026-04-03T16:44:54.329Z</time></trkpt><trkpt lat="37.3950531" lon="13.8555052"><ele>498.0</ele><time>2026-04-03T16:44:55.329Z</time></trkpt><trkpt lat="37.3949388" lon="13.8553967"><ele>498.0</ele><time>2026-04-03T16:44:56.329Z</time></trkpt><trkpt lat="37.394824" lon="13.8552899"><ele>498.0</ele><time>2026-04-03T16:44:57.329Z</time></trkpt><trkpt lat="37.3947101" lon="13.8551818"><ele>497.75</ele><time>2026-04-03T16:44:58.329Z</time></trkpt><trkpt lat="37.3945982" lon="13.8550701"><ele>497.5</ele><time>2026-04-03T16:44:59.329Z</time></trkpt><trkpt lat="37.3944852" lon="13.8549577"><ele>497.25</ele><time>2026-04-03T16:45:00.329Z</time></trkpt><trkpt lat="37.3943724" lon="13.8548452"><ele>497.0</ele><time>2026-04-03T16:45:01.329Z</time></trkpt><trkpt lat="37.3942592" lon="13.8547331"><ele>497.0</ele><time>2026-04-03T16:45:02.329Z</time></trkpt><trkpt lat="37.3941466" lon="13.8546224"><ele>497.0</ele><time>2026-04-03T16:45:03.329Z</time></trkpt><trkpt lat="37.394035" lon="13.8545126"><ele>497.0</ele><time>2026-04-03T16:45:04.329Z</time></trkpt><trkpt lat="37.3939231" lon="13.8544035"><ele>497.0</ele><time>2026-04-03T16:45:05.329Z</time></trkpt><trkpt lat="37.3938101" lon="13.8542956"><ele>496.5</ele><time>2026-04-03T16:45:06.329Z</time></trkpt><trkpt lat="37.3936976" lon="13.8541864"><ele>496.0</ele><time>2026-04-03T16:45:07.329Z</time></trkpt><trkpt lat="37.393585" lon="13.8540765"><ele>495.5</ele><time>2026-04-03T16:45:08.329Z</time></trkpt><trkpt lat="37.3934726" lon="13.853964"><ele>495.0</ele><time>2026-04-03T16:45:09.329Z</time></trkpt><trkpt lat="37.3933598" lon="13.8538523"><ele>495.0</ele><time>2026-04-03T16:45:10.329Z</time></trkpt><trkpt lat="37.3932452" lon="13.8537406"><ele>495.0</ele><time>2026-04-03T16:45:11.329Z</time></trkpt><trkpt lat="37.3931305" lon="13.8536304"><ele>495.0</ele><time>2026-04-03T16:45:12.328Z</time></trkpt><trkpt lat="37.393016" lon="13.8535206"><ele>495.0</ele><time>2026-04-03T16:45:13.329Z</time></trkpt><trkpt lat="37.3929023" lon="13.8534098"><ele>495.25</ele><time>2026-04-03T16:45:14.329Z</time></trkpt><trkpt lat="37.3927893" lon="13.8532985"><ele>495.5</ele><time>2026-04-03T16:45:15.329Z</time></trkpt><trkpt lat="37.3926746" lon="13.8531887"><ele>495.75</ele><time>2026-04-03T16:45:16.329Z</time></trkpt><trkpt lat="37.3925603" lon="13.8530776"><ele>496.0</ele><time>2026-04-03T16:45:17.329Z</time></trkpt><trkpt lat="37.3924464" lon="13.8529658"><ele>496.0</ele><time>2026-04-03T16:45:18.329Z</time></trkpt><trkpt lat="37.3923317" lon="13.8528557"><ele>496.0</ele><time>2026-04-03T16:45:19.329Z</time></trkpt><trkpt lat="37.3922174" lon="13.852744"><ele>496.0</ele><time>2026-04-03T16:45:20.329Z</time></trkpt><trkpt lat="37.3921026" lon="13.8526303"><ele>496.0</ele><time>2026-04-03T16:45:21.329Z</time></trkpt><trkpt lat="37.3919862" lon="13.852518"><ele>496.5</ele><time>2026-04-03T16:45:22.329Z</time></trkpt><trkpt lat="37.3918688" lon="13.8524051"><ele>497.0</ele><time>2026-04-03T16:45:23.329Z</time></trkpt><trkpt lat="37.3917511" lon="13.8522916"><ele>497.5</ele><time>2026-04-03T16:45:24.329Z</time></trkpt><trkpt lat="37.3916335" lon="13.8521771"><ele>498.0</ele><time>2026-04-03T16:45:25.329Z</time></trkpt><trkpt lat="37.3915154" lon="13.8520609"><ele>498.0</ele><time>2026-04-03T16:45:26.328Z</time></trkpt><trkpt lat="37.3913967" lon="13.8519453"><ele>498.0</ele><time>2026-04-03T16:45:27.329Z</time></trkpt><trkpt lat="37.3912784" lon="13.8518289"><ele>498.0</ele><time>2026-04-03T16:45:28.329Z</time></trkpt><trkpt lat="37.3911601" lon="13.8517132"><ele>499.0</ele><time>2026-04-03T16:45:29.329Z</time></trkpt><trkpt lat="37.3910404" lon="13.8515994"><ele>500.0</ele><time>2026-04-03T16:45:30.329Z</time></trkpt><trkpt lat="37.3909214" lon="13.8514861"><ele>501.0</ele><time>2026-04-03T16:45:31.329Z</time></trkpt><trkpt lat="37.3908024" lon="13.8513732"><ele>502.0</ele><time>2026-04-03T16:45:32.329Z</time></trkpt><trkpt lat="37.3906837" lon="13.8512611"><ele>502.0</ele><time>2026-04-03T16:45:33.329Z</time></trkpt><trkpt lat="37.3905668" lon="13.8511467"><ele>502.0</ele><time>2026-04-03T16:45:34.329Z</time></trkpt><trkpt lat="37.390452" lon="13.8510309"><ele>502.0</ele><time>2026-04-03T16:45:35.329Z</time></trkpt><trkpt lat="37.3903368" lon="13.8509149"><ele>502.0</ele><time>2026-04-03T16:45:36.328Z</time></trkpt><trkpt lat="37.3902202" lon="13.8507995"><ele>502.25</ele><time>2026-04-03T16:45:37.329Z</time></trkpt><trkpt lat="37.3901033" lon="13.8506855"><ele>502.5</ele><time>2026-04-03T16:45:38.329Z</time></trkpt><trkpt lat="37.3899859" lon="13.8505711"><ele>502.75</ele><time>2026-04-03T16:45:39.328Z</time></trkpt><trkpt lat="37.3898687" lon="13.8504581"><ele>503.0</ele><time>2026-04-03T16:45:40.329Z</time></trkpt><trkpt lat="37.3897517" lon="13.8503456"><ele>504.25</ele><time>2026-04-03T16:45:41.329Z</time></trkpt><trkpt lat="37.3896352" lon="13.8502322"><ele>505.5</ele><time>2026-04-03T16:45:42.329Z</time></trkpt><trkpt lat="37.3895195" lon="13.8501196"><ele>506.75</ele><time>2026-04-03T16:45:43.328Z</time></trkpt><trkpt lat="37.3894046" lon="13.8500082"><ele>508.0</ele><time>2026-04-03T16:45:44.329Z</time></trkpt><trkpt lat="37.3892903" lon="13.8498964"><ele>508.0</ele><time>2026-04-03T16:45:45.329Z</time></trkpt><trkpt lat="37.3891761" lon="13.8497849"><ele>508.0</ele><time>2026-04-03T16:45:46.329Z</time></trkpt><trkpt lat="37.3890619" lon="13.8496728"><ele>508.0</ele><time>2026-04-03T16:45:47.329Z</time></trkpt><trkpt lat="37.3889478" lon="13.8495596"><ele>508.0</ele><time>2026-04-03T16:45:48.329Z</time></trkpt><trkpt lat="37.3888334" lon="13.8494479"><ele>509.0</ele><time>2026-04-03T16:45:49.328Z</time></trkpt><trkpt lat="37.3887197" lon="13.8493359"><ele>510.0</ele><time>2026-04-03T16:45:50.329Z</time></trkpt><trkpt lat="37.3886043" lon="13.8492242"><ele>511.0</ele><time>2026-04-03T16:45:51.329Z</time></trkpt><trkpt lat="37.3884887" lon="13.8491131"><ele>512.0</ele><time>2026-04-03T16:45:52.329Z</time></trkpt><trkpt lat="37.388374" lon="13.8490019"><ele>512.0</ele><time>2026-04-03T16:45:53.329Z</time></trkpt><trkpt lat="37.3882595" lon="13.8488909"><ele>512.0</ele><time>2026-04-03T16:45:54.329Z</time></trkpt><trkpt lat="37.3881449" lon="13.8487795"><ele>512.0</ele><time>2026-04-03T16:45:55.329Z</time></trkpt><trkpt lat="37.3880302" lon="13.8486679"><ele>512.0</ele><time>2026-04-03T16:45:56.329Z</time></trkpt><trkpt lat="37.3879165" lon="13.848556"><ele>513.25</ele><time>2026-04-03T16:45:57.329Z</time></trkpt><trkpt lat="37.387802" lon="13.8484443"><ele>514.5</ele><time>2026-04-03T16:45:58.329Z</time></trkpt><trkpt lat="37.3876881" lon="13.8483325"><ele>515.75</ele><time>2026-04-03T16:45:59.329Z</time></trkpt><trkpt lat="37.387573" lon="13.8482225"><ele>517.0</ele><time>2026-04-03T16:46:00.329Z</time></trkpt><trkpt lat="37.3874584" lon="13.8481121"><ele>517.0</ele><time>2026-04-03T16:46:01.329Z</time></trkpt><trkpt lat="37.3873443" lon="13.8480015"><ele>517.0</ele><time>2026-04-03T16:46:02.329Z</time></trkpt><trkpt lat="37.3872304" lon="13.8478908"><ele>517.0</ele><time>2026-04-03T16:46:03.329Z</time></trkpt><trkpt lat="37.3871165" lon="13.8477806"><ele>517.0</ele><time>2026-04-03T16:46:04.329Z</time></trkpt><trkpt lat="37.3870025" lon="13.8476697"><ele>518.0</ele><time>2026-04-03T16:46:05.329Z</time></trkpt><trkpt lat="37.3868892" lon="13.8475571"><ele>519.0</ele><time>2026-04-03T16:46:06.329Z</time></trkpt><trkpt lat="37.3867747" lon="13.8474475"><ele>520.0</ele><time>2026-04-03T16:46:07.329Z</time></trkpt><trkpt lat="37.3866563" lon="13.8473437"><ele>521.0</ele><time>2026-04-03T16:46:08.329Z</time></trkpt><trkpt lat="37.3865338" lon="13.8472466"><ele>521.0</ele><time>2026-04-03T16:46:09.328Z</time></trkpt><trkpt lat="37.3864064" lon="13.8471592"><ele>521.0</ele><time>2026-04-03T16:46:10.329Z</time></trkpt><trkpt lat="37.3862762" lon="13.8470799"><ele>521.0</ele><time>2026-04-03T16:46:11.329Z</time></trkpt><trkpt lat="37.3861428" lon="13.8470091"><ele>521.0</ele><time>2026-04-03T16:46:12.329Z</time></trkpt><trkpt lat="37.3860062" lon="13.846946"><ele>521.25</ele><time>2026-04-03T16:46:13.329Z</time></trkpt><trkpt lat="37.3858662" lon="13.8468901"><ele>521.5</ele><time>2026-04-03T16:46:14.329Z</time></trkpt><trkpt lat="37.3857227" lon="13.8468456"><ele>521.75</ele><time>2026-04-03T16:46:15.329Z</time></trkpt><trkpt lat="37.3855768" lon="13.8468104"><ele>522.0</ele><time>2026-04-03T16:46:16.329Z</time></trkpt><trkpt lat="37.3854289" lon="13.8467829"><ele>524.0</ele><time>2026-04-03T16:46:17.329Z</time></trkpt><trkpt lat="37.3852787" lon="13.8467638"><ele>526.0</ele><time>2026-04-03T16:46:18.329Z</time></trkpt><trkpt lat="37.385127" lon="13.8467528"><ele>528.0</ele><time>2026-04-03T16:46:19.329Z</time></trkpt><trkpt lat="37.3849736" lon="13.8467454"><ele>528.0</ele><time>2026-04-03T16:46:20.329Z</time></trkpt><trkpt lat="37.3848184" lon="13.8467363"><ele>528.0</ele><time>2026-04-03T16:46:21.329Z</time></trkpt><trkpt lat="37.3846616" lon="13.8467266"><ele>528.0</ele><time>2026-04-03T16:46:22.329Z</time></trkpt><trkpt lat="37.3845039" lon="13.846717"><ele>528.3333333333334</ele><time>2026-04-03T16:46:23.329Z</time></trkpt><trkpt lat="37.3843472" lon="13.8467089"><ele>528.6666666666667</ele><time>2026-04-03T16:46:24.328Z</time></trkpt><trkpt lat="37.3841922" lon="13.8467007"><ele>529.0</ele><time>2026-04-03T16:46:25.329Z</time></trkpt><trkpt lat="37.3840385" lon="13.8466913"><ele>529.0</ele><time>2026-04-03T16:46:26.329Z</time></trkpt><trkpt lat="37.3838859" lon="13.8466797"><ele>529.0</ele><time>2026-04-03T16:46:27.329Z</time></trkpt><trkpt lat="37.3837334" lon="13.8466689"><ele>529.0</ele><time>2026-04-03T16:46:28.329Z</time></trkpt><trkpt lat="37.3835808" lon="13.8466578"><ele>528.6666666666667</ele><time>2026-04-03T16:46:29.329Z</time></trkpt><trkpt lat="37.3834282" lon="13.8466478"><ele>528.3333333333334</ele><time>2026-04-03T16:46:30.329Z</time></trkpt><trkpt lat="37.3832753" lon="13.8466403"><ele>528.0</ele><time>2026-04-03T16:46:31.329Z</time></trkpt><trkpt lat="37.383122" lon="13.8466329"><ele>528.3333333333334</ele><time>2026-04-03T16:46:32.329Z</time></trkpt><trkpt lat="37.3829675" lon="13.8466247"><ele>528.6666666666667</ele><time>2026-04-03T16:46:33.329Z</time></trkpt><trkpt lat="37.3828131" lon="13.8466152"><ele>529.0</ele><time>2026-04-03T16:46:34.329Z</time></trkpt><trkpt lat="37.3826582" lon="13.8466037"><ele>529.0</ele><time>2026-04-03T16:46:35.329Z</time></trkpt><trkpt lat="37.3825043" lon="13.8465939"><ele>529.0</ele><time>2026-04-03T16:46:36.329Z</time></trkpt><trkpt lat="37.3823511" lon="13.8465865"><ele>529.0</ele><time>2026-04-03T16:46:37.329Z</time></trkpt><trkpt lat="37.3821978" lon="13.8465784"><ele>528.6666666666667</ele><time>2026-04-03T16:46:38.329Z</time></trkpt><trkpt lat="37.3820443" lon="13.8465701"><ele>528.3333333333334</ele><time>2026-04-03T16:46:39.329Z</time></trkpt><trkpt lat="37.3818917" lon="13.8465615"><ele>528.0</ele><time>2026-04-03T16:46:40.329Z</time></trkpt><trkpt lat="37.3817404" lon="13.8465524"><ele>528.0</ele><time>2026-04-03T16:46:41.329Z</time></trkpt><trkpt lat="37.3815896" lon="13.8465418"><ele>528.0</ele><time>2026-04-03T16:46:42.328Z</time></trkpt><trkpt lat="37.3814399" lon="13.8465312"><ele>528.0</ele><time>2026-04-03T16:46:43.329Z</time></trkpt><trkpt lat="37.3812913" lon="13.8465208"><ele>527.75</ele><time>2026-04-03T16:46:44.329Z</time></trkpt><trkpt lat="37.3811427" lon="13.8465109"><ele>527.5</ele><time>2026-04-03T16:46:45.329Z</time></trkpt><trkpt lat="37.3809951" lon="13.8465007"><ele>527.25</ele><time>2026-04-03T16:46:46.329Z</time></trkpt><trkpt lat="37.3808472" lon="13.8464918"><ele>527.0</ele><time>2026-04-03T16:46:47.329Z</time></trkpt><trkpt lat="37.3806993" lon="13.8464828"><ele>527.0</ele><time>2026-04-03T16:46:48.329Z</time></trkpt><trkpt lat="37.3805521" lon="13.8464731"><ele>527.0</ele><time>2026-04-03T16:46:49.329Z</time></trkpt><trkpt lat="37.3804043" lon="13.8464654"><ele>527.0</ele><time>2026-04-03T16:46:50.329Z</time></trkpt><trkpt lat="37.3802562" lon="13.846458"><ele>527.0</ele><time>2026-04-03T16:46:51.329Z</time></trkpt><trkpt lat="37.3801074" lon="13.84645"><ele>526.3333333333333</ele><time>2026-04-03T16:46:52.329Z</time></trkpt><trkpt lat="37.3799582" lon="13.8464418"><ele>525.6666666666666</ele><time>2026-04-03T16:46:53.329Z</time></trkpt><trkpt lat="37.3798081" lon="13.8464322"><ele>525.0</ele><time>2026-04-03T16:46:54.329Z</time></trkpt><trkpt lat="37.3796577" lon="13.8464216"><ele>525.0</ele><time>2026-04-03T16:46:55.329Z</time></trkpt><trkpt lat="37.3795074" lon="13.8464138"><ele>525.0</ele><time>2026-04-03T16:46:56.329Z</time></trkpt><trkpt lat="37.3793566" lon="13.8464059"><ele>525.0</ele><time>2026-04-03T16:46:57.328Z</time></trkpt><trkpt lat="37.3792057" lon="13.8463982"><ele>525.0</ele><time>2026-04-03T16:46:58.329Z</time></trkpt><trkpt lat="37.3790546" lon="13.8463899"><ele>525.0</ele><time>2026-04-03T16:46:59.329Z</time></trkpt><trkpt lat="37.3789038" lon="13.8463814"><ele>525.0</ele><time>2026-04-03T16:47:00.329Z</time></trkpt><trkpt lat="37.3787521" lon="13.846375"><ele>524.6666666666666</ele><time>2026-04-03T16:47:01.329Z</time></trkpt><trkpt lat="37.3785992" lon="13.8463733"><ele>524.3333333333333</ele><time>2026-04-03T16:47:02.329Z</time></trkpt><trkpt lat="37.378447" lon="13.8463781"><ele>524.0</ele><time>2026-04-03T16:47:03.329Z</time></trkpt><trkpt lat="37.3782948" lon="13.8463883"><ele>524.0</ele><time>2026-04-03T16:47:04.329Z</time></trkpt><trkpt lat="37.3781416" lon="13.8464021"><ele>524.0</ele><time>2026-04-03T16:47:05.329Z</time></trkpt><trkpt lat="37.3779895" lon="13.8464191"><ele>524.0</ele><time>2026-04-03T16:47:06.329Z</time></trkpt><trkpt lat="37.3778385" lon="13.8464419"><ele>522.0</ele><time>2026-04-03T16:47:07.329Z</time></trkpt><trkpt lat="37.3776888" lon="13.846469"><ele>520.0</ele><time>2026-04-03T16:47:08.328Z</time></trkpt><trkpt lat="37.3775407" lon="13.8464997"><ele>518.0</ele><time>2026-04-03T16:47:09.329Z</time></trkpt><trkpt lat="37.3773933" lon="13.8465328"><ele>518.0</ele><time>2026-04-03T16:47:10.329Z</time></trkpt><trkpt lat="37.3772461" lon="13.8465663"><ele>518.0</ele><time>2026-04-03T16:47:11.329Z</time></trkpt><trkpt lat="37.3770983" lon="13.8466022"><ele>518.0</ele><time>2026-04-03T16:47:12.329Z</time></trkpt><trkpt lat="37.3769497" lon="13.8466418"><ele>517.25</ele><time>2026-04-03T16:47:13.329Z</time></trkpt><trkpt lat="37.376802" lon="13.8466823"><ele>516.5</ele><time>2026-04-03T16:47:14.329Z</time></trkpt><trkpt lat="37.3766565" lon="13.8467215"><ele>515.75</ele><time>2026-04-03T16:47:15.329Z</time></trkpt><trkpt lat="37.3765132" lon="13.8467583"><ele>515.0</ele><time>2026-04-03T16:47:16.329Z</time></trkpt><trkpt lat="37.3763734" lon="13.8467984"><ele>514.75</ele><time>2026-04-03T16:47:17.329Z</time></trkpt><trkpt lat="37.3762355" lon="13.8468435"><ele>514.5</ele><time>2026-04-03T16:47:18.328Z</time></trkpt><trkpt lat="37.3761012" lon="13.8468927"><ele>514.25</ele><time>2026-04-03T16:47:19.329Z</time></trkpt><trkpt lat="37.3759671" lon="13.8469435"><ele>514.0</ele><time>2026-04-03T16:47:20.329Z</time></trkpt><trkpt lat="37.3758328" lon="13.8469954"><ele>514.0</ele><time>2026-04-03T16:47:21.329Z</time></trkpt><trkpt lat="37.3756997" lon="13.8470455"><ele>514.0</ele><time>2026-04-03T16:47:22.329Z</time></trkpt><trkpt lat="37.3755677" lon="13.8470922"><ele>514.0</ele><time>2026-04-03T16:47:23.329Z</time></trkpt><trkpt lat="37.3754369" lon="13.8471374"><ele>514.0</ele><time>2026-04-03T16:47:24.329Z</time></trkpt><trkpt lat="37.3753052" lon="13.8471878"><ele>512.0</ele><time>2026-04-03T16:47:25.329Z</time></trkpt><trkpt lat="37.375173" lon="13.8472527"><ele>510.0</ele><time>2026-04-03T16:47:26.329Z</time></trkpt><trkpt lat="37.3750437" lon="13.8473312"><ele>508.0</ele><time>2026-04-03T16:47:27.329Z</time></trkpt><trkpt lat="37.3749173" lon="13.8474191"><ele>506.0</ele><time>2026-04-03T16:47:28.328Z</time></trkpt><trkpt lat="37.3747945" lon="13.8475156"><ele>504.75</ele><time>2026-04-03T16:47:29.329Z</time></trkpt><trkpt lat="37.3746746" lon="13.8476215"><ele>503.5</ele><time>2026-04-03T16:47:30.329Z</time></trkpt><trkpt lat="37.3745592" lon="13.8477368"><ele>502.25</ele><time>2026-04-03T16:47:31.329Z</time></trkpt><trkpt lat="37.3744509" lon="13.8478611"><ele>501.0</ele><time>2026-04-03T16:47:32.329Z</time></trkpt><trkpt lat="37.3743514" lon="13.8479925"><ele>501.0</ele><time>2026-04-03T16:47:33.329Z</time></trkpt><trkpt lat="37.3742583" lon="13.8481268"><ele>501.0</ele><time>2026-04-03T16:47:34.329Z</time></trkpt><trkpt lat="37.3741676" lon="13.8482601"><ele>501.0</ele><time>2026-04-03T16:47:35.329Z</time></trkpt><trkpt lat="37.374078" lon="13.8483918"><ele>501.0</ele><time>2026-04-03T16:47:36.329Z</time></trkpt><trkpt lat="37.373984" lon="13.8485131"><ele>500.25</ele><time>2026-04-03T16:47:37.329Z</time></trkpt><trkpt lat="37.3738841" lon="13.848625"><ele>499.5</ele><time>2026-04-03T16:47:38.329Z</time></trkpt><trkpt lat="37.3737811" lon="13.8487352"><ele>498.75</ele><time>2026-04-03T16:47:39.329Z</time></trkpt><trkpt lat="37.3736788" lon="13.8488505"><ele>498.0</ele><time>2026-04-03T16:47:40.329Z</time></trkpt><trkpt lat="37.373581" lon="13.8489755"><ele>498.0</ele><time>2026-04-03T16:47:41.329Z</time></trkpt><trkpt lat="37.3734937" lon="13.8491117"><ele>498.0</ele><time>2026-04-03T16:47:42.329Z</time></trkpt><trkpt lat="37.3734193" lon="13.8492548"><ele>498.0</ele><time>2026-04-03T16:47:43.329Z</time></trkpt><trkpt lat="37.373353" lon="13.8493961"><ele>498.0</ele><time>2026-04-03T16:47:44.329Z</time></trkpt><trkpt lat="37.3732921" lon="13.849524"><ele>498.5</ele><time>2026-04-03T16:47:45.328Z</time></trkpt><trkpt lat="37.3732404" lon="13.8496342"><ele>499.0</ele><time>2026-04-03T16:47:46.329Z</time></trkpt><trkpt lat="37.3731959" lon="13.8497274"><ele>499.5</ele><time>2026-04-03T16:47:47.329Z</time></trkpt><trkpt lat="37.3731508" lon="13.8498089"><ele>500.0</ele><time>2026-04-03T16:47:48.329Z</time></trkpt><trkpt lat="37.3730967" lon="13.8498732"><ele>500.5</ele><time>2026-04-03T16:47:49.329Z</time></trkpt><trkpt lat="37.3730284" lon="13.8499141"><ele>501.0</ele><time>2026-04-03T16:47:50.329Z</time></trkpt><trkpt lat="37.3729515" lon="13.8499307"><ele>499.3333333333333</ele><time>2026-04-03T16:47:51.329Z</time></trkpt><trkpt lat="37.3728733" lon="13.8499438"><ele>497.66666666666663</ele><time>2026-04-03T16:47:52.329Z</time></trkpt><trkpt lat="37.3727975" lon="13.849928"><ele>496.0</ele><time>2026-04-03T16:47:53.329Z</time></trkpt><trkpt lat="37.3727309" lon="13.8499165"><ele>494.3333333333333</ele><time>2026-04-03T16:47:54.329Z</time></trkpt><trkpt lat="37.372613" lon="13.8499167"><ele>492.66666666666663</ele><time>2026-04-03T16:47:56.329Z</time></trkpt><trkpt lat="37.3725553" lon="13.8499513"><ele>491.0</ele><time>2026-04-03T16:47:57.328Z</time></trkpt><trkpt lat="37.3725108" lon="13.8500125"><ele>490.99999999999994</ele><time>2026-04-03T16:47:58.329Z</time></trkpt><trkpt lat="37.3724716" lon="13.8500844"><ele>491.0</ele><time>2026-04-03T16:47:59.329Z</time></trkpt><trkpt lat="37.3724266" lon="13.8501589"><ele>491.0</ele><time>2026-04-03T16:48:00.329Z</time></trkpt><trkpt lat="37.3723722" lon="13.8502322"><ele>491.0</ele><time>2026-04-03T16:48:01.329Z</time></trkpt><trkpt lat="37.3723083" lon="13.8503066"><ele>490.99999999999994</ele><time>2026-04-03T16:48:02.329Z</time></trkpt><trkpt lat="37.3722416" lon="13.8503851"><ele>491.0</ele><time>2026-04-03T16:48:03.329Z</time></trkpt><trkpt lat="37.3721694" lon="13.8504684"><ele>489.8</ele><time>2026-04-03T16:48:04.329Z</time></trkpt><trkpt lat="37.3720932" lon="13.8505523"><ele>488.6</ele><time>2026-04-03T16:48:05.329Z</time></trkpt><trkpt lat="37.3720157" lon="13.8506379"><ele>487.4</ele><time>2026-04-03T16:48:06.329Z</time></trkpt><trkpt lat="37.3719359" lon="13.8507275"><ele>486.2</ele><time>2026-04-03T16:48:07.329Z</time></trkpt><trkpt lat="37.3718514" lon="13.8508188"><ele>485.0</ele><time>2026-04-03T16:48:08.329Z</time></trkpt><trkpt lat="37.3717649" lon="13.8509106"><ele>486.25</ele><time>2026-04-03T16:48:09.329Z</time></trkpt><trkpt lat="37.371678" lon="13.8510027"><ele>487.5</ele><time>2026-04-03T16:48:10.329Z</time></trkpt><trkpt lat="37.3715918" lon="13.8510939"><ele>488.75</ele><time>2026-04-03T16:48:11.329Z</time></trkpt><trkpt lat="37.3715044" lon="13.8511836"><ele>490.0</ele><time>2026-04-03T16:48:12.329Z</time></trkpt><trkpt lat="37.371416" lon="13.8512739"><ele>487.5</ele><time>2026-04-03T16:48:13.329Z</time></trkpt><trkpt lat="37.3713271" lon="13.8513619"><ele>485.0</ele><time>2026-04-03T16:48:14.329Z</time></trkpt><trkpt lat="37.371236" lon="13.8514463"><ele>482.5</ele><time>2026-04-03T16:48:15.329Z</time></trkpt><trkpt lat="37.3711436" lon="13.8515263"><ele>480.0</ele><time>2026-04-03T16:48:16.329Z</time></trkpt><trkpt lat="37.3710499" lon="13.8516037"><ele>480.0</ele><time>2026-04-03T16:48:17.329Z</time></trkpt><trkpt lat="37.3709561" lon="13.8516804"><ele>480.0</ele><time>2026-04-03T16:48:18.329Z</time></trkpt></trkseg></trk></gpx>